<?xml version="1.0" encoding="UTF-8" standalone="no" ?>
<gpx xmlns="http://www.topografix.com/GPX/1/1" xmlns:xsi="http://www.w3.org/2001/XMLSchema-instance" xsi:schemaLocation="http://www.topografix.com/GPX/1/1 http://www.topografix.com/GPX/1/1/gpx.xsd" version="1.1" creator="VisuGPX - https://www.visugpx.com">
  <metadata>
    <name>Divonne-les-Bains Cyclisme</name>
    <desc><![CDATA[Col de la Faucille]]></desc>
  </metadata>
  <trk>
    <name><![CDATA[Divonne-les-Bains Cyclisme]]></name>
    <trkseg>
      <trkpt lat="46.34777" lon="6.13733">
        <ele>471</ele>
        <time>2019-10-05T12:45:57.000Z</time>
      </trkpt>
      <trkpt lat="46.34778" lon="6.13734">
        <ele>471</ele>
        <time>2019-10-05T12:46:06.000Z</time>
      </trkpt>
      <trkpt lat="46.3478" lon="6.13737">
        <ele>470.79998779297</ele>
        <time>2019-10-05T12:46:08.000Z</time>
      </trkpt>
      <trkpt lat="46.34789" lon="6.13742">
        <ele>470.79998779297</ele>
        <time>2019-10-05T12:46:13.000Z</time>
      </trkpt>
      <trkpt lat="46.3479" lon="6.13743">
        <ele>470.79998779297</ele>
        <time>2019-10-05T12:46:14.000Z</time>
      </trkpt>
      <trkpt lat="46.34795" lon="6.13747">
        <ele>470.79998779297</ele>
        <time>2019-10-05T12:46:17.000Z</time>
      </trkpt>
      <trkpt lat="46.34799" lon="6.1375">
        <ele>470.79998779297</ele>
        <time>2019-10-05T12:47:02.000Z</time>
      </trkpt>
      <trkpt lat="46.34801" lon="6.13751">
        <ele>470.79998779297</ele>
        <time>2019-10-05T12:47:03.000Z</time>
      </trkpt>
      <trkpt lat="46.34803" lon="6.13751">
        <ele>470.79998779297</ele>
        <time>2019-10-05T12:47:04.000Z</time>
      </trkpt>
      <trkpt lat="46.3481" lon="6.13743">
        <ele>470.79998779297</ele>
        <time>2019-10-05T12:47:07.000Z</time>
      </trkpt>
      <trkpt lat="46.34812" lon="6.13741">
        <ele>470.79998779297</ele>
        <time>2019-10-05T12:47:08.000Z</time>
      </trkpt>
      <trkpt lat="46.34825" lon="6.13726">
        <ele>471.39999389648</ele>
        <time>2019-10-05T12:47:13.000Z</time>
      </trkpt>
      <trkpt lat="46.34846" lon="6.13716">
        <ele>472.20001220703</ele>
        <time>2019-10-05T12:47:18.000Z</time>
      </trkpt>
      <trkpt lat="46.34862" lon="6.13699">
        <ele>472.79998779297</ele>
        <time>2019-10-05T12:47:22.000Z</time>
      </trkpt>
      <trkpt lat="46.34865" lon="6.13694">
        <ele>472.79998779297</ele>
        <time>2019-10-05T12:47:23.000Z</time>
      </trkpt>
      <trkpt lat="46.34871" lon="6.13682">
        <ele>473</ele>
        <time>2019-10-05T12:47:25.000Z</time>
      </trkpt>
      <trkpt lat="46.34877" lon="6.1366">
        <ele>473.20001220703</ele>
        <time>2019-10-05T12:47:28.000Z</time>
      </trkpt>
      <trkpt lat="46.34887" lon="6.13624">
        <ele>474</ele>
        <time>2019-10-05T12:47:33.000Z</time>
      </trkpt>
      <trkpt lat="46.34892" lon="6.13602">
        <ele>474.39999389648</ele>
        <time>2019-10-05T12:47:36.000Z</time>
      </trkpt>
      <trkpt lat="46.34901" lon="6.13558">
        <ele>475.20001220703</ele>
        <time>2019-10-05T12:47:42.000Z</time>
      </trkpt>
      <trkpt lat="46.34906" lon="6.13538">
        <ele>475.79998779297</ele>
        <time>2019-10-05T12:47:45.000Z</time>
      </trkpt>
      <trkpt lat="46.34907" lon="6.13531">
        <ele>476</ele>
        <time>2019-10-05T12:47:46.000Z</time>
      </trkpt>
      <trkpt lat="46.34911" lon="6.13512">
        <ele>476.60000610352</ele>
        <time>2019-10-05T12:47:49.000Z</time>
      </trkpt>
      <trkpt lat="46.34915" lon="6.13492">
        <ele>477</ele>
        <time>2019-10-05T12:47:52.000Z</time>
      </trkpt>
      <trkpt lat="46.34919" lon="6.13472">
        <ele>477.39999389648</ele>
        <time>2019-10-05T12:47:55.000Z</time>
      </trkpt>
      <trkpt lat="46.34924" lon="6.13447">
        <ele>478.79998779297</ele>
        <time>2019-10-05T12:47:59.000Z</time>
      </trkpt>
      <trkpt lat="46.34926" lon="6.13435">
        <ele>479.39999389648</ele>
        <time>2019-10-05T12:48:01.000Z</time>
      </trkpt>
      <trkpt lat="46.34929" lon="6.13423">
        <ele>480</ele>
        <time>2019-10-05T12:48:03.000Z</time>
      </trkpt>
      <trkpt lat="46.34934" lon="6.13401">
        <ele>481.39999389648</ele>
        <time>2019-10-05T12:48:07.000Z</time>
      </trkpt>
      <trkpt lat="46.34935" lon="6.13395">
        <ele>481.79998779297</ele>
        <time>2019-10-05T12:48:08.000Z</time>
      </trkpt>
      <trkpt lat="46.34938" lon="6.13379">
        <ele>482.79998779297</ele>
        <time>2019-10-05T12:48:11.000Z</time>
      </trkpt>
      <trkpt lat="46.34942" lon="6.1336">
        <ele>484.20001220703</ele>
        <time>2019-10-05T12:48:14.000Z</time>
      </trkpt>
      <trkpt lat="46.34953" lon="6.13315">
        <ele>485.79998779297</ele>
        <time>2019-10-05T12:48:22.000Z</time>
      </trkpt>
      <trkpt lat="46.3496" lon="6.13286">
        <ele>487</ele>
        <time>2019-10-05T12:48:28.000Z</time>
      </trkpt>
      <trkpt lat="46.34967" lon="6.13256">
        <ele>488.39999389648</ele>
        <time>2019-10-05T12:48:35.000Z</time>
      </trkpt>
      <trkpt lat="46.34979" lon="6.1324">
        <ele>489.39999389648</ele>
        <time>2019-10-05T12:48:40.000Z</time>
      </trkpt>
      <trkpt lat="46.34982" lon="6.13237">
        <ele>489.60000610352</ele>
        <time>2019-10-05T12:48:41.000Z</time>
      </trkpt>
      <trkpt lat="46.34995" lon="6.13228">
        <ele>490</ele>
        <time>2019-10-05T12:48:45.000Z</time>
      </trkpt>
      <trkpt lat="46.35008" lon="6.1322">
        <ele>490.20001220703</ele>
        <time>2019-10-05T12:48:49.000Z</time>
      </trkpt>
      <trkpt lat="46.35016" lon="6.13217">
        <ele>490.39999389648</ele>
        <time>2019-10-05T12:48:51.000Z</time>
      </trkpt>
      <trkpt lat="46.35021" lon="6.1321">
        <ele>490.60000610352</ele>
        <time>2019-10-05T12:48:53.000Z</time>
      </trkpt>
      <trkpt lat="46.35023" lon="6.13205">
        <ele>490.79998779297</ele>
        <time>2019-10-05T12:48:54.000Z</time>
      </trkpt>
      <trkpt lat="46.35029" lon="6.13185">
        <ele>491.60000610352</ele>
        <time>2019-10-05T12:48:58.000Z</time>
      </trkpt>
      <trkpt lat="46.35031" lon="6.13181">
        <ele>491.79998779297</ele>
        <time>2019-10-05T12:48:59.000Z</time>
      </trkpt>
      <trkpt lat="46.35033" lon="6.13177">
        <ele>492</ele>
        <time>2019-10-05T12:49:00.000Z</time>
      </trkpt>
      <trkpt lat="46.35036" lon="6.13173">
        <ele>492.20001220703</ele>
        <time>2019-10-05T12:49:01.000Z</time>
      </trkpt>
      <trkpt lat="46.35044" lon="6.13162">
        <ele>492.79998779297</ele>
        <time>2019-10-05T12:49:04.000Z</time>
      </trkpt>
      <trkpt lat="46.35049" lon="6.13155">
        <ele>493.39999389648</ele>
        <time>2019-10-05T12:49:06.000Z</time>
      </trkpt>
      <trkpt lat="46.35051" lon="6.13151">
        <ele>493.60000610352</ele>
        <time>2019-10-05T12:49:07.000Z</time>
      </trkpt>
      <trkpt lat="46.35055" lon="6.13143">
        <ele>493.79998779297</ele>
        <time>2019-10-05T12:49:09.000Z</time>
      </trkpt>
      <trkpt lat="46.35062" lon="6.13132">
        <ele>494.39999389648</ele>
        <time>2019-10-05T12:49:12.000Z</time>
      </trkpt>
      <trkpt lat="46.35067" lon="6.13125">
        <ele>494.60000610352</ele>
        <time>2019-10-05T12:49:14.000Z</time>
      </trkpt>
      <trkpt lat="46.35074" lon="6.13115">
        <ele>495</ele>
        <time>2019-10-05T12:49:17.000Z</time>
      </trkpt>
      <trkpt lat="46.35085" lon="6.13102">
        <ele>495.20001220703</ele>
        <time>2019-10-05T12:49:21.000Z</time>
      </trkpt>
      <trkpt lat="46.351" lon="6.13088">
        <ele>495.79998779297</ele>
        <time>2019-10-05T12:49:26.000Z</time>
      </trkpt>
      <trkpt lat="46.35114" lon="6.13079">
        <ele>496.39999389648</ele>
        <time>2019-10-05T12:49:30.000Z</time>
      </trkpt>
      <trkpt lat="46.35118" lon="6.13077">
        <ele>496.60000610352</ele>
        <time>2019-10-05T12:49:31.000Z</time>
      </trkpt>
      <trkpt lat="46.35132" lon="6.13071">
        <ele>497.20001220703</ele>
        <time>2019-10-05T12:49:35.000Z</time>
      </trkpt>
      <trkpt lat="46.35146" lon="6.13066">
        <ele>497.60000610352</ele>
        <time>2019-10-05T12:49:39.000Z</time>
      </trkpt>
      <trkpt lat="46.35154" lon="6.13064">
        <ele>498.39999389648</ele>
        <time>2019-10-05T12:49:41.000Z</time>
      </trkpt>
      <trkpt lat="46.35168" lon="6.13062">
        <ele>500.39999389648</ele>
        <time>2019-10-05T12:49:45.000Z</time>
      </trkpt>
      <trkpt lat="46.35179" lon="6.13061">
        <ele>501.79998779297</ele>
        <time>2019-10-05T12:49:48.000Z</time>
      </trkpt>
      <trkpt lat="46.35193" lon="6.13059">
        <ele>503.60000610352</ele>
        <time>2019-10-05T12:49:52.000Z</time>
      </trkpt>
      <trkpt lat="46.35207" lon="6.13056">
        <ele>505.60000610352</ele>
        <time>2019-10-05T12:49:56.000Z</time>
      </trkpt>
      <trkpt lat="46.35211" lon="6.13056">
        <ele>506.20001220703</ele>
        <time>2019-10-05T12:49:57.000Z</time>
      </trkpt>
      <trkpt lat="46.35239" lon="6.13054">
        <ele>508.79998779297</ele>
        <time>2019-10-05T12:50:05.000Z</time>
      </trkpt>
      <trkpt lat="46.35243" lon="6.13054">
        <ele>508.79998779297</ele>
        <time>2019-10-05T12:50:06.000Z</time>
      </trkpt>
      <trkpt lat="46.35268" lon="6.13054">
        <ele>509.79998779297</ele>
        <time>2019-10-05T12:50:13.000Z</time>
      </trkpt>
      <trkpt lat="46.35286" lon="6.13055">
        <ele>510.20001220703</ele>
        <time>2019-10-05T12:50:18.000Z</time>
      </trkpt>
      <trkpt lat="46.35293" lon="6.13056">
        <ele>510.60000610352</ele>
        <time>2019-10-05T12:50:20.000Z</time>
      </trkpt>
      <trkpt lat="46.35327" lon="6.13063">
        <ele>511.20001220703</ele>
        <time>2019-10-05T12:50:29.000Z</time>
      </trkpt>
      <trkpt lat="46.35335" lon="6.13065">
        <ele>511.39999389648</ele>
        <time>2019-10-05T12:50:31.000Z</time>
      </trkpt>
      <trkpt lat="46.3536" lon="6.13073">
        <ele>511.79998779297</ele>
        <time>2019-10-05T12:50:37.000Z</time>
      </trkpt>
      <trkpt lat="46.35393" lon="6.13085">
        <ele>512.59997558594</ele>
        <time>2019-10-05T12:50:45.000Z</time>
      </trkpt>
      <trkpt lat="46.35415" lon="6.13096">
        <ele>512.40002441406</ele>
        <time>2019-10-05T12:50:50.000Z</time>
      </trkpt>
      <trkpt lat="46.35442" lon="6.13109">
        <ele>512</ele>
        <time>2019-10-05T12:50:56.000Z</time>
      </trkpt>
      <trkpt lat="46.3545" lon="6.13113">
        <ele>512</ele>
        <time>2019-10-05T12:50:58.000Z</time>
      </trkpt>
      <trkpt lat="46.35455" lon="6.13115">
        <ele>512.20001220703</ele>
        <time>2019-10-05T12:50:59.000Z</time>
      </trkpt>
      <trkpt lat="46.35467" lon="6.13122">
        <ele>512.40002441406</ele>
        <time>2019-10-05T12:51:02.000Z</time>
      </trkpt>
      <trkpt lat="46.3549" lon="6.13132">
        <ele>512.79998779297</ele>
        <time>2019-10-05T12:51:07.000Z</time>
      </trkpt>
      <trkpt lat="46.35499" lon="6.13136">
        <ele>513</ele>
        <time>2019-10-05T12:51:09.000Z</time>
      </trkpt>
      <trkpt lat="46.35512" lon="6.13143">
        <ele>513.20001220703</ele>
        <time>2019-10-05T12:51:12.000Z</time>
      </trkpt>
      <trkpt lat="46.35527" lon="6.1315">
        <ele>514</ele>
        <time>2019-10-05T12:51:15.000Z</time>
      </trkpt>
      <trkpt lat="46.35556" lon="6.13162">
        <ele>515.59997558594</ele>
        <time>2019-10-05T12:51:21.000Z</time>
      </trkpt>
      <trkpt lat="46.35562" lon="6.13164">
        <ele>515.79998779297</ele>
        <time>2019-10-05T12:51:22.000Z</time>
      </trkpt>
      <trkpt lat="46.35594" lon="6.1317">
        <ele>516.40002441406</ele>
        <time>2019-10-05T12:51:28.000Z</time>
      </trkpt>
      <trkpt lat="46.35628" lon="6.13171">
        <ele>518</ele>
        <time>2019-10-05T12:51:34.000Z</time>
      </trkpt>
      <trkpt lat="46.35655" lon="6.1317">
        <ele>518.79998779297</ele>
        <time>2019-10-05T12:51:39.000Z</time>
      </trkpt>
      <trkpt lat="46.35666" lon="6.13168">
        <ele>518.40002441406</ele>
        <time>2019-10-05T12:51:41.000Z</time>
      </trkpt>
      <trkpt lat="46.35681" lon="6.13166">
        <ele>517.59997558594</ele>
        <time>2019-10-05T12:51:44.000Z</time>
      </trkpt>
      <trkpt lat="46.35706" lon="6.13158">
        <ele>516.40002441406</ele>
        <time>2019-10-05T12:51:49.000Z</time>
      </trkpt>
      <trkpt lat="46.3572" lon="6.13152">
        <ele>515.59997558594</ele>
        <time>2019-10-05T12:51:52.000Z</time>
      </trkpt>
      <trkpt lat="46.35743" lon="6.1314">
        <ele>516.20001220703</ele>
        <time>2019-10-05T12:51:57.000Z</time>
      </trkpt>
      <trkpt lat="46.35747" lon="6.13138">
        <ele>517</ele>
        <time>2019-10-05T12:51:58.000Z</time>
      </trkpt>
      <trkpt lat="46.3578" lon="6.13115">
        <ele>523.40002441406</ele>
        <time>2019-10-05T12:52:06.000Z</time>
      </trkpt>
      <trkpt lat="46.35784" lon="6.13112">
        <ele>524</ele>
        <time>2019-10-05T12:52:07.000Z</time>
      </trkpt>
      <trkpt lat="46.35804" lon="6.13101">
        <ele>523.20001220703</ele>
        <time>2019-10-05T12:52:13.000Z</time>
      </trkpt>
      <trkpt lat="46.35807" lon="6.131">
        <ele>523</ele>
        <time>2019-10-05T12:52:14.000Z</time>
      </trkpt>
      <trkpt lat="46.35814" lon="6.13098">
        <ele>522.40002441406</ele>
        <time>2019-10-05T12:52:16.000Z</time>
      </trkpt>
      <trkpt lat="46.35821" lon="6.131">
        <ele>521.79998779297</ele>
        <time>2019-10-05T12:52:18.000Z</time>
      </trkpt>
      <trkpt lat="46.35824" lon="6.13103">
        <ele>521.40002441406</ele>
        <time>2019-10-05T12:52:19.000Z</time>
      </trkpt>
      <trkpt lat="46.35835" lon="6.13111">
        <ele>520</ele>
        <time>2019-10-05T12:52:22.000Z</time>
      </trkpt>
      <trkpt lat="46.35844" lon="6.13108">
        <ele>519.59997558594</ele>
        <time>2019-10-05T12:52:24.000Z</time>
      </trkpt>
      <trkpt lat="46.35853" lon="6.13095">
        <ele>520.20001220703</ele>
        <time>2019-10-05T12:52:27.000Z</time>
      </trkpt>
      <trkpt lat="46.35853" lon="6.13078">
        <ele>521</ele>
        <time>2019-10-05T12:52:30.000Z</time>
      </trkpt>
      <trkpt lat="46.35853" lon="6.13051">
        <ele>523.40002441406</ele>
        <time>2019-10-05T12:52:34.000Z</time>
      </trkpt>
      <trkpt lat="46.35856" lon="6.1304">
        <ele>524.79998779297</ele>
        <time>2019-10-05T12:52:36.000Z</time>
      </trkpt>
      <trkpt lat="46.35859" lon="6.13025">
        <ele>526.59997558594</ele>
        <time>2019-10-05T12:52:39.000Z</time>
      </trkpt>
      <trkpt lat="46.35864" lon="6.13006">
        <ele>528.40002441406</ele>
        <time>2019-10-05T12:52:43.000Z</time>
      </trkpt>
      <trkpt lat="46.35867" lon="6.12988">
        <ele>530.20001220703</ele>
        <time>2019-10-05T12:52:47.000Z</time>
      </trkpt>
      <trkpt lat="46.35868" lon="6.12974">
        <ele>531.59997558594</ele>
        <time>2019-10-05T12:52:50.000Z</time>
      </trkpt>
      <trkpt lat="46.35869" lon="6.12966">
        <ele>532.59997558594</ele>
        <time>2019-10-05T12:52:52.000Z</time>
      </trkpt>
      <trkpt lat="46.35869" lon="6.12953">
        <ele>534</ele>
        <time>2019-10-05T12:52:55.000Z</time>
      </trkpt>
      <trkpt lat="46.35869" lon="6.12936">
        <ele>535</ele>
        <time>2019-10-05T12:52:59.000Z</time>
      </trkpt>
      <trkpt lat="46.35869" lon="6.12923">
        <ele>535.40002441406</ele>
        <time>2019-10-05T12:53:02.000Z</time>
      </trkpt>
      <trkpt lat="46.3587" lon="6.12918">
        <ele>535.40002441406</ele>
        <time>2019-10-05T12:53:03.000Z</time>
      </trkpt>
      <trkpt lat="46.35873" lon="6.1289">
        <ele>536</ele>
        <time>2019-10-05T12:53:09.000Z</time>
      </trkpt>
      <trkpt lat="46.35876" lon="6.1286">
        <ele>536.20001220703</ele>
        <time>2019-10-05T12:53:15.000Z</time>
      </trkpt>
      <trkpt lat="46.35877" lon="6.12851">
        <ele>535.79998779297</ele>
        <time>2019-10-05T12:53:17.000Z</time>
      </trkpt>
      <trkpt lat="46.35878" lon="6.12846">
        <ele>535.59997558594</ele>
        <time>2019-10-05T12:53:18.000Z</time>
      </trkpt>
      <trkpt lat="46.35879" lon="6.12835">
        <ele>535.20001220703</ele>
        <time>2019-10-05T12:53:20.000Z</time>
      </trkpt>
      <trkpt lat="46.3588" lon="6.12824">
        <ele>534.59997558594</ele>
        <time>2019-10-05T12:53:22.000Z</time>
      </trkpt>
      <trkpt lat="46.35881" lon="6.12819">
        <ele>534.40002441406</ele>
        <time>2019-10-05T12:53:23.000Z</time>
      </trkpt>
      <trkpt lat="46.35881" lon="6.12809">
        <ele>534.20001220703</ele>
        <time>2019-10-05T12:53:25.000Z</time>
      </trkpt>
      <trkpt lat="46.35885" lon="6.12788">
        <ele>534</ele>
        <time>2019-10-05T12:53:29.000Z</time>
      </trkpt>
      <trkpt lat="46.35887" lon="6.12777">
        <ele>533.79998779297</ele>
        <time>2019-10-05T12:53:31.000Z</time>
      </trkpt>
      <trkpt lat="46.35893" lon="6.12746">
        <ele>534.20001220703</ele>
        <time>2019-10-05T12:53:37.000Z</time>
      </trkpt>
      <trkpt lat="46.35897" lon="6.12723">
        <ele>534.20001220703</ele>
        <time>2019-10-05T12:53:41.000Z</time>
      </trkpt>
      <trkpt lat="46.35899" lon="6.12712">
        <ele>534.20001220703</ele>
        <time>2019-10-05T12:53:43.000Z</time>
      </trkpt>
      <trkpt lat="46.35902" lon="6.12695">
        <ele>534.40002441406</ele>
        <time>2019-10-05T12:53:46.000Z</time>
      </trkpt>
      <trkpt lat="46.35906" lon="6.12671">
        <ele>534.59997558594</ele>
        <time>2019-10-05T12:53:50.000Z</time>
      </trkpt>
      <trkpt lat="46.35907" lon="6.12659">
        <ele>534.79998779297</ele>
        <time>2019-10-05T12:53:52.000Z</time>
      </trkpt>
      <trkpt lat="46.35909" lon="6.12647">
        <ele>534.79998779297</ele>
        <time>2019-10-05T12:53:54.000Z</time>
      </trkpt>
      <trkpt lat="46.35913" lon="6.12636">
        <ele>535.20001220703</ele>
        <time>2019-10-05T12:53:56.000Z</time>
      </trkpt>
      <trkpt lat="46.35918" lon="6.12609">
        <ele>536.59997558594</ele>
        <time>2019-10-05T12:54:01.000Z</time>
      </trkpt>
      <trkpt lat="46.35922" lon="6.12592">
        <ele>537.40002441406</ele>
        <time>2019-10-05T12:54:04.000Z</time>
      </trkpt>
      <trkpt lat="46.35925" lon="6.12581">
        <ele>537.59997558594</ele>
        <time>2019-10-05T12:54:06.000Z</time>
      </trkpt>
      <trkpt lat="46.35928" lon="6.12566">
        <ele>537.79998779297</ele>
        <time>2019-10-05T12:54:09.000Z</time>
      </trkpt>
      <trkpt lat="46.35931" lon="6.12556">
        <ele>537.79998779297</ele>
        <time>2019-10-05T12:54:11.000Z</time>
      </trkpt>
      <trkpt lat="46.35933" lon="6.12545">
        <ele>538.20001220703</ele>
        <time>2019-10-05T12:54:13.000Z</time>
      </trkpt>
      <trkpt lat="46.35936" lon="6.1253">
        <ele>538.79998779297</ele>
        <time>2019-10-05T12:54:16.000Z</time>
      </trkpt>
      <trkpt lat="46.35938" lon="6.1252">
        <ele>539</ele>
        <time>2019-10-05T12:54:18.000Z</time>
      </trkpt>
      <trkpt lat="46.35943" lon="6.12495">
        <ele>541.40002441406</ele>
        <time>2019-10-05T12:54:23.000Z</time>
      </trkpt>
      <trkpt lat="46.35946" lon="6.12479">
        <ele>542.79998779297</ele>
        <time>2019-10-05T12:54:26.000Z</time>
      </trkpt>
      <trkpt lat="46.35948" lon="6.12468">
        <ele>543.59997558594</ele>
        <time>2019-10-05T12:54:28.000Z</time>
      </trkpt>
      <trkpt lat="46.3595" lon="6.12463">
        <ele>543.79998779297</ele>
        <time>2019-10-05T12:54:29.000Z</time>
      </trkpt>
      <trkpt lat="46.35953" lon="6.12443">
        <ele>545</ele>
        <time>2019-10-05T12:54:33.000Z</time>
      </trkpt>
      <trkpt lat="46.35954" lon="6.12438">
        <ele>545</ele>
        <time>2019-10-05T12:54:34.000Z</time>
      </trkpt>
      <trkpt lat="46.35957" lon="6.12417">
        <ele>545.40002441406</ele>
        <time>2019-10-05T12:54:38.000Z</time>
      </trkpt>
      <trkpt lat="46.35959" lon="6.12406">
        <ele>545.59997558594</ele>
        <time>2019-10-05T12:54:40.000Z</time>
      </trkpt>
      <trkpt lat="46.3596" lon="6.12401">
        <ele>545.59997558594</ele>
        <time>2019-10-05T12:54:41.000Z</time>
      </trkpt>
      <trkpt lat="46.35965" lon="6.12373">
        <ele>546.59997558594</ele>
        <time>2019-10-05T12:54:46.000Z</time>
      </trkpt>
      <trkpt lat="46.35968" lon="6.12351">
        <ele>546.40002441406</ele>
        <time>2019-10-05T12:54:50.000Z</time>
      </trkpt>
      <trkpt lat="46.35978" lon="6.12303">
        <ele>546.20001220703</ele>
        <time>2019-10-05T12:54:59.000Z</time>
      </trkpt>
      <trkpt lat="46.35979" lon="6.12297">
        <ele>546</ele>
        <time>2019-10-05T12:55:00.000Z</time>
      </trkpt>
      <trkpt lat="46.35983" lon="6.12276">
        <ele>546.20001220703</ele>
        <time>2019-10-05T12:55:04.000Z</time>
      </trkpt>
      <trkpt lat="46.35988" lon="6.12249">
        <ele>546.59997558594</ele>
        <time>2019-10-05T12:55:09.000Z</time>
      </trkpt>
      <trkpt lat="46.35989" lon="6.12244">
        <ele>546.79998779297</ele>
        <time>2019-10-05T12:55:10.000Z</time>
      </trkpt>
      <trkpt lat="46.35992" lon="6.12229">
        <ele>547</ele>
        <time>2019-10-05T12:55:13.000Z</time>
      </trkpt>
      <trkpt lat="46.35996" lon="6.1221">
        <ele>547.79998779297</ele>
        <time>2019-10-05T12:55:17.000Z</time>
      </trkpt>
      <trkpt lat="46.35997" lon="6.122">
        <ele>548.20001220703</ele>
        <time>2019-10-05T12:55:19.000Z</time>
      </trkpt>
      <trkpt lat="46.35998" lon="6.12191">
        <ele>548.79998779297</ele>
        <time>2019-10-05T12:55:21.000Z</time>
      </trkpt>
      <trkpt lat="46.36" lon="6.12172">
        <ele>549.79998779297</ele>
        <time>2019-10-05T12:55:25.000Z</time>
      </trkpt>
      <trkpt lat="46.36001" lon="6.12157">
        <ele>550.40002441406</ele>
        <time>2019-10-05T12:55:28.000Z</time>
      </trkpt>
      <trkpt lat="46.36003" lon="6.12133">
        <ele>552</ele>
        <time>2019-10-05T12:55:33.000Z</time>
      </trkpt>
      <trkpt lat="46.36004" lon="6.12118">
        <ele>553.20001220703</ele>
        <time>2019-10-05T12:55:36.000Z</time>
      </trkpt>
      <trkpt lat="46.36005" lon="6.12097">
        <ele>555.20001220703</ele>
        <time>2019-10-05T12:55:40.000Z</time>
      </trkpt>
      <trkpt lat="46.36005" lon="6.12082">
        <ele>556.59997558594</ele>
        <time>2019-10-05T12:55:43.000Z</time>
      </trkpt>
      <trkpt lat="46.36005" lon="6.12077">
        <ele>557</ele>
        <time>2019-10-05T12:55:44.000Z</time>
      </trkpt>
      <trkpt lat="46.36005" lon="6.12057">
        <ele>558.79998779297</ele>
        <time>2019-10-05T12:55:48.000Z</time>
      </trkpt>
      <trkpt lat="46.36004" lon="6.12041">
        <ele>559.59997558594</ele>
        <time>2019-10-05T12:55:51.000Z</time>
      </trkpt>
      <trkpt lat="46.36004" lon="6.12031">
        <ele>560.20001220703</ele>
        <time>2019-10-05T12:55:53.000Z</time>
      </trkpt>
      <trkpt lat="46.36004" lon="6.12017">
        <ele>561</ele>
        <time>2019-10-05T12:55:56.000Z</time>
      </trkpt>
      <trkpt lat="46.36003" lon="6.12002">
        <ele>561.79998779297</ele>
        <time>2019-10-05T12:55:59.000Z</time>
      </trkpt>
      <trkpt lat="46.36001" lon="6.11983">
        <ele>563</ele>
        <time>2019-10-05T12:56:03.000Z</time>
      </trkpt>
      <trkpt lat="46.35999" lon="6.1196">
        <ele>563.20001220703</ele>
        <time>2019-10-05T12:56:08.000Z</time>
      </trkpt>
      <trkpt lat="46.35995" lon="6.11933">
        <ele>563.20001220703</ele>
        <time>2019-10-05T12:56:14.000Z</time>
      </trkpt>
      <trkpt lat="46.35995" lon="6.11929">
        <ele>563.20001220703</ele>
        <time>2019-10-05T12:56:15.000Z</time>
      </trkpt>
      <trkpt lat="46.35992" lon="6.11907">
        <ele>563.20001220703</ele>
        <time>2019-10-05T12:56:20.000Z</time>
      </trkpt>
      <trkpt lat="46.35988" lon="6.11889">
        <ele>563.59997558594</ele>
        <time>2019-10-05T12:56:24.000Z</time>
      </trkpt>
      <trkpt lat="46.35984" lon="6.11867">
        <ele>564.79998779297</ele>
        <time>2019-10-05T12:56:29.000Z</time>
      </trkpt>
      <trkpt lat="46.35981" lon="6.11853">
        <ele>565.59997558594</ele>
        <time>2019-10-05T12:56:32.000Z</time>
      </trkpt>
      <trkpt lat="46.3598" lon="6.11849">
        <ele>566</ele>
        <time>2019-10-05T12:56:33.000Z</time>
      </trkpt>
      <trkpt lat="46.35976" lon="6.11836">
        <ele>567.59997558594</ele>
        <time>2019-10-05T12:56:36.000Z</time>
      </trkpt>
      <trkpt lat="46.35971" lon="6.11819">
        <ele>569.79998779297</ele>
        <time>2019-10-05T12:56:40.000Z</time>
      </trkpt>
      <trkpt lat="46.35966" lon="6.11802">
        <ele>570.59997558594</ele>
        <time>2019-10-05T12:56:44.000Z</time>
      </trkpt>
      <trkpt lat="46.3596" lon="6.11786">
        <ele>571</ele>
        <time>2019-10-05T12:56:48.000Z</time>
      </trkpt>
      <trkpt lat="46.35952" lon="6.11762">
        <ele>572.20001220703</ele>
        <time>2019-10-05T12:56:54.000Z</time>
      </trkpt>
      <trkpt lat="46.35948" lon="6.11755">
        <ele>572.79998779297</ele>
        <time>2019-10-05T12:56:56.000Z</time>
      </trkpt>
      <trkpt lat="46.35944" lon="6.11748">
        <ele>573.40002441406</ele>
        <time>2019-10-05T12:56:58.000Z</time>
      </trkpt>
      <trkpt lat="46.35935" lon="6.11729">
        <ele>575</ele>
        <time>2019-10-05T12:57:03.000Z</time>
      </trkpt>
      <trkpt lat="46.35932" lon="6.11723">
        <ele>575.40002441406</ele>
        <time>2019-10-05T12:57:05.000Z</time>
      </trkpt>
      <trkpt lat="46.35922" lon="6.11706">
        <ele>576.59997558594</ele>
        <time>2019-10-05T12:57:10.000Z</time>
      </trkpt>
      <trkpt lat="46.35912" lon="6.1169">
        <ele>577.59997558594</ele>
        <time>2019-10-05T12:57:15.000Z</time>
      </trkpt>
      <trkpt lat="46.35906" lon="6.11681">
        <ele>578.40002441406</ele>
        <time>2019-10-05T12:57:18.000Z</time>
      </trkpt>
      <trkpt lat="46.35897" lon="6.11669">
        <ele>579.59997558594</ele>
        <time>2019-10-05T12:57:22.000Z</time>
      </trkpt>
      <trkpt lat="46.35893" lon="6.11662">
        <ele>579.79998779297</ele>
        <time>2019-10-05T12:57:24.000Z</time>
      </trkpt>
      <trkpt lat="46.35888" lon="6.11656">
        <ele>579.79998779297</ele>
        <time>2019-10-05T12:57:26.000Z</time>
      </trkpt>
      <trkpt lat="46.35871" lon="6.11637">
        <ele>581</ele>
        <time>2019-10-05T12:57:33.000Z</time>
      </trkpt>
      <trkpt lat="46.35866" lon="6.11632">
        <ele>581.20001220703</ele>
        <time>2019-10-05T12:57:35.000Z</time>
      </trkpt>
      <trkpt lat="46.35851" lon="6.11616">
        <ele>582.40002441406</ele>
        <time>2019-10-05T12:57:41.000Z</time>
      </trkpt>
      <trkpt lat="46.35843" lon="6.11609">
        <ele>583</ele>
        <time>2019-10-05T12:57:44.000Z</time>
      </trkpt>
      <trkpt lat="46.3584" lon="6.11607">
        <ele>583.20001220703</ele>
        <time>2019-10-05T12:57:45.000Z</time>
      </trkpt>
      <trkpt lat="46.35821" lon="6.11593">
        <ele>584.79998779297</ele>
        <time>2019-10-05T12:57:52.000Z</time>
      </trkpt>
      <trkpt lat="46.35818" lon="6.1159">
        <ele>585</ele>
        <time>2019-10-05T12:57:53.000Z</time>
      </trkpt>
      <trkpt lat="46.3581" lon="6.11584">
        <ele>585.79998779297</ele>
        <time>2019-10-05T12:57:56.000Z</time>
      </trkpt>
      <trkpt lat="46.35789" lon="6.11572">
        <ele>588.20001220703</ele>
        <time>2019-10-05T12:58:03.000Z</time>
      </trkpt>
      <trkpt lat="46.35787" lon="6.1157">
        <ele>588.40002441406</ele>
        <time>2019-10-05T12:58:04.000Z</time>
      </trkpt>
      <trkpt lat="46.35775" lon="6.11564">
        <ele>589.79998779297</ele>
        <time>2019-10-05T12:58:08.000Z</time>
      </trkpt>
      <trkpt lat="46.3576" lon="6.11556">
        <ele>591.59997558594</ele>
        <time>2019-10-05T12:58:13.000Z</time>
      </trkpt>
      <trkpt lat="46.35758" lon="6.11553">
        <ele>592</ele>
        <time>2019-10-05T12:58:14.000Z</time>
      </trkpt>
      <trkpt lat="46.35744" lon="6.11546">
        <ele>593.79998779297</ele>
        <time>2019-10-05T12:58:19.000Z</time>
      </trkpt>
      <trkpt lat="46.35741" lon="6.11545">
        <ele>594.20001220703</ele>
        <time>2019-10-05T12:58:20.000Z</time>
      </trkpt>
      <trkpt lat="46.35727" lon="6.11538">
        <ele>595.79998779297</ele>
        <time>2019-10-05T12:58:25.000Z</time>
      </trkpt>
      <trkpt lat="46.35719" lon="6.11535">
        <ele>596.59997558594</ele>
        <time>2019-10-05T12:58:28.000Z</time>
      </trkpt>
      <trkpt lat="46.35711" lon="6.1153">
        <ele>597.20001220703</ele>
        <time>2019-10-05T12:58:31.000Z</time>
      </trkpt>
      <trkpt lat="46.35694" lon="6.11521">
        <ele>598.59997558594</ele>
        <time>2019-10-05T12:58:37.000Z</time>
      </trkpt>
      <trkpt lat="46.35691" lon="6.11518">
        <ele>598.79998779297</ele>
        <time>2019-10-05T12:58:38.000Z</time>
      </trkpt>
      <trkpt lat="46.3568" lon="6.11511">
        <ele>600</ele>
        <time>2019-10-05T12:58:42.000Z</time>
      </trkpt>
      <trkpt lat="46.35672" lon="6.11506">
        <ele>600.79998779297</ele>
        <time>2019-10-05T12:58:45.000Z</time>
      </trkpt>
      <trkpt lat="46.35658" lon="6.11496">
        <ele>602.40002441406</ele>
        <time>2019-10-05T12:58:50.000Z</time>
      </trkpt>
      <trkpt lat="46.35647" lon="6.11489">
        <ele>603.59997558594</ele>
        <time>2019-10-05T12:58:54.000Z</time>
      </trkpt>
      <trkpt lat="46.35639" lon="6.11484">
        <ele>604.59997558594</ele>
        <time>2019-10-05T12:58:57.000Z</time>
      </trkpt>
      <trkpt lat="46.35628" lon="6.11476">
        <ele>606</ele>
        <time>2019-10-05T12:59:01.000Z</time>
      </trkpt>
      <trkpt lat="46.35617" lon="6.11468">
        <ele>606.79998779297</ele>
        <time>2019-10-05T12:59:05.000Z</time>
      </trkpt>
      <trkpt lat="46.35615" lon="6.11466">
        <ele>607</ele>
        <time>2019-10-05T12:59:06.000Z</time>
      </trkpt>
      <trkpt lat="46.35589" lon="6.11449">
        <ele>609</ele>
        <time>2019-10-05T12:59:15.000Z</time>
      </trkpt>
      <trkpt lat="46.35586" lon="6.11447">
        <ele>609.20001220703</ele>
        <time>2019-10-05T12:59:16.000Z</time>
      </trkpt>
      <trkpt lat="46.35564" lon="6.1143">
        <ele>610.40002441406</ele>
        <time>2019-10-05T12:59:24.000Z</time>
      </trkpt>
      <trkpt lat="46.35559" lon="6.11426">
        <ele>610.79998779297</ele>
        <time>2019-10-05T12:59:26.000Z</time>
      </trkpt>
      <trkpt lat="46.35537" lon="6.11409">
        <ele>611.59997558594</ele>
        <time>2019-10-05T12:59:34.000Z</time>
      </trkpt>
      <trkpt lat="46.35529" lon="6.11402">
        <ele>612</ele>
        <time>2019-10-05T12:59:37.000Z</time>
      </trkpt>
      <trkpt lat="46.35517" lon="6.11392">
        <ele>612.40002441406</ele>
        <time>2019-10-05T12:59:41.000Z</time>
      </trkpt>
      <trkpt lat="46.35499" lon="6.11377">
        <ele>613.79998779297</ele>
        <time>2019-10-05T12:59:47.000Z</time>
      </trkpt>
      <trkpt lat="46.35475" lon="6.11354">
        <ele>615.20001220703</ele>
        <time>2019-10-05T12:59:55.000Z</time>
      </trkpt>
      <trkpt lat="46.35472" lon="6.11351">
        <ele>615.59997558594</ele>
        <time>2019-10-05T12:59:56.000Z</time>
      </trkpt>
      <trkpt lat="46.3546" lon="6.11339">
        <ele>616.59997558594</ele>
        <time>2019-10-05T13:00:00.000Z</time>
      </trkpt>
      <trkpt lat="46.3545" lon="6.1133">
        <ele>617.59997558594</ele>
        <time>2019-10-05T13:00:03.000Z</time>
      </trkpt>
      <trkpt lat="46.35427" lon="6.11309">
        <ele>619.79998779297</ele>
        <time>2019-10-05T13:00:10.000Z</time>
      </trkpt>
      <trkpt lat="46.354" lon="6.11283">
        <ele>622.40002441406</ele>
        <time>2019-10-05T13:00:18.000Z</time>
      </trkpt>
      <trkpt lat="46.35397" lon="6.11279">
        <ele>622.59997558594</ele>
        <time>2019-10-05T13:00:19.000Z</time>
      </trkpt>
      <trkpt lat="46.35364" lon="6.11244">
        <ele>623.40002441406</ele>
        <time>2019-10-05T13:00:29.000Z</time>
      </trkpt>
      <trkpt lat="46.35345" lon="6.11223">
        <ele>623.79998779297</ele>
        <time>2019-10-05T13:00:35.000Z</time>
      </trkpt>
      <trkpt lat="46.35338" lon="6.11215">
        <ele>623.79998779297</ele>
        <time>2019-10-05T13:00:37.000Z</time>
      </trkpt>
      <trkpt lat="46.35316" lon="6.11188">
        <ele>623</ele>
        <time>2019-10-05T13:00:44.000Z</time>
      </trkpt>
      <trkpt lat="46.35306" lon="6.11176">
        <ele>622.59997558594</ele>
        <time>2019-10-05T13:00:47.000Z</time>
      </trkpt>
      <trkpt lat="46.35294" lon="6.11161">
        <ele>621.79998779297</ele>
        <time>2019-10-05T13:00:51.000Z</time>
      </trkpt>
      <trkpt lat="46.35291" lon="6.11157">
        <ele>621.59997558594</ele>
        <time>2019-10-05T13:00:52.000Z</time>
      </trkpt>
      <trkpt lat="46.35268" lon="6.11123">
        <ele>620.20001220703</ele>
        <time>2019-10-05T13:01:00.000Z</time>
      </trkpt>
      <trkpt lat="46.3524" lon="6.1108">
        <ele>619</ele>
        <time>2019-10-05T13:01:10.000Z</time>
      </trkpt>
      <trkpt lat="46.35217" lon="6.11034">
        <ele>618.79998779297</ele>
        <time>2019-10-05T13:01:20.000Z</time>
      </trkpt>
      <trkpt lat="46.35215" lon="6.11029">
        <ele>619</ele>
        <time>2019-10-05T13:01:21.000Z</time>
      </trkpt>
      <trkpt lat="46.35204" lon="6.11">
        <ele>619.79998779297</ele>
        <time>2019-10-05T13:01:27.000Z</time>
      </trkpt>
      <trkpt lat="46.35204" lon="6.10994">
        <ele>619.79998779297</ele>
        <time>2019-10-05T13:01:28.000Z</time>
      </trkpt>
      <trkpt lat="46.35212" lon="6.10982">
        <ele>619.59997558594</ele>
        <time>2019-10-05T13:01:31.000Z</time>
      </trkpt>
      <trkpt lat="46.35216" lon="6.10978">
        <ele>619.59997558594</ele>
        <time>2019-10-05T13:01:32.000Z</time>
      </trkpt>
      <trkpt lat="46.35219" lon="6.10975">
        <ele>619.40002441406</ele>
        <time>2019-10-05T13:01:33.000Z</time>
      </trkpt>
      <trkpt lat="46.3523" lon="6.10965">
        <ele>619.20001220703</ele>
        <time>2019-10-05T13:01:36.000Z</time>
      </trkpt>
      <trkpt lat="46.35233" lon="6.10962">
        <ele>619.20001220703</ele>
        <time>2019-10-05T13:01:37.000Z</time>
      </trkpt>
      <trkpt lat="46.35244" lon="6.10941">
        <ele>618.59997558594</ele>
        <time>2019-10-05T13:01:42.000Z</time>
      </trkpt>
      <trkpt lat="46.35245" lon="6.10915">
        <ele>619.20001220703</ele>
        <time>2019-10-05T13:01:47.000Z</time>
      </trkpt>
      <trkpt lat="46.35242" lon="6.10906">
        <ele>619.59997558594</ele>
        <time>2019-10-05T13:01:49.000Z</time>
      </trkpt>
      <trkpt lat="46.3524" lon="6.10892">
        <ele>620.20001220703</ele>
        <time>2019-10-05T13:01:52.000Z</time>
      </trkpt>
      <trkpt lat="46.35238" lon="6.10883">
        <ele>620.59997558594</ele>
        <time>2019-10-05T13:01:54.000Z</time>
      </trkpt>
      <trkpt lat="46.35237" lon="6.10878">
        <ele>620.79998779297</ele>
        <time>2019-10-05T13:01:55.000Z</time>
      </trkpt>
      <trkpt lat="46.35234" lon="6.10863">
        <ele>621.20001220703</ele>
        <time>2019-10-05T13:01:58.000Z</time>
      </trkpt>
      <trkpt lat="46.3523" lon="6.10845">
        <ele>621.59997558594</ele>
        <time>2019-10-05T13:02:02.000Z</time>
      </trkpt>
      <trkpt lat="46.35228" lon="6.10836">
        <ele>621.79998779297</ele>
        <time>2019-10-05T13:02:04.000Z</time>
      </trkpt>
      <trkpt lat="46.35225" lon="6.10819">
        <ele>622</ele>
        <time>2019-10-05T13:02:08.000Z</time>
      </trkpt>
      <trkpt lat="46.35224" lon="6.10815">
        <ele>622</ele>
        <time>2019-10-05T13:02:09.000Z</time>
      </trkpt>
      <trkpt lat="46.35219" lon="6.10791">
        <ele>623.59997558594</ele>
        <time>2019-10-05T13:02:15.000Z</time>
      </trkpt>
      <trkpt lat="46.35218" lon="6.10782">
        <ele>624.20001220703</ele>
        <time>2019-10-05T13:02:17.000Z</time>
      </trkpt>
      <trkpt lat="46.35215" lon="6.10769">
        <ele>625</ele>
        <time>2019-10-05T13:02:20.000Z</time>
      </trkpt>
      <trkpt lat="46.35212" lon="6.10747">
        <ele>626.40002441406</ele>
        <time>2019-10-05T13:02:25.000Z</time>
      </trkpt>
      <trkpt lat="46.3521" lon="6.10729">
        <ele>627.59997558594</ele>
        <time>2019-10-05T13:02:29.000Z</time>
      </trkpt>
      <trkpt lat="46.3521" lon="6.10706">
        <ele>627.79998779297</ele>
        <time>2019-10-05T13:02:34.000Z</time>
      </trkpt>
      <trkpt lat="46.35209" lon="6.10692">
        <ele>628</ele>
        <time>2019-10-05T13:02:37.000Z</time>
      </trkpt>
      <trkpt lat="46.35208" lon="6.10668">
        <ele>628.20001220703</ele>
        <time>2019-10-05T13:02:42.000Z</time>
      </trkpt>
      <trkpt lat="46.35208" lon="6.10659">
        <ele>628.40002441406</ele>
        <time>2019-10-05T13:02:44.000Z</time>
      </trkpt>
      <trkpt lat="46.35203" lon="6.10636">
        <ele>628.79998779297</ele>
        <time>2019-10-05T13:02:49.000Z</time>
      </trkpt>
      <trkpt lat="46.35201" lon="6.10628">
        <ele>629.20001220703</ele>
        <time>2019-10-05T13:02:51.000Z</time>
      </trkpt>
      <trkpt lat="46.35198" lon="6.10619">
        <ele>629.40002441406</ele>
        <time>2019-10-05T13:02:53.000Z</time>
      </trkpt>
      <trkpt lat="46.35182" lon="6.10579">
        <ele>631</ele>
        <time>2019-10-05T13:03:02.000Z</time>
      </trkpt>
      <trkpt lat="46.35179" lon="6.1057">
        <ele>631.20001220703</ele>
        <time>2019-10-05T13:03:04.000Z</time>
      </trkpt>
      <trkpt lat="46.35171" lon="6.10545">
        <ele>632</ele>
        <time>2019-10-05T13:03:09.000Z</time>
      </trkpt>
      <trkpt lat="46.35163" lon="6.10499">
        <ele>633.20001220703</ele>
        <time>2019-10-05T13:03:17.000Z</time>
      </trkpt>
      <trkpt lat="46.35152" lon="6.10448">
        <ele>635</ele>
        <time>2019-10-05T13:03:25.000Z</time>
      </trkpt>
      <trkpt lat="46.3514" lon="6.10397">
        <ele>636.59997558594</ele>
        <time>2019-10-05T13:03:34.000Z</time>
      </trkpt>
      <trkpt lat="46.35138" lon="6.10392">
        <ele>636.59997558594</ele>
        <time>2019-10-05T13:03:35.000Z</time>
      </trkpt>
      <trkpt lat="46.3513" lon="6.10366">
        <ele>637.59997558594</ele>
        <time>2019-10-05T13:03:40.000Z</time>
      </trkpt>
      <trkpt lat="46.35126" lon="6.10356">
        <ele>638</ele>
        <time>2019-10-05T13:03:42.000Z</time>
      </trkpt>
      <trkpt lat="46.35114" lon="6.10327">
        <ele>639</ele>
        <time>2019-10-05T13:03:48.000Z</time>
      </trkpt>
      <trkpt lat="46.35109" lon="6.10318">
        <ele>639.20001220703</ele>
        <time>2019-10-05T13:03:50.000Z</time>
      </trkpt>
      <trkpt lat="46.35104" lon="6.10305">
        <ele>639.79998779297</ele>
        <time>2019-10-05T13:03:53.000Z</time>
      </trkpt>
      <trkpt lat="46.35094" lon="6.10283">
        <ele>640.59997558594</ele>
        <time>2019-10-05T13:03:58.000Z</time>
      </trkpt>
      <trkpt lat="46.35088" lon="6.10271">
        <ele>641.20001220703</ele>
        <time>2019-10-05T13:04:01.000Z</time>
      </trkpt>
      <trkpt lat="46.35075" lon="6.10247">
        <ele>642.20001220703</ele>
        <time>2019-10-05T13:04:07.000Z</time>
      </trkpt>
      <trkpt lat="46.35073" lon="6.10244">
        <ele>642.20001220703</ele>
        <time>2019-10-05T13:04:08.000Z</time>
      </trkpt>
      <trkpt lat="46.35062" lon="6.10225">
        <ele>643</ele>
        <time>2019-10-05T13:04:13.000Z</time>
      </trkpt>
      <trkpt lat="46.35048" lon="6.10203">
        <ele>644.79998779297</ele>
        <time>2019-10-05T13:04:19.000Z</time>
      </trkpt>
      <trkpt lat="46.35045" lon="6.102">
        <ele>645</ele>
        <time>2019-10-05T13:04:20.000Z</time>
      </trkpt>
      <trkpt lat="46.35035" lon="6.1018">
        <ele>646.59997558594</ele>
        <time>2019-10-05T13:04:25.000Z</time>
      </trkpt>
      <trkpt lat="46.35033" lon="6.10173">
        <ele>647.40002441406</ele>
        <time>2019-10-05T13:04:27.000Z</time>
      </trkpt>
      <trkpt lat="46.35026" lon="6.10157">
        <ele>648.59997558594</ele>
        <time>2019-10-05T13:04:31.000Z</time>
      </trkpt>
      <trkpt lat="46.35016" lon="6.10134">
        <ele>650.40002441406</ele>
        <time>2019-10-05T13:04:37.000Z</time>
      </trkpt>
      <trkpt lat="46.35006" lon="6.10111">
        <ele>651.59997558594</ele>
        <time>2019-10-05T13:04:43.000Z</time>
      </trkpt>
      <trkpt lat="46.35001" lon="6.101">
        <ele>652</ele>
        <time>2019-10-05T13:04:46.000Z</time>
      </trkpt>
      <trkpt lat="46.34996" lon="6.10089">
        <ele>652.59997558594</ele>
        <time>2019-10-05T13:04:49.000Z</time>
      </trkpt>
      <trkpt lat="46.34986" lon="6.10066">
        <ele>653.79998779297</ele>
        <time>2019-10-05T13:04:55.000Z</time>
      </trkpt>
      <trkpt lat="46.34985" lon="6.10062">
        <ele>654.20001220703</ele>
        <time>2019-10-05T13:04:56.000Z</time>
      </trkpt>
      <trkpt lat="46.34979" lon="6.10046">
        <ele>655</ele>
        <time>2019-10-05T13:05:00.000Z</time>
      </trkpt>
      <trkpt lat="46.34977" lon="6.10038">
        <ele>655.40002441406</ele>
        <time>2019-10-05T13:05:02.000Z</time>
      </trkpt>
      <trkpt lat="46.34973" lon="6.10026">
        <ele>656</ele>
        <time>2019-10-05T13:05:05.000Z</time>
      </trkpt>
      <trkpt lat="46.34969" lon="6.10009">
        <ele>657</ele>
        <time>2019-10-05T13:05:09.000Z</time>
      </trkpt>
      <trkpt lat="46.34968" lon="6.10005">
        <ele>657.20001220703</ele>
        <time>2019-10-05T13:05:10.000Z</time>
      </trkpt>
      <trkpt lat="46.34965" lon="6.09983">
        <ele>658.79998779297</ele>
        <time>2019-10-05T13:05:15.000Z</time>
      </trkpt>
      <trkpt lat="46.34964" lon="6.09978">
        <ele>659</ele>
        <time>2019-10-05T13:05:16.000Z</time>
      </trkpt>
      <trkpt lat="46.34963" lon="6.09965">
        <ele>659.79998779297</ele>
        <time>2019-10-05T13:05:19.000Z</time>
      </trkpt>
      <trkpt lat="46.34961" lon="6.09934">
        <ele>662.79998779297</ele>
        <time>2019-10-05T13:05:26.000Z</time>
      </trkpt>
      <trkpt lat="46.34959" lon="6.09917">
        <ele>664.59997558594</ele>
        <time>2019-10-05T13:05:30.000Z</time>
      </trkpt>
      <trkpt lat="46.34956" lon="6.099">
        <ele>666</ele>
        <time>2019-10-05T13:05:34.000Z</time>
      </trkpt>
      <trkpt lat="46.34954" lon="6.09888">
        <ele>666.59997558594</ele>
        <time>2019-10-05T13:05:37.000Z</time>
      </trkpt>
      <trkpt lat="46.34951" lon="6.09876">
        <ele>666.79998779297</ele>
        <time>2019-10-05T13:05:40.000Z</time>
      </trkpt>
      <trkpt lat="46.34948" lon="6.0986">
        <ele>667</ele>
        <time>2019-10-05T13:05:44.000Z</time>
      </trkpt>
      <trkpt lat="46.34946" lon="6.09856">
        <ele>667.20001220703</ele>
        <time>2019-10-05T13:05:45.000Z</time>
      </trkpt>
      <trkpt lat="46.34944" lon="6.09845">
        <ele>668</ele>
        <time>2019-10-05T13:05:48.000Z</time>
      </trkpt>
      <trkpt lat="46.34942" lon="6.09832">
        <ele>669</ele>
        <time>2019-10-05T13:05:51.000Z</time>
      </trkpt>
      <trkpt lat="46.34939" lon="6.0982">
        <ele>669.79998779297</ele>
        <time>2019-10-05T13:05:54.000Z</time>
      </trkpt>
      <trkpt lat="46.34931" lon="6.0979">
        <ele>671</ele>
        <time>2019-10-05T13:06:01.000Z</time>
      </trkpt>
      <trkpt lat="46.34927" lon="6.0977">
        <ele>671.79998779297</ele>
        <time>2019-10-05T13:06:06.000Z</time>
      </trkpt>
      <trkpt lat="46.34925" lon="6.09758">
        <ele>672.40002441406</ele>
        <time>2019-10-05T13:06:09.000Z</time>
      </trkpt>
      <trkpt lat="46.34917" lon="6.09716">
        <ele>675.40002441406</ele>
        <time>2019-10-05T13:06:18.000Z</time>
      </trkpt>
      <trkpt lat="46.34912" lon="6.09687">
        <ele>676.20001220703</ele>
        <time>2019-10-05T13:06:24.000Z</time>
      </trkpt>
      <trkpt lat="46.34911" lon="6.09677">
        <ele>676.59997558594</ele>
        <time>2019-10-05T13:06:26.000Z</time>
      </trkpt>
      <trkpt lat="46.34907" lon="6.09641">
        <ele>678.20001220703</ele>
        <time>2019-10-05T13:06:33.000Z</time>
      </trkpt>
      <trkpt lat="46.34902" lon="6.09587">
        <ele>679.79998779297</ele>
        <time>2019-10-05T13:06:42.000Z</time>
      </trkpt>
      <trkpt lat="46.34899" lon="6.09534">
        <ele>681.20001220703</ele>
        <time>2019-10-05T13:06:51.000Z</time>
      </trkpt>
      <trkpt lat="46.34896" lon="6.09506">
        <ele>681.59997558594</ele>
        <time>2019-10-05T13:06:56.000Z</time>
      </trkpt>
      <trkpt lat="46.34897" lon="6.09464">
        <ele>682.59997558594</ele>
        <time>2019-10-05T13:07:02.000Z</time>
      </trkpt>
      <trkpt lat="46.34897" lon="6.0943">
        <ele>681.79998779297</ele>
        <time>2019-10-05T13:07:08.000Z</time>
      </trkpt>
      <trkpt lat="46.34897" lon="6.094">
        <ele>681</ele>
        <time>2019-10-05T13:07:13.000Z</time>
      </trkpt>
      <trkpt lat="46.34894" lon="6.09386">
        <ele>680.20001220703</ele>
        <time>2019-10-05T13:07:15.000Z</time>
      </trkpt>
      <trkpt lat="46.34886" lon="6.09343">
        <ele>678.79998779297</ele>
        <time>2019-10-05T13:07:20.000Z</time>
      </trkpt>
      <trkpt lat="46.34878" lon="6.09317">
        <ele>677.20001220703</ele>
        <time>2019-10-05T13:07:23.000Z</time>
      </trkpt>
      <trkpt lat="46.34869" lon="6.0928">
        <ele>676.20001220703</ele>
        <time>2019-10-05T13:07:27.000Z</time>
      </trkpt>
      <trkpt lat="46.34862" lon="6.09251">
        <ele>674.79998779297</ele>
        <time>2019-10-05T13:07:30.000Z</time>
      </trkpt>
      <trkpt lat="46.34854" lon="6.09212">
        <ele>673.40002441406</ele>
        <time>2019-10-05T13:07:34.000Z</time>
      </trkpt>
      <trkpt lat="46.34852" lon="6.09202">
        <ele>673.20001220703</ele>
        <time>2019-10-05T13:07:35.000Z</time>
      </trkpt>
      <trkpt lat="46.34846" lon="6.09155">
        <ele>672.20001220703</ele>
        <time>2019-10-05T13:07:40.000Z</time>
      </trkpt>
      <trkpt lat="46.34841" lon="6.09118">
        <ele>671.59997558594</ele>
        <time>2019-10-05T13:07:44.000Z</time>
      </trkpt>
      <trkpt lat="46.3484" lon="6.09109">
        <ele>671.40002441406</ele>
        <time>2019-10-05T13:07:45.000Z</time>
      </trkpt>
      <trkpt lat="46.34837" lon="6.09085">
        <ele>671.40002441406</ele>
        <time>2019-10-05T13:07:48.000Z</time>
      </trkpt>
      <trkpt lat="46.34836" lon="6.09072">
        <ele>671</ele>
        <time>2019-10-05T13:07:50.000Z</time>
      </trkpt>
      <trkpt lat="46.34834" lon="6.09067">
        <ele>670.59997558594</ele>
        <time>2019-10-05T13:07:51.000Z</time>
      </trkpt>
      <trkpt lat="46.34825" lon="6.09058">
        <ele>669.79998779297</ele>
        <time>2019-10-05T13:07:53.000Z</time>
      </trkpt>
      <trkpt lat="46.34814" lon="6.09047">
        <ele>668.79998779297</ele>
        <time>2019-10-05T13:07:55.000Z</time>
      </trkpt>
      <trkpt lat="46.34809" lon="6.0904">
        <ele>668.20001220703</ele>
        <time>2019-10-05T13:07:56.000Z</time>
      </trkpt>
      <trkpt lat="46.34804" lon="6.09032">
        <ele>667.59997558594</ele>
        <time>2019-10-05T13:07:57.000Z</time>
      </trkpt>
      <trkpt lat="46.34795" lon="6.09015">
        <ele>666.59997558594</ele>
        <time>2019-10-05T13:07:59.000Z</time>
      </trkpt>
      <trkpt lat="46.34783" lon="6.08986">
        <ele>665.20001220703</ele>
        <time>2019-10-05T13:08:02.000Z</time>
      </trkpt>
      <trkpt lat="46.34777" lon="6.08966">
        <ele>664.40002441406</ele>
        <time>2019-10-05T13:08:04.000Z</time>
      </trkpt>
      <trkpt lat="46.34772" lon="6.08945">
        <ele>664</ele>
        <time>2019-10-05T13:08:06.000Z</time>
      </trkpt>
      <trkpt lat="46.34767" lon="6.08923">
        <ele>663.40002441406</ele>
        <time>2019-10-05T13:08:08.000Z</time>
      </trkpt>
      <trkpt lat="46.34764" lon="6.08913">
        <ele>662.79998779297</ele>
        <time>2019-10-05T13:08:09.000Z</time>
      </trkpt>
      <trkpt lat="46.34762" lon="6.0889">
        <ele>662.20001220703</ele>
        <time>2019-10-05T13:08:11.000Z</time>
      </trkpt>
      <trkpt lat="46.34763" lon="6.08878">
        <ele>661.79998779297</ele>
        <time>2019-10-05T13:08:12.000Z</time>
      </trkpt>
      <trkpt lat="46.34764" lon="6.08866">
        <ele>661.40002441406</ele>
        <time>2019-10-05T13:08:13.000Z</time>
      </trkpt>
      <trkpt lat="46.34766" lon="6.08854">
        <ele>661.20001220703</ele>
        <time>2019-10-05T13:08:14.000Z</time>
      </trkpt>
      <trkpt lat="46.34769" lon="6.08829">
        <ele>660</ele>
        <time>2019-10-05T13:08:16.000Z</time>
      </trkpt>
      <trkpt lat="46.34771" lon="6.08803">
        <ele>658.59997558594</ele>
        <time>2019-10-05T13:08:18.000Z</time>
      </trkpt>
      <trkpt lat="46.34773" lon="6.08791">
        <ele>657.79998779297</ele>
        <time>2019-10-05T13:08:19.000Z</time>
      </trkpt>
      <trkpt lat="46.34784" lon="6.08753">
        <ele>656.79998779297</ele>
        <time>2019-10-05T13:08:22.000Z</time>
      </trkpt>
      <trkpt lat="46.3479" lon="6.08742">
        <ele>656.79998779297</ele>
        <time>2019-10-05T13:08:23.000Z</time>
      </trkpt>
      <trkpt lat="46.34795" lon="6.08731">
        <ele>656.79998779297</ele>
        <time>2019-10-05T13:08:24.000Z</time>
      </trkpt>
      <trkpt lat="46.34805" lon="6.08708">
        <ele>657.59997558594</ele>
        <time>2019-10-05T13:08:26.000Z</time>
      </trkpt>
      <trkpt lat="46.34817" lon="6.08675">
        <ele>657.59997558594</ele>
        <time>2019-10-05T13:08:29.000Z</time>
      </trkpt>
      <trkpt lat="46.34818" lon="6.08663">
        <ele>657.59997558594</ele>
        <time>2019-10-05T13:08:30.000Z</time>
      </trkpt>
      <trkpt lat="46.34817" lon="6.08653">
        <ele>657.40002441406</ele>
        <time>2019-10-05T13:08:31.000Z</time>
      </trkpt>
      <trkpt lat="46.34807" lon="6.08632">
        <ele>657.40002441406</ele>
        <time>2019-10-05T13:08:34.000Z</time>
      </trkpt>
      <trkpt lat="46.34803" lon="6.0863">
        <ele>657.40002441406</ele>
        <time>2019-10-05T13:08:35.000Z</time>
      </trkpt>
      <trkpt lat="46.34795" lon="6.08632">
        <ele>657.20001220703</ele>
        <time>2019-10-05T13:08:37.000Z</time>
      </trkpt>
      <trkpt lat="46.34775" lon="6.08649">
        <ele>656.59997558594</ele>
        <time>2019-10-05T13:08:41.000Z</time>
      </trkpt>
      <trkpt lat="46.3477" lon="6.08654">
        <ele>656.59997558594</ele>
        <time>2019-10-05T13:08:42.000Z</time>
      </trkpt>
      <trkpt lat="46.34761" lon="6.08664">
        <ele>656.59997558594</ele>
        <time>2019-10-05T13:08:44.000Z</time>
      </trkpt>
      <trkpt lat="46.34743" lon="6.0868">
        <ele>655.20001220703</ele>
        <time>2019-10-05T13:08:47.000Z</time>
      </trkpt>
      <trkpt lat="46.34736" lon="6.08684">
        <ele>654.40002441406</ele>
        <time>2019-10-05T13:08:48.000Z</time>
      </trkpt>
      <trkpt lat="46.34729" lon="6.08687">
        <ele>653.79998779297</ele>
        <time>2019-10-05T13:08:49.000Z</time>
      </trkpt>
      <trkpt lat="46.34712" lon="6.0869">
        <ele>653</ele>
        <time>2019-10-05T13:08:51.000Z</time>
      </trkpt>
      <trkpt lat="46.34695" lon="6.08691">
        <ele>652.40002441406</ele>
        <time>2019-10-05T13:08:53.000Z</time>
      </trkpt>
      <trkpt lat="46.34687" lon="6.08692">
        <ele>651.59997558594</ele>
        <time>2019-10-05T13:08:54.000Z</time>
      </trkpt>
      <trkpt lat="46.34668" lon="6.08691">
        <ele>649.79998779297</ele>
        <time>2019-10-05T13:08:56.000Z</time>
      </trkpt>
      <trkpt lat="46.34658" lon="6.08691">
        <ele>648.79998779297</ele>
        <time>2019-10-05T13:08:57.000Z</time>
      </trkpt>
      <trkpt lat="46.34629" lon="6.08693">
        <ele>645.59997558594</ele>
        <time>2019-10-05T13:09:00.000Z</time>
      </trkpt>
      <trkpt lat="46.34619" lon="6.08695">
        <ele>644.40002441406</ele>
        <time>2019-10-05T13:09:01.000Z</time>
      </trkpt>
      <trkpt lat="46.34601" lon="6.08694">
        <ele>642.40002441406</ele>
        <time>2019-10-05T13:09:03.000Z</time>
      </trkpt>
      <trkpt lat="46.34583" lon="6.08683">
        <ele>641.79998779297</ele>
        <time>2019-10-05T13:09:05.000Z</time>
      </trkpt>
      <trkpt lat="46.34575" lon="6.08673">
        <ele>642</ele>
        <time>2019-10-05T13:09:06.000Z</time>
      </trkpt>
      <trkpt lat="46.34561" lon="6.08653">
        <ele>642.40002441406</ele>
        <time>2019-10-05T13:09:08.000Z</time>
      </trkpt>
      <trkpt lat="46.34545" lon="6.08635">
        <ele>642</ele>
        <time>2019-10-05T13:09:10.000Z</time>
      </trkpt>
      <trkpt lat="46.34536" lon="6.08629">
        <ele>641.20001220703</ele>
        <time>2019-10-05T13:09:11.000Z</time>
      </trkpt>
      <trkpt lat="46.34525" lon="6.08625">
        <ele>640</ele>
        <time>2019-10-05T13:09:12.000Z</time>
      </trkpt>
      <trkpt lat="46.34506" lon="6.0862">
        <ele>637.40002441406</ele>
        <time>2019-10-05T13:09:14.000Z</time>
      </trkpt>
      <trkpt lat="46.34497" lon="6.08618">
        <ele>636.40002441406</ele>
        <time>2019-10-05T13:09:15.000Z</time>
      </trkpt>
      <trkpt lat="46.34488" lon="6.08615">
        <ele>635.20001220703</ele>
        <time>2019-10-05T13:09:16.000Z</time>
      </trkpt>
      <trkpt lat="46.3447" lon="6.08607">
        <ele>633.59997558594</ele>
        <time>2019-10-05T13:09:18.000Z</time>
      </trkpt>
      <trkpt lat="46.34462" lon="6.08599">
        <ele>633.20001220703</ele>
        <time>2019-10-05T13:09:19.000Z</time>
      </trkpt>
      <trkpt lat="46.34455" lon="6.08591">
        <ele>633.20001220703</ele>
        <time>2019-10-05T13:09:20.000Z</time>
      </trkpt>
      <trkpt lat="46.34449" lon="6.0858">
        <ele>633.59997558594</ele>
        <time>2019-10-05T13:09:21.000Z</time>
      </trkpt>
      <trkpt lat="46.3444" lon="6.08555">
        <ele>634.79998779297</ele>
        <time>2019-10-05T13:09:23.000Z</time>
      </trkpt>
      <trkpt lat="46.34436" lon="6.08543">
        <ele>634.59997558594</ele>
        <time>2019-10-05T13:09:24.000Z</time>
      </trkpt>
      <trkpt lat="46.34433" lon="6.08529">
        <ele>634.40002441406</ele>
        <time>2019-10-05T13:09:25.000Z</time>
      </trkpt>
      <trkpt lat="46.34425" lon="6.08487">
        <ele>635.20001220703</ele>
        <time>2019-10-05T13:09:28.000Z</time>
      </trkpt>
      <trkpt lat="46.34423" lon="6.08445">
        <ele>634.79998779297</ele>
        <time>2019-10-05T13:09:31.000Z</time>
      </trkpt>
      <trkpt lat="46.34423" lon="6.08431">
        <ele>634.59997558594</ele>
        <time>2019-10-05T13:09:32.000Z</time>
      </trkpt>
      <trkpt lat="46.34423" lon="6.08403">
        <ele>633.79998779297</ele>
        <time>2019-10-05T13:09:34.000Z</time>
      </trkpt>
      <trkpt lat="46.34424" lon="6.08361">
        <ele>632.20001220703</ele>
        <time>2019-10-05T13:09:37.000Z</time>
      </trkpt>
      <trkpt lat="46.34425" lon="6.08334">
        <ele>631.40002441406</ele>
        <time>2019-10-05T13:09:39.000Z</time>
      </trkpt>
      <trkpt lat="46.34426" lon="6.08285">
        <ele>629.40002441406</ele>
        <time>2019-10-05T13:09:43.000Z</time>
      </trkpt>
      <trkpt lat="46.34424" lon="6.08273">
        <ele>629</ele>
        <time>2019-10-05T13:09:44.000Z</time>
      </trkpt>
      <trkpt lat="46.34423" lon="6.08261">
        <ele>628.59997558594</ele>
        <time>2019-10-05T13:09:45.000Z</time>
      </trkpt>
      <trkpt lat="46.34419" lon="6.08238">
        <ele>627.20001220703</ele>
        <time>2019-10-05T13:09:47.000Z</time>
      </trkpt>
      <trkpt lat="46.34412" lon="6.08203">
        <ele>626</ele>
        <time>2019-10-05T13:09:50.000Z</time>
      </trkpt>
      <trkpt lat="46.34411" lon="6.08192">
        <ele>625.79998779297</ele>
        <time>2019-10-05T13:09:51.000Z</time>
      </trkpt>
      <trkpt lat="46.34404" lon="6.08146">
        <ele>624.79998779297</ele>
        <time>2019-10-05T13:09:55.000Z</time>
      </trkpt>
      <trkpt lat="46.34402" lon="6.08135">
        <ele>624.79998779297</ele>
        <time>2019-10-05T13:09:56.000Z</time>
      </trkpt>
      <trkpt lat="46.34398" lon="6.08112">
        <ele>624.40002441406</ele>
        <time>2019-10-05T13:09:58.000Z</time>
      </trkpt>
      <trkpt lat="46.34393" lon="6.081">
        <ele>624</ele>
        <time>2019-10-05T13:09:59.000Z</time>
      </trkpt>
      <trkpt lat="46.34388" lon="6.0809">
        <ele>623.40002441406</ele>
        <time>2019-10-05T13:10:00.000Z</time>
      </trkpt>
      <trkpt lat="46.34377" lon="6.08068">
        <ele>622.20001220703</ele>
        <time>2019-10-05T13:10:02.000Z</time>
      </trkpt>
      <trkpt lat="46.34371" lon="6.08058">
        <ele>621.40002441406</ele>
        <time>2019-10-05T13:10:03.000Z</time>
      </trkpt>
      <trkpt lat="46.34359" lon="6.08037">
        <ele>619.59997558594</ele>
        <time>2019-10-05T13:10:05.000Z</time>
      </trkpt>
      <trkpt lat="46.34352" lon="6.08026">
        <ele>618.59997558594</ele>
        <time>2019-10-05T13:10:06.000Z</time>
      </trkpt>
      <trkpt lat="46.34334" lon="6.07988">
        <ele>615.59997558594</ele>
        <time>2019-10-05T13:10:09.000Z</time>
      </trkpt>
      <trkpt lat="46.34328" lon="6.07976">
        <ele>614.40002441406</ele>
        <time>2019-10-05T13:10:10.000Z</time>
      </trkpt>
      <trkpt lat="46.34322" lon="6.07962">
        <ele>614</ele>
        <time>2019-10-05T13:10:11.000Z</time>
      </trkpt>
      <trkpt lat="46.34311" lon="6.07935">
        <ele>613.20001220703</ele>
        <time>2019-10-05T13:10:13.000Z</time>
      </trkpt>
      <trkpt lat="46.34295" lon="6.07895">
        <ele>612.59997558594</ele>
        <time>2019-10-05T13:10:16.000Z</time>
      </trkpt>
      <trkpt lat="46.3427" lon="6.07832">
        <ele>611.79998779297</ele>
        <time>2019-10-05T13:10:21.000Z</time>
      </trkpt>
      <trkpt lat="46.34256" lon="6.07795">
        <ele>611</ele>
        <time>2019-10-05T13:10:24.000Z</time>
      </trkpt>
      <trkpt lat="46.34251" lon="6.07783">
        <ele>610.59997558594</ele>
        <time>2019-10-05T13:10:25.000Z</time>
      </trkpt>
      <trkpt lat="46.34234" lon="6.07732">
        <ele>609.20001220703</ele>
        <time>2019-10-05T13:10:29.000Z</time>
      </trkpt>
      <trkpt lat="46.34227" lon="6.07705">
        <ele>608.20001220703</ele>
        <time>2019-10-05T13:10:31.000Z</time>
      </trkpt>
      <trkpt lat="46.34223" lon="6.07677">
        <ele>607</ele>
        <time>2019-10-05T13:10:33.000Z</time>
      </trkpt>
      <trkpt lat="46.34219" lon="6.07635">
        <ele>605.40002441406</ele>
        <time>2019-10-05T13:10:36.000Z</time>
      </trkpt>
      <trkpt lat="46.3421" lon="6.07596">
        <ele>605.40002441406</ele>
        <time>2019-10-05T13:10:39.000Z</time>
      </trkpt>
      <trkpt lat="46.34205" lon="6.07585">
        <ele>605.20001220703</ele>
        <time>2019-10-05T13:10:40.000Z</time>
      </trkpt>
      <trkpt lat="46.34187" lon="6.07555">
        <ele>604.40002441406</ele>
        <time>2019-10-05T13:10:43.000Z</time>
      </trkpt>
      <trkpt lat="46.34181" lon="6.07545">
        <ele>604</ele>
        <time>2019-10-05T13:10:44.000Z</time>
      </trkpt>
      <trkpt lat="46.3414" lon="6.0748">
        <ele>601.79998779297</ele>
        <time>2019-10-05T13:10:51.000Z</time>
      </trkpt>
      <trkpt lat="46.34135" lon="6.07472">
        <ele>601.59997558594</ele>
        <time>2019-10-05T13:10:52.000Z</time>
      </trkpt>
      <trkpt lat="46.34096" lon="6.07413">
        <ele>601</ele>
        <time>2019-10-05T13:10:59.000Z</time>
      </trkpt>
      <trkpt lat="46.34085" lon="6.07396">
        <ele>601</ele>
        <time>2019-10-05T13:11:01.000Z</time>
      </trkpt>
      <trkpt lat="46.34046" lon="6.07339">
        <ele>600.59997558594</ele>
        <time>2019-10-05T13:11:08.000Z</time>
      </trkpt>
      <trkpt lat="46.34035" lon="6.07322">
        <ele>600.59997558594</ele>
        <time>2019-10-05T13:11:10.000Z</time>
      </trkpt>
      <trkpt lat="46.34021" lon="6.07297">
        <ele>600.79998779297</ele>
        <time>2019-10-05T13:11:13.000Z</time>
      </trkpt>
      <trkpt lat="46.34002" lon="6.07264">
        <ele>600.79998779297</ele>
        <time>2019-10-05T13:11:17.000Z</time>
      </trkpt>
      <trkpt lat="46.33973" lon="6.07203">
        <ele>601.20001220703</ele>
        <time>2019-10-05T13:11:24.000Z</time>
      </trkpt>
      <trkpt lat="46.33952" lon="6.07136">
        <ele>601.59997558594</ele>
        <time>2019-10-05T13:11:31.000Z</time>
      </trkpt>
      <trkpt lat="46.33924" lon="6.0707">
        <ele>602</ele>
        <time>2019-10-05T13:11:38.000Z</time>
      </trkpt>
      <trkpt lat="46.33906" lon="6.07013">
        <ele>602</ele>
        <time>2019-10-05T13:11:44.000Z</time>
      </trkpt>
      <trkpt lat="46.33887" lon="6.06946">
        <ele>602.40002441406</ele>
        <time>2019-10-05T13:11:51.000Z</time>
      </trkpt>
      <trkpt lat="46.33865" lon="6.06873">
        <ele>603.40002441406</ele>
        <time>2019-10-05T13:11:59.000Z</time>
      </trkpt>
      <trkpt lat="46.33862" lon="6.06864">
        <ele>603.59997558594</ele>
        <time>2019-10-05T13:12:00.000Z</time>
      </trkpt>
      <trkpt lat="46.33846" lon="6.06801">
        <ele>603.20001220703</ele>
        <time>2019-10-05T13:12:07.000Z</time>
      </trkpt>
      <trkpt lat="46.33832" lon="6.06749">
        <ele>602.59997558594</ele>
        <time>2019-10-05T13:12:13.000Z</time>
      </trkpt>
      <trkpt lat="46.33819" lon="6.06713">
        <ele>602</ele>
        <time>2019-10-05T13:12:17.000Z</time>
      </trkpt>
      <trkpt lat="46.33809" lon="6.06684">
        <ele>601</ele>
        <time>2019-10-05T13:12:20.000Z</time>
      </trkpt>
      <trkpt lat="46.33788" lon="6.06626">
        <ele>599.79998779297</ele>
        <time>2019-10-05T13:12:26.000Z</time>
      </trkpt>
      <trkpt lat="46.33781" lon="6.06609">
        <ele>599.59997558594</ele>
        <time>2019-10-05T13:12:28.000Z</time>
      </trkpt>
      <trkpt lat="46.33775" lon="6.06591">
        <ele>599.79998779297</ele>
        <time>2019-10-05T13:12:30.000Z</time>
      </trkpt>
      <trkpt lat="46.33766" lon="6.06564">
        <ele>600.20001220703</ele>
        <time>2019-10-05T13:12:33.000Z</time>
      </trkpt>
      <trkpt lat="46.3376" lon="6.06535">
        <ele>600.40002441406</ele>
        <time>2019-10-05T13:12:36.000Z</time>
      </trkpt>
      <trkpt lat="46.3376" lon="6.06515">
        <ele>600.59997558594</ele>
        <time>2019-10-05T13:12:38.000Z</time>
      </trkpt>
      <trkpt lat="46.33763" lon="6.06497">
        <ele>601.20001220703</ele>
        <time>2019-10-05T13:12:40.000Z</time>
      </trkpt>
      <trkpt lat="46.33764" lon="6.06489">
        <ele>601.59997558594</ele>
        <time>2019-10-05T13:12:41.000Z</time>
      </trkpt>
      <trkpt lat="46.33765" lon="6.06472">
        <ele>602.20001220703</ele>
        <time>2019-10-05T13:12:43.000Z</time>
      </trkpt>
      <trkpt lat="46.33764" lon="6.06456">
        <ele>602.40002441406</ele>
        <time>2019-10-05T13:12:45.000Z</time>
      </trkpt>
      <trkpt lat="46.3376" lon="6.06441">
        <ele>602.59997558594</ele>
        <time>2019-10-05T13:12:47.000Z</time>
      </trkpt>
      <trkpt lat="46.33758" lon="6.06433">
        <ele>602.59997558594</ele>
        <time>2019-10-05T13:12:48.000Z</time>
      </trkpt>
      <trkpt lat="46.33755" lon="6.06427">
        <ele>602.59997558594</ele>
        <time>2019-10-05T13:12:49.000Z</time>
      </trkpt>
      <trkpt lat="46.33747" lon="6.06403">
        <ele>602.79998779297</ele>
        <time>2019-10-05T13:12:52.000Z</time>
      </trkpt>
      <trkpt lat="46.33723" lon="6.06354">
        <ele>602.79998779297</ele>
        <time>2019-10-05T13:12:59.000Z</time>
      </trkpt>
      <trkpt lat="46.33707" lon="6.06346">
        <ele>602.59997558594</ele>
        <time>2019-10-05T13:13:02.000Z</time>
      </trkpt>
      <trkpt lat="46.33701" lon="6.06345">
        <ele>602.40002441406</ele>
        <time>2019-10-05T13:13:03.000Z</time>
      </trkpt>
      <trkpt lat="46.33695" lon="6.06343">
        <ele>602.40002441406</ele>
        <time>2019-10-05T13:13:04.000Z</time>
      </trkpt>
      <trkpt lat="46.33675" lon="6.06339">
        <ele>602</ele>
        <time>2019-10-05T13:13:07.000Z</time>
      </trkpt>
      <trkpt lat="46.33662" lon="6.06335">
        <ele>601.40002441406</ele>
        <time>2019-10-05T13:13:09.000Z</time>
      </trkpt>
      <trkpt lat="46.33615" lon="6.06322">
        <ele>599.79998779297</ele>
        <time>2019-10-05T13:13:16.000Z</time>
      </trkpt>
      <trkpt lat="46.33596" lon="6.0631">
        <ele>599.59997558594</ele>
        <time>2019-10-05T13:13:19.000Z</time>
      </trkpt>
      <trkpt lat="46.33584" lon="6.063">
        <ele>600</ele>
        <time>2019-10-05T13:13:21.000Z</time>
      </trkpt>
      <trkpt lat="46.33578" lon="6.06296">
        <ele>600.20001220703</ele>
        <time>2019-10-05T13:13:22.000Z</time>
      </trkpt>
      <trkpt lat="46.33563" lon="6.0628">
        <ele>601.20001220703</ele>
        <time>2019-10-05T13:13:25.000Z</time>
      </trkpt>
      <trkpt lat="46.33553" lon="6.06268">
        <ele>601.40002441406</ele>
        <time>2019-10-05T13:13:27.000Z</time>
      </trkpt>
      <trkpt lat="46.33537" lon="6.0625">
        <ele>601.79998779297</ele>
        <time>2019-10-05T13:13:30.000Z</time>
      </trkpt>
      <trkpt lat="46.33505" lon="6.06216">
        <ele>602</ele>
        <time>2019-10-05T13:13:36.000Z</time>
      </trkpt>
      <trkpt lat="46.33494" lon="6.06205">
        <ele>601.59997558594</ele>
        <time>2019-10-05T13:13:38.000Z</time>
      </trkpt>
      <trkpt lat="46.33478" lon="6.06187">
        <ele>601.20001220703</ele>
        <time>2019-10-05T13:13:41.000Z</time>
      </trkpt>
      <trkpt lat="46.33454" lon="6.06155">
        <ele>602</ele>
        <time>2019-10-05T13:13:46.000Z</time>
      </trkpt>
      <trkpt lat="46.33451" lon="6.06148">
        <ele>602.20001220703</ele>
        <time>2019-10-05T13:13:47.000Z</time>
      </trkpt>
      <trkpt lat="46.33445" lon="6.06124">
        <ele>603.40002441406</ele>
        <time>2019-10-05T13:13:50.000Z</time>
      </trkpt>
      <trkpt lat="46.33442" lon="6.06117">
        <ele>603.79998779297</ele>
        <time>2019-10-05T13:13:51.000Z</time>
      </trkpt>
      <trkpt lat="46.33435" lon="6.06081">
        <ele>606.40002441406</ele>
        <time>2019-10-05T13:13:56.000Z</time>
      </trkpt>
      <trkpt lat="46.33433" lon="6.06075">
        <ele>607</ele>
        <time>2019-10-05T13:13:57.000Z</time>
      </trkpt>
      <trkpt lat="46.3343" lon="6.06062">
        <ele>608.20001220703</ele>
        <time>2019-10-05T13:13:59.000Z</time>
      </trkpt>
      <trkpt lat="46.33429" lon="6.06056">
        <ele>608.59997558594</ele>
        <time>2019-10-05T13:14:00.000Z</time>
      </trkpt>
      <trkpt lat="46.33426" lon="6.0604">
        <ele>609.59997558594</ele>
        <time>2019-10-05T13:14:03.000Z</time>
      </trkpt>
      <trkpt lat="46.33417" lon="6.06006">
        <ele>611.59997558594</ele>
        <time>2019-10-05T13:14:10.000Z</time>
      </trkpt>
      <trkpt lat="46.33416" lon="6.05997">
        <ele>612.20001220703</ele>
        <time>2019-10-05T13:14:12.000Z</time>
      </trkpt>
      <trkpt lat="46.33418" lon="6.05992">
        <ele>612.79998779297</ele>
        <time>2019-10-05T13:14:13.000Z</time>
      </trkpt>
      <trkpt lat="46.33421" lon="6.0599">
        <ele>613.20001220703</ele>
        <time>2019-10-05T13:14:14.000Z</time>
      </trkpt>
      <trkpt lat="46.3343" lon="6.05994">
        <ele>613.59997558594</ele>
        <time>2019-10-05T13:14:17.000Z</time>
      </trkpt>
      <trkpt lat="46.33434" lon="6.05996">
        <ele>613.79998779297</ele>
        <time>2019-10-05T13:14:18.000Z</time>
      </trkpt>
      <trkpt lat="46.3344" lon="6.06001">
        <ele>614.20001220703</ele>
        <time>2019-10-05T13:14:20.000Z</time>
      </trkpt>
      <trkpt lat="46.33444" lon="6.06003">
        <ele>614.20001220703</ele>
        <time>2019-10-05T13:14:21.000Z</time>
      </trkpt>
      <trkpt lat="46.33451" lon="6.06009">
        <ele>614.59997558594</ele>
        <time>2019-10-05T13:14:23.000Z</time>
      </trkpt>
      <trkpt lat="46.33482" lon="6.06026">
        <ele>616.20001220703</ele>
        <time>2019-10-05T13:14:31.000Z</time>
      </trkpt>
      <trkpt lat="46.335" lon="6.06036">
        <ele>617.59997558594</ele>
        <time>2019-10-05T13:14:36.000Z</time>
      </trkpt>
      <trkpt lat="46.3351" lon="6.06044">
        <ele>618.40002441406</ele>
        <time>2019-10-05T13:14:39.000Z</time>
      </trkpt>
      <trkpt lat="46.3352" lon="6.06052">
        <ele>619.20001220703</ele>
        <time>2019-10-05T13:14:42.000Z</time>
      </trkpt>
      <trkpt lat="46.3353" lon="6.06065">
        <ele>619.59997558594</ele>
        <time>2019-10-05T13:14:46.000Z</time>
      </trkpt>
      <trkpt lat="46.33533" lon="6.06068">
        <ele>619.59997558594</ele>
        <time>2019-10-05T13:14:47.000Z</time>
      </trkpt>
      <trkpt lat="46.33536" lon="6.06075">
        <ele>619.40002441406</ele>
        <time>2019-10-05T13:14:49.000Z</time>
      </trkpt>
      <trkpt lat="46.3354" lon="6.06084">
        <ele>619.20001220703</ele>
        <time>2019-10-05T13:14:51.000Z</time>
      </trkpt>
      <trkpt lat="46.33545" lon="6.06097">
        <ele>618.59997558594</ele>
        <time>2019-10-05T13:14:54.000Z</time>
      </trkpt>
      <trkpt lat="46.33551" lon="6.06115">
        <ele>617.79998779297</ele>
        <time>2019-10-05T13:14:58.000Z</time>
      </trkpt>
      <trkpt lat="46.33557" lon="6.06132">
        <ele>617</ele>
        <time>2019-10-05T13:15:02.000Z</time>
      </trkpt>
      <trkpt lat="46.33561" lon="6.06141">
        <ele>616.59997558594</ele>
        <time>2019-10-05T13:15:04.000Z</time>
      </trkpt>
      <trkpt lat="46.33568" lon="6.06151">
        <ele>616.40002441406</ele>
        <time>2019-10-05T13:15:07.000Z</time>
      </trkpt>
      <trkpt lat="46.33574" lon="6.06154">
        <ele>616.40002441406</ele>
        <time>2019-10-05T13:15:09.000Z</time>
      </trkpt>
      <trkpt lat="46.33581" lon="6.06156">
        <ele>616.79998779297</ele>
        <time>2019-10-05T13:15:11.000Z</time>
      </trkpt>
      <trkpt lat="46.33593" lon="6.0615">
        <ele>618.40002441406</ele>
        <time>2019-10-05T13:15:15.000Z</time>
      </trkpt>
      <trkpt lat="46.33603" lon="6.06132">
        <ele>620.59997558594</ele>
        <time>2019-10-05T13:15:20.000Z</time>
      </trkpt>
      <trkpt lat="46.33602" lon="6.06112">
        <ele>622.20001220703</ele>
        <time>2019-10-05T13:15:24.000Z</time>
      </trkpt>
      <trkpt lat="46.33595" lon="6.06089">
        <ele>623.79998779297</ele>
        <time>2019-10-05T13:15:29.000Z</time>
      </trkpt>
      <trkpt lat="46.33593" lon="6.06085">
        <ele>624</ele>
        <time>2019-10-05T13:15:30.000Z</time>
      </trkpt>
      <trkpt lat="46.33589" lon="6.06072">
        <ele>625</ele>
        <time>2019-10-05T13:15:33.000Z</time>
      </trkpt>
      <trkpt lat="46.33585" lon="6.06059">
        <ele>625.79998779297</ele>
        <time>2019-10-05T13:15:36.000Z</time>
      </trkpt>
      <trkpt lat="46.33583" lon="6.0605">
        <ele>626.40002441406</ele>
        <time>2019-10-05T13:15:38.000Z</time>
      </trkpt>
      <trkpt lat="46.33574" lon="6.06022">
        <ele>628.40002441406</ele>
        <time>2019-10-05T13:15:45.000Z</time>
      </trkpt>
      <trkpt lat="46.33571" lon="6.06015">
        <ele>628.79998779297</ele>
        <time>2019-10-05T13:15:47.000Z</time>
      </trkpt>
      <trkpt lat="46.33567" lon="6.06002">
        <ele>629.79998779297</ele>
        <time>2019-10-05T13:15:50.000Z</time>
      </trkpt>
      <trkpt lat="46.33562" lon="6.05986">
        <ele>630.79998779297</ele>
        <time>2019-10-05T13:15:54.000Z</time>
      </trkpt>
      <trkpt lat="46.33559" lon="6.05975">
        <ele>631.40002441406</ele>
        <time>2019-10-05T13:15:57.000Z</time>
      </trkpt>
      <trkpt lat="46.33554" lon="6.05954">
        <ele>632.79998779297</ele>
        <time>2019-10-05T13:16:02.000Z</time>
      </trkpt>
      <trkpt lat="46.3355" lon="6.05943">
        <ele>633.59997558594</ele>
        <time>2019-10-05T13:16:05.000Z</time>
      </trkpt>
      <trkpt lat="46.33546" lon="6.05931">
        <ele>634.20001220703</ele>
        <time>2019-10-05T13:16:08.000Z</time>
      </trkpt>
      <trkpt lat="46.3354" lon="6.05911">
        <ele>635.59997558594</ele>
        <time>2019-10-05T13:16:13.000Z</time>
      </trkpt>
      <trkpt lat="46.33538" lon="6.05903">
        <ele>636.20001220703</ele>
        <time>2019-10-05T13:16:15.000Z</time>
      </trkpt>
      <trkpt lat="46.33534" lon="6.05892">
        <ele>636.79998779297</ele>
        <time>2019-10-05T13:16:18.000Z</time>
      </trkpt>
      <trkpt lat="46.33532" lon="6.05884">
        <ele>637</ele>
        <time>2019-10-05T13:16:20.000Z</time>
      </trkpt>
      <trkpt lat="46.33521" lon="6.0585">
        <ele>637.79998779297</ele>
        <time>2019-10-05T13:16:28.000Z</time>
      </trkpt>
      <trkpt lat="46.33519" lon="6.05842">
        <ele>637.79998779297</ele>
        <time>2019-10-05T13:16:30.000Z</time>
      </trkpt>
      <trkpt lat="46.33518" lon="6.05819">
        <ele>638.40002441406</ele>
        <time>2019-10-05T13:16:35.000Z</time>
      </trkpt>
      <trkpt lat="46.33518" lon="6.05815">
        <ele>638.40002441406</ele>
        <time>2019-10-05T13:16:36.000Z</time>
      </trkpt>
      <trkpt lat="46.33524" lon="6.058">
        <ele>639.59997558594</ele>
        <time>2019-10-05T13:16:40.000Z</time>
      </trkpt>
      <trkpt lat="46.3354" lon="6.05772">
        <ele>641.59997558594</ele>
        <time>2019-10-05T13:16:48.000Z</time>
      </trkpt>
      <trkpt lat="46.33542" lon="6.05768">
        <ele>641.59997558594</ele>
        <time>2019-10-05T13:16:49.000Z</time>
      </trkpt>
      <trkpt lat="46.33556" lon="6.05744">
        <ele>642.59997558594</ele>
        <time>2019-10-05T13:16:56.000Z</time>
      </trkpt>
      <trkpt lat="46.33561" lon="6.05738">
        <ele>642.79998779297</ele>
        <time>2019-10-05T13:16:58.000Z</time>
      </trkpt>
      <trkpt lat="46.33569" lon="6.05731">
        <ele>643</ele>
        <time>2019-10-05T13:17:01.000Z</time>
      </trkpt>
      <trkpt lat="46.33575" lon="6.05726">
        <ele>643.20001220703</ele>
        <time>2019-10-05T13:17:03.000Z</time>
      </trkpt>
      <trkpt lat="46.33577" lon="6.05724">
        <ele>643.40002441406</ele>
        <time>2019-10-05T13:17:04.000Z</time>
      </trkpt>
      <trkpt lat="46.33596" lon="6.05716">
        <ele>644.20001220703</ele>
        <time>2019-10-05T13:17:10.000Z</time>
      </trkpt>
      <trkpt lat="46.33616" lon="6.05705">
        <ele>645</ele>
        <time>2019-10-05T13:17:17.000Z</time>
      </trkpt>
      <trkpt lat="46.33622" lon="6.05701">
        <ele>645.20001220703</ele>
        <time>2019-10-05T13:17:19.000Z</time>
      </trkpt>
      <trkpt lat="46.33631" lon="6.05696">
        <ele>645.59997558594</ele>
        <time>2019-10-05T13:17:22.000Z</time>
      </trkpt>
      <trkpt lat="46.33639" lon="6.0569">
        <ele>646</ele>
        <time>2019-10-05T13:17:25.000Z</time>
      </trkpt>
      <trkpt lat="46.33642" lon="6.05688">
        <ele>646.20001220703</ele>
        <time>2019-10-05T13:17:26.000Z</time>
      </trkpt>
      <trkpt lat="46.33667" lon="6.05673">
        <ele>647.40002441406</ele>
        <time>2019-10-05T13:17:34.000Z</time>
      </trkpt>
      <trkpt lat="46.33682" lon="6.05662">
        <ele>648.20001220703</ele>
        <time>2019-10-05T13:17:39.000Z</time>
      </trkpt>
      <trkpt lat="46.33692" lon="6.05656">
        <ele>648.59997558594</ele>
        <time>2019-10-05T13:17:42.000Z</time>
      </trkpt>
      <trkpt lat="46.33702" lon="6.05651">
        <ele>649</ele>
        <time>2019-10-05T13:17:45.000Z</time>
      </trkpt>
      <trkpt lat="46.33722" lon="6.0565">
        <ele>649.59997558594</ele>
        <time>2019-10-05T13:17:51.000Z</time>
      </trkpt>
      <trkpt lat="46.33739" lon="6.05657">
        <ele>650.40002441406</ele>
        <time>2019-10-05T13:17:56.000Z</time>
      </trkpt>
      <trkpt lat="46.33745" lon="6.05661">
        <ele>651</ele>
        <time>2019-10-05T13:17:58.000Z</time>
      </trkpt>
      <trkpt lat="46.3376" lon="6.05676">
        <ele>652</ele>
        <time>2019-10-05T13:18:03.000Z</time>
      </trkpt>
      <trkpt lat="46.33762" lon="6.05679">
        <ele>652.20001220703</ele>
        <time>2019-10-05T13:18:04.000Z</time>
      </trkpt>
      <trkpt lat="46.33771" lon="6.05689">
        <ele>652.59997558594</ele>
        <time>2019-10-05T13:18:07.000Z</time>
      </trkpt>
      <trkpt lat="46.33784" lon="6.05706">
        <ele>653.59997558594</ele>
        <time>2019-10-05T13:18:12.000Z</time>
      </trkpt>
      <trkpt lat="46.33798" lon="6.05724">
        <ele>654.20001220703</ele>
        <time>2019-10-05T13:18:17.000Z</time>
      </trkpt>
      <trkpt lat="46.33806" lon="6.05734">
        <ele>654.59997558594</ele>
        <time>2019-10-05T13:18:20.000Z</time>
      </trkpt>
      <trkpt lat="46.33819" lon="6.05752">
        <ele>654.79998779297</ele>
        <time>2019-10-05T13:18:25.000Z</time>
      </trkpt>
      <trkpt lat="46.3383" lon="6.05764">
        <ele>654.59997558594</ele>
        <time>2019-10-05T13:18:29.000Z</time>
      </trkpt>
      <trkpt lat="46.33833" lon="6.05767">
        <ele>654.59997558594</ele>
        <time>2019-10-05T13:18:30.000Z</time>
      </trkpt>
      <trkpt lat="46.33851" lon="6.05781">
        <ele>655</ele>
        <time>2019-10-05T13:18:36.000Z</time>
      </trkpt>
      <trkpt lat="46.33877" lon="6.05802">
        <ele>655.20001220703</ele>
        <time>2019-10-05T13:18:44.000Z</time>
      </trkpt>
      <trkpt lat="46.3388" lon="6.05804">
        <ele>655.40002441406</ele>
        <time>2019-10-05T13:18:45.000Z</time>
      </trkpt>
      <trkpt lat="46.33891" lon="6.05808">
        <ele>655.59997558594</ele>
        <time>2019-10-05T13:18:48.000Z</time>
      </trkpt>
      <trkpt lat="46.33905" lon="6.0581">
        <ele>655.40002441406</ele>
        <time>2019-10-05T13:18:52.000Z</time>
      </trkpt>
      <trkpt lat="46.33913" lon="6.05809">
        <ele>655.20001220703</ele>
        <time>2019-10-05T13:18:54.000Z</time>
      </trkpt>
      <trkpt lat="46.33926" lon="6.05803">
        <ele>655.20001220703</ele>
        <time>2019-10-05T13:18:58.000Z</time>
      </trkpt>
      <trkpt lat="46.3393" lon="6.05801">
        <ele>655.20001220703</ele>
        <time>2019-10-05T13:18:59.000Z</time>
      </trkpt>
      <trkpt lat="46.33953" lon="6.0578">
        <ele>657</ele>
        <time>2019-10-05T13:19:06.000Z</time>
      </trkpt>
      <trkpt lat="46.33977" lon="6.05755">
        <ele>659</ele>
        <time>2019-10-05T13:19:14.000Z</time>
      </trkpt>
      <trkpt lat="46.3398" lon="6.05752">
        <ele>659.40002441406</ele>
        <time>2019-10-05T13:19:15.000Z</time>
      </trkpt>
      <trkpt lat="46.34003" lon="6.05731">
        <ele>661.40002441406</ele>
        <time>2019-10-05T13:19:23.000Z</time>
      </trkpt>
      <trkpt lat="46.34023" lon="6.05714">
        <ele>662.79998779297</ele>
        <time>2019-10-05T13:19:31.000Z</time>
      </trkpt>
      <trkpt lat="46.34032" lon="6.05709">
        <ele>663.20001220703</ele>
        <time>2019-10-05T13:19:34.000Z</time>
      </trkpt>
      <trkpt lat="46.34048" lon="6.05697">
        <ele>664.59997558594</ele>
        <time>2019-10-05T13:19:40.000Z</time>
      </trkpt>
      <trkpt lat="46.34054" lon="6.05692">
        <ele>665.20001220703</ele>
        <time>2019-10-05T13:19:42.000Z</time>
      </trkpt>
      <trkpt lat="46.3406" lon="6.05688">
        <ele>666</ele>
        <time>2019-10-05T13:19:44.000Z</time>
      </trkpt>
      <trkpt lat="46.34073" lon="6.05683">
        <ele>667.20001220703</ele>
        <time>2019-10-05T13:19:48.000Z</time>
      </trkpt>
      <trkpt lat="46.3408" lon="6.05683">
        <ele>667.59997558594</ele>
        <time>2019-10-05T13:19:50.000Z</time>
      </trkpt>
      <trkpt lat="46.3409" lon="6.05683">
        <ele>668.20001220703</ele>
        <time>2019-10-05T13:19:53.000Z</time>
      </trkpt>
      <trkpt lat="46.34106" lon="6.05675">
        <ele>670.59997558594</ele>
        <time>2019-10-05T13:19:58.000Z</time>
      </trkpt>
      <trkpt lat="46.34117" lon="6.05673">
        <ele>671.79998779297</ele>
        <time>2019-10-05T13:20:01.000Z</time>
      </trkpt>
      <trkpt lat="46.34121" lon="6.05674">
        <ele>671.79998779297</ele>
        <time>2019-10-05T13:20:02.000Z</time>
      </trkpt>
      <trkpt lat="46.34128" lon="6.05676">
        <ele>672</ele>
        <time>2019-10-05T13:20:04.000Z</time>
      </trkpt>
      <trkpt lat="46.34135" lon="6.05678">
        <ele>672.20001220703</ele>
        <time>2019-10-05T13:20:06.000Z</time>
      </trkpt>
      <trkpt lat="46.34145" lon="6.05681">
        <ele>672.40002441406</ele>
        <time>2019-10-05T13:20:09.000Z</time>
      </trkpt>
      <trkpt lat="46.34154" lon="6.05686">
        <ele>672.59997558594</ele>
        <time>2019-10-05T13:20:12.000Z</time>
      </trkpt>
      <trkpt lat="46.34163" lon="6.05691">
        <ele>672.79998779297</ele>
        <time>2019-10-05T13:20:15.000Z</time>
      </trkpt>
      <trkpt lat="46.34172" lon="6.05696">
        <ele>673</ele>
        <time>2019-10-05T13:20:18.000Z</time>
      </trkpt>
      <trkpt lat="46.34178" lon="6.05699">
        <ele>673</ele>
        <time>2019-10-05T13:20:20.000Z</time>
      </trkpt>
      <trkpt lat="46.34189" lon="6.05706">
        <ele>673.40002441406</ele>
        <time>2019-10-05T13:20:24.000Z</time>
      </trkpt>
      <trkpt lat="46.34198" lon="6.05711">
        <ele>673.59997558594</ele>
        <time>2019-10-05T13:20:27.000Z</time>
      </trkpt>
      <trkpt lat="46.34204" lon="6.05715">
        <ele>673.59997558594</ele>
        <time>2019-10-05T13:20:29.000Z</time>
      </trkpt>
      <trkpt lat="46.34221" lon="6.05721">
        <ele>674.59997558594</ele>
        <time>2019-10-05T13:20:35.000Z</time>
      </trkpt>
      <trkpt lat="46.34228" lon="6.05722">
        <ele>675.20001220703</ele>
        <time>2019-10-05T13:20:37.000Z</time>
      </trkpt>
      <trkpt lat="46.34234" lon="6.05723">
        <ele>675.40002441406</ele>
        <time>2019-10-05T13:20:39.000Z</time>
      </trkpt>
      <trkpt lat="46.34255" lon="6.05718">
        <ele>676.59997558594</ele>
        <time>2019-10-05T13:20:46.000Z</time>
      </trkpt>
      <trkpt lat="46.34261" lon="6.05715">
        <ele>677.20001220703</ele>
        <time>2019-10-05T13:20:48.000Z</time>
      </trkpt>
      <trkpt lat="46.34273" lon="6.057">
        <ele>679</ele>
        <time>2019-10-05T13:20:53.000Z</time>
      </trkpt>
      <trkpt lat="46.34277" lon="6.05694">
        <ele>679.79998779297</ele>
        <time>2019-10-05T13:20:55.000Z</time>
      </trkpt>
      <trkpt lat="46.34287" lon="6.05672">
        <ele>681.79998779297</ele>
        <time>2019-10-05T13:21:01.000Z</time>
      </trkpt>
      <trkpt lat="46.34289" lon="6.05669">
        <ele>682.20001220703</ele>
        <time>2019-10-05T13:21:02.000Z</time>
      </trkpt>
      <trkpt lat="46.34299" lon="6.0564">
        <ele>685</ele>
        <time>2019-10-05T13:21:09.000Z</time>
      </trkpt>
      <trkpt lat="46.343" lon="6.05636">
        <ele>685.40002441406</ele>
        <time>2019-10-05T13:21:10.000Z</time>
      </trkpt>
      <trkpt lat="46.34305" lon="6.05625">
        <ele>686.59997558594</ele>
        <time>2019-10-05T13:21:13.000Z</time>
      </trkpt>
      <trkpt lat="46.34313" lon="6.05617">
        <ele>687.40002441406</ele>
        <time>2019-10-05T13:21:16.000Z</time>
      </trkpt>
      <trkpt lat="46.34322" lon="6.05611">
        <ele>688.40002441406</ele>
        <time>2019-10-05T13:21:19.000Z</time>
      </trkpt>
      <trkpt lat="46.34331" lon="6.05608">
        <ele>689.40002441406</ele>
        <time>2019-10-05T13:21:22.000Z</time>
      </trkpt>
      <trkpt lat="46.34346" lon="6.05606">
        <ele>690.40002441406</ele>
        <time>2019-10-05T13:21:27.000Z</time>
      </trkpt>
      <trkpt lat="46.34355" lon="6.05607">
        <ele>690.79998779297</ele>
        <time>2019-10-05T13:21:30.000Z</time>
      </trkpt>
      <trkpt lat="46.34361" lon="6.05609">
        <ele>691</ele>
        <time>2019-10-05T13:21:32.000Z</time>
      </trkpt>
      <trkpt lat="46.3437" lon="6.05612">
        <ele>691.20001220703</ele>
        <time>2019-10-05T13:21:35.000Z</time>
      </trkpt>
      <trkpt lat="46.34378" lon="6.05616">
        <ele>691.40002441406</ele>
        <time>2019-10-05T13:21:38.000Z</time>
      </trkpt>
      <trkpt lat="46.34392" lon="6.05621">
        <ele>691.79998779297</ele>
        <time>2019-10-05T13:21:43.000Z</time>
      </trkpt>
      <trkpt lat="46.34401" lon="6.05623">
        <ele>691.79998779297</ele>
        <time>2019-10-05T13:21:46.000Z</time>
      </trkpt>
      <trkpt lat="46.34411" lon="6.05623">
        <ele>691.20001220703</ele>
        <time>2019-10-05T13:21:49.000Z</time>
      </trkpt>
      <trkpt lat="46.34426" lon="6.05619">
        <ele>691</ele>
        <time>2019-10-05T13:21:54.000Z</time>
      </trkpt>
      <trkpt lat="46.34451" lon="6.05609">
        <ele>690.79998779297</ele>
        <time>2019-10-05T13:22:02.000Z</time>
      </trkpt>
      <trkpt lat="46.34457" lon="6.05607">
        <ele>691.20001220703</ele>
        <time>2019-10-05T13:22:04.000Z</time>
      </trkpt>
      <trkpt lat="46.34469" lon="6.05601">
        <ele>692</ele>
        <time>2019-10-05T13:22:08.000Z</time>
      </trkpt>
      <trkpt lat="46.3448" lon="6.05595">
        <ele>692.79998779297</ele>
        <time>2019-10-05T13:22:12.000Z</time>
      </trkpt>
      <trkpt lat="46.3449" lon="6.05586">
        <ele>694.40002441406</ele>
        <time>2019-10-05T13:22:16.000Z</time>
      </trkpt>
      <trkpt lat="46.34497" lon="6.05578">
        <ele>695.79998779297</ele>
        <time>2019-10-05T13:22:19.000Z</time>
      </trkpt>
      <trkpt lat="46.34502" lon="6.05572">
        <ele>696.40002441406</ele>
        <time>2019-10-05T13:22:21.000Z</time>
      </trkpt>
      <trkpt lat="46.34517" lon="6.05555">
        <ele>698.40002441406</ele>
        <time>2019-10-05T13:22:27.000Z</time>
      </trkpt>
      <trkpt lat="46.34525" lon="6.05547">
        <ele>699.20001220703</ele>
        <time>2019-10-05T13:22:30.000Z</time>
      </trkpt>
      <trkpt lat="46.34527" lon="6.05545">
        <ele>699.40002441406</ele>
        <time>2019-10-05T13:22:31.000Z</time>
      </trkpt>
      <trkpt lat="46.34544" lon="6.05536">
        <ele>700.40002441406</ele>
        <time>2019-10-05T13:22:37.000Z</time>
      </trkpt>
      <trkpt lat="46.34547" lon="6.05535">
        <ele>700.59997558594</ele>
        <time>2019-10-05T13:22:38.000Z</time>
      </trkpt>
      <trkpt lat="46.3456" lon="6.05531">
        <ele>701.79998779297</ele>
        <time>2019-10-05T13:22:42.000Z</time>
      </trkpt>
      <trkpt lat="46.34569" lon="6.05529">
        <ele>702.40002441406</ele>
        <time>2019-10-05T13:22:45.000Z</time>
      </trkpt>
      <trkpt lat="46.34574" lon="6.05528">
        <ele>702.79998779297</ele>
        <time>2019-10-05T13:22:47.000Z</time>
      </trkpt>
      <trkpt lat="46.34583" lon="6.05526">
        <ele>703.40002441406</ele>
        <time>2019-10-05T13:22:50.000Z</time>
      </trkpt>
      <trkpt lat="46.34597" lon="6.05523">
        <ele>704.40002441406</ele>
        <time>2019-10-05T13:22:55.000Z</time>
      </trkpt>
      <trkpt lat="46.34615" lon="6.0552">
        <ele>705.79998779297</ele>
        <time>2019-10-05T13:23:01.000Z</time>
      </trkpt>
      <trkpt lat="46.3463" lon="6.05516">
        <ele>707.40002441406</ele>
        <time>2019-10-05T13:23:06.000Z</time>
      </trkpt>
      <trkpt lat="46.34654" lon="6.05513">
        <ele>710</ele>
        <time>2019-10-05T13:23:14.000Z</time>
      </trkpt>
      <trkpt lat="46.34657" lon="6.05513">
        <ele>710.40002441406</ele>
        <time>2019-10-05T13:23:15.000Z</time>
      </trkpt>
      <trkpt lat="46.34668" lon="6.05518">
        <ele>711</ele>
        <time>2019-10-05T13:23:19.000Z</time>
      </trkpt>
      <trkpt lat="46.34674" lon="6.05521">
        <ele>711</ele>
        <time>2019-10-05T13:23:21.000Z</time>
      </trkpt>
      <trkpt lat="46.34681" lon="6.05526">
        <ele>711</ele>
        <time>2019-10-05T13:23:24.000Z</time>
      </trkpt>
      <trkpt lat="46.34697" lon="6.05535">
        <ele>711.40002441406</ele>
        <time>2019-10-05T13:23:30.000Z</time>
      </trkpt>
      <trkpt lat="46.347" lon="6.05537">
        <ele>711.40002441406</ele>
        <time>2019-10-05T13:23:31.000Z</time>
      </trkpt>
      <trkpt lat="46.34718" lon="6.05543">
        <ele>712.40002441406</ele>
        <time>2019-10-05T13:23:38.000Z</time>
      </trkpt>
      <trkpt lat="46.34732" lon="6.05546">
        <ele>713.20001220703</ele>
        <time>2019-10-05T13:23:43.000Z</time>
      </trkpt>
      <trkpt lat="46.3474" lon="6.05549">
        <ele>714.40002441406</ele>
        <time>2019-10-05T13:23:46.000Z</time>
      </trkpt>
      <trkpt lat="46.34757" lon="6.05558">
        <ele>716.59997558594</ele>
        <time>2019-10-05T13:23:53.000Z</time>
      </trkpt>
      <trkpt lat="46.34775" lon="6.05568">
        <ele>718.79998779297</ele>
        <time>2019-10-05T13:24:00.000Z</time>
      </trkpt>
      <trkpt lat="46.3479" lon="6.05576">
        <ele>720.79998779297</ele>
        <time>2019-10-05T13:24:06.000Z</time>
      </trkpt>
      <trkpt lat="46.34806" lon="6.05585">
        <ele>723</ele>
        <time>2019-10-05T13:24:12.000Z</time>
      </trkpt>
      <trkpt lat="46.34809" lon="6.05587">
        <ele>723.20001220703</ele>
        <time>2019-10-05T13:24:13.000Z</time>
      </trkpt>
      <trkpt lat="46.34816" lon="6.05593">
        <ele>723.79998779297</ele>
        <time>2019-10-05T13:24:16.000Z</time>
      </trkpt>
      <trkpt lat="46.34824" lon="6.05598">
        <ele>724</ele>
        <time>2019-10-05T13:24:19.000Z</time>
      </trkpt>
      <trkpt lat="46.34828" lon="6.05602">
        <ele>724.20001220703</ele>
        <time>2019-10-05T13:24:21.000Z</time>
      </trkpt>
      <trkpt lat="46.34833" lon="6.05606">
        <ele>724.40002441406</ele>
        <time>2019-10-05T13:24:23.000Z</time>
      </trkpt>
      <trkpt lat="46.34839" lon="6.05609">
        <ele>724.59997558594</ele>
        <time>2019-10-05T13:24:25.000Z</time>
      </trkpt>
      <trkpt lat="46.34847" lon="6.05612">
        <ele>725.40002441406</ele>
        <time>2019-10-05T13:24:28.000Z</time>
      </trkpt>
      <trkpt lat="46.34859" lon="6.05612">
        <ele>727</ele>
        <time>2019-10-05T13:24:32.000Z</time>
      </trkpt>
      <trkpt lat="46.3488" lon="6.05603">
        <ele>729.79998779297</ele>
        <time>2019-10-05T13:24:39.000Z</time>
      </trkpt>
      <trkpt lat="46.34893" lon="6.05596">
        <ele>731.59997558594</ele>
        <time>2019-10-05T13:24:44.000Z</time>
      </trkpt>
      <trkpt lat="46.34898" lon="6.05593">
        <ele>732.20001220703</ele>
        <time>2019-10-05T13:24:46.000Z</time>
      </trkpt>
      <trkpt lat="46.34916" lon="6.05579">
        <ele>736.20001220703</ele>
        <time>2019-10-05T13:24:53.000Z</time>
      </trkpt>
      <trkpt lat="46.34921" lon="6.05575">
        <ele>737.20001220703</ele>
        <time>2019-10-05T13:24:55.000Z</time>
      </trkpt>
      <trkpt lat="46.34927" lon="6.05571">
        <ele>738.40002441406</ele>
        <time>2019-10-05T13:24:58.000Z</time>
      </trkpt>
      <trkpt lat="46.34929" lon="6.05569">
        <ele>738.79998779297</ele>
        <time>2019-10-05T13:24:59.000Z</time>
      </trkpt>
      <trkpt lat="46.34932" lon="6.05568">
        <ele>739.20001220703</ele>
        <time>2019-10-05T13:25:00.000Z</time>
      </trkpt>
      <trkpt lat="46.34936" lon="6.05566">
        <ele>740</ele>
        <time>2019-10-05T13:25:02.000Z</time>
      </trkpt>
      <trkpt lat="46.34941" lon="6.05565">
        <ele>740.79998779297</ele>
        <time>2019-10-05T13:25:04.000Z</time>
      </trkpt>
      <trkpt lat="46.34951" lon="6.05567">
        <ele>742.20001220703</ele>
        <time>2019-10-05T13:25:09.000Z</time>
      </trkpt>
      <trkpt lat="46.34964" lon="6.05576">
        <ele>743.40002441406</ele>
        <time>2019-10-05T13:25:15.000Z</time>
      </trkpt>
      <trkpt lat="46.34975" lon="6.05593">
        <ele>743.79998779297</ele>
        <time>2019-10-05T13:25:21.000Z</time>
      </trkpt>
      <trkpt lat="46.34977" lon="6.05604">
        <ele>743.20001220703</ele>
        <time>2019-10-05T13:25:24.000Z</time>
      </trkpt>
      <trkpt lat="46.34976" lon="6.05607">
        <ele>743</ele>
        <time>2019-10-05T13:25:25.000Z</time>
      </trkpt>
      <trkpt lat="46.34976" lon="6.05611">
        <ele>742.59997558594</ele>
        <time>2019-10-05T13:25:26.000Z</time>
      </trkpt>
      <trkpt lat="46.34974" lon="6.05618">
        <ele>741.79998779297</ele>
        <time>2019-10-05T13:25:28.000Z</time>
      </trkpt>
      <trkpt lat="46.34972" lon="6.05625">
        <ele>741</ele>
        <time>2019-10-05T13:25:30.000Z</time>
      </trkpt>
      <trkpt lat="46.34969" lon="6.05632">
        <ele>740</ele>
        <time>2019-10-05T13:25:32.000Z</time>
      </trkpt>
      <trkpt lat="46.34968" lon="6.05636">
        <ele>739.59997558594</ele>
        <time>2019-10-05T13:25:33.000Z</time>
      </trkpt>
      <trkpt lat="46.34966" lon="6.05644">
        <ele>738.59997558594</ele>
        <time>2019-10-05T13:25:35.000Z</time>
      </trkpt>
      <trkpt lat="46.34963" lon="6.05655">
        <ele>737.20001220703</ele>
        <time>2019-10-05T13:25:38.000Z</time>
      </trkpt>
      <trkpt lat="46.34962" lon="6.05663">
        <ele>736.40002441406</ele>
        <time>2019-10-05T13:25:40.000Z</time>
      </trkpt>
      <trkpt lat="46.34963" lon="6.05666">
        <ele>736.20001220703</ele>
        <time>2019-10-05T13:25:41.000Z</time>
      </trkpt>
      <trkpt lat="46.34963" lon="6.0567">
        <ele>736</ele>
        <time>2019-10-05T13:25:42.000Z</time>
      </trkpt>
      <trkpt lat="46.34966" lon="6.05678">
        <ele>735.59997558594</ele>
        <time>2019-10-05T13:25:44.000Z</time>
      </trkpt>
      <trkpt lat="46.3497" lon="6.05685">
        <ele>735.79998779297</ele>
        <time>2019-10-05T13:25:46.000Z</time>
      </trkpt>
      <trkpt lat="46.34973" lon="6.05688">
        <ele>736</ele>
        <time>2019-10-05T13:25:47.000Z</time>
      </trkpt>
      <trkpt lat="46.34979" lon="6.05692">
        <ele>736.59997558594</ele>
        <time>2019-10-05T13:25:49.000Z</time>
      </trkpt>
      <trkpt lat="46.34986" lon="6.05694">
        <ele>737.59997558594</ele>
        <time>2019-10-05T13:25:51.000Z</time>
      </trkpt>
      <trkpt lat="46.34992" lon="6.05695">
        <ele>738.79998779297</ele>
        <time>2019-10-05T13:25:53.000Z</time>
      </trkpt>
      <trkpt lat="46.34999" lon="6.05696">
        <ele>740.20001220703</ele>
        <time>2019-10-05T13:25:55.000Z</time>
      </trkpt>
      <trkpt lat="46.35008" lon="6.05696">
        <ele>742</ele>
        <time>2019-10-05T13:25:58.000Z</time>
      </trkpt>
      <trkpt lat="46.35011" lon="6.05696">
        <ele>742.79998779297</ele>
        <time>2019-10-05T13:25:59.000Z</time>
      </trkpt>
      <trkpt lat="46.35021" lon="6.05697">
        <ele>744.59997558594</ele>
        <time>2019-10-05T13:26:02.000Z</time>
      </trkpt>
      <trkpt lat="46.35027" lon="6.05697">
        <ele>745.79998779297</ele>
        <time>2019-10-05T13:26:04.000Z</time>
      </trkpt>
      <trkpt lat="46.3503" lon="6.05697">
        <ele>746.40002441406</ele>
        <time>2019-10-05T13:26:05.000Z</time>
      </trkpt>
      <trkpt lat="46.35039" lon="6.05699">
        <ele>748.20001220703</ele>
        <time>2019-10-05T13:26:08.000Z</time>
      </trkpt>
      <trkpt lat="46.35053" lon="6.05707">
        <ele>750.40002441406</ele>
        <time>2019-10-05T13:26:13.000Z</time>
      </trkpt>
      <trkpt lat="46.35056" lon="6.05709">
        <ele>750.59997558594</ele>
        <time>2019-10-05T13:26:14.000Z</time>
      </trkpt>
      <trkpt lat="46.35066" lon="6.05719">
        <ele>751.79998779297</ele>
        <time>2019-10-05T13:26:18.000Z</time>
      </trkpt>
      <trkpt lat="46.35068" lon="6.05723">
        <ele>751.79998779297</ele>
        <time>2019-10-05T13:26:19.000Z</time>
      </trkpt>
      <trkpt lat="46.35073" lon="6.05732">
        <ele>750.79998779297</ele>
        <time>2019-10-05T13:26:22.000Z</time>
      </trkpt>
      <trkpt lat="46.35076" lon="6.0574">
        <ele>749.79998779297</ele>
        <time>2019-10-05T13:26:24.000Z</time>
      </trkpt>
      <trkpt lat="46.35077" lon="6.05743">
        <ele>749.40002441406</ele>
        <time>2019-10-05T13:26:25.000Z</time>
      </trkpt>
      <trkpt lat="46.35082" lon="6.05753">
        <ele>748.40002441406</ele>
        <time>2019-10-05T13:26:28.000Z</time>
      </trkpt>
      <trkpt lat="46.35087" lon="6.05763">
        <ele>747.40002441406</ele>
        <time>2019-10-05T13:26:31.000Z</time>
      </trkpt>
      <trkpt lat="46.35092" lon="6.05772">
        <ele>746.59997558594</ele>
        <time>2019-10-05T13:26:34.000Z</time>
      </trkpt>
      <trkpt lat="46.351" lon="6.05784">
        <ele>745.40002441406</ele>
        <time>2019-10-05T13:26:38.000Z</time>
      </trkpt>
      <trkpt lat="46.35114" lon="6.05797">
        <ele>744.20001220703</ele>
        <time>2019-10-05T13:26:44.000Z</time>
      </trkpt>
      <trkpt lat="46.35116" lon="6.05799">
        <ele>744</ele>
        <time>2019-10-05T13:26:45.000Z</time>
      </trkpt>
      <trkpt lat="46.35127" lon="6.05801">
        <ele>743.79998779297</ele>
        <time>2019-10-05T13:26:49.000Z</time>
      </trkpt>
      <trkpt lat="46.35133" lon="6.05799">
        <ele>744</ele>
        <time>2019-10-05T13:26:51.000Z</time>
      </trkpt>
      <trkpt lat="46.35145" lon="6.05784">
        <ele>749.40002441406</ele>
        <time>2019-10-05T13:26:57.000Z</time>
      </trkpt>
      <trkpt lat="46.35146" lon="6.05767">
        <ele>754.40002441406</ele>
        <time>2019-10-05T13:27:01.000Z</time>
      </trkpt>
      <trkpt lat="46.35145" lon="6.05758">
        <ele>756.59997558594</ele>
        <time>2019-10-05T13:27:03.000Z</time>
      </trkpt>
      <trkpt lat="46.35141" lon="6.05746">
        <ele>759.20001220703</ele>
        <time>2019-10-05T13:27:06.000Z</time>
      </trkpt>
      <trkpt lat="46.35139" lon="6.05742">
        <ele>760</ele>
        <time>2019-10-05T13:27:07.000Z</time>
      </trkpt>
      <trkpt lat="46.35137" lon="6.05734">
        <ele>761.79998779297</ele>
        <time>2019-10-05T13:27:09.000Z</time>
      </trkpt>
      <trkpt lat="46.35133" lon="6.05722">
        <ele>763.59997558594</ele>
        <time>2019-10-05T13:27:12.000Z</time>
      </trkpt>
      <trkpt lat="46.35127" lon="6.05705">
        <ele>763.79998779297</ele>
        <time>2019-10-05T13:27:16.000Z</time>
      </trkpt>
      <trkpt lat="46.35123" lon="6.05695">
        <ele>763.79998779297</ele>
        <time>2019-10-05T13:27:19.000Z</time>
      </trkpt>
      <trkpt lat="46.35116" lon="6.05681">
        <ele>763.59997558594</ele>
        <time>2019-10-05T13:27:23.000Z</time>
      </trkpt>
      <trkpt lat="46.35114" lon="6.05678">
        <ele>763.59997558594</ele>
        <time>2019-10-05T13:27:24.000Z</time>
      </trkpt>
      <trkpt lat="46.35112" lon="6.05675">
        <ele>763.59997558594</ele>
        <time>2019-10-05T13:27:25.000Z</time>
      </trkpt>
      <trkpt lat="46.35103" lon="6.05658">
        <ele>763.20001220703</ele>
        <time>2019-10-05T13:27:30.000Z</time>
      </trkpt>
      <trkpt lat="46.35097" lon="6.05646">
        <ele>763</ele>
        <time>2019-10-05T13:27:33.000Z</time>
      </trkpt>
      <trkpt lat="46.3509" lon="6.05626">
        <ele>763.20001220703</ele>
        <time>2019-10-05T13:27:38.000Z</time>
      </trkpt>
      <trkpt lat="46.35086" lon="6.05609">
        <ele>764</ele>
        <time>2019-10-05T13:27:42.000Z</time>
      </trkpt>
      <trkpt lat="46.35084" lon="6.05601">
        <ele>764.20001220703</ele>
        <time>2019-10-05T13:27:44.000Z</time>
      </trkpt>
      <trkpt lat="46.35082" lon="6.05572">
        <ele>766.59997558594</ele>
        <time>2019-10-05T13:27:51.000Z</time>
      </trkpt>
      <trkpt lat="46.35083" lon="6.05561">
        <ele>768.20001220703</ele>
        <time>2019-10-05T13:27:54.000Z</time>
      </trkpt>
      <trkpt lat="46.35085" lon="6.05537">
        <ele>770.40002441406</ele>
        <time>2019-10-05T13:28:00.000Z</time>
      </trkpt>
      <trkpt lat="46.35088" lon="6.05508">
        <ele>773.40002441406</ele>
        <time>2019-10-05T13:28:08.000Z</time>
      </trkpt>
      <trkpt lat="46.35089" lon="6.0548">
        <ele>776.40002441406</ele>
        <time>2019-10-05T13:28:15.000Z</time>
      </trkpt>
      <trkpt lat="46.35086" lon="6.05464">
        <ele>777</ele>
        <time>2019-10-05T13:28:19.000Z</time>
      </trkpt>
      <trkpt lat="46.35083" lon="6.05453">
        <ele>776.79998779297</ele>
        <time>2019-10-05T13:28:22.000Z</time>
      </trkpt>
      <trkpt lat="46.35078" lon="6.05437">
        <ele>776.40002441406</ele>
        <time>2019-10-05T13:28:26.000Z</time>
      </trkpt>
      <trkpt lat="46.35074" lon="6.05426">
        <ele>776.20001220703</ele>
        <time>2019-10-05T13:28:29.000Z</time>
      </trkpt>
      <trkpt lat="46.35072" lon="6.05422">
        <ele>776</ele>
        <time>2019-10-05T13:28:30.000Z</time>
      </trkpt>
      <trkpt lat="46.35064" lon="6.054">
        <ele>775.40002441406</ele>
        <time>2019-10-05T13:28:36.000Z</time>
      </trkpt>
      <trkpt lat="46.35063" lon="6.05396">
        <ele>775.59997558594</ele>
        <time>2019-10-05T13:28:37.000Z</time>
      </trkpt>
      <trkpt lat="46.35058" lon="6.05382">
        <ele>776.20001220703</ele>
        <time>2019-10-05T13:28:41.000Z</time>
      </trkpt>
      <trkpt lat="46.35054" lon="6.05371">
        <ele>776.79998779297</ele>
        <time>2019-10-05T13:28:44.000Z</time>
      </trkpt>
      <trkpt lat="46.35051" lon="6.05364">
        <ele>777</ele>
        <time>2019-10-05T13:28:46.000Z</time>
      </trkpt>
      <trkpt lat="46.35044" lon="6.05351">
        <ele>777.20001220703</ele>
        <time>2019-10-05T13:28:50.000Z</time>
      </trkpt>
      <trkpt lat="46.3504" lon="6.05345">
        <ele>777.40002441406</ele>
        <time>2019-10-05T13:28:52.000Z</time>
      </trkpt>
      <trkpt lat="46.35038" lon="6.05342">
        <ele>777.40002441406</ele>
        <time>2019-10-05T13:28:53.000Z</time>
      </trkpt>
      <trkpt lat="46.3503" lon="6.05331">
        <ele>777.59997558594</ele>
        <time>2019-10-05T13:28:57.000Z</time>
      </trkpt>
      <trkpt lat="46.35026" lon="6.05326">
        <ele>777.59997558594</ele>
        <time>2019-10-05T13:28:59.000Z</time>
      </trkpt>
      <trkpt lat="46.3502" lon="6.05317">
        <ele>777.79998779297</ele>
        <time>2019-10-05T13:29:02.000Z</time>
      </trkpt>
      <trkpt lat="46.35017" lon="6.05311">
        <ele>778</ele>
        <time>2019-10-05T13:29:04.000Z</time>
      </trkpt>
      <trkpt lat="46.35013" lon="6.05304">
        <ele>778.20001220703</ele>
        <time>2019-10-05T13:29:06.000Z</time>
      </trkpt>
      <trkpt lat="46.35011" lon="6.05301">
        <ele>778.40002441406</ele>
        <time>2019-10-05T13:29:07.000Z</time>
      </trkpt>
      <trkpt lat="46.35002" lon="6.05279">
        <ele>779.59997558594</ele>
        <time>2019-10-05T13:29:13.000Z</time>
      </trkpt>
      <trkpt lat="46.35" lon="6.05272">
        <ele>780.20001220703</ele>
        <time>2019-10-05T13:29:15.000Z</time>
      </trkpt>
      <trkpt lat="46.34992" lon="6.05249">
        <ele>781.79998779297</ele>
        <time>2019-10-05T13:29:21.000Z</time>
      </trkpt>
      <trkpt lat="46.34987" lon="6.05229">
        <ele>783.20001220703</ele>
        <time>2019-10-05T13:29:26.000Z</time>
      </trkpt>
      <trkpt lat="46.34984" lon="6.05217">
        <ele>783.59997558594</ele>
        <time>2019-10-05T13:29:29.000Z</time>
      </trkpt>
      <trkpt lat="46.34974" lon="6.05191">
        <ele>783.79998779297</ele>
        <time>2019-10-05T13:29:36.000Z</time>
      </trkpt>
      <trkpt lat="46.34965" lon="6.05175">
        <ele>783.79998779297</ele>
        <time>2019-10-05T13:29:41.000Z</time>
      </trkpt>
      <trkpt lat="46.3496" lon="6.05165">
        <ele>783.59997558594</ele>
        <time>2019-10-05T13:29:44.000Z</time>
      </trkpt>
      <trkpt lat="46.34958" lon="6.05162">
        <ele>783.59997558594</ele>
        <time>2019-10-05T13:29:45.000Z</time>
      </trkpt>
      <trkpt lat="46.3495" lon="6.0515">
        <ele>783.59997558594</ele>
        <time>2019-10-05T13:29:49.000Z</time>
      </trkpt>
      <trkpt lat="46.3494" lon="6.05134">
        <ele>783.59997558594</ele>
        <time>2019-10-05T13:29:54.000Z</time>
      </trkpt>
      <trkpt lat="46.3493" lon="6.05118">
        <ele>783.79998779297</ele>
        <time>2019-10-05T13:29:59.000Z</time>
      </trkpt>
      <trkpt lat="46.34924" lon="6.05109">
        <ele>783.79998779297</ele>
        <time>2019-10-05T13:30:02.000Z</time>
      </trkpt>
      <trkpt lat="46.34922" lon="6.05106">
        <ele>784</ele>
        <time>2019-10-05T13:30:03.000Z</time>
      </trkpt>
      <trkpt lat="46.34909" lon="6.05088">
        <ele>784</ele>
        <time>2019-10-05T13:30:09.000Z</time>
      </trkpt>
      <trkpt lat="46.34899" lon="6.05073">
        <ele>784.20001220703</ele>
        <time>2019-10-05T13:30:14.000Z</time>
      </trkpt>
      <trkpt lat="46.34891" lon="6.05061">
        <ele>784.20001220703</ele>
        <time>2019-10-05T13:30:18.000Z</time>
      </trkpt>
      <trkpt lat="46.34885" lon="6.05053">
        <ele>784.59997558594</ele>
        <time>2019-10-05T13:30:21.000Z</time>
      </trkpt>
      <trkpt lat="46.34876" lon="6.05039">
        <ele>785.40002441406</ele>
        <time>2019-10-05T13:30:26.000Z</time>
      </trkpt>
      <trkpt lat="46.34874" lon="6.05037">
        <ele>785.59997558594</ele>
        <time>2019-10-05T13:30:27.000Z</time>
      </trkpt>
      <trkpt lat="46.34863" lon="6.05019">
        <ele>787</ele>
        <time>2019-10-05T13:30:33.000Z</time>
      </trkpt>
      <trkpt lat="46.34861" lon="6.05015">
        <ele>787.59997558594</ele>
        <time>2019-10-05T13:30:34.000Z</time>
      </trkpt>
      <trkpt lat="46.34862" lon="6.04994">
        <ele>790.79998779297</ele>
        <time>2019-10-05T13:30:39.000Z</time>
      </trkpt>
      <trkpt lat="46.34864" lon="6.04991">
        <ele>791.59997558594</ele>
        <time>2019-10-05T13:30:40.000Z</time>
      </trkpt>
      <trkpt lat="46.34872" lon="6.04987">
        <ele>793.20001220703</ele>
        <time>2019-10-05T13:30:43.000Z</time>
      </trkpt>
      <trkpt lat="46.34886" lon="6.04992">
        <ele>794.20001220703</ele>
        <time>2019-10-05T13:30:48.000Z</time>
      </trkpt>
      <trkpt lat="46.34895" lon="6.04998">
        <ele>794.20001220703</ele>
        <time>2019-10-05T13:30:51.000Z</time>
      </trkpt>
      <trkpt lat="46.34908" lon="6.05007">
        <ele>794.40002441406</ele>
        <time>2019-10-05T13:30:56.000Z</time>
      </trkpt>
      <trkpt lat="46.34911" lon="6.05008">
        <ele>794.40002441406</ele>
        <time>2019-10-05T13:30:57.000Z</time>
      </trkpt>
      <trkpt lat="46.34928" lon="6.05017">
        <ele>794.79998779297</ele>
        <time>2019-10-05T13:31:03.000Z</time>
      </trkpt>
      <trkpt lat="46.34937" lon="6.05021">
        <ele>795.20001220703</ele>
        <time>2019-10-05T13:31:06.000Z</time>
      </trkpt>
      <trkpt lat="46.34948" lon="6.05025">
        <ele>795.79998779297</ele>
        <time>2019-10-05T13:31:10.000Z</time>
      </trkpt>
      <trkpt lat="46.34952" lon="6.05026">
        <ele>796.20001220703</ele>
        <time>2019-10-05T13:31:11.000Z</time>
      </trkpt>
      <trkpt lat="46.34969" lon="6.05029">
        <ele>797.59997558594</ele>
        <time>2019-10-05T13:31:17.000Z</time>
      </trkpt>
      <trkpt lat="46.34977" lon="6.0503">
        <ele>798.40002441406</ele>
        <time>2019-10-05T13:31:20.000Z</time>
      </trkpt>
      <trkpt lat="46.3498" lon="6.0503">
        <ele>798.79998779297</ele>
        <time>2019-10-05T13:31:21.000Z</time>
      </trkpt>
      <trkpt lat="46.35001" lon="6.05034">
        <ele>800.40002441406</ele>
        <time>2019-10-05T13:31:29.000Z</time>
      </trkpt>
      <trkpt lat="46.35004" lon="6.05035">
        <ele>800.59997558594</ele>
        <time>2019-10-05T13:31:30.000Z</time>
      </trkpt>
      <trkpt lat="46.35013" lon="6.05037">
        <ele>801</ele>
        <time>2019-10-05T13:31:34.000Z</time>
      </trkpt>
      <trkpt lat="46.35034" lon="6.05041">
        <ele>802.79998779297</ele>
        <time>2019-10-05T13:31:42.000Z</time>
      </trkpt>
      <trkpt lat="46.3505" lon="6.05044">
        <ele>804.20001220703</ele>
        <time>2019-10-05T13:31:48.000Z</time>
      </trkpt>
      <trkpt lat="46.35053" lon="6.05044">
        <ele>804.59997558594</ele>
        <time>2019-10-05T13:31:49.000Z</time>
      </trkpt>
      <trkpt lat="46.35067" lon="6.05046">
        <ele>806.40002441406</ele>
        <time>2019-10-05T13:31:54.000Z</time>
      </trkpt>
      <trkpt lat="46.35074" lon="6.05047">
        <ele>807.40002441406</ele>
        <time>2019-10-05T13:31:57.000Z</time>
      </trkpt>
      <trkpt lat="46.35093" lon="6.0505">
        <ele>809.59997558594</ele>
        <time>2019-10-05T13:32:04.000Z</time>
      </trkpt>
      <trkpt lat="46.35112" lon="6.05056">
        <ele>811.79998779297</ele>
        <time>2019-10-05T13:32:11.000Z</time>
      </trkpt>
      <trkpt lat="46.35127" lon="6.05063">
        <ele>813</ele>
        <time>2019-10-05T13:32:16.000Z</time>
      </trkpt>
      <trkpt lat="46.35132" lon="6.05067">
        <ele>813.59997558594</ele>
        <time>2019-10-05T13:32:18.000Z</time>
      </trkpt>
      <trkpt lat="46.35137" lon="6.05071">
        <ele>814</ele>
        <time>2019-10-05T13:32:20.000Z</time>
      </trkpt>
      <trkpt lat="46.35144" lon="6.05078">
        <ele>814.40002441406</ele>
        <time>2019-10-05T13:32:23.000Z</time>
      </trkpt>
      <trkpt lat="46.35149" lon="6.05082">
        <ele>814.79998779297</ele>
        <time>2019-10-05T13:32:25.000Z</time>
      </trkpt>
      <trkpt lat="46.35151" lon="6.05084">
        <ele>815.20001220703</ele>
        <time>2019-10-05T13:32:26.000Z</time>
      </trkpt>
      <trkpt lat="46.3516" lon="6.05094">
        <ele>816.59997558594</ele>
        <time>2019-10-05T13:32:30.000Z</time>
      </trkpt>
      <trkpt lat="46.35167" lon="6.051">
        <ele>817.79998779297</ele>
        <time>2019-10-05T13:32:33.000Z</time>
      </trkpt>
      <trkpt lat="46.35175" lon="6.05109">
        <ele>819.20001220703</ele>
        <time>2019-10-05T13:32:37.000Z</time>
      </trkpt>
      <trkpt lat="46.35182" lon="6.05117">
        <ele>820.20001220703</ele>
        <time>2019-10-05T13:32:40.000Z</time>
      </trkpt>
      <trkpt lat="46.35191" lon="6.05128">
        <ele>821.59997558594</ele>
        <time>2019-10-05T13:32:44.000Z</time>
      </trkpt>
      <trkpt lat="46.35199" lon="6.05139">
        <ele>822.40002441406</ele>
        <time>2019-10-05T13:32:48.000Z</time>
      </trkpt>
      <trkpt lat="46.352" lon="6.05141">
        <ele>822.59997558594</ele>
        <time>2019-10-05T13:32:49.000Z</time>
      </trkpt>
      <trkpt lat="46.35212" lon="6.05157">
        <ele>823.79998779297</ele>
        <time>2019-10-05T13:32:55.000Z</time>
      </trkpt>
      <trkpt lat="46.35216" lon="6.05162">
        <ele>824.20001220703</ele>
        <time>2019-10-05T13:32:57.000Z</time>
      </trkpt>
      <trkpt lat="46.35221" lon="6.0517">
        <ele>824.59997558594</ele>
        <time>2019-10-05T13:33:00.000Z</time>
      </trkpt>
      <trkpt lat="46.35234" lon="6.05187">
        <ele>825.59997558594</ele>
        <time>2019-10-05T13:33:06.000Z</time>
      </trkpt>
      <trkpt lat="46.35236" lon="6.05189">
        <ele>825.79998779297</ele>
        <time>2019-10-05T13:33:07.000Z</time>
      </trkpt>
      <trkpt lat="46.35246" lon="6.05202">
        <ele>825.79998779297</ele>
        <time>2019-10-05T13:33:12.000Z</time>
      </trkpt>
      <trkpt lat="46.3525" lon="6.05206">
        <ele>826</ele>
        <time>2019-10-05T13:33:14.000Z</time>
      </trkpt>
      <trkpt lat="46.35256" lon="6.05214">
        <ele>826.20001220703</ele>
        <time>2019-10-05T13:33:17.000Z</time>
      </trkpt>
      <trkpt lat="46.35265" lon="6.05222">
        <ele>826.59997558594</ele>
        <time>2019-10-05T13:33:21.000Z</time>
      </trkpt>
      <trkpt lat="46.35268" lon="6.05224">
        <ele>826.79998779297</ele>
        <time>2019-10-05T13:33:22.000Z</time>
      </trkpt>
      <trkpt lat="46.35274" lon="6.0523">
        <ele>827.79998779297</ele>
        <time>2019-10-05T13:33:25.000Z</time>
      </trkpt>
      <trkpt lat="46.35285" lon="6.05242">
        <ele>829.79998779297</ele>
        <time>2019-10-05T13:33:30.000Z</time>
      </trkpt>
      <trkpt lat="46.35288" lon="6.05244">
        <ele>830.20001220703</ele>
        <time>2019-10-05T13:33:31.000Z</time>
      </trkpt>
      <trkpt lat="46.35295" lon="6.05251">
        <ele>831.59997558594</ele>
        <time>2019-10-05T13:33:34.000Z</time>
      </trkpt>
      <trkpt lat="46.35306" lon="6.05264">
        <ele>833.59997558594</ele>
        <time>2019-10-05T13:33:39.000Z</time>
      </trkpt>
      <trkpt lat="46.35318" lon="6.05281">
        <ele>835.59997558594</ele>
        <time>2019-10-05T13:33:45.000Z</time>
      </trkpt>
      <trkpt lat="46.3532" lon="6.05283">
        <ele>835.79998779297</ele>
        <time>2019-10-05T13:33:46.000Z</time>
      </trkpt>
      <trkpt lat="46.35325" lon="6.05293">
        <ele>836.59997558594</ele>
        <time>2019-10-05T13:33:49.000Z</time>
      </trkpt>
      <trkpt lat="46.35331" lon="6.05307">
        <ele>837.59997558594</ele>
        <time>2019-10-05T13:33:53.000Z</time>
      </trkpt>
      <trkpt lat="46.35335" lon="6.05322">
        <ele>837.20001220703</ele>
        <time>2019-10-05T13:33:57.000Z</time>
      </trkpt>
      <trkpt lat="46.35337" lon="6.0533">
        <ele>836.79998779297</ele>
        <time>2019-10-05T13:33:59.000Z</time>
      </trkpt>
      <trkpt lat="46.3534" lon="6.05342">
        <ele>836.79998779297</ele>
        <time>2019-10-05T13:34:02.000Z</time>
      </trkpt>
      <trkpt lat="46.35345" lon="6.05358">
        <ele>837</ele>
        <time>2019-10-05T13:34:06.000Z</time>
      </trkpt>
      <trkpt lat="46.35347" lon="6.05365">
        <ele>837</ele>
        <time>2019-10-05T13:34:08.000Z</time>
      </trkpt>
      <trkpt lat="46.35354" lon="6.05387">
        <ele>837.40002441406</ele>
        <time>2019-10-05T13:34:14.000Z</time>
      </trkpt>
      <trkpt lat="46.35355" lon="6.05391">
        <ele>837.40002441406</ele>
        <time>2019-10-05T13:34:15.000Z</time>
      </trkpt>
      <trkpt lat="46.35363" lon="6.05407">
        <ele>837</ele>
        <time>2019-10-05T13:34:20.000Z</time>
      </trkpt>
      <trkpt lat="46.35376" lon="6.05421">
        <ele>837.20001220703</ele>
        <time>2019-10-05T13:34:26.000Z</time>
      </trkpt>
      <trkpt lat="46.35379" lon="6.05423">
        <ele>837.20001220703</ele>
        <time>2019-10-05T13:34:27.000Z</time>
      </trkpt>
      <trkpt lat="46.35392" lon="6.05428">
        <ele>838</ele>
        <time>2019-10-05T13:34:32.000Z</time>
      </trkpt>
      <trkpt lat="46.35408" lon="6.05426">
        <ele>837.40002441406</ele>
        <time>2019-10-05T13:34:38.000Z</time>
      </trkpt>
      <trkpt lat="46.35411" lon="6.05425">
        <ele>837.20001220703</ele>
        <time>2019-10-05T13:34:39.000Z</time>
      </trkpt>
      <trkpt lat="46.35417" lon="6.05423">
        <ele>836.79998779297</ele>
        <time>2019-10-05T13:34:41.000Z</time>
      </trkpt>
      <trkpt lat="46.35427" lon="6.05416">
        <ele>836.40002441406</ele>
        <time>2019-10-05T13:34:45.000Z</time>
      </trkpt>
      <trkpt lat="46.3543" lon="6.05414">
        <ele>836.59997558594</ele>
        <time>2019-10-05T13:34:46.000Z</time>
      </trkpt>
      <trkpt lat="46.35447" lon="6.05399">
        <ele>837.79998779297</ele>
        <time>2019-10-05T13:34:53.000Z</time>
      </trkpt>
      <trkpt lat="46.35458" lon="6.05388">
        <ele>838.59997558594</ele>
        <time>2019-10-05T13:34:58.000Z</time>
      </trkpt>
      <trkpt lat="46.35465" lon="6.05382">
        <ele>838.59997558594</ele>
        <time>2019-10-05T13:35:01.000Z</time>
      </trkpt>
      <trkpt lat="46.35481" lon="6.05373">
        <ele>841.40002441406</ele>
        <time>2019-10-05T13:35:07.000Z</time>
      </trkpt>
      <trkpt lat="46.35486" lon="6.0537">
        <ele>842.59997558594</ele>
        <time>2019-10-05T13:35:09.000Z</time>
      </trkpt>
      <trkpt lat="46.35502" lon="6.05365">
        <ele>845.59997558594</ele>
        <time>2019-10-05T13:35:15.000Z</time>
      </trkpt>
      <trkpt lat="46.35508" lon="6.05364">
        <ele>846.40002441406</ele>
        <time>2019-10-05T13:35:17.000Z</time>
      </trkpt>
      <trkpt lat="46.35526" lon="6.05363">
        <ele>848.59997558594</ele>
        <time>2019-10-05T13:35:24.000Z</time>
      </trkpt>
      <trkpt lat="46.35528" lon="6.05364">
        <ele>848.79998779297</ele>
        <time>2019-10-05T13:35:25.000Z</time>
      </trkpt>
      <trkpt lat="46.35539" lon="6.05365">
        <ele>849.59997558594</ele>
        <time>2019-10-05T13:35:29.000Z</time>
      </trkpt>
      <trkpt lat="46.35547" lon="6.05367">
        <ele>850.79998779297</ele>
        <time>2019-10-05T13:35:32.000Z</time>
      </trkpt>
      <trkpt lat="46.3555" lon="6.05367">
        <ele>851.20001220703</ele>
        <time>2019-10-05T13:35:33.000Z</time>
      </trkpt>
      <trkpt lat="46.3556" lon="6.05371">
        <ele>852.20001220703</ele>
        <time>2019-10-05T13:35:37.000Z</time>
      </trkpt>
      <trkpt lat="46.35571" lon="6.05375">
        <ele>854</ele>
        <time>2019-10-05T13:35:41.000Z</time>
      </trkpt>
      <trkpt lat="46.35574" lon="6.05376">
        <ele>854.59997558594</ele>
        <time>2019-10-05T13:35:42.000Z</time>
      </trkpt>
      <trkpt lat="46.35584" lon="6.0538">
        <ele>856.59997558594</ele>
        <time>2019-10-05T13:35:46.000Z</time>
      </trkpt>
      <trkpt lat="46.35591" lon="6.05385">
        <ele>857.59997558594</ele>
        <time>2019-10-05T13:35:49.000Z</time>
      </trkpt>
      <trkpt lat="46.35594" lon="6.05386">
        <ele>858</ele>
        <time>2019-10-05T13:35:50.000Z</time>
      </trkpt>
      <trkpt lat="46.35606" lon="6.05394">
        <ele>859.59997558594</ele>
        <time>2019-10-05T13:35:55.000Z</time>
      </trkpt>
      <trkpt lat="46.35608" lon="6.05396">
        <ele>860</ele>
        <time>2019-10-05T13:35:56.000Z</time>
      </trkpt>
      <trkpt lat="46.35612" lon="6.05399">
        <ele>860.79998779297</ele>
        <time>2019-10-05T13:35:58.000Z</time>
      </trkpt>
      <trkpt lat="46.35622" lon="6.05407">
        <ele>862.79998779297</ele>
        <time>2019-10-05T13:36:02.000Z</time>
      </trkpt>
      <trkpt lat="46.35625" lon="6.05409">
        <ele>863</ele>
        <time>2019-10-05T13:36:03.000Z</time>
      </trkpt>
      <trkpt lat="46.35632" lon="6.05416">
        <ele>864</ele>
        <time>2019-10-05T13:36:06.000Z</time>
      </trkpt>
      <trkpt lat="46.35641" lon="6.05432">
        <ele>864.40002441406</ele>
        <time>2019-10-05T13:36:11.000Z</time>
      </trkpt>
      <trkpt lat="46.35643" lon="6.05435">
        <ele>864.40002441406</ele>
        <time>2019-10-05T13:36:12.000Z</time>
      </trkpt>
      <trkpt lat="46.3566" lon="6.05457">
        <ele>863.40002441406</ele>
        <time>2019-10-05T13:36:20.000Z</time>
      </trkpt>
      <trkpt lat="46.35677" lon="6.05462">
        <ele>864.79998779297</ele>
        <time>2019-10-05T13:36:26.000Z</time>
      </trkpt>
      <trkpt lat="46.35693" lon="6.05459">
        <ele>867.79998779297</ele>
        <time>2019-10-05T13:36:32.000Z</time>
      </trkpt>
      <trkpt lat="46.35715" lon="6.05451">
        <ele>872</ele>
        <time>2019-10-05T13:36:40.000Z</time>
      </trkpt>
      <trkpt lat="46.35725" lon="6.05447">
        <ele>873.59997558594</ele>
        <time>2019-10-05T13:36:44.000Z</time>
      </trkpt>
      <trkpt lat="46.35737" lon="6.05441">
        <ele>873.79998779297</ele>
        <time>2019-10-05T13:36:49.000Z</time>
      </trkpt>
      <trkpt lat="46.35752" lon="6.0543">
        <ele>872.79998779297</ele>
        <time>2019-10-05T13:36:55.000Z</time>
      </trkpt>
      <trkpt lat="46.35757" lon="6.05426">
        <ele>872.59997558594</ele>
        <time>2019-10-05T13:36:57.000Z</time>
      </trkpt>
      <trkpt lat="46.35777" lon="6.05412">
        <ele>871.40002441406</ele>
        <time>2019-10-05T13:37:05.000Z</time>
      </trkpt>
      <trkpt lat="46.35789" lon="6.05404">
        <ele>870.40002441406</ele>
        <time>2019-10-05T13:37:10.000Z</time>
      </trkpt>
      <trkpt lat="46.35809" lon="6.05389">
        <ele>869.79998779297</ele>
        <time>2019-10-05T13:37:18.000Z</time>
      </trkpt>
      <trkpt lat="46.35826" lon="6.05368">
        <ele>872</ele>
        <time>2019-10-05T13:37:26.000Z</time>
      </trkpt>
      <trkpt lat="46.35838" lon="6.05345">
        <ele>875.40002441406</ele>
        <time>2019-10-05T13:37:33.000Z</time>
      </trkpt>
      <trkpt lat="46.3584" lon="6.05341">
        <ele>876</ele>
        <time>2019-10-05T13:37:34.000Z</time>
      </trkpt>
      <trkpt lat="46.35853" lon="6.05313">
        <ele>880.59997558594</ele>
        <time>2019-10-05T13:37:42.000Z</time>
      </trkpt>
      <trkpt lat="46.35869" lon="6.05287">
        <ele>883.79998779297</ele>
        <time>2019-10-05T13:37:50.000Z</time>
      </trkpt>
      <trkpt lat="46.3588" lon="6.05273">
        <ele>884.40002441406</ele>
        <time>2019-10-05T13:37:55.000Z</time>
      </trkpt>
      <trkpt lat="46.35887" lon="6.05265">
        <ele>884.40002441406</ele>
        <time>2019-10-05T13:37:58.000Z</time>
      </trkpt>
      <trkpt lat="46.3589" lon="6.0526">
        <ele>884.59997558594</ele>
        <time>2019-10-05T13:38:00.000Z</time>
      </trkpt>
      <trkpt lat="46.35894" lon="6.05254">
        <ele>884.79998779297</ele>
        <time>2019-10-05T13:38:03.000Z</time>
      </trkpt>
      <trkpt lat="46.35896" lon="6.05247">
        <ele>885.40002441406</ele>
        <time>2019-10-05T13:38:05.000Z</time>
      </trkpt>
      <trkpt lat="46.35896" lon="6.05244">
        <ele>885.79998779297</ele>
        <time>2019-10-05T13:38:06.000Z</time>
      </trkpt>
      <trkpt lat="46.35897" lon="6.05239">
        <ele>886.40002441406</ele>
        <time>2019-10-05T13:38:07.000Z</time>
      </trkpt>
      <trkpt lat="46.35897" lon="6.05235">
        <ele>887</ele>
        <time>2019-10-05T13:38:08.000Z</time>
      </trkpt>
      <trkpt lat="46.35897" lon="6.0523">
        <ele>887.59997558594</ele>
        <time>2019-10-05T13:38:09.000Z</time>
      </trkpt>
      <trkpt lat="46.35896" lon="6.05226">
        <ele>888.20001220703</ele>
        <time>2019-10-05T13:38:10.000Z</time>
      </trkpt>
      <trkpt lat="46.35894" lon="6.05217">
        <ele>890.40002441406</ele>
        <time>2019-10-05T13:38:12.000Z</time>
      </trkpt>
      <trkpt lat="46.35893" lon="6.05212">
        <ele>891.59997558594</ele>
        <time>2019-10-05T13:38:13.000Z</time>
      </trkpt>
      <trkpt lat="46.35892" lon="6.05208">
        <ele>892.59997558594</ele>
        <time>2019-10-05T13:38:14.000Z</time>
      </trkpt>
      <trkpt lat="46.35888" lon="6.052">
        <ele>895</ele>
        <time>2019-10-05T13:38:16.000Z</time>
      </trkpt>
      <trkpt lat="46.35883" lon="6.05195">
        <ele>897</ele>
        <time>2019-10-05T13:38:18.000Z</time>
      </trkpt>
      <trkpt lat="46.35877" lon="6.05194">
        <ele>898.59997558594</ele>
        <time>2019-10-05T13:38:20.000Z</time>
      </trkpt>
      <trkpt lat="46.3587" lon="6.05196">
        <ele>899.59997558594</ele>
        <time>2019-10-05T13:38:22.000Z</time>
      </trkpt>
      <trkpt lat="46.35866" lon="6.05199">
        <ele>899.59997558594</ele>
        <time>2019-10-05T13:38:23.000Z</time>
      </trkpt>
      <trkpt lat="46.35859" lon="6.05206">
        <ele>898.40002441406</ele>
        <time>2019-10-05T13:38:25.000Z</time>
      </trkpt>
      <trkpt lat="46.35857" lon="6.05211">
        <ele>897.59997558594</ele>
        <time>2019-10-05T13:38:26.000Z</time>
      </trkpt>
      <trkpt lat="46.35855" lon="6.05215">
        <ele>896.79998779297</ele>
        <time>2019-10-05T13:38:27.000Z</time>
      </trkpt>
      <trkpt lat="46.35849" lon="6.05242">
        <ele>893</ele>
        <time>2019-10-05T13:38:32.000Z</time>
      </trkpt>
      <trkpt lat="46.35842" lon="6.05265">
        <ele>890.20001220703</ele>
        <time>2019-10-05T13:38:37.000Z</time>
      </trkpt>
      <trkpt lat="46.35839" lon="6.05274">
        <ele>889</ele>
        <time>2019-10-05T13:38:39.000Z</time>
      </trkpt>
      <trkpt lat="46.35831" lon="6.05289">
        <ele>887</ele>
        <time>2019-10-05T13:38:43.000Z</time>
      </trkpt>
      <trkpt lat="46.35823" lon="6.05296">
        <ele>886.40002441406</ele>
        <time>2019-10-05T13:38:46.000Z</time>
      </trkpt>
      <trkpt lat="46.35819" lon="6.053">
        <ele>886.20001220703</ele>
        <time>2019-10-05T13:38:48.000Z</time>
      </trkpt>
      <trkpt lat="46.35811" lon="6.05306">
        <ele>887</ele>
        <time>2019-10-05T13:38:52.000Z</time>
      </trkpt>
      <trkpt lat="46.35803" lon="6.05311">
        <ele>887</ele>
        <time>2019-10-05T13:38:55.000Z</time>
      </trkpt>
      <trkpt lat="46.35801" lon="6.05312">
        <ele>887.40002441406</ele>
        <time>2019-10-05T13:38:56.000Z</time>
      </trkpt>
      <trkpt lat="46.35798" lon="6.05313">
        <ele>887.59997558594</ele>
        <time>2019-10-05T13:38:57.000Z</time>
      </trkpt>
      <trkpt lat="46.35786" lon="6.05322">
        <ele>888.79998779297</ele>
        <time>2019-10-05T13:39:02.000Z</time>
      </trkpt>
      <trkpt lat="46.35783" lon="6.05323">
        <ele>889</ele>
        <time>2019-10-05T13:39:03.000Z</time>
      </trkpt>
      <trkpt lat="46.35779" lon="6.05325">
        <ele>889.40002441406</ele>
        <time>2019-10-05T13:39:05.000Z</time>
      </trkpt>
      <trkpt lat="46.3577" lon="6.05331">
        <ele>890.40002441406</ele>
        <time>2019-10-05T13:39:09.000Z</time>
      </trkpt>
      <trkpt lat="46.35767" lon="6.05332">
        <ele>890.59997558594</ele>
        <time>2019-10-05T13:39:10.000Z</time>
      </trkpt>
      <trkpt lat="46.35758" lon="6.0534">
        <ele>890.79998779297</ele>
        <time>2019-10-05T13:39:14.000Z</time>
      </trkpt>
      <trkpt lat="46.3575" lon="6.05345">
        <ele>890.79998779297</ele>
        <time>2019-10-05T13:39:18.000Z</time>
      </trkpt>
      <trkpt lat="46.35743" lon="6.05348">
        <ele>891.20001220703</ele>
        <time>2019-10-05T13:39:21.000Z</time>
      </trkpt>
      <trkpt lat="46.35734" lon="6.05351">
        <ele>892</ele>
        <time>2019-10-05T13:39:25.000Z</time>
      </trkpt>
      <trkpt lat="46.35716" lon="6.05352">
        <ele>891</ele>
        <time>2019-10-05T13:39:32.000Z</time>
      </trkpt>
      <trkpt lat="46.357" lon="6.05344">
        <ele>891.79998779297</ele>
        <time>2019-10-05T13:39:38.000Z</time>
      </trkpt>
      <trkpt lat="46.35692" lon="6.05337">
        <ele>892.59997558594</ele>
        <time>2019-10-05T13:39:41.000Z</time>
      </trkpt>
      <trkpt lat="46.35688" lon="6.05333">
        <ele>893.40002441406</ele>
        <time>2019-10-05T13:39:43.000Z</time>
      </trkpt>
      <trkpt lat="46.35683" lon="6.05328">
        <ele>894.20001220703</ele>
        <time>2019-10-05T13:39:45.000Z</time>
      </trkpt>
      <trkpt lat="46.35677" lon="6.0532">
        <ele>895.79998779297</ele>
        <time>2019-10-05T13:39:48.000Z</time>
      </trkpt>
      <trkpt lat="46.3567" lon="6.05312">
        <ele>897.40002441406</ele>
        <time>2019-10-05T13:39:51.000Z</time>
      </trkpt>
      <trkpt lat="46.35666" lon="6.05306">
        <ele>899</ele>
        <time>2019-10-05T13:39:53.000Z</time>
      </trkpt>
      <trkpt lat="46.35664" lon="6.05303">
        <ele>899.79998779297</ele>
        <time>2019-10-05T13:39:54.000Z</time>
      </trkpt>
      <trkpt lat="46.35658" lon="6.05295">
        <ele>902.20001220703</ele>
        <time>2019-10-05T13:39:57.000Z</time>
      </trkpt>
      <trkpt lat="46.35649" lon="6.05284">
        <ele>905.79998779297</ele>
        <time>2019-10-05T13:40:01.000Z</time>
      </trkpt>
      <trkpt lat="46.35645" lon="6.05279">
        <ele>907</ele>
        <time>2019-10-05T13:40:03.000Z</time>
      </trkpt>
      <trkpt lat="46.35635" lon="6.05266">
        <ele>908.79998779297</ele>
        <time>2019-10-05T13:40:08.000Z</time>
      </trkpt>
      <trkpt lat="46.35633" lon="6.05263">
        <ele>909</ele>
        <time>2019-10-05T13:40:09.000Z</time>
      </trkpt>
      <trkpt lat="46.35617" lon="6.05242">
        <ele>912.20001220703</ele>
        <time>2019-10-05T13:40:17.000Z</time>
      </trkpt>
      <trkpt lat="46.35605" lon="6.05226">
        <ele>914.79998779297</ele>
        <time>2019-10-05T13:40:23.000Z</time>
      </trkpt>
      <trkpt lat="46.35603" lon="6.05223">
        <ele>915.20001220703</ele>
        <time>2019-10-05T13:40:24.000Z</time>
      </trkpt>
      <trkpt lat="46.35592" lon="6.05208">
        <ele>918</ele>
        <time>2019-10-05T13:40:30.000Z</time>
      </trkpt>
      <trkpt lat="46.3559" lon="6.05205">
        <ele>918.40002441406</ele>
        <time>2019-10-05T13:40:31.000Z</time>
      </trkpt>
      <trkpt lat="46.35583" lon="6.05196">
        <ele>920</ele>
        <time>2019-10-05T13:40:35.000Z</time>
      </trkpt>
      <trkpt lat="46.35579" lon="6.05191">
        <ele>920.79998779297</ele>
        <time>2019-10-05T13:40:37.000Z</time>
      </trkpt>
      <trkpt lat="46.3557" lon="6.05178">
        <ele>923.20001220703</ele>
        <time>2019-10-05T13:40:42.000Z</time>
      </trkpt>
      <trkpt lat="46.35564" lon="6.05171">
        <ele>924.40002441406</ele>
        <time>2019-10-05T13:40:45.000Z</time>
      </trkpt>
      <trkpt lat="46.3556" lon="6.05165">
        <ele>925.40002441406</ele>
        <time>2019-10-05T13:40:47.000Z</time>
      </trkpt>
      <trkpt lat="46.35557" lon="6.05158">
        <ele>926.79998779297</ele>
        <time>2019-10-05T13:40:49.000Z</time>
      </trkpt>
      <trkpt lat="46.35555" lon="6.05155">
        <ele>927.40002441406</ele>
        <time>2019-10-05T13:40:50.000Z</time>
      </trkpt>
      <trkpt lat="46.35548" lon="6.05143">
        <ele>929</ele>
        <time>2019-10-05T13:40:54.000Z</time>
      </trkpt>
      <trkpt lat="46.35541" lon="6.05135">
        <ele>929.59997558594</ele>
        <time>2019-10-05T13:40:57.000Z</time>
      </trkpt>
      <trkpt lat="46.35534" lon="6.05123">
        <ele>930.59997558594</ele>
        <time>2019-10-05T13:41:01.000Z</time>
      </trkpt>
      <trkpt lat="46.35524" lon="6.05108">
        <ele>931.40002441406</ele>
        <time>2019-10-05T13:41:06.000Z</time>
      </trkpt>
      <trkpt lat="46.35514" lon="6.05098">
        <ele>931.20001220703</ele>
        <time>2019-10-05T13:41:10.000Z</time>
      </trkpt>
      <trkpt lat="46.3551" lon="6.05093">
        <ele>931.20001220703</ele>
        <time>2019-10-05T13:41:12.000Z</time>
      </trkpt>
      <trkpt lat="46.35508" lon="6.0509">
        <ele>931</ele>
        <time>2019-10-05T13:41:13.000Z</time>
      </trkpt>
      <trkpt lat="46.35505" lon="6.05088">
        <ele>931</ele>
        <time>2019-10-05T13:41:14.000Z</time>
      </trkpt>
      <trkpt lat="46.35501" lon="6.05083">
        <ele>931</ele>
        <time>2019-10-05T13:41:16.000Z</time>
      </trkpt>
      <trkpt lat="46.35496" lon="6.05078">
        <ele>930.59997558594</ele>
        <time>2019-10-05T13:41:18.000Z</time>
      </trkpt>
      <trkpt lat="46.35491" lon="6.05073">
        <ele>930.20001220703</ele>
        <time>2019-10-05T13:41:20.000Z</time>
      </trkpt>
      <trkpt lat="46.35486" lon="6.05068">
        <ele>930.20001220703</ele>
        <time>2019-10-05T13:41:22.000Z</time>
      </trkpt>
      <trkpt lat="46.35484" lon="6.05066">
        <ele>929.79998779297</ele>
        <time>2019-10-05T13:41:23.000Z</time>
      </trkpt>
      <trkpt lat="46.35482" lon="6.05063">
        <ele>929.79998779297</ele>
        <time>2019-10-05T13:41:24.000Z</time>
      </trkpt>
      <trkpt lat="46.35479" lon="6.05061">
        <ele>929.59997558594</ele>
        <time>2019-10-05T13:41:25.000Z</time>
      </trkpt>
      <trkpt lat="46.35474" lon="6.05055">
        <ele>929.40002441406</ele>
        <time>2019-10-05T13:41:27.000Z</time>
      </trkpt>
      <trkpt lat="46.35472" lon="6.05052">
        <ele>929.20001220703</ele>
        <time>2019-10-05T13:41:28.000Z</time>
      </trkpt>
      <trkpt lat="46.3547" lon="6.05049">
        <ele>928.79998779297</ele>
        <time>2019-10-05T13:41:29.000Z</time>
      </trkpt>
      <trkpt lat="46.35467" lon="6.05047">
        <ele>928.40002441406</ele>
        <time>2019-10-05T13:41:30.000Z</time>
      </trkpt>
      <trkpt lat="46.35465" lon="6.05044">
        <ele>928.40002441406</ele>
        <time>2019-10-05T13:41:31.000Z</time>
      </trkpt>
      <trkpt lat="46.35463" lon="6.05041">
        <ele>928.20001220703</ele>
        <time>2019-10-05T13:41:32.000Z</time>
      </trkpt>
      <trkpt lat="46.35461" lon="6.05038">
        <ele>928.40002441406</ele>
        <time>2019-10-05T13:41:33.000Z</time>
      </trkpt>
      <trkpt lat="46.35459" lon="6.05035">
        <ele>928.20001220703</ele>
        <time>2019-10-05T13:41:34.000Z</time>
      </trkpt>
      <trkpt lat="46.35457" lon="6.05033">
        <ele>928</ele>
        <time>2019-10-05T13:41:35.000Z</time>
      </trkpt>
      <trkpt lat="46.35454" lon="6.0503">
        <ele>927.59997558594</ele>
        <time>2019-10-05T13:41:36.000Z</time>
      </trkpt>
      <trkpt lat="46.35452" lon="6.05027">
        <ele>927.20001220703</ele>
        <time>2019-10-05T13:41:37.000Z</time>
      </trkpt>
      <trkpt lat="46.35447" lon="6.05022">
        <ele>926.59997558594</ele>
        <time>2019-10-05T13:41:39.000Z</time>
      </trkpt>
      <trkpt lat="46.35445" lon="6.05019">
        <ele>926.40002441406</ele>
        <time>2019-10-05T13:41:40.000Z</time>
      </trkpt>
      <trkpt lat="46.35441" lon="6.05013">
        <ele>926.40002441406</ele>
        <time>2019-10-05T13:41:42.000Z</time>
      </trkpt>
      <trkpt lat="46.35437" lon="6.05007">
        <ele>926.40002441406</ele>
        <time>2019-10-05T13:41:44.000Z</time>
      </trkpt>
      <trkpt lat="46.35435" lon="6.05004">
        <ele>926.40002441406</ele>
        <time>2019-10-05T13:41:45.000Z</time>
      </trkpt>
      <trkpt lat="46.35433" lon="6.05">
        <ele>926.59997558594</ele>
        <time>2019-10-05T13:41:46.000Z</time>
      </trkpt>
      <trkpt lat="46.35429" lon="6.04994">
        <ele>926.40002441406</ele>
        <time>2019-10-05T13:41:48.000Z</time>
      </trkpt>
      <trkpt lat="46.35424" lon="6.04988">
        <ele>926.40002441406</ele>
        <time>2019-10-05T13:41:50.000Z</time>
      </trkpt>
      <trkpt lat="46.35419" lon="6.04978">
        <ele>926.59997558594</ele>
        <time>2019-10-05T13:41:53.000Z</time>
      </trkpt>
      <trkpt lat="46.35414" lon="6.04968">
        <ele>926.79998779297</ele>
        <time>2019-10-05T13:41:56.000Z</time>
      </trkpt>
      <trkpt lat="46.3541" lon="6.04962">
        <ele>926.59997558594</ele>
        <time>2019-10-05T13:41:58.000Z</time>
      </trkpt>
      <trkpt lat="46.35407" lon="6.04955">
        <ele>926.59997558594</ele>
        <time>2019-10-05T13:42:00.000Z</time>
      </trkpt>
      <trkpt lat="46.35401" lon="6.04945">
        <ele>926.40002441406</ele>
        <time>2019-10-05T13:42:03.000Z</time>
      </trkpt>
      <trkpt lat="46.35395" lon="6.04937">
        <ele>926.20001220703</ele>
        <time>2019-10-05T13:42:06.000Z</time>
      </trkpt>
      <trkpt lat="46.35393" lon="6.04934">
        <ele>926.20001220703</ele>
        <time>2019-10-05T13:42:07.000Z</time>
      </trkpt>
      <trkpt lat="46.35389" lon="6.04929">
        <ele>926.40002441406</ele>
        <time>2019-10-05T13:42:09.000Z</time>
      </trkpt>
      <trkpt lat="46.35382" lon="6.04921">
        <ele>926.20001220703</ele>
        <time>2019-10-05T13:42:12.000Z</time>
      </trkpt>
      <trkpt lat="46.35377" lon="6.04916">
        <ele>926</ele>
        <time>2019-10-05T13:42:14.000Z</time>
      </trkpt>
      <trkpt lat="46.3537" lon="6.0491">
        <ele>925.40002441406</ele>
        <time>2019-10-05T13:42:17.000Z</time>
      </trkpt>
      <trkpt lat="46.35361" lon="6.049">
        <ele>925.20001220703</ele>
        <time>2019-10-05T13:42:21.000Z</time>
      </trkpt>
      <trkpt lat="46.35357" lon="6.04894">
        <ele>925.40002441406</ele>
        <time>2019-10-05T13:42:23.000Z</time>
      </trkpt>
      <trkpt lat="46.35351" lon="6.04877">
        <ele>927.40002441406</ele>
        <time>2019-10-05T13:42:28.000Z</time>
      </trkpt>
      <trkpt lat="46.35348" lon="6.04865">
        <ele>929.20001220703</ele>
        <time>2019-10-05T13:42:31.000Z</time>
      </trkpt>
      <trkpt lat="46.35342" lon="6.04847">
        <ele>931.59997558594</ele>
        <time>2019-10-05T13:42:36.000Z</time>
      </trkpt>
      <trkpt lat="46.35341" lon="6.04844">
        <ele>932</ele>
        <time>2019-10-05T13:42:37.000Z</time>
      </trkpt>
      <trkpt lat="46.35337" lon="6.04834">
        <ele>932.59997558594</ele>
        <time>2019-10-05T13:42:40.000Z</time>
      </trkpt>
      <trkpt lat="46.35334" lon="6.04828">
        <ele>933.20001220703</ele>
        <time>2019-10-05T13:42:42.000Z</time>
      </trkpt>
      <trkpt lat="46.35332" lon="6.04825">
        <ele>933.40002441406</ele>
        <time>2019-10-05T13:42:43.000Z</time>
      </trkpt>
      <trkpt lat="46.35323" lon="6.04814">
        <ele>933.40002441406</ele>
        <time>2019-10-05T13:42:47.000Z</time>
      </trkpt>
      <trkpt lat="46.35321" lon="6.04811">
        <ele>933.40002441406</ele>
        <time>2019-10-05T13:42:48.000Z</time>
      </trkpt>
      <trkpt lat="46.35309" lon="6.04797">
        <ele>933.59997558594</ele>
        <time>2019-10-05T13:42:54.000Z</time>
      </trkpt>
      <trkpt lat="46.35306" lon="6.04795">
        <ele>933.40002441406</ele>
        <time>2019-10-05T13:42:55.000Z</time>
      </trkpt>
      <trkpt lat="46.35295" lon="6.04787">
        <ele>933.20001220703</ele>
        <time>2019-10-05T13:42:59.000Z</time>
      </trkpt>
      <trkpt lat="46.35291" lon="6.04782">
        <ele>933.20001220703</ele>
        <time>2019-10-05T13:43:01.000Z</time>
      </trkpt>
      <trkpt lat="46.35284" lon="6.04776">
        <ele>933.40002441406</ele>
        <time>2019-10-05T13:43:04.000Z</time>
      </trkpt>
      <trkpt lat="46.35276" lon="6.04769">
        <ele>933.40002441406</ele>
        <time>2019-10-05T13:43:07.000Z</time>
      </trkpt>
      <trkpt lat="46.35272" lon="6.04764">
        <ele>933.59997558594</ele>
        <time>2019-10-05T13:43:09.000Z</time>
      </trkpt>
      <trkpt lat="46.35267" lon="6.04759">
        <ele>933.59997558594</ele>
        <time>2019-10-05T13:43:11.000Z</time>
      </trkpt>
      <trkpt lat="46.3526" lon="6.04751">
        <ele>934</ele>
        <time>2019-10-05T13:43:14.000Z</time>
      </trkpt>
      <trkpt lat="46.35253" lon="6.04743">
        <ele>934.59997558594</ele>
        <time>2019-10-05T13:43:17.000Z</time>
      </trkpt>
      <trkpt lat="46.35249" lon="6.04738">
        <ele>934.79998779297</ele>
        <time>2019-10-05T13:43:19.000Z</time>
      </trkpt>
      <trkpt lat="46.35242" lon="6.0473">
        <ele>935.20001220703</ele>
        <time>2019-10-05T13:43:22.000Z</time>
      </trkpt>
      <trkpt lat="46.35232" lon="6.04715">
        <ele>936.40002441406</ele>
        <time>2019-10-05T13:43:27.000Z</time>
      </trkpt>
      <trkpt lat="46.35225" lon="6.04703">
        <ele>937.20001220703</ele>
        <time>2019-10-05T13:43:31.000Z</time>
      </trkpt>
      <trkpt lat="46.3522" lon="6.04691">
        <ele>938.40002441406</ele>
        <time>2019-10-05T13:43:34.000Z</time>
      </trkpt>
      <trkpt lat="46.35217" lon="6.04684">
        <ele>939.40002441406</ele>
        <time>2019-10-05T13:43:36.000Z</time>
      </trkpt>
      <trkpt lat="46.35209" lon="6.04667">
        <ele>941</ele>
        <time>2019-10-05T13:43:41.000Z</time>
      </trkpt>
      <trkpt lat="46.35207" lon="6.04664">
        <ele>941.40002441406</ele>
        <time>2019-10-05T13:43:42.000Z</time>
      </trkpt>
      <trkpt lat="46.35198" lon="6.04648">
        <ele>942.40002441406</ele>
        <time>2019-10-05T13:43:47.000Z</time>
      </trkpt>
      <trkpt lat="46.35194" lon="6.04642">
        <ele>942.59997558594</ele>
        <time>2019-10-05T13:43:49.000Z</time>
      </trkpt>
      <trkpt lat="46.35188" lon="6.04633">
        <ele>942.79998779297</ele>
        <time>2019-10-05T13:43:52.000Z</time>
      </trkpt>
      <trkpt lat="46.35181" lon="6.04619">
        <ele>943.20001220703</ele>
        <time>2019-10-05T13:43:56.000Z</time>
      </trkpt>
      <trkpt lat="46.35176" lon="6.04609">
        <ele>943.79998779297</ele>
        <time>2019-10-05T13:43:59.000Z</time>
      </trkpt>
      <trkpt lat="46.3517" lon="6.04591">
        <ele>945.20001220703</ele>
        <time>2019-10-05T13:44:04.000Z</time>
      </trkpt>
      <trkpt lat="46.35162" lon="6.04568">
        <ele>947.20001220703</ele>
        <time>2019-10-05T13:44:10.000Z</time>
      </trkpt>
      <trkpt lat="46.35152" lon="6.04538">
        <ele>949.40002441406</ele>
        <time>2019-10-05T13:44:18.000Z</time>
      </trkpt>
      <trkpt lat="46.35145" lon="6.04525">
        <ele>949.79998779297</ele>
        <time>2019-10-05T13:44:22.000Z</time>
      </trkpt>
      <trkpt lat="46.35139" lon="6.04512">
        <ele>950.40002441406</ele>
        <time>2019-10-05T13:44:26.000Z</time>
      </trkpt>
      <trkpt lat="46.35133" lon="6.04499">
        <ele>951.20001220703</ele>
        <time>2019-10-05T13:44:30.000Z</time>
      </trkpt>
      <trkpt lat="46.35127" lon="6.04484">
        <ele>952.20001220703</ele>
        <time>2019-10-05T13:44:34.000Z</time>
      </trkpt>
      <trkpt lat="46.35113" lon="6.04457">
        <ele>953</ele>
        <time>2019-10-05T13:44:42.000Z</time>
      </trkpt>
      <trkpt lat="46.35111" lon="6.04454">
        <ele>953</ele>
        <time>2019-10-05T13:44:43.000Z</time>
      </trkpt>
      <trkpt lat="46.35103" lon="6.04433">
        <ele>954</ele>
        <time>2019-10-05T13:44:49.000Z</time>
      </trkpt>
      <trkpt lat="46.35094" lon="6.04418">
        <ele>953.59997558594</ele>
        <time>2019-10-05T13:44:54.000Z</time>
      </trkpt>
      <trkpt lat="46.3509" lon="6.04412">
        <ele>953.40002441406</ele>
        <time>2019-10-05T13:44:56.000Z</time>
      </trkpt>
      <trkpt lat="46.35088" lon="6.04409">
        <ele>953.40002441406</ele>
        <time>2019-10-05T13:44:57.000Z</time>
      </trkpt>
      <trkpt lat="46.35071" lon="6.04381">
        <ele>952</ele>
        <time>2019-10-05T13:45:06.000Z</time>
      </trkpt>
      <trkpt lat="46.35068" lon="6.0436">
        <ele>952</ele>
        <time>2019-10-05T13:45:11.000Z</time>
      </trkpt>
      <trkpt lat="46.3507" lon="6.04357">
        <ele>952.20001220703</ele>
        <time>2019-10-05T13:45:12.000Z</time>
      </trkpt>
      <trkpt lat="46.35072" lon="6.04355">
        <ele>952.40002441406</ele>
        <time>2019-10-05T13:45:13.000Z</time>
      </trkpt>
      <trkpt lat="46.35077" lon="6.04352">
        <ele>953.20001220703</ele>
        <time>2019-10-05T13:45:15.000Z</time>
      </trkpt>
      <trkpt lat="46.35089" lon="6.04355">
        <ele>954.59997558594</ele>
        <time>2019-10-05T13:45:19.000Z</time>
      </trkpt>
      <trkpt lat="46.35094" lon="6.04359">
        <ele>955.40002441406</ele>
        <time>2019-10-05T13:45:21.000Z</time>
      </trkpt>
      <trkpt lat="46.35107" lon="6.04373">
        <ele>957</ele>
        <time>2019-10-05T13:45:27.000Z</time>
      </trkpt>
      <trkpt lat="46.35114" lon="6.04382">
        <ele>957.59997558594</ele>
        <time>2019-10-05T13:45:30.000Z</time>
      </trkpt>
      <trkpt lat="46.35119" lon="6.04391">
        <ele>958.20001220703</ele>
        <time>2019-10-05T13:45:33.000Z</time>
      </trkpt>
      <trkpt lat="46.35123" lon="6.04397">
        <ele>958.59997558594</ele>
        <time>2019-10-05T13:45:35.000Z</time>
      </trkpt>
      <trkpt lat="46.35129" lon="6.04411">
        <ele>958.59997558594</ele>
        <time>2019-10-05T13:45:39.000Z</time>
      </trkpt>
      <trkpt lat="46.35131" lon="6.04415">
        <ele>958.79998779297</ele>
        <time>2019-10-05T13:45:40.000Z</time>
      </trkpt>
      <trkpt lat="46.35143" lon="6.04443">
        <ele>959</ele>
        <time>2019-10-05T13:45:48.000Z</time>
      </trkpt>
      <trkpt lat="46.35145" lon="6.04446">
        <ele>959</ele>
        <time>2019-10-05T13:45:49.000Z</time>
      </trkpt>
      <trkpt lat="46.3515" lon="6.04455">
        <ele>959.40002441406</ele>
        <time>2019-10-05T13:45:52.000Z</time>
      </trkpt>
      <trkpt lat="46.35159" lon="6.04463">
        <ele>960.40002441406</ele>
        <time>2019-10-05T13:45:56.000Z</time>
      </trkpt>
      <trkpt lat="46.35178" lon="6.04474">
        <ele>962.79998779297</ele>
        <time>2019-10-05T13:46:03.000Z</time>
      </trkpt>
      <trkpt lat="46.35201" lon="6.04482">
        <ele>965.79998779297</ele>
        <time>2019-10-05T13:46:11.000Z</time>
      </trkpt>
      <trkpt lat="46.35218" lon="6.04496">
        <ele>967.79998779297</ele>
        <time>2019-10-05T13:46:18.000Z</time>
      </trkpt>
      <trkpt lat="46.35222" lon="6.04502">
        <ele>968.20001220703</ele>
        <time>2019-10-05T13:46:20.000Z</time>
      </trkpt>
      <trkpt lat="46.35229" lon="6.04515">
        <ele>968.40002441406</ele>
        <time>2019-10-05T13:46:24.000Z</time>
      </trkpt>
      <trkpt lat="46.35232" lon="6.04522">
        <ele>968.40002441406</ele>
        <time>2019-10-05T13:46:26.000Z</time>
      </trkpt>
      <trkpt lat="46.35237" lon="6.04531">
        <ele>968.79998779297</ele>
        <time>2019-10-05T13:46:29.000Z</time>
      </trkpt>
      <trkpt lat="46.35246" lon="6.04548">
        <ele>969.20001220703</ele>
        <time>2019-10-05T13:46:34.000Z</time>
      </trkpt>
      <trkpt lat="46.35256" lon="6.04561">
        <ele>969.79998779297</ele>
        <time>2019-10-05T13:46:39.000Z</time>
      </trkpt>
      <trkpt lat="46.3526" lon="6.04566">
        <ele>969.79998779297</ele>
        <time>2019-10-05T13:46:41.000Z</time>
      </trkpt>
      <trkpt lat="46.35265" lon="6.04571">
        <ele>969.79998779297</ele>
        <time>2019-10-05T13:46:43.000Z</time>
      </trkpt>
      <trkpt lat="46.35276" lon="6.04581">
        <ele>970.20001220703</ele>
        <time>2019-10-05T13:46:48.000Z</time>
      </trkpt>
      <trkpt lat="46.35279" lon="6.04582">
        <ele>970.40002441406</ele>
        <time>2019-10-05T13:46:49.000Z</time>
      </trkpt>
      <trkpt lat="46.35293" lon="6.04592">
        <ele>971.20001220703</ele>
        <time>2019-10-05T13:46:55.000Z</time>
      </trkpt>
      <trkpt lat="46.35305" lon="6.04601">
        <ele>972</ele>
        <time>2019-10-05T13:47:00.000Z</time>
      </trkpt>
      <trkpt lat="46.35317" lon="6.04607">
        <ele>972.79998779297</ele>
        <time>2019-10-05T13:47:05.000Z</time>
      </trkpt>
      <trkpt lat="46.35322" lon="6.04608">
        <ele>973.40002441406</ele>
        <time>2019-10-05T13:47:07.000Z</time>
      </trkpt>
      <trkpt lat="46.35339" lon="6.04609">
        <ele>975.79998779297</ele>
        <time>2019-10-05T13:47:13.000Z</time>
      </trkpt>
      <trkpt lat="46.35341" lon="6.04608">
        <ele>976.20001220703</ele>
        <time>2019-10-05T13:47:14.000Z</time>
      </trkpt>
      <trkpt lat="46.35358" lon="6.04604">
        <ele>979.40002441406</ele>
        <time>2019-10-05T13:47:20.000Z</time>
      </trkpt>
      <trkpt lat="46.3537" lon="6.04604">
        <ele>980.59997558594</ele>
        <time>2019-10-05T13:47:24.000Z</time>
      </trkpt>
      <trkpt lat="46.35378" lon="6.04605">
        <ele>981.20001220703</ele>
        <time>2019-10-05T13:47:27.000Z</time>
      </trkpt>
      <trkpt lat="46.35402" lon="6.04614">
        <ele>983.20001220703</ele>
        <time>2019-10-05T13:47:36.000Z</time>
      </trkpt>
      <trkpt lat="46.35407" lon="6.04617">
        <ele>983.79998779297</ele>
        <time>2019-10-05T13:47:38.000Z</time>
      </trkpt>
      <trkpt lat="46.35414" lon="6.04624">
        <ele>984.20001220703</ele>
        <time>2019-10-05T13:47:41.000Z</time>
      </trkpt>
      <trkpt lat="46.3542" lon="6.04632">
        <ele>984.59997558594</ele>
        <time>2019-10-05T13:47:44.000Z</time>
      </trkpt>
      <trkpt lat="46.35422" lon="6.04635">
        <ele>984.59997558594</ele>
        <time>2019-10-05T13:47:45.000Z</time>
      </trkpt>
      <trkpt lat="46.35428" lon="6.04644">
        <ele>984.79998779297</ele>
        <time>2019-10-05T13:47:48.000Z</time>
      </trkpt>
      <trkpt lat="46.35434" lon="6.04652">
        <ele>984.79998779297</ele>
        <time>2019-10-05T13:47:51.000Z</time>
      </trkpt>
      <trkpt lat="46.35438" lon="6.04656">
        <ele>985</ele>
        <time>2019-10-05T13:47:53.000Z</time>
      </trkpt>
      <trkpt lat="46.35444" lon="6.04664">
        <ele>985.40002441406</ele>
        <time>2019-10-05T13:47:56.000Z</time>
      </trkpt>
      <trkpt lat="46.3545" lon="6.04671">
        <ele>985.79998779297</ele>
        <time>2019-10-05T13:47:59.000Z</time>
      </trkpt>
      <trkpt lat="46.35455" lon="6.04674">
        <ele>986.20001220703</ele>
        <time>2019-10-05T13:48:01.000Z</time>
      </trkpt>
      <trkpt lat="46.35465" lon="6.04682">
        <ele>987.20001220703</ele>
        <time>2019-10-05T13:48:05.000Z</time>
      </trkpt>
      <trkpt lat="46.35467" lon="6.04684">
        <ele>987.40002441406</ele>
        <time>2019-10-05T13:48:06.000Z</time>
      </trkpt>
      <trkpt lat="46.35479" lon="6.04697">
        <ele>988.20001220703</ele>
        <time>2019-10-05T13:48:11.000Z</time>
      </trkpt>
      <trkpt lat="46.35483" lon="6.04703">
        <ele>988.79998779297</ele>
        <time>2019-10-05T13:48:13.000Z</time>
      </trkpt>
      <trkpt lat="46.35487" lon="6.04709">
        <ele>990</ele>
        <time>2019-10-05T13:48:15.000Z</time>
      </trkpt>
      <trkpt lat="46.35496" lon="6.04725">
        <ele>991.79998779297</ele>
        <time>2019-10-05T13:48:20.000Z</time>
      </trkpt>
      <trkpt lat="46.35497" lon="6.04728">
        <ele>992.20001220703</ele>
        <time>2019-10-05T13:48:21.000Z</time>
      </trkpt>
      <trkpt lat="46.35504" lon="6.04746">
        <ele>994</ele>
        <time>2019-10-05T13:48:26.000Z</time>
      </trkpt>
      <trkpt lat="46.35507" lon="6.04753">
        <ele>994.79998779297</ele>
        <time>2019-10-05T13:48:28.000Z</time>
      </trkpt>
      <trkpt lat="46.35511" lon="6.04768">
        <ele>995.79998779297</ele>
        <time>2019-10-05T13:48:32.000Z</time>
      </trkpt>
      <trkpt lat="46.35516" lon="6.04783">
        <ele>996.59997558594</ele>
        <time>2019-10-05T13:48:36.000Z</time>
      </trkpt>
      <trkpt lat="46.35517" lon="6.04787">
        <ele>997</ele>
        <time>2019-10-05T13:48:37.000Z</time>
      </trkpt>
      <trkpt lat="46.35523" lon="6.04809">
        <ele>998.20001220703</ele>
        <time>2019-10-05T13:48:43.000Z</time>
      </trkpt>
      <trkpt lat="46.35526" lon="6.04821">
        <ele>997.59997558594</ele>
        <time>2019-10-05T13:48:46.000Z</time>
      </trkpt>
      <trkpt lat="46.35529" lon="6.04828">
        <ele>997.40002441406</ele>
        <time>2019-10-05T13:48:48.000Z</time>
      </trkpt>
      <trkpt lat="46.35534" lon="6.04842">
        <ele>997.20001220703</ele>
        <time>2019-10-05T13:48:52.000Z</time>
      </trkpt>
      <trkpt lat="46.3554" lon="6.04856">
        <ele>997.40002441406</ele>
        <time>2019-10-05T13:48:56.000Z</time>
      </trkpt>
      <trkpt lat="46.35542" lon="6.04859">
        <ele>997.59997558594</ele>
        <time>2019-10-05T13:48:57.000Z</time>
      </trkpt>
      <trkpt lat="46.35551" lon="6.04874">
        <ele>999.20001220703</ele>
        <time>2019-10-05T13:49:02.000Z</time>
      </trkpt>
      <trkpt lat="46.35555" lon="6.0488">
        <ele>1000</ele>
        <time>2019-10-05T13:49:04.000Z</time>
      </trkpt>
      <trkpt lat="46.35567" lon="6.04899">
        <ele>1001.5999755859</ele>
        <time>2019-10-05T13:49:10.000Z</time>
      </trkpt>
      <trkpt lat="46.35571" lon="6.04905">
        <ele>1001.4000244141</ele>
        <time>2019-10-05T13:49:12.000Z</time>
      </trkpt>
      <trkpt lat="46.35585" lon="6.04925">
        <ele>1001</ele>
        <time>2019-10-05T13:49:19.000Z</time>
      </trkpt>
      <trkpt lat="46.35587" lon="6.04929">
        <ele>1001</ele>
        <time>2019-10-05T13:49:20.000Z</time>
      </trkpt>
      <trkpt lat="46.35594" lon="6.0494">
        <ele>1000.799987793</ele>
        <time>2019-10-05T13:49:24.000Z</time>
      </trkpt>
      <trkpt lat="46.35602" lon="6.0495">
        <ele>1000.799987793</ele>
        <time>2019-10-05T13:49:28.000Z</time>
      </trkpt>
      <trkpt lat="46.35606" lon="6.04956">
        <ele>1000.799987793</ele>
        <time>2019-10-05T13:49:30.000Z</time>
      </trkpt>
      <trkpt lat="46.35615" lon="6.04969">
        <ele>1000.799987793</ele>
        <time>2019-10-05T13:49:35.000Z</time>
      </trkpt>
      <trkpt lat="46.35617" lon="6.04971">
        <ele>1000.799987793</ele>
        <time>2019-10-05T13:49:36.000Z</time>
      </trkpt>
      <trkpt lat="46.35632" lon="6.04989">
        <ele>1001.4000244141</ele>
        <time>2019-10-05T13:49:43.000Z</time>
      </trkpt>
      <trkpt lat="46.35634" lon="6.04991">
        <ele>1001.4000244141</ele>
        <time>2019-10-05T13:49:44.000Z</time>
      </trkpt>
      <trkpt lat="46.35645" lon="6.05002">
        <ele>1002.4000244141</ele>
        <time>2019-10-05T13:49:49.000Z</time>
      </trkpt>
      <trkpt lat="46.3565" lon="6.05006">
        <ele>1002</ele>
        <time>2019-10-05T13:49:51.000Z</time>
      </trkpt>
      <trkpt lat="46.35662" lon="6.05015">
        <ele>999.40002441406</ele>
        <time>2019-10-05T13:49:56.000Z</time>
      </trkpt>
      <trkpt lat="46.35675" lon="6.05022">
        <ele>997.20001220703</ele>
        <time>2019-10-05T13:50:01.000Z</time>
      </trkpt>
      <trkpt lat="46.35686" lon="6.05026">
        <ele>995.59997558594</ele>
        <time>2019-10-05T13:50:05.000Z</time>
      </trkpt>
      <trkpt lat="46.35694" lon="6.05027">
        <ele>994.79998779297</ele>
        <time>2019-10-05T13:50:08.000Z</time>
      </trkpt>
      <trkpt lat="46.3571" lon="6.05023">
        <ele>995.40002441406</ele>
        <time>2019-10-05T13:50:14.000Z</time>
      </trkpt>
      <trkpt lat="46.35725" lon="6.05008">
        <ele>999</ele>
        <time>2019-10-05T13:50:21.000Z</time>
      </trkpt>
      <trkpt lat="46.35732" lon="6.04989">
        <ele>1003</ele>
        <time>2019-10-05T13:50:26.000Z</time>
      </trkpt>
      <trkpt lat="46.35738" lon="6.04967">
        <ele>1004.799987793</ele>
        <time>2019-10-05T13:50:32.000Z</time>
      </trkpt>
      <trkpt lat="46.3574" lon="6.0496">
        <ele>1005.4000244141</ele>
        <time>2019-10-05T13:50:34.000Z</time>
      </trkpt>
      <trkpt lat="46.35741" lon="6.04956">
        <ele>1005.5999755859</ele>
        <time>2019-10-05T13:50:35.000Z</time>
      </trkpt>
      <trkpt lat="46.35744" lon="6.0495">
        <ele>1005.4000244141</ele>
        <time>2019-10-05T13:50:37.000Z</time>
      </trkpt>
      <trkpt lat="46.35746" lon="6.04944">
        <ele>1005.200012207</ele>
        <time>2019-10-05T13:50:39.000Z</time>
      </trkpt>
      <trkpt lat="46.35749" lon="6.04938">
        <ele>1004.799987793</ele>
        <time>2019-10-05T13:50:41.000Z</time>
      </trkpt>
      <trkpt lat="46.35751" lon="6.04935">
        <ele>1004.799987793</ele>
        <time>2019-10-05T13:50:42.000Z</time>
      </trkpt>
      <trkpt lat="46.35752" lon="6.04932">
        <ele>1004.5999755859</ele>
        <time>2019-10-05T13:50:43.000Z</time>
      </trkpt>
      <trkpt lat="46.35755" lon="6.04926">
        <ele>1004.200012207</ele>
        <time>2019-10-05T13:50:45.000Z</time>
      </trkpt>
      <trkpt lat="46.35758" lon="6.04919">
        <ele>1004</ele>
        <time>2019-10-05T13:50:47.000Z</time>
      </trkpt>
      <trkpt lat="46.35761" lon="6.04913">
        <ele>1004</ele>
        <time>2019-10-05T13:50:49.000Z</time>
      </trkpt>
      <trkpt lat="46.35765" lon="6.04907">
        <ele>1004.4000244141</ele>
        <time>2019-10-05T13:50:51.000Z</time>
      </trkpt>
      <trkpt lat="46.35768" lon="6.04902">
        <ele>1004.4000244141</ele>
        <time>2019-10-05T13:50:53.000Z</time>
      </trkpt>
      <trkpt lat="46.3577" lon="6.04896">
        <ele>1004.799987793</ele>
        <time>2019-10-05T13:50:55.000Z</time>
      </trkpt>
      <trkpt lat="46.35772" lon="6.04893">
        <ele>1005</ele>
        <time>2019-10-05T13:50:56.000Z</time>
      </trkpt>
      <trkpt lat="46.35773" lon="6.04889">
        <ele>1005.200012207</ele>
        <time>2019-10-05T13:50:57.000Z</time>
      </trkpt>
      <trkpt lat="46.35776" lon="6.04882">
        <ele>1005.4000244141</ele>
        <time>2019-10-05T13:50:59.000Z</time>
      </trkpt>
      <trkpt lat="46.35777" lon="6.04879">
        <ele>1005.200012207</ele>
        <time>2019-10-05T13:51:00.000Z</time>
      </trkpt>
      <trkpt lat="46.3578" lon="6.04873">
        <ele>1005.200012207</ele>
        <time>2019-10-05T13:51:02.000Z</time>
      </trkpt>
      <trkpt lat="46.35781" lon="6.0487">
        <ele>1005</ele>
        <time>2019-10-05T13:51:03.000Z</time>
      </trkpt>
      <trkpt lat="46.35782" lon="6.04868">
        <ele>1005.200012207</ele>
        <time>2019-10-05T13:51:04.000Z</time>
      </trkpt>
      <trkpt lat="46.35784" lon="6.04864">
        <ele>1005.4000244141</ele>
        <time>2019-10-05T13:51:05.000Z</time>
      </trkpt>
      <trkpt lat="46.35786" lon="6.04856">
        <ele>1006.200012207</ele>
        <time>2019-10-05T13:51:07.000Z</time>
      </trkpt>
      <trkpt lat="46.3579" lon="6.04841">
        <ele>1008.4000244141</ele>
        <time>2019-10-05T13:51:11.000Z</time>
      </trkpt>
      <trkpt lat="46.35797" lon="6.04817">
        <ele>1010.799987793</ele>
        <time>2019-10-05T13:51:18.000Z</time>
      </trkpt>
      <trkpt lat="46.35799" lon="6.04813">
        <ele>1011.200012207</ele>
        <time>2019-10-05T13:51:19.000Z</time>
      </trkpt>
      <trkpt lat="46.35799" lon="6.04809">
        <ele>1011.799987793</ele>
        <time>2019-10-05T13:51:20.000Z</time>
      </trkpt>
      <trkpt lat="46.358" lon="6.04805">
        <ele>1011.5999755859</ele>
        <time>2019-10-05T13:51:21.000Z</time>
      </trkpt>
      <trkpt lat="46.35801" lon="6.04801">
        <ele>1011.4000244141</ele>
        <time>2019-10-05T13:51:22.000Z</time>
      </trkpt>
      <trkpt lat="46.35802" lon="6.04794">
        <ele>1011.5999755859</ele>
        <time>2019-10-05T13:51:24.000Z</time>
      </trkpt>
      <trkpt lat="46.35802" lon="6.04789">
        <ele>1012.5999755859</ele>
        <time>2019-10-05T13:51:25.000Z</time>
      </trkpt>
      <trkpt lat="46.35803" lon="6.04784">
        <ele>1013.4000244141</ele>
        <time>2019-10-05T13:51:26.000Z</time>
      </trkpt>
      <trkpt lat="46.35803" lon="6.0478">
        <ele>1014.200012207</ele>
        <time>2019-10-05T13:51:27.000Z</time>
      </trkpt>
      <trkpt lat="46.35804" lon="6.04775">
        <ele>1015.200012207</ele>
        <time>2019-10-05T13:51:28.000Z</time>
      </trkpt>
      <trkpt lat="46.35804" lon="6.0477">
        <ele>1016.200012207</ele>
        <time>2019-10-05T13:51:29.000Z</time>
      </trkpt>
      <trkpt lat="46.35805" lon="6.04765">
        <ele>1017</ele>
        <time>2019-10-05T13:51:30.000Z</time>
      </trkpt>
      <trkpt lat="46.35805" lon="6.04761">
        <ele>1018</ele>
        <time>2019-10-05T13:51:31.000Z</time>
      </trkpt>
      <trkpt lat="46.35806" lon="6.04756">
        <ele>1018.799987793</ele>
        <time>2019-10-05T13:51:32.000Z</time>
      </trkpt>
      <trkpt lat="46.35807" lon="6.04749">
        <ele>1020</ele>
        <time>2019-10-05T13:51:34.000Z</time>
      </trkpt>
      <trkpt lat="46.35809" lon="6.04741">
        <ele>1021.200012207</ele>
        <time>2019-10-05T13:51:36.000Z</time>
      </trkpt>
      <trkpt lat="46.3581" lon="6.0473">
        <ele>1023.200012207</ele>
        <time>2019-10-05T13:51:39.000Z</time>
      </trkpt>
      <trkpt lat="46.35813" lon="6.04722">
        <ele>1023.5999755859</ele>
        <time>2019-10-05T13:51:41.000Z</time>
      </trkpt>
      <trkpt lat="46.35815" lon="6.04715">
        <ele>1024.1999511719</ele>
        <time>2019-10-05T13:51:43.000Z</time>
      </trkpt>
      <trkpt lat="46.35817" lon="6.04705">
        <ele>1025</ele>
        <time>2019-10-05T13:51:45.000Z</time>
      </trkpt>
      <trkpt lat="46.3582" lon="6.04688">
        <ele>1026</ele>
        <time>2019-10-05T13:51:49.000Z</time>
      </trkpt>
      <trkpt lat="46.35821" lon="6.04685">
        <ele>1026.4000244141</ele>
        <time>2019-10-05T13:51:50.000Z</time>
      </trkpt>
      <trkpt lat="46.35823" lon="6.04673">
        <ele>1027.4000244141</ele>
        <time>2019-10-05T13:51:53.000Z</time>
      </trkpt>
      <trkpt lat="46.35824" lon="6.04664">
        <ele>1028.1999511719</ele>
        <time>2019-10-05T13:51:55.000Z</time>
      </trkpt>
      <trkpt lat="46.35825" lon="6.04656">
        <ele>1028.8000488281</ele>
        <time>2019-10-05T13:51:57.000Z</time>
      </trkpt>
      <trkpt lat="46.35826" lon="6.04651">
        <ele>1029.5999755859</ele>
        <time>2019-10-05T13:51:58.000Z</time>
      </trkpt>
      <trkpt lat="46.35829" lon="6.04635">
        <ele>1030.8000488281</ele>
        <time>2019-10-05T13:52:02.000Z</time>
      </trkpt>
      <trkpt lat="46.35831" lon="6.04627">
        <ele>1030.1999511719</ele>
        <time>2019-10-05T13:52:04.000Z</time>
      </trkpt>
      <trkpt lat="46.35834" lon="6.04618">
        <ele>1029.5999755859</ele>
        <time>2019-10-05T13:52:06.000Z</time>
      </trkpt>
      <trkpt lat="46.35838" lon="6.04608">
        <ele>1028.5999755859</ele>
        <time>2019-10-05T13:52:09.000Z</time>
      </trkpt>
      <trkpt lat="46.35842" lon="6.04602">
        <ele>1027.8000488281</ele>
        <time>2019-10-05T13:52:11.000Z</time>
      </trkpt>
      <trkpt lat="46.35848" lon="6.04594">
        <ele>1026.8000488281</ele>
        <time>2019-10-05T13:52:14.000Z</time>
      </trkpt>
      <trkpt lat="46.35856" lon="6.04586">
        <ele>1029.5999755859</ele>
        <time>2019-10-05T13:52:18.000Z</time>
      </trkpt>
      <trkpt lat="46.35865" lon="6.04579">
        <ele>1032.4000244141</ele>
        <time>2019-10-05T13:52:22.000Z</time>
      </trkpt>
      <trkpt lat="46.35867" lon="6.04578">
        <ele>1033.1999511719</ele>
        <time>2019-10-05T13:52:23.000Z</time>
      </trkpt>
      <trkpt lat="46.35878" lon="6.04571">
        <ele>1036.1999511719</ele>
        <time>2019-10-05T13:52:28.000Z</time>
      </trkpt>
      <trkpt lat="46.35883" lon="6.04569">
        <ele>1037.4000244141</ele>
        <time>2019-10-05T13:52:30.000Z</time>
      </trkpt>
      <trkpt lat="46.35885" lon="6.04568">
        <ele>1038</ele>
        <time>2019-10-05T13:52:31.000Z</time>
      </trkpt>
      <trkpt lat="46.35887" lon="6.04567">
        <ele>1038.5999755859</ele>
        <time>2019-10-05T13:52:32.000Z</time>
      </trkpt>
      <trkpt lat="46.359" lon="6.04562">
        <ele>1041.5999755859</ele>
        <time>2019-10-05T13:52:37.000Z</time>
      </trkpt>
      <trkpt lat="46.35902" lon="6.04562">
        <ele>1042.1999511719</ele>
        <time>2019-10-05T13:52:38.000Z</time>
      </trkpt>
      <trkpt lat="46.35913" lon="6.0456">
        <ele>1045.1999511719</ele>
        <time>2019-10-05T13:52:43.000Z</time>
      </trkpt>
      <trkpt lat="46.35916" lon="6.04559">
        <ele>1046</ele>
        <time>2019-10-05T13:52:44.000Z</time>
      </trkpt>
      <trkpt lat="46.35927" lon="6.04557">
        <ele>1049</ele>
        <time>2019-10-05T13:52:49.000Z</time>
      </trkpt>
      <trkpt lat="46.35936" lon="6.04556">
        <ele>1051.1999511719</ele>
        <time>2019-10-05T13:52:53.000Z</time>
      </trkpt>
      <trkpt lat="46.3594" lon="6.04556">
        <ele>1052.1999511719</ele>
        <time>2019-10-05T13:52:55.000Z</time>
      </trkpt>
      <trkpt lat="46.3595" lon="6.04559">
        <ele>1054</ele>
        <time>2019-10-05T13:52:59.000Z</time>
      </trkpt>
      <trkpt lat="46.35956" lon="6.04563">
        <ele>1054.4000244141</ele>
        <time>2019-10-05T13:53:02.000Z</time>
      </trkpt>
      <trkpt lat="46.3596" lon="6.04566">
        <ele>1054.4000244141</ele>
        <time>2019-10-05T13:53:04.000Z</time>
      </trkpt>
      <trkpt lat="46.35965" lon="6.04568">
        <ele>1054.8000488281</ele>
        <time>2019-10-05T13:53:06.000Z</time>
      </trkpt>
      <trkpt lat="46.35972" lon="6.04572">
        <ele>1055.5999755859</ele>
        <time>2019-10-05T13:53:09.000Z</time>
      </trkpt>
      <trkpt lat="46.35979" lon="6.04572">
        <ele>1057</ele>
        <time>2019-10-05T13:53:12.000Z</time>
      </trkpt>
      <trkpt lat="46.35986" lon="6.04568">
        <ele>1059.8000488281</ele>
        <time>2019-10-05T13:53:15.000Z</time>
      </trkpt>
      <trkpt lat="46.3599" lon="6.04558">
        <ele>1064.5999755859</ele>
        <time>2019-10-05T13:53:19.000Z</time>
      </trkpt>
      <trkpt lat="46.3599" lon="6.04554">
        <ele>1066.1999511719</ele>
        <time>2019-10-05T13:53:20.000Z</time>
      </trkpt>
      <trkpt lat="46.35988" lon="6.0454">
        <ele>1071</ele>
        <time>2019-10-05T13:53:24.000Z</time>
      </trkpt>
      <trkpt lat="46.35986" lon="6.04537">
        <ele>1071.8000488281</ele>
        <time>2019-10-05T13:53:25.000Z</time>
      </trkpt>
      <trkpt lat="46.35983" lon="6.04532">
        <ele>1072.4000244141</ele>
        <time>2019-10-05T13:53:27.000Z</time>
      </trkpt>
      <trkpt lat="46.35973" lon="6.04527">
        <ele>1070.4000244141</ele>
        <time>2019-10-05T13:53:31.000Z</time>
      </trkpt>
      <trkpt lat="46.35961" lon="6.04522">
        <ele>1066.4000244141</ele>
        <time>2019-10-05T13:53:37.000Z</time>
      </trkpt>
      <trkpt lat="46.35954" lon="6.04517">
        <ele>1065.4000244141</ele>
        <time>2019-10-05T13:53:40.000Z</time>
      </trkpt>
      <trkpt lat="46.35946" lon="6.04512">
        <ele>1063.5999755859</ele>
        <time>2019-10-05T13:53:44.000Z</time>
      </trkpt>
      <trkpt lat="46.35944" lon="6.0451">
        <ele>1063.1999511719</ele>
        <time>2019-10-05T13:53:45.000Z</time>
      </trkpt>
      <trkpt lat="46.35936" lon="6.04502">
        <ele>1062.5999755859</ele>
        <time>2019-10-05T13:53:49.000Z</time>
      </trkpt>
      <trkpt lat="46.35933" lon="6.045">
        <ele>1062.1999511719</ele>
        <time>2019-10-05T13:53:50.000Z</time>
      </trkpt>
      <trkpt lat="46.35932" lon="6.04498">
        <ele>1062.5999755859</ele>
        <time>2019-10-05T13:53:51.000Z</time>
      </trkpt>
      <trkpt lat="46.35929" lon="6.04493">
        <ele>1063</ele>
        <time>2019-10-05T13:53:53.000Z</time>
      </trkpt>
      <trkpt lat="46.35928" lon="6.0449">
        <ele>1063.5999755859</ele>
        <time>2019-10-05T13:53:54.000Z</time>
      </trkpt>
      <trkpt lat="46.35926" lon="6.04482">
        <ele>1066</ele>
        <time>2019-10-05T13:53:57.000Z</time>
      </trkpt>
      <trkpt lat="46.35925" lon="6.04473">
        <ele>1068.4000244141</ele>
        <time>2019-10-05T13:54:00.000Z</time>
      </trkpt>
      <trkpt lat="46.35925" lon="6.0447">
        <ele>1068.5999755859</ele>
        <time>2019-10-05T13:54:01.000Z</time>
      </trkpt>
      <trkpt lat="46.35925" lon="6.04463">
        <ele>1069.1999511719</ele>
        <time>2019-10-05T13:54:03.000Z</time>
      </trkpt>
      <trkpt lat="46.35926" lon="6.04447">
        <ele>1071.1999511719</ele>
        <time>2019-10-05T13:54:08.000Z</time>
      </trkpt>
      <trkpt lat="46.35927" lon="6.04438">
        <ele>1072.1999511719</ele>
        <time>2019-10-05T13:54:11.000Z</time>
      </trkpt>
      <trkpt lat="46.35927" lon="6.04424">
        <ele>1073.1999511719</ele>
        <time>2019-10-05T13:54:15.000Z</time>
      </trkpt>
      <trkpt lat="46.35927" lon="6.04411">
        <ele>1076.8000488281</ele>
        <time>2019-10-05T13:54:19.000Z</time>
      </trkpt>
      <trkpt lat="46.35927" lon="6.044">
        <ele>1079.5999755859</ele>
        <time>2019-10-05T13:54:22.000Z</time>
      </trkpt>
      <trkpt lat="46.35927" lon="6.04394">
        <ele>1081.8000488281</ele>
        <time>2019-10-05T13:54:24.000Z</time>
      </trkpt>
      <trkpt lat="46.35927" lon="6.04381">
        <ele>1082.1999511719</ele>
        <time>2019-10-05T13:54:28.000Z</time>
      </trkpt>
      <trkpt lat="46.35929" lon="6.04372">
        <ele>1083.4000244141</ele>
        <time>2019-10-05T13:54:31.000Z</time>
      </trkpt>
      <trkpt lat="46.3593" lon="6.04366">
        <ele>1084.5999755859</ele>
        <time>2019-10-05T13:54:33.000Z</time>
      </trkpt>
      <trkpt lat="46.35935" lon="6.04355">
        <ele>1088</ele>
        <time>2019-10-05T13:54:37.000Z</time>
      </trkpt>
      <trkpt lat="46.35937" lon="6.04352">
        <ele>1089</ele>
        <time>2019-10-05T13:54:38.000Z</time>
      </trkpt>
      <trkpt lat="46.3595" lon="6.04334">
        <ele>1097.4000244141</ele>
        <time>2019-10-05T13:54:46.000Z</time>
      </trkpt>
      <trkpt lat="46.35956" lon="6.04325">
        <ele>1101.4000244141</ele>
        <time>2019-10-05T13:54:50.000Z</time>
      </trkpt>
      <trkpt lat="46.35962" lon="6.04316">
        <ele>1104.5999755859</ele>
        <time>2019-10-05T13:54:54.000Z</time>
      </trkpt>
      <trkpt lat="46.35966" lon="6.04301">
        <ele>1106.4000244141</ele>
        <time>2019-10-05T13:55:00.000Z</time>
      </trkpt>
      <trkpt lat="46.35967" lon="6.04298">
        <ele>1106.1999511719</ele>
        <time>2019-10-05T13:55:01.000Z</time>
      </trkpt>
      <trkpt lat="46.35968" lon="6.04295">
        <ele>1106.5999755859</ele>
        <time>2019-10-05T13:55:02.000Z</time>
      </trkpt>
      <trkpt lat="46.3597" lon="6.04286">
        <ele>1106.5999755859</ele>
        <time>2019-10-05T13:55:05.000Z</time>
      </trkpt>
      <trkpt lat="46.35975" lon="6.04262">
        <ele>1106.8000488281</ele>
        <time>2019-10-05T13:55:12.000Z</time>
      </trkpt>
      <trkpt lat="46.35975" lon="6.04259">
        <ele>1106.5999755859</ele>
        <time>2019-10-05T13:55:13.000Z</time>
      </trkpt>
      <trkpt lat="46.35975" lon="6.04255">
        <ele>1106.1999511719</ele>
        <time>2019-10-05T13:55:14.000Z</time>
      </trkpt>
      <trkpt lat="46.35977" lon="6.04242">
        <ele>1105.8000488281</ele>
        <time>2019-10-05T13:55:18.000Z</time>
      </trkpt>
      <trkpt lat="46.35978" lon="6.04236">
        <ele>1105.4000244141</ele>
        <time>2019-10-05T13:55:20.000Z</time>
      </trkpt>
      <trkpt lat="46.35978" lon="6.04233">
        <ele>1105</ele>
        <time>2019-10-05T13:55:21.000Z</time>
      </trkpt>
      <trkpt lat="46.35977" lon="6.04228">
        <ele>1104</ele>
        <time>2019-10-05T13:55:23.000Z</time>
      </trkpt>
      <trkpt lat="46.35978" lon="6.04224">
        <ele>1104</ele>
        <time>2019-10-05T13:55:24.000Z</time>
      </trkpt>
      <trkpt lat="46.35978" lon="6.0422">
        <ele>1104.1999511719</ele>
        <time>2019-10-05T13:55:25.000Z</time>
      </trkpt>
      <trkpt lat="46.35978" lon="6.04213">
        <ele>1105.1999511719</ele>
        <time>2019-10-05T13:55:27.000Z</time>
      </trkpt>
      <trkpt lat="46.35977" lon="6.04202">
        <ele>1105.8000488281</ele>
        <time>2019-10-05T13:55:30.000Z</time>
      </trkpt>
      <trkpt lat="46.35975" lon="6.04186">
        <ele>1105.4000244141</ele>
        <time>2019-10-05T13:55:35.000Z</time>
      </trkpt>
      <trkpt lat="46.35973" lon="6.04179">
        <ele>1104.8000488281</ele>
        <time>2019-10-05T13:55:37.000Z</time>
      </trkpt>
      <trkpt lat="46.35972" lon="6.04175">
        <ele>1104.8000488281</ele>
        <time>2019-10-05T13:55:38.000Z</time>
      </trkpt>
      <trkpt lat="46.35968" lon="6.04156">
        <ele>1103.8000488281</ele>
        <time>2019-10-05T13:55:44.000Z</time>
      </trkpt>
      <trkpt lat="46.35967" lon="6.04153">
        <ele>1103.4000244141</ele>
        <time>2019-10-05T13:55:45.000Z</time>
      </trkpt>
      <trkpt lat="46.35965" lon="6.04147">
        <ele>1102.8000488281</ele>
        <time>2019-10-05T13:55:47.000Z</time>
      </trkpt>
      <trkpt lat="46.35962" lon="6.04135">
        <ele>1102</ele>
        <time>2019-10-05T13:55:51.000Z</time>
      </trkpt>
      <trkpt lat="46.35959" lon="6.0413">
        <ele>1100.5999755859</ele>
        <time>2019-10-05T13:55:53.000Z</time>
      </trkpt>
      <trkpt lat="46.35957" lon="6.04124">
        <ele>1099.1999511719</ele>
        <time>2019-10-05T13:55:55.000Z</time>
      </trkpt>
      <trkpt lat="46.35952" lon="6.04116">
        <ele>1097.1999511719</ele>
        <time>2019-10-05T13:55:58.000Z</time>
      </trkpt>
      <trkpt lat="46.35949" lon="6.04111">
        <ele>1095.4000244141</ele>
        <time>2019-10-05T13:56:00.000Z</time>
      </trkpt>
      <trkpt lat="46.35942" lon="6.04098">
        <ele>1092</ele>
        <time>2019-10-05T13:56:05.000Z</time>
      </trkpt>
      <trkpt lat="46.35941" lon="6.04095">
        <ele>1091.5999755859</ele>
        <time>2019-10-05T13:56:06.000Z</time>
      </trkpt>
      <trkpt lat="46.35936" lon="6.04081">
        <ele>1089.1999511719</ele>
        <time>2019-10-05T13:56:11.000Z</time>
      </trkpt>
      <trkpt lat="46.35934" lon="6.04075">
        <ele>1088.5999755859</ele>
        <time>2019-10-05T13:56:13.000Z</time>
      </trkpt>
      <trkpt lat="46.35933" lon="6.04069">
        <ele>1088.4000244141</ele>
        <time>2019-10-05T13:56:15.000Z</time>
      </trkpt>
      <trkpt lat="46.3593" lon="6.04059">
        <ele>1087.5999755859</ele>
        <time>2019-10-05T13:56:18.000Z</time>
      </trkpt>
      <trkpt lat="46.35928" lon="6.04053">
        <ele>1086.1999511719</ele>
        <time>2019-10-05T13:56:20.000Z</time>
      </trkpt>
      <trkpt lat="46.35926" lon="6.04049">
        <ele>1085.4000244141</ele>
        <time>2019-10-05T13:56:21.000Z</time>
      </trkpt>
      <trkpt lat="46.35924" lon="6.04039">
        <ele>1084.1999511719</ele>
        <time>2019-10-05T13:56:24.000Z</time>
      </trkpt>
      <trkpt lat="46.35923" lon="6.04031">
        <ele>1084.1999511719</ele>
        <time>2019-10-05T13:56:26.000Z</time>
      </trkpt>
      <trkpt lat="46.35925" lon="6.04001">
        <ele>1086.5999755859</ele>
        <time>2019-10-05T13:56:34.000Z</time>
      </trkpt>
      <trkpt lat="46.3593" lon="6.03982">
        <ele>1090.4000244141</ele>
        <time>2019-10-05T13:56:40.000Z</time>
      </trkpt>
      <trkpt lat="46.35933" lon="6.03969">
        <ele>1092.5999755859</ele>
        <time>2019-10-05T13:56:44.000Z</time>
      </trkpt>
      <trkpt lat="46.35936" lon="6.03959">
        <ele>1094.1999511719</ele>
        <time>2019-10-05T13:56:47.000Z</time>
      </trkpt>
      <trkpt lat="46.35943" lon="6.03933">
        <ele>1098.1999511719</ele>
        <time>2019-10-05T13:56:55.000Z</time>
      </trkpt>
      <trkpt lat="46.35943" lon="6.0393">
        <ele>1098.1999511719</ele>
        <time>2019-10-05T13:56:56.000Z</time>
      </trkpt>
      <trkpt lat="46.35946" lon="6.0392">
        <ele>1098.8000488281</ele>
        <time>2019-10-05T13:56:59.000Z</time>
      </trkpt>
      <trkpt lat="46.35949" lon="6.03911">
        <ele>1099.5999755859</ele>
        <time>2019-10-05T13:57:02.000Z</time>
      </trkpt>
      <trkpt lat="46.35952" lon="6.03899">
        <ele>1100</ele>
        <time>2019-10-05T13:57:06.000Z</time>
      </trkpt>
      <trkpt lat="46.35955" lon="6.0389">
        <ele>1101</ele>
        <time>2019-10-05T13:57:09.000Z</time>
      </trkpt>
      <trkpt lat="46.3596" lon="6.03872">
        <ele>1103.8000488281</ele>
        <time>2019-10-05T13:57:15.000Z</time>
      </trkpt>
      <trkpt lat="46.35961" lon="6.03869">
        <ele>1104</ele>
        <time>2019-10-05T13:57:16.000Z</time>
      </trkpt>
      <trkpt lat="46.35964" lon="6.0386">
        <ele>1105</ele>
        <time>2019-10-05T13:57:19.000Z</time>
      </trkpt>
      <trkpt lat="46.35968" lon="6.03849">
        <ele>1107</ele>
        <time>2019-10-05T13:57:23.000Z</time>
      </trkpt>
      <trkpt lat="46.35978" lon="6.03832">
        <ele>1111</ele>
        <time>2019-10-05T13:57:30.000Z</time>
      </trkpt>
      <trkpt lat="46.3598" lon="6.03827">
        <ele>1112.1999511719</ele>
        <time>2019-10-05T13:57:32.000Z</time>
      </trkpt>
      <trkpt lat="46.35993" lon="6.03813">
        <ele>1116.8000488281</ele>
        <time>2019-10-05T13:57:39.000Z</time>
      </trkpt>
      <trkpt lat="46.36004" lon="6.03804">
        <ele>1119.4000244141</ele>
        <time>2019-10-05T13:57:45.000Z</time>
      </trkpt>
      <trkpt lat="46.3601" lon="6.038">
        <ele>1121.4000244141</ele>
        <time>2019-10-05T13:57:48.000Z</time>
      </trkpt>
      <trkpt lat="46.36027" lon="6.03793">
        <ele>1126.5999755859</ele>
        <time>2019-10-05T13:57:56.000Z</time>
      </trkpt>
      <trkpt lat="46.36042" lon="6.03787">
        <ele>1131.5999755859</ele>
        <time>2019-10-05T13:58:03.000Z</time>
      </trkpt>
      <trkpt lat="46.36054" lon="6.03779">
        <ele>1136</ele>
        <time>2019-10-05T13:58:09.000Z</time>
      </trkpt>
      <trkpt lat="46.36056" lon="6.03778">
        <ele>1136.8000488281</ele>
        <time>2019-10-05T13:58:10.000Z</time>
      </trkpt>
      <trkpt lat="46.36068" lon="6.03768">
        <ele>1142.4000244141</ele>
        <time>2019-10-05T13:58:16.000Z</time>
      </trkpt>
      <trkpt lat="46.36074" lon="6.03761">
        <ele>1147.5999755859</ele>
        <time>2019-10-05T13:58:20.000Z</time>
      </trkpt>
      <trkpt lat="46.36077" lon="6.03757">
        <ele>1150.5999755859</ele>
        <time>2019-10-05T13:58:22.000Z</time>
      </trkpt>
      <trkpt lat="46.36079" lon="6.03756">
        <ele>1152.1999511719</ele>
        <time>2019-10-05T13:58:23.000Z</time>
      </trkpt>
      <trkpt lat="46.36085" lon="6.03749">
        <ele>1157</ele>
        <time>2019-10-05T13:58:27.000Z</time>
      </trkpt>
      <trkpt lat="46.36087" lon="6.03746">
        <ele>1158.8000488281</ele>
        <time>2019-10-05T13:58:29.000Z</time>
      </trkpt>
      <trkpt lat="46.36091" lon="6.03742">
        <ele>1160.4000244141</ele>
        <time>2019-10-05T13:58:32.000Z</time>
      </trkpt>
      <trkpt lat="46.36094" lon="6.03738">
        <ele>1161</ele>
        <time>2019-10-05T13:58:34.000Z</time>
      </trkpt>
      <trkpt lat="46.36097" lon="6.03734">
        <ele>1162</ele>
        <time>2019-10-05T13:58:36.000Z</time>
      </trkpt>
      <trkpt lat="46.36099" lon="6.0373">
        <ele>1162.4000244141</ele>
        <time>2019-10-05T13:58:38.000Z</time>
      </trkpt>
      <trkpt lat="46.36102" lon="6.03726">
        <ele>1163</ele>
        <time>2019-10-05T13:58:40.000Z</time>
      </trkpt>
      <trkpt lat="46.36107" lon="6.03714">
        <ele>1165.8000488281</ele>
        <time>2019-10-05T13:58:45.000Z</time>
      </trkpt>
      <trkpt lat="46.36115" lon="6.03693">
        <ele>1168.8000488281</ele>
        <time>2019-10-05T13:58:52.000Z</time>
      </trkpt>
      <trkpt lat="46.36123" lon="6.03674">
        <ele>1166.8000488281</ele>
        <time>2019-10-05T13:58:59.000Z</time>
      </trkpt>
      <trkpt lat="46.36124" lon="6.0367">
        <ele>1166.1999511719</ele>
        <time>2019-10-05T13:59:00.000Z</time>
      </trkpt>
      <trkpt lat="46.36127" lon="6.03648">
        <ele>1161.1999511719</ele>
        <time>2019-10-05T13:59:05.000Z</time>
      </trkpt>
      <trkpt lat="46.36129" lon="6.03645">
        <ele>1161</ele>
        <time>2019-10-05T13:59:06.000Z</time>
      </trkpt>
      <trkpt lat="46.36135" lon="6.03635">
        <ele>1162.5999755859</ele>
        <time>2019-10-05T13:59:10.000Z</time>
      </trkpt>
      <trkpt lat="46.36139" lon="6.03627">
        <ele>1163.1999511719</ele>
        <time>2019-10-05T13:59:13.000Z</time>
      </trkpt>
      <trkpt lat="46.36148" lon="6.03607">
        <ele>1162.5999755859</ele>
        <time>2019-10-05T13:59:20.000Z</time>
      </trkpt>
      <trkpt lat="46.36152" lon="6.03601">
        <ele>1164.1999511719</ele>
        <time>2019-10-05T13:59:22.000Z</time>
      </trkpt>
      <trkpt lat="46.36155" lon="6.03595">
        <ele>1165.8000488281</ele>
        <time>2019-10-05T13:59:24.000Z</time>
      </trkpt>
      <trkpt lat="46.36158" lon="6.0359">
        <ele>1167.5999755859</ele>
        <time>2019-10-05T13:59:26.000Z</time>
      </trkpt>
      <trkpt lat="46.36161" lon="6.03586">
        <ele>1169.5999755859</ele>
        <time>2019-10-05T13:59:28.000Z</time>
      </trkpt>
      <trkpt lat="46.36165" lon="6.03581">
        <ele>1171.8000488281</ele>
        <time>2019-10-05T13:59:30.000Z</time>
      </trkpt>
      <trkpt lat="46.36171" lon="6.03576">
        <ele>1174.8000488281</ele>
        <time>2019-10-05T13:59:33.000Z</time>
      </trkpt>
      <trkpt lat="46.36175" lon="6.03569">
        <ele>1176.5999755859</ele>
        <time>2019-10-05T13:59:36.000Z</time>
      </trkpt>
      <trkpt lat="46.36177" lon="6.03566">
        <ele>1177</ele>
        <time>2019-10-05T13:59:37.000Z</time>
      </trkpt>
      <trkpt lat="46.36179" lon="6.03561">
        <ele>1177.8000488281</ele>
        <time>2019-10-05T13:59:39.000Z</time>
      </trkpt>
      <trkpt lat="46.36181" lon="6.03558">
        <ele>1178.1999511719</ele>
        <time>2019-10-05T13:59:40.000Z</time>
      </trkpt>
      <trkpt lat="46.36182" lon="6.03555">
        <ele>1179</ele>
        <time>2019-10-05T13:59:41.000Z</time>
      </trkpt>
      <trkpt lat="46.36184" lon="6.03551">
        <ele>1179.4000244141</ele>
        <time>2019-10-05T13:59:42.000Z</time>
      </trkpt>
      <trkpt lat="46.36187" lon="6.03545">
        <ele>1180.8000488281</ele>
        <time>2019-10-05T13:59:44.000Z</time>
      </trkpt>
      <trkpt lat="46.36189" lon="6.03538">
        <ele>1181.4000244141</ele>
        <time>2019-10-05T13:59:46.000Z</time>
      </trkpt>
      <trkpt lat="46.36191" lon="6.0353">
        <ele>1181.8000488281</ele>
        <time>2019-10-05T13:59:48.000Z</time>
      </trkpt>
      <trkpt lat="46.36193" lon="6.03521">
        <ele>1182</ele>
        <time>2019-10-05T13:59:51.000Z</time>
      </trkpt>
      <trkpt lat="46.36198" lon="6.03506">
        <ele>1179.8000488281</ele>
        <time>2019-10-05T13:59:56.000Z</time>
      </trkpt>
      <trkpt lat="46.362" lon="6.035">
        <ele>1178.5999755859</ele>
        <time>2019-10-05T13:59:58.000Z</time>
      </trkpt>
      <trkpt lat="46.362" lon="6.03496">
        <ele>1178</ele>
        <time>2019-10-05T13:59:59.000Z</time>
      </trkpt>
      <trkpt lat="46.36201" lon="6.03493">
        <ele>1176.8000488281</ele>
        <time>2019-10-05T14:00:00.000Z</time>
      </trkpt>
      <trkpt lat="46.36202" lon="6.03486">
        <ele>1175</ele>
        <time>2019-10-05T14:00:02.000Z</time>
      </trkpt>
      <trkpt lat="46.36203" lon="6.03479">
        <ele>1173.8000488281</ele>
        <time>2019-10-05T14:00:04.000Z</time>
      </trkpt>
      <trkpt lat="46.36204" lon="6.03476">
        <ele>1173.1999511719</ele>
        <time>2019-10-05T14:00:05.000Z</time>
      </trkpt>
      <trkpt lat="46.36206" lon="6.0347">
        <ele>1173.4000244141</ele>
        <time>2019-10-05T14:00:07.000Z</time>
      </trkpt>
      <trkpt lat="46.36208" lon="6.03463">
        <ele>1174</ele>
        <time>2019-10-05T14:00:09.000Z</time>
      </trkpt>
      <trkpt lat="46.36209" lon="6.03457">
        <ele>1174.1999511719</ele>
        <time>2019-10-05T14:00:11.000Z</time>
      </trkpt>
      <trkpt lat="46.36211" lon="6.0345">
        <ele>1174</ele>
        <time>2019-10-05T14:00:13.000Z</time>
      </trkpt>
      <trkpt lat="46.36213" lon="6.03444">
        <ele>1173.5999755859</ele>
        <time>2019-10-05T14:00:15.000Z</time>
      </trkpt>
      <trkpt lat="46.36219" lon="6.03426">
        <ele>1173.1999511719</ele>
        <time>2019-10-05T14:00:21.000Z</time>
      </trkpt>
      <trkpt lat="46.36221" lon="6.0342">
        <ele>1173</ele>
        <time>2019-10-05T14:00:23.000Z</time>
      </trkpt>
      <trkpt lat="46.36223" lon="6.03414">
        <ele>1173</ele>
        <time>2019-10-05T14:00:25.000Z</time>
      </trkpt>
      <trkpt lat="46.36229" lon="6.03402">
        <ele>1174</ele>
        <time>2019-10-05T14:00:30.000Z</time>
      </trkpt>
      <trkpt lat="46.36239" lon="6.03382">
        <ele>1178</ele>
        <time>2019-10-05T14:00:38.000Z</time>
      </trkpt>
      <trkpt lat="46.36245" lon="6.03368">
        <ele>1179.8000488281</ele>
        <time>2019-10-05T14:00:43.000Z</time>
      </trkpt>
      <trkpt lat="46.36247" lon="6.03362">
        <ele>1180.5999755859</ele>
        <time>2019-10-05T14:00:45.000Z</time>
      </trkpt>
      <trkpt lat="46.36249" lon="6.03356">
        <ele>1180.8000488281</ele>
        <time>2019-10-05T14:00:47.000Z</time>
      </trkpt>
      <trkpt lat="46.36253" lon="6.03345">
        <ele>1181.5999755859</ele>
        <time>2019-10-05T14:00:51.000Z</time>
      </trkpt>
      <trkpt lat="46.36256" lon="6.03336">
        <ele>1182.4000244141</ele>
        <time>2019-10-05T14:00:54.000Z</time>
      </trkpt>
      <trkpt lat="46.36259" lon="6.03323">
        <ele>1182.4000244141</ele>
        <time>2019-10-05T14:00:58.000Z</time>
      </trkpt>
      <trkpt lat="46.3626" lon="6.0332">
        <ele>1182.5999755859</ele>
        <time>2019-10-05T14:00:59.000Z</time>
      </trkpt>
      <trkpt lat="46.36262" lon="6.03314">
        <ele>1183.4000244141</ele>
        <time>2019-10-05T14:01:01.000Z</time>
      </trkpt>
      <trkpt lat="46.36265" lon="6.03308">
        <ele>1184.4000244141</ele>
        <time>2019-10-05T14:01:03.000Z</time>
      </trkpt>
      <trkpt lat="46.36268" lon="6.03298">
        <ele>1185.8000488281</ele>
        <time>2019-10-05T14:01:06.000Z</time>
      </trkpt>
      <trkpt lat="46.36268" lon="6.03294">
        <ele>1185.8000488281</ele>
        <time>2019-10-05T14:01:07.000Z</time>
      </trkpt>
      <trkpt lat="46.3627" lon="6.03289">
        <ele>1186.5999755859</ele>
        <time>2019-10-05T14:01:09.000Z</time>
      </trkpt>
      <trkpt lat="46.36272" lon="6.03284">
        <ele>1187.8000488281</ele>
        <time>2019-10-05T14:01:11.000Z</time>
      </trkpt>
      <trkpt lat="46.36274" lon="6.03279">
        <ele>1188.5999755859</ele>
        <time>2019-10-05T14:01:13.000Z</time>
      </trkpt>
      <trkpt lat="46.36275" lon="6.03276">
        <ele>1189.1999511719</ele>
        <time>2019-10-05T14:01:14.000Z</time>
      </trkpt>
      <trkpt lat="46.36282" lon="6.03254">
        <ele>1190</ele>
        <time>2019-10-05T14:01:22.000Z</time>
      </trkpt>
      <trkpt lat="46.36289" lon="6.03232">
        <ele>1189.8000488281</ele>
        <time>2019-10-05T14:01:30.000Z</time>
      </trkpt>
      <trkpt lat="46.36294" lon="6.03209">
        <ele>1191.4000244141</ele>
        <time>2019-10-05T14:01:37.000Z</time>
      </trkpt>
      <trkpt lat="46.36296" lon="6.03199">
        <ele>1192.1999511719</ele>
        <time>2019-10-05T14:01:40.000Z</time>
      </trkpt>
      <trkpt lat="46.36297" lon="6.0319">
        <ele>1191.8000488281</ele>
        <time>2019-10-05T14:01:43.000Z</time>
      </trkpt>
      <trkpt lat="46.36296" lon="6.03182">
        <ele>1190.5999755859</ele>
        <time>2019-10-05T14:01:45.000Z</time>
      </trkpt>
      <trkpt lat="46.36295" lon="6.03172">
        <ele>1189.1999511719</ele>
        <time>2019-10-05T14:01:48.000Z</time>
      </trkpt>
      <trkpt lat="46.36293" lon="6.03161">
        <ele>1187.4000244141</ele>
        <time>2019-10-05T14:01:51.000Z</time>
      </trkpt>
      <trkpt lat="46.36292" lon="6.03153">
        <ele>1185.5999755859</ele>
        <time>2019-10-05T14:01:53.000Z</time>
      </trkpt>
      <trkpt lat="46.3629" lon="6.03146">
        <ele>1183.8000488281</ele>
        <time>2019-10-05T14:01:55.000Z</time>
      </trkpt>
      <trkpt lat="46.36288" lon="6.03137">
        <ele>1182.5999755859</ele>
        <time>2019-10-05T14:01:57.000Z</time>
      </trkpt>
      <trkpt lat="46.36286" lon="6.03134">
        <ele>1182</ele>
        <time>2019-10-05T14:01:58.000Z</time>
      </trkpt>
      <trkpt lat="46.36285" lon="6.03131">
        <ele>1181.8000488281</ele>
        <time>2019-10-05T14:01:59.000Z</time>
      </trkpt>
      <trkpt lat="46.36283" lon="6.0311">
        <ele>1182</ele>
        <time>2019-10-05T14:02:05.000Z</time>
      </trkpt>
      <trkpt lat="46.36283" lon="6.03106">
        <ele>1182</ele>
        <time>2019-10-05T14:02:06.000Z</time>
      </trkpt>
      <trkpt lat="46.36283" lon="6.03097">
        <ele>1181.5999755859</ele>
        <time>2019-10-05T14:02:09.000Z</time>
      </trkpt>
      <trkpt lat="46.36283" lon="6.03087">
        <ele>1182</ele>
        <time>2019-10-05T14:02:12.000Z</time>
      </trkpt>
      <trkpt lat="46.36284" lon="6.03081">
        <ele>1182.1999511719</ele>
        <time>2019-10-05T14:02:14.000Z</time>
      </trkpt>
      <trkpt lat="46.36287" lon="6.03062">
        <ele>1183.4000244141</ele>
        <time>2019-10-05T14:02:20.000Z</time>
      </trkpt>
      <trkpt lat="46.36289" lon="6.03048">
        <ele>1186</ele>
        <time>2019-10-05T14:02:24.000Z</time>
      </trkpt>
      <trkpt lat="46.36289" lon="6.03044">
        <ele>1186.5999755859</ele>
        <time>2019-10-05T14:02:25.000Z</time>
      </trkpt>
      <trkpt lat="46.3629" lon="6.03034">
        <ele>1188.1999511719</ele>
        <time>2019-10-05T14:02:28.000Z</time>
      </trkpt>
      <trkpt lat="46.3629" lon="6.03024">
        <ele>1188.4000244141</ele>
        <time>2019-10-05T14:02:31.000Z</time>
      </trkpt>
      <trkpt lat="46.36288" lon="6.03013">
        <ele>1187.8000488281</ele>
        <time>2019-10-05T14:02:34.000Z</time>
      </trkpt>
      <trkpt lat="46.36285" lon="6.02999">
        <ele>1187</ele>
        <time>2019-10-05T14:02:38.000Z</time>
      </trkpt>
      <trkpt lat="46.36284" lon="6.02989">
        <ele>1186.8000488281</ele>
        <time>2019-10-05T14:02:41.000Z</time>
      </trkpt>
      <trkpt lat="46.36281" lon="6.02978">
        <ele>1186</ele>
        <time>2019-10-05T14:02:44.000Z</time>
      </trkpt>
      <trkpt lat="46.36279" lon="6.02968">
        <ele>1186.1999511719</ele>
        <time>2019-10-05T14:02:47.000Z</time>
      </trkpt>
      <trkpt lat="46.36272" lon="6.02944">
        <ele>1187.5999755859</ele>
        <time>2019-10-05T14:02:55.000Z</time>
      </trkpt>
      <trkpt lat="46.36267" lon="6.02923">
        <ele>1188.1999511719</ele>
        <time>2019-10-05T14:03:02.000Z</time>
      </trkpt>
      <trkpt lat="46.36265" lon="6.02917">
        <ele>1188</ele>
        <time>2019-10-05T14:03:04.000Z</time>
      </trkpt>
      <trkpt lat="46.36262" lon="6.02909">
        <ele>1187.4000244141</ele>
        <time>2019-10-05T14:03:07.000Z</time>
      </trkpt>
      <trkpt lat="46.3626" lon="6.02905">
        <ele>1187.1999511719</ele>
        <time>2019-10-05T14:03:08.000Z</time>
      </trkpt>
      <trkpt lat="46.36258" lon="6.02899">
        <ele>1186.8000488281</ele>
        <time>2019-10-05T14:03:10.000Z</time>
      </trkpt>
      <trkpt lat="46.36254" lon="6.02891">
        <ele>1186</ele>
        <time>2019-10-05T14:03:13.000Z</time>
      </trkpt>
      <trkpt lat="46.3625" lon="6.02884">
        <ele>1186.1999511719</ele>
        <time>2019-10-05T14:03:15.000Z</time>
      </trkpt>
      <trkpt lat="46.36248" lon="6.02881">
        <ele>1186</ele>
        <time>2019-10-05T14:03:16.000Z</time>
      </trkpt>
      <trkpt lat="46.36238" lon="6.02872">
        <ele>1184.8000488281</ele>
        <time>2019-10-05T14:03:20.000Z</time>
      </trkpt>
      <trkpt lat="46.36233" lon="6.02868">
        <ele>1184</ele>
        <time>2019-10-05T14:03:22.000Z</time>
      </trkpt>
      <trkpt lat="46.36217" lon="6.02855">
        <ele>1182.8000488281</ele>
        <time>2019-10-05T14:03:28.000Z</time>
      </trkpt>
      <trkpt lat="46.36204" lon="6.02839">
        <ele>1183</ele>
        <time>2019-10-05T14:03:34.000Z</time>
      </trkpt>
      <trkpt lat="46.36191" lon="6.02818">
        <ele>1184.1999511719</ele>
        <time>2019-10-05T14:03:41.000Z</time>
      </trkpt>
      <trkpt lat="46.3619" lon="6.02816">
        <ele>1184.4000244141</ele>
        <time>2019-10-05T14:03:42.000Z</time>
      </trkpt>
      <trkpt lat="46.36185" lon="6.02808">
        <ele>1184.8000488281</ele>
        <time>2019-10-05T14:03:45.000Z</time>
      </trkpt>
      <trkpt lat="46.3618" lon="6.02797">
        <ele>1187</ele>
        <time>2019-10-05T14:03:49.000Z</time>
      </trkpt>
      <trkpt lat="46.36178" lon="6.02795">
        <ele>1187.5999755859</ele>
        <time>2019-10-05T14:03:50.000Z</time>
      </trkpt>
      <trkpt lat="46.36175" lon="6.0279">
        <ele>1188.5999755859</ele>
        <time>2019-10-05T14:03:52.000Z</time>
      </trkpt>
      <trkpt lat="46.36171" lon="6.02785">
        <ele>1189.1999511719</ele>
        <time>2019-10-05T14:03:54.000Z</time>
      </trkpt>
      <trkpt lat="46.36168" lon="6.02781">
        <ele>1190</ele>
        <time>2019-10-05T14:03:56.000Z</time>
      </trkpt>
      <trkpt lat="46.36164" lon="6.02776">
        <ele>1190.5999755859</ele>
        <time>2019-10-05T14:03:58.000Z</time>
      </trkpt>
      <trkpt lat="46.36159" lon="6.02769">
        <ele>1191.8000488281</ele>
        <time>2019-10-05T14:04:01.000Z</time>
      </trkpt>
      <trkpt lat="46.36153" lon="6.02762">
        <ele>1192.5999755859</ele>
        <time>2019-10-05T14:04:04.000Z</time>
      </trkpt>
      <trkpt lat="46.3615" lon="6.02758">
        <ele>1193.1999511719</ele>
        <time>2019-10-05T14:04:06.000Z</time>
      </trkpt>
      <trkpt lat="46.36141" lon="6.02745">
        <ele>1195.5999755859</ele>
        <time>2019-10-05T14:04:12.000Z</time>
      </trkpt>
      <trkpt lat="46.36139" lon="6.02742">
        <ele>1196</ele>
        <time>2019-10-05T14:04:13.000Z</time>
      </trkpt>
      <trkpt lat="46.36124" lon="6.02722">
        <ele>1199.1999511719</ele>
        <time>2019-10-05T14:04:22.000Z</time>
      </trkpt>
      <trkpt lat="46.36121" lon="6.02718">
        <ele>1199.5999755859</ele>
        <time>2019-10-05T14:04:24.000Z</time>
      </trkpt>
      <trkpt lat="46.36115" lon="6.02712">
        <ele>1200.1999511719</ele>
        <time>2019-10-05T14:04:27.000Z</time>
      </trkpt>
      <trkpt lat="46.36106" lon="6.02704">
        <ele>1200.5999755859</ele>
        <time>2019-10-05T14:04:32.000Z</time>
      </trkpt>
      <trkpt lat="46.36104" lon="6.02702">
        <ele>1200.8000488281</ele>
        <time>2019-10-05T14:04:33.000Z</time>
      </trkpt>
      <trkpt lat="46.36099" lon="6.02699">
        <ele>1200.5999755859</ele>
        <time>2019-10-05T14:04:35.000Z</time>
      </trkpt>
      <trkpt lat="46.36093" lon="6.02694">
        <ele>1200.8000488281</ele>
        <time>2019-10-05T14:04:38.000Z</time>
      </trkpt>
      <trkpt lat="46.3609" lon="6.02691">
        <ele>1201.1999511719</ele>
        <time>2019-10-05T14:04:40.000Z</time>
      </trkpt>
      <trkpt lat="46.36077" lon="6.02678">
        <ele>1202.1999511719</ele>
        <time>2019-10-05T14:04:47.000Z</time>
      </trkpt>
      <trkpt lat="46.36067" lon="6.02668">
        <ele>1203.1999511719</ele>
        <time>2019-10-05T14:04:53.000Z</time>
      </trkpt>
      <trkpt lat="46.36054" lon="6.02659">
        <ele>1204</ele>
        <time>2019-10-05T14:04:59.000Z</time>
      </trkpt>
      <trkpt lat="46.36052" lon="6.02657">
        <ele>1204.4000244141</ele>
        <time>2019-10-05T14:05:00.000Z</time>
      </trkpt>
      <trkpt lat="46.36034" lon="6.02649">
        <ele>1204.5999755859</ele>
        <time>2019-10-05T14:05:08.000Z</time>
      </trkpt>
      <trkpt lat="46.3602" lon="6.02642">
        <ele>1205.4000244141</ele>
        <time>2019-10-05T14:05:15.000Z</time>
      </trkpt>
      <trkpt lat="46.36008" lon="6.02636">
        <ele>1205.8000488281</ele>
        <time>2019-10-05T14:05:21.000Z</time>
      </trkpt>
      <trkpt lat="46.36006" lon="6.02635">
        <ele>1206</ele>
        <time>2019-10-05T14:05:22.000Z</time>
      </trkpt>
      <trkpt lat="46.36003" lon="6.02633">
        <ele>1206.4000244141</ele>
        <time>2019-10-05T14:05:24.000Z</time>
      </trkpt>
      <trkpt lat="46.35992" lon="6.02628">
        <ele>1206.8000488281</ele>
        <time>2019-10-05T14:05:29.000Z</time>
      </trkpt>
      <trkpt lat="46.3599" lon="6.02627">
        <ele>1207</ele>
        <time>2019-10-05T14:05:30.000Z</time>
      </trkpt>
      <trkpt lat="46.35983" lon="6.02623">
        <ele>1207.1999511719</ele>
        <time>2019-10-05T14:05:33.000Z</time>
      </trkpt>
      <trkpt lat="46.35976" lon="6.0262">
        <ele>1207.5999755859</ele>
        <time>2019-10-05T14:05:36.000Z</time>
      </trkpt>
      <trkpt lat="46.35959" lon="6.02614">
        <ele>1207.1999511719</ele>
        <time>2019-10-05T14:05:43.000Z</time>
      </trkpt>
      <trkpt lat="46.35948" lon="6.02608">
        <ele>1207.4000244141</ele>
        <time>2019-10-05T14:05:48.000Z</time>
      </trkpt>
      <trkpt lat="46.35944" lon="6.02605">
        <ele>1207.5999755859</ele>
        <time>2019-10-05T14:05:50.000Z</time>
      </trkpt>
      <trkpt lat="46.35931" lon="6.02598">
        <ele>1208.4000244141</ele>
        <time>2019-10-05T14:05:56.000Z</time>
      </trkpt>
      <trkpt lat="46.35926" lon="6.02597">
        <ele>1208.1999511719</ele>
        <time>2019-10-05T14:05:58.000Z</time>
      </trkpt>
      <trkpt lat="46.35924" lon="6.02596">
        <ele>1208.1999511719</ele>
        <time>2019-10-05T14:05:59.000Z</time>
      </trkpt>
      <trkpt lat="46.35917" lon="6.02592">
        <ele>1208.4000244141</ele>
        <time>2019-10-05T14:06:02.000Z</time>
      </trkpt>
      <trkpt lat="46.35909" lon="6.02586">
        <ele>1209.4000244141</ele>
        <time>2019-10-05T14:06:06.000Z</time>
      </trkpt>
      <trkpt lat="46.35906" lon="6.02581">
        <ele>1210.5999755859</ele>
        <time>2019-10-05T14:06:08.000Z</time>
      </trkpt>
      <trkpt lat="46.35906" lon="6.02575">
        <ele>1212.1999511719</ele>
        <time>2019-10-05T14:06:10.000Z</time>
      </trkpt>
      <trkpt lat="46.35907" lon="6.02573">
        <ele>1213</ele>
        <time>2019-10-05T14:06:11.000Z</time>
      </trkpt>
      <trkpt lat="46.35917" lon="6.0257">
        <ele>1215.1999511719</ele>
        <time>2019-10-05T14:06:16.000Z</time>
      </trkpt>
      <trkpt lat="46.35925" lon="6.02572">
        <ele>1215.5999755859</ele>
        <time>2019-10-05T14:06:19.000Z</time>
      </trkpt>
      <trkpt lat="46.35934" lon="6.02575">
        <ele>1216.1999511719</ele>
        <time>2019-10-05T14:06:23.000Z</time>
      </trkpt>
      <trkpt lat="46.35937" lon="6.02576">
        <ele>1216.1999511719</ele>
        <time>2019-10-05T14:06:24.000Z</time>
      </trkpt>
      <trkpt lat="46.35951" lon="6.02581">
        <ele>1216.5999755859</ele>
        <time>2019-10-05T14:06:30.000Z</time>
      </trkpt>
      <trkpt lat="46.35953" lon="6.02581">
        <ele>1216.8000488281</ele>
        <time>2019-10-05T14:06:31.000Z</time>
      </trkpt>
      <trkpt lat="46.35968" lon="6.02586">
        <ele>1217.4000244141</ele>
        <time>2019-10-05T14:06:37.000Z</time>
      </trkpt>
      <trkpt lat="46.35975" lon="6.02588">
        <ele>1217.5999755859</ele>
        <time>2019-10-05T14:06:40.000Z</time>
      </trkpt>
      <trkpt lat="46.35982" lon="6.02589">
        <ele>1218.4000244141</ele>
        <time>2019-10-05T14:06:43.000Z</time>
      </trkpt>
      <trkpt lat="46.35988" lon="6.0259">
        <ele>1218.5999755859</ele>
        <time>2019-10-05T14:06:46.000Z</time>
      </trkpt>
      <trkpt lat="46.35995" lon="6.0259">
        <ele>1219.4000244141</ele>
        <time>2019-10-05T14:06:49.000Z</time>
      </trkpt>
      <trkpt lat="46.36001" lon="6.02589">
        <ele>1220.4000244141</ele>
        <time>2019-10-05T14:06:52.000Z</time>
      </trkpt>
      <trkpt lat="46.3601" lon="6.02588">
        <ele>1221.5999755859</ele>
        <time>2019-10-05T14:06:56.000Z</time>
      </trkpt>
      <trkpt lat="46.36024" lon="6.02585">
        <ele>1226</ele>
        <time>2019-10-05T14:07:02.000Z</time>
      </trkpt>
      <trkpt lat="46.36038" lon="6.02584">
        <ele>1229.5999755859</ele>
        <time>2019-10-05T14:07:08.000Z</time>
      </trkpt>
      <trkpt lat="46.36056" lon="6.02584">
        <ele>1233.4000244141</ele>
        <time>2019-10-05T14:07:15.000Z</time>
      </trkpt>
      <trkpt lat="46.36064" lon="6.02584">
        <ele>1235</ele>
        <time>2019-10-05T14:07:18.000Z</time>
      </trkpt>
      <trkpt lat="46.36074" lon="6.02588">
        <ele>1236</ele>
        <time>2019-10-05T14:07:22.000Z</time>
      </trkpt>
      <trkpt lat="46.36087" lon="6.02596">
        <ele>1235.4000244141</ele>
        <time>2019-10-05T14:07:28.000Z</time>
      </trkpt>
      <trkpt lat="46.36091" lon="6.02599">
        <ele>1235.1999511719</ele>
        <time>2019-10-05T14:07:30.000Z</time>
      </trkpt>
      <trkpt lat="46.36093" lon="6.02601">
        <ele>1235</ele>
        <time>2019-10-05T14:07:31.000Z</time>
      </trkpt>
      <trkpt lat="46.36099" lon="6.02606">
        <ele>1234.4000244141</ele>
        <time>2019-10-05T14:07:34.000Z</time>
      </trkpt>
      <trkpt lat="46.36103" lon="6.0261">
        <ele>1233.5999755859</ele>
        <time>2019-10-05T14:07:36.000Z</time>
      </trkpt>
      <trkpt lat="46.36105" lon="6.02612">
        <ele>1233</ele>
        <time>2019-10-05T14:07:37.000Z</time>
      </trkpt>
      <trkpt lat="46.36106" lon="6.02614">
        <ele>1232.5999755859</ele>
        <time>2019-10-05T14:07:38.000Z</time>
      </trkpt>
      <trkpt lat="46.36109" lon="6.02619">
        <ele>1231.4000244141</ele>
        <time>2019-10-05T14:07:40.000Z</time>
      </trkpt>
      <trkpt lat="46.36113" lon="6.02623">
        <ele>1230.5999755859</ele>
        <time>2019-10-05T14:07:42.000Z</time>
      </trkpt>
      <trkpt lat="46.36116" lon="6.02627">
        <ele>1229.5999755859</ele>
        <time>2019-10-05T14:07:44.000Z</time>
      </trkpt>
      <trkpt lat="46.36118" lon="6.02629">
        <ele>1229.4000244141</ele>
        <time>2019-10-05T14:07:45.000Z</time>
      </trkpt>
      <trkpt lat="46.3612" lon="6.02631">
        <ele>1229</ele>
        <time>2019-10-05T14:07:46.000Z</time>
      </trkpt>
      <trkpt lat="46.36124" lon="6.02634">
        <ele>1228.4000244141</ele>
        <time>2019-10-05T14:07:48.000Z</time>
      </trkpt>
      <trkpt lat="46.36132" lon="6.02641">
        <ele>1227.5999755859</ele>
        <time>2019-10-05T14:07:52.000Z</time>
      </trkpt>
      <trkpt lat="46.36137" lon="6.02646">
        <ele>1227</ele>
        <time>2019-10-05T14:07:55.000Z</time>
      </trkpt>
      <trkpt lat="46.36139" lon="6.02647">
        <ele>1227</ele>
        <time>2019-10-05T14:07:56.000Z</time>
      </trkpt>
      <trkpt lat="46.36151" lon="6.02658">
        <ele>1226.1999511719</ele>
        <time>2019-10-05T14:08:02.000Z</time>
      </trkpt>
      <trkpt lat="46.36157" lon="6.02662">
        <ele>1226</ele>
        <time>2019-10-05T14:08:05.000Z</time>
      </trkpt>
      <trkpt lat="46.36166" lon="6.02668">
        <ele>1225.5999755859</ele>
        <time>2019-10-05T14:08:09.000Z</time>
      </trkpt>
      <trkpt lat="46.36168" lon="6.0267">
        <ele>1225.5999755859</ele>
        <time>2019-10-05T14:08:10.000Z</time>
      </trkpt>
      <trkpt lat="46.3618" lon="6.02678">
        <ele>1225.1999511719</ele>
        <time>2019-10-05T14:08:16.000Z</time>
      </trkpt>
      <trkpt lat="46.36182" lon="6.02679">
        <ele>1225</ele>
        <time>2019-10-05T14:08:17.000Z</time>
      </trkpt>
      <trkpt lat="46.36185" lon="6.02681">
        <ele>1225</ele>
        <time>2019-10-05T14:08:19.000Z</time>
      </trkpt>
      <trkpt lat="46.36196" lon="6.02684">
        <ele>1226</ele>
        <time>2019-10-05T14:08:24.000Z</time>
      </trkpt>
      <trkpt lat="46.36205" lon="6.02684">
        <ele>1227.4000244141</ele>
        <time>2019-10-05T14:08:28.000Z</time>
      </trkpt>
      <trkpt lat="46.36216" lon="6.02683">
        <ele>1229.4000244141</ele>
        <time>2019-10-05T14:08:33.000Z</time>
      </trkpt>
      <trkpt lat="46.3622" lon="6.02682">
        <ele>1230.4000244141</ele>
        <time>2019-10-05T14:08:35.000Z</time>
      </trkpt>
      <trkpt lat="46.36236" lon="6.0268">
        <ele>1233</ele>
        <time>2019-10-05T14:08:42.000Z</time>
      </trkpt>
      <trkpt lat="46.36238" lon="6.0268">
        <ele>1233</ele>
        <time>2019-10-05T14:08:43.000Z</time>
      </trkpt>
      <trkpt lat="46.36243" lon="6.02679">
        <ele>1233.5999755859</ele>
        <time>2019-10-05T14:08:45.000Z</time>
      </trkpt>
      <trkpt lat="46.36252" lon="6.02677">
        <ele>1234.5999755859</ele>
        <time>2019-10-05T14:08:49.000Z</time>
      </trkpt>
      <trkpt lat="46.36254" lon="6.02676">
        <ele>1234.8000488281</ele>
        <time>2019-10-05T14:08:50.000Z</time>
      </trkpt>
      <trkpt lat="46.36272" lon="6.0267">
        <ele>1237</ele>
        <time>2019-10-05T14:08:57.000Z</time>
      </trkpt>
      <trkpt lat="46.36282" lon="6.02666">
        <ele>1238</ele>
        <time>2019-10-05T14:09:01.000Z</time>
      </trkpt>
      <trkpt lat="46.36289" lon="6.02663">
        <ele>1238.8000488281</ele>
        <time>2019-10-05T14:09:04.000Z</time>
      </trkpt>
      <trkpt lat="46.363" lon="6.02653">
        <ele>1241.1999511719</ele>
        <time>2019-10-05T14:09:09.000Z</time>
      </trkpt>
      <trkpt lat="46.36311" lon="6.02643">
        <ele>1243.8000488281</ele>
        <time>2019-10-05T14:09:16.000Z</time>
      </trkpt>
      <trkpt lat="46.36314" lon="6.02639">
        <ele>1244.5999755859</ele>
        <time>2019-10-05T14:09:18.000Z</time>
      </trkpt>
      <trkpt lat="46.36318" lon="6.02635">
        <ele>1245.1999511719</ele>
        <time>2019-10-05T14:09:20.000Z</time>
      </trkpt>
      <trkpt lat="46.36325" lon="6.02627">
        <ele>1246.4000244141</ele>
        <time>2019-10-05T14:09:24.000Z</time>
      </trkpt>
      <trkpt lat="46.3633" lon="6.0262">
        <ele>1247.4000244141</ele>
        <time>2019-10-05T14:09:27.000Z</time>
      </trkpt>
      <trkpt lat="46.36333" lon="6.02617">
        <ele>1248</ele>
        <time>2019-10-05T14:09:29.000Z</time>
      </trkpt>
      <trkpt lat="46.36335" lon="6.02614">
        <ele>1248.4000244141</ele>
        <time>2019-10-05T14:09:30.000Z</time>
      </trkpt>
      <trkpt lat="46.36336" lon="6.02612">
        <ele>1248.8000488281</ele>
        <time>2019-10-05T14:09:31.000Z</time>
      </trkpt>
      <trkpt lat="46.36341" lon="6.02604">
        <ele>1250</ele>
        <time>2019-10-05T14:09:34.000Z</time>
      </trkpt>
      <trkpt lat="46.36343" lon="6.02599">
        <ele>1250.8000488281</ele>
        <time>2019-10-05T14:09:36.000Z</time>
      </trkpt>
      <trkpt lat="46.36347" lon="6.02594">
        <ele>1251.8000488281</ele>
        <time>2019-10-05T14:09:39.000Z</time>
      </trkpt>
      <trkpt lat="46.3635" lon="6.02589">
        <ele>1252.5999755859</ele>
        <time>2019-10-05T14:09:41.000Z</time>
      </trkpt>
      <trkpt lat="46.36352" lon="6.02584">
        <ele>1253.4000244141</ele>
        <time>2019-10-05T14:09:43.000Z</time>
      </trkpt>
      <trkpt lat="46.36357" lon="6.02576">
        <ele>1254.5999755859</ele>
        <time>2019-10-05T14:09:46.000Z</time>
      </trkpt>
      <trkpt lat="46.36359" lon="6.02572">
        <ele>1255.4000244141</ele>
        <time>2019-10-05T14:09:48.000Z</time>
      </trkpt>
      <trkpt lat="46.36361" lon="6.02567">
        <ele>1256.1999511719</ele>
        <time>2019-10-05T14:09:50.000Z</time>
      </trkpt>
      <trkpt lat="46.36363" lon="6.02564">
        <ele>1256.5999755859</ele>
        <time>2019-10-05T14:09:51.000Z</time>
      </trkpt>
      <trkpt lat="46.36364" lon="6.02562">
        <ele>1257</ele>
        <time>2019-10-05T14:09:52.000Z</time>
      </trkpt>
      <trkpt lat="46.36366" lon="6.02558">
        <ele>1257.5999755859</ele>
        <time>2019-10-05T14:09:54.000Z</time>
      </trkpt>
      <trkpt lat="46.36368" lon="6.02554">
        <ele>1257.8000488281</ele>
        <time>2019-10-05T14:09:56.000Z</time>
      </trkpt>
      <trkpt lat="46.36369" lon="6.02552">
        <ele>1257.8000488281</ele>
        <time>2019-10-05T14:09:57.000Z</time>
      </trkpt>
      <trkpt lat="46.3637" lon="6.0255">
        <ele>1257.8000488281</ele>
        <time>2019-10-05T14:09:58.000Z</time>
      </trkpt>
      <trkpt lat="46.36374" lon="6.02546">
        <ele>1258</ele>
        <time>2019-10-05T14:10:01.000Z</time>
      </trkpt>
      <trkpt lat="46.36376" lon="6.02546">
        <ele>1257.8000488281</ele>
        <time>2019-10-05T14:10:02.000Z</time>
      </trkpt>
      <trkpt lat="46.36378" lon="6.02546">
        <ele>1257.8000488281</ele>
        <time>2019-10-05T14:10:03.000Z</time>
      </trkpt>
      <trkpt lat="46.3638" lon="6.02546">
        <ele>1257.5999755859</ele>
        <time>2019-10-05T14:10:04.000Z</time>
      </trkpt>
      <trkpt lat="46.36382" lon="6.02546">
        <ele>1257.5999755859</ele>
        <time>2019-10-05T14:10:05.000Z</time>
      </trkpt>
      <trkpt lat="46.36383" lon="6.02545">
        <ele>1257.5999755859</ele>
        <time>2019-10-05T14:10:06.000Z</time>
      </trkpt>
      <trkpt lat="46.36384" lon="6.02544">
        <ele>1257.8000488281</ele>
        <time>2019-10-05T14:10:07.000Z</time>
      </trkpt>
      <trkpt lat="46.36385" lon="6.02542">
        <ele>1258.1999511719</ele>
        <time>2019-10-05T14:10:08.000Z</time>
      </trkpt>
      <trkpt lat="46.36385" lon="6.0254">
        <ele>1258.5999755859</ele>
        <time>2019-10-05T14:10:09.000Z</time>
      </trkpt>
      <trkpt lat="46.36384" lon="6.02536">
        <ele>1259.4000244141</ele>
        <time>2019-10-05T14:10:10.000Z</time>
      </trkpt>
      <trkpt lat="46.36383" lon="6.02531">
        <ele>1260.1999511719</ele>
        <time>2019-10-05T14:10:11.000Z</time>
      </trkpt>
      <trkpt lat="46.36381" lon="6.02526">
        <ele>1261.1999511719</ele>
        <time>2019-10-05T14:10:12.000Z</time>
      </trkpt>
      <trkpt lat="46.3638" lon="6.02521">
        <ele>1262</ele>
        <time>2019-10-05T14:10:13.000Z</time>
      </trkpt>
      <trkpt lat="46.36379" lon="6.02517">
        <ele>1262.8000488281</ele>
        <time>2019-10-05T14:10:14.000Z</time>
      </trkpt>
      <trkpt lat="46.36378" lon="6.02513">
        <ele>1263.4000244141</ele>
        <time>2019-10-05T14:10:15.000Z</time>
      </trkpt>
      <trkpt lat="46.36376" lon="6.02508">
        <ele>1264.4000244141</ele>
        <time>2019-10-05T14:10:16.000Z</time>
      </trkpt>
      <trkpt lat="46.36375" lon="6.02503">
        <ele>1265.1999511719</ele>
        <time>2019-10-05T14:10:17.000Z</time>
      </trkpt>
      <trkpt lat="46.36373" lon="6.02499">
        <ele>1266</ele>
        <time>2019-10-05T14:10:18.000Z</time>
      </trkpt>
      <trkpt lat="46.3637" lon="6.02492">
        <ele>1267</ele>
        <time>2019-10-05T14:10:20.000Z</time>
      </trkpt>
      <trkpt lat="46.36369" lon="6.02488">
        <ele>1267.5999755859</ele>
        <time>2019-10-05T14:10:21.000Z</time>
      </trkpt>
      <trkpt lat="46.36366" lon="6.02481">
        <ele>1268.8000488281</ele>
        <time>2019-10-05T14:10:23.000Z</time>
      </trkpt>
      <trkpt lat="46.36362" lon="6.02473">
        <ele>1269.8000488281</ele>
        <time>2019-10-05T14:10:25.000Z</time>
      </trkpt>
      <trkpt lat="46.36361" lon="6.02469">
        <ele>1269.8000488281</ele>
        <time>2019-10-05T14:10:26.000Z</time>
      </trkpt>
      <trkpt lat="46.36359" lon="6.02466">
        <ele>1269.8000488281</ele>
        <time>2019-10-05T14:10:27.000Z</time>
      </trkpt>
      <trkpt lat="46.36358" lon="6.02462">
        <ele>1269.8000488281</ele>
        <time>2019-10-05T14:10:28.000Z</time>
      </trkpt>
      <trkpt lat="46.36357" lon="6.02458">
        <ele>1270</ele>
        <time>2019-10-05T14:10:29.000Z</time>
      </trkpt>
      <trkpt lat="46.36356" lon="6.02453">
        <ele>1270</ele>
        <time>2019-10-05T14:10:30.000Z</time>
      </trkpt>
      <trkpt lat="46.36356" lon="6.02449">
        <ele>1270.1999511719</ele>
        <time>2019-10-05T14:10:31.000Z</time>
      </trkpt>
      <trkpt lat="46.36353" lon="6.02442">
        <ele>1270.4000244141</ele>
        <time>2019-10-05T14:10:33.000Z</time>
      </trkpt>
      <trkpt lat="46.36352" lon="6.02438">
        <ele>1270.4000244141</ele>
        <time>2019-10-05T14:10:34.000Z</time>
      </trkpt>
      <trkpt lat="46.36351" lon="6.02435">
        <ele>1270.4000244141</ele>
        <time>2019-10-05T14:10:35.000Z</time>
      </trkpt>
      <trkpt lat="46.36349" lon="6.02428">
        <ele>1270.5999755859</ele>
        <time>2019-10-05T14:10:37.000Z</time>
      </trkpt>
      <trkpt lat="46.36347" lon="6.02418">
        <ele>1271.5999755859</ele>
        <time>2019-10-05T14:10:40.000Z</time>
      </trkpt>
      <trkpt lat="46.36347" lon="6.02411">
        <ele>1272.8000488281</ele>
        <time>2019-10-05T14:10:42.000Z</time>
      </trkpt>
      <trkpt lat="46.36347" lon="6.02407">
        <ele>1273.4000244141</ele>
        <time>2019-10-05T14:10:43.000Z</time>
      </trkpt>
      <trkpt lat="46.36346" lon="6.02399">
        <ele>1274.4000244141</ele>
        <time>2019-10-05T14:10:45.000Z</time>
      </trkpt>
      <trkpt lat="46.36346" lon="6.02389">
        <ele>1275.8000488281</ele>
        <time>2019-10-05T14:10:48.000Z</time>
      </trkpt>
      <trkpt lat="46.36346" lon="6.02386">
        <ele>1276.1999511719</ele>
        <time>2019-10-05T14:10:49.000Z</time>
      </trkpt>
      <trkpt lat="46.36347" lon="6.02373">
        <ele>1278.1999511719</ele>
        <time>2019-10-05T14:10:53.000Z</time>
      </trkpt>
      <trkpt lat="46.36347" lon="6.02359">
        <ele>1280</ele>
        <time>2019-10-05T14:10:57.000Z</time>
      </trkpt>
      <trkpt lat="46.36351" lon="6.0234">
        <ele>1282.5999755859</ele>
        <time>2019-10-05T14:11:03.000Z</time>
      </trkpt>
      <trkpt lat="46.36359" lon="6.02326">
        <ele>1283.1999511719</ele>
        <time>2019-10-05T14:11:09.000Z</time>
      </trkpt>
      <trkpt lat="46.36371" lon="6.02322">
        <ele>1284</ele>
        <time>2019-10-05T14:11:15.000Z</time>
      </trkpt>
      <trkpt lat="46.36376" lon="6.02324">
        <ele>1284.4000244141</ele>
        <time>2019-10-05T14:11:17.000Z</time>
      </trkpt>
      <trkpt lat="46.36382" lon="6.02329">
        <ele>1284.8000488281</ele>
        <time>2019-10-05T14:11:20.000Z</time>
      </trkpt>
      <trkpt lat="46.36386" lon="6.02337">
        <ele>1285.1999511719</ele>
        <time>2019-10-05T14:11:23.000Z</time>
      </trkpt>
      <trkpt lat="46.36389" lon="6.02343">
        <ele>1285.4000244141</ele>
        <time>2019-10-05T14:11:25.000Z</time>
      </trkpt>
      <trkpt lat="46.36392" lon="6.02349">
        <ele>1285.5999755859</ele>
        <time>2019-10-05T14:11:27.000Z</time>
      </trkpt>
      <trkpt lat="46.36393" lon="6.02352">
        <ele>1285.5999755859</ele>
        <time>2019-10-05T14:11:28.000Z</time>
      </trkpt>
      <trkpt lat="46.36394" lon="6.02355">
        <ele>1285.8000488281</ele>
        <time>2019-10-05T14:11:29.000Z</time>
      </trkpt>
      <trkpt lat="46.36396" lon="6.02361">
        <ele>1285.8000488281</ele>
        <time>2019-10-05T14:11:31.000Z</time>
      </trkpt>
      <trkpt lat="46.364" lon="6.0237">
        <ele>1286.5999755859</ele>
        <time>2019-10-05T14:11:34.000Z</time>
      </trkpt>
      <trkpt lat="46.36403" lon="6.02379">
        <ele>1287.8000488281</ele>
        <time>2019-10-05T14:11:37.000Z</time>
      </trkpt>
      <trkpt lat="46.36405" lon="6.02385">
        <ele>1288.5999755859</ele>
        <time>2019-10-05T14:11:39.000Z</time>
      </trkpt>
      <trkpt lat="46.36407" lon="6.02391">
        <ele>1289.1999511719</ele>
        <time>2019-10-05T14:11:41.000Z</time>
      </trkpt>
      <trkpt lat="46.36409" lon="6.024">
        <ele>1287.8000488281</ele>
        <time>2019-10-05T14:11:44.000Z</time>
      </trkpt>
      <trkpt lat="46.36409" lon="6.02403">
        <ele>1287.1999511719</ele>
        <time>2019-10-05T14:11:45.000Z</time>
      </trkpt>
      <trkpt lat="46.3641" lon="6.02406">
        <ele>1287</ele>
        <time>2019-10-05T14:11:46.000Z</time>
      </trkpt>
      <trkpt lat="46.36413" lon="6.02415">
        <ele>1286.1999511719</ele>
        <time>2019-10-05T14:11:49.000Z</time>
      </trkpt>
      <trkpt lat="46.36416" lon="6.02422">
        <ele>1285.8000488281</ele>
        <time>2019-10-05T14:11:51.000Z</time>
      </trkpt>
      <trkpt lat="46.36417" lon="6.0243">
        <ele>1285</ele>
        <time>2019-10-05T14:11:53.000Z</time>
      </trkpt>
      <trkpt lat="46.36419" lon="6.02441">
        <ele>1283.8000488281</ele>
        <time>2019-10-05T14:11:56.000Z</time>
      </trkpt>
      <trkpt lat="46.3642" lon="6.02444">
        <ele>1283.4000244141</ele>
        <time>2019-10-05T14:11:57.000Z</time>
      </trkpt>
      <trkpt lat="46.36422" lon="6.02451">
        <ele>1283</ele>
        <time>2019-10-05T14:11:59.000Z</time>
      </trkpt>
      <trkpt lat="46.36425" lon="6.0246">
        <ele>1282.4000244141</ele>
        <time>2019-10-05T14:12:02.000Z</time>
      </trkpt>
      <trkpt lat="46.36427" lon="6.02463">
        <ele>1282.1999511719</ele>
        <time>2019-10-05T14:12:03.000Z</time>
      </trkpt>
      <trkpt lat="46.36429" lon="6.02468">
        <ele>1282.1999511719</ele>
        <time>2019-10-05T14:12:05.000Z</time>
      </trkpt>
      <trkpt lat="46.36432" lon="6.02473">
        <ele>1281.8000488281</ele>
        <time>2019-10-05T14:12:07.000Z</time>
      </trkpt>
      <trkpt lat="46.36436" lon="6.02482">
        <ele>1281</ele>
        <time>2019-10-05T14:12:10.000Z</time>
      </trkpt>
      <trkpt lat="46.36446" lon="6.02496">
        <ele>1279.8000488281</ele>
        <time>2019-10-05T14:12:16.000Z</time>
      </trkpt>
      <trkpt lat="46.36449" lon="6.02501">
        <ele>1279.5999755859</ele>
        <time>2019-10-05T14:12:18.000Z</time>
      </trkpt>
      <trkpt lat="46.36453" lon="6.02504">
        <ele>1279.8000488281</ele>
        <time>2019-10-05T14:12:20.000Z</time>
      </trkpt>
      <trkpt lat="46.36469" lon="6.02512">
        <ele>1281.8000488281</ele>
        <time>2019-10-05T14:12:27.000Z</time>
      </trkpt>
      <trkpt lat="46.36484" lon="6.02513">
        <ele>1285.4000244141</ele>
        <time>2019-10-05T14:12:33.000Z</time>
      </trkpt>
      <trkpt lat="46.36499" lon="6.02507">
        <ele>1291.5999755859</ele>
        <time>2019-10-05T14:12:40.000Z</time>
      </trkpt>
      <trkpt lat="46.36512" lon="6.025">
        <ele>1295.4000244141</ele>
        <time>2019-10-05T14:12:46.000Z</time>
      </trkpt>
      <trkpt lat="46.36524" lon="6.02494">
        <ele>1295.1999511719</ele>
        <time>2019-10-05T14:12:51.000Z</time>
      </trkpt>
      <trkpt lat="46.36541" lon="6.02484">
        <ele>1294.5999755859</ele>
        <time>2019-10-05T14:12:59.000Z</time>
      </trkpt>
      <trkpt lat="46.36556" lon="6.02475">
        <ele>1294</ele>
        <time>2019-10-05T14:13:07.000Z</time>
      </trkpt>
      <trkpt lat="46.36562" lon="6.02471">
        <ele>1295</ele>
        <time>2019-10-05T14:13:10.000Z</time>
      </trkpt>
      <trkpt lat="46.36568" lon="6.02466">
        <ele>1296.8000488281</ele>
        <time>2019-10-05T14:13:13.000Z</time>
      </trkpt>
      <trkpt lat="46.36572" lon="6.02462">
        <ele>1298.5999755859</ele>
        <time>2019-10-05T14:13:15.000Z</time>
      </trkpt>
      <trkpt lat="46.36579" lon="6.02453">
        <ele>1302.1999511719</ele>
        <time>2019-10-05T14:13:19.000Z</time>
      </trkpt>
      <trkpt lat="46.36586" lon="6.02442">
        <ele>1306.1999511719</ele>
        <time>2019-10-05T14:13:23.000Z</time>
      </trkpt>
      <trkpt lat="46.36589" lon="6.02436">
        <ele>1308</ele>
        <time>2019-10-05T14:13:25.000Z</time>
      </trkpt>
      <trkpt lat="46.36594" lon="6.02428">
        <ele>1310.8000488281</ele>
        <time>2019-10-05T14:13:28.000Z</time>
      </trkpt>
      <trkpt lat="46.36595" lon="6.02426">
        <ele>1311.5999755859</ele>
        <time>2019-10-05T14:13:29.000Z</time>
      </trkpt>
      <trkpt lat="46.36598" lon="6.0242">
        <ele>1311.8000488281</ele>
        <time>2019-10-05T14:13:31.000Z</time>
      </trkpt>
      <trkpt lat="46.36602" lon="6.02412">
        <ele>1311</ele>
        <time>2019-10-05T14:13:34.000Z</time>
      </trkpt>
      <trkpt lat="46.36606" lon="6.02404">
        <ele>1310.1999511719</ele>
        <time>2019-10-05T14:13:37.000Z</time>
      </trkpt>
      <trkpt lat="46.36608" lon="6.02399">
        <ele>1309.5999755859</ele>
        <time>2019-10-05T14:13:39.000Z</time>
      </trkpt>
      <trkpt lat="46.36612" lon="6.02393">
        <ele>1309</ele>
        <time>2019-10-05T14:13:42.000Z</time>
      </trkpt>
      <trkpt lat="46.36614" lon="6.02388">
        <ele>1309.4000244141</ele>
        <time>2019-10-05T14:13:44.000Z</time>
      </trkpt>
      <trkpt lat="46.36615" lon="6.02384">
        <ele>1309.8000488281</ele>
        <time>2019-10-05T14:13:45.000Z</time>
      </trkpt>
      <trkpt lat="46.36617" lon="6.02378">
        <ele>1310.4000244141</ele>
        <time>2019-10-05T14:13:47.000Z</time>
      </trkpt>
      <trkpt lat="46.36619" lon="6.02372">
        <ele>1311</ele>
        <time>2019-10-05T14:13:49.000Z</time>
      </trkpt>
      <trkpt lat="46.3662" lon="6.02366">
        <ele>1311.8000488281</ele>
        <time>2019-10-05T14:13:51.000Z</time>
      </trkpt>
      <trkpt lat="46.36622" lon="6.0236">
        <ele>1311.8000488281</ele>
        <time>2019-10-05T14:13:53.000Z</time>
      </trkpt>
      <trkpt lat="46.36624" lon="6.02354">
        <ele>1311.5999755859</ele>
        <time>2019-10-05T14:13:55.000Z</time>
      </trkpt>
      <trkpt lat="46.36626" lon="6.02348">
        <ele>1311.4000244141</ele>
        <time>2019-10-05T14:13:57.000Z</time>
      </trkpt>
      <trkpt lat="46.36627" lon="6.02342">
        <ele>1311.1999511719</ele>
        <time>2019-10-05T14:13:59.000Z</time>
      </trkpt>
      <trkpt lat="46.36629" lon="6.02336">
        <ele>1311.1999511719</ele>
        <time>2019-10-05T14:14:01.000Z</time>
      </trkpt>
      <trkpt lat="46.36631" lon="6.0233">
        <ele>1311</ele>
        <time>2019-10-05T14:14:03.000Z</time>
      </trkpt>
      <trkpt lat="46.36636" lon="6.0232">
        <ele>1310.4000244141</ele>
        <time>2019-10-05T14:14:06.000Z</time>
      </trkpt>
      <trkpt lat="46.36639" lon="6.02308">
        <ele>1310.1999511719</ele>
        <time>2019-10-05T14:14:09.000Z</time>
      </trkpt>
      <trkpt lat="46.36642" lon="6.02303">
        <ele>1309.8000488281</ele>
        <time>2019-10-05T14:14:11.000Z</time>
      </trkpt>
      <trkpt lat="46.36645" lon="6.02297">
        <ele>1310.1999511719</ele>
        <time>2019-10-05T14:14:13.000Z</time>
      </trkpt>
      <trkpt lat="46.36648" lon="6.02292">
        <ele>1310.8000488281</ele>
        <time>2019-10-05T14:14:15.000Z</time>
      </trkpt>
      <trkpt lat="46.36654" lon="6.02284">
        <ele>1312.8000488281</ele>
        <time>2019-10-05T14:14:18.000Z</time>
      </trkpt>
      <trkpt lat="46.36657" lon="6.02281">
        <ele>1314</ele>
        <time>2019-10-05T14:14:20.000Z</time>
      </trkpt>
      <trkpt lat="46.3666" lon="6.0228">
        <ele>1314.5999755859</ele>
        <time>2019-10-05T14:14:21.000Z</time>
      </trkpt>
      <trkpt lat="46.36674" lon="6.02274">
        <ele>1318.4000244141</ele>
        <time>2019-10-05T14:14:28.000Z</time>
      </trkpt>
      <trkpt lat="46.36684" lon="6.02271">
        <ele>1321</ele>
        <time>2019-10-05T14:14:33.000Z</time>
      </trkpt>
      <trkpt lat="46.36688" lon="6.0227">
        <ele>1321.8000488281</ele>
        <time>2019-10-05T14:14:35.000Z</time>
      </trkpt>
      <trkpt lat="46.36691" lon="6.02269">
        <ele>1322.5999755859</ele>
        <time>2019-10-05T14:14:37.000Z</time>
      </trkpt>
      <trkpt lat="46.36697" lon="6.02267">
        <ele>1323</ele>
        <time>2019-10-05T14:14:40.000Z</time>
      </trkpt>
      <trkpt lat="46.36702" lon="6.02265">
        <ele>1323.1999511719</ele>
        <time>2019-10-05T14:14:42.000Z</time>
      </trkpt>
      <trkpt lat="46.36713" lon="6.02261">
        <ele>1323.5999755859</ele>
        <time>2019-10-05T14:14:47.000Z</time>
      </trkpt>
      <trkpt lat="46.36716" lon="6.0226">
        <ele>1323.8000488281</ele>
        <time>2019-10-05T14:14:48.000Z</time>
      </trkpt>
      <trkpt lat="46.36723" lon="6.02257">
        <ele>1324</ele>
        <time>2019-10-05T14:14:51.000Z</time>
      </trkpt>
      <trkpt lat="46.36733" lon="6.02254">
        <ele>1325.1999511719</ele>
        <time>2019-10-05T14:14:54.000Z</time>
      </trkpt>
      <trkpt lat="46.3676" lon="6.02246">
        <ele>1337.5999755859</ele>
        <time>2019-10-05T14:15:02.000Z</time>
      </trkpt>
      <trkpt lat="46.36767" lon="6.02245">
        <ele>1339.8000488281</ele>
        <time>2019-10-05T14:15:04.000Z</time>
      </trkpt>
      <trkpt lat="46.36778" lon="6.0224">
        <ele>1342.8000488281</ele>
        <time>2019-10-05T14:15:07.000Z</time>
      </trkpt>
      <trkpt lat="46.368" lon="6.0222">
        <ele>1347.5999755859</ele>
        <time>2019-10-05T14:15:14.000Z</time>
      </trkpt>
      <trkpt lat="46.3681" lon="6.02204">
        <ele>1346.4000244141</ele>
        <time>2019-10-05T14:15:18.000Z</time>
      </trkpt>
      <trkpt lat="46.36814" lon="6.02195">
        <ele>1344.5999755859</ele>
        <time>2019-10-05T14:15:20.000Z</time>
      </trkpt>
      <trkpt lat="46.36827" lon="6.02167">
        <ele>1339.8000488281</ele>
        <time>2019-10-05T14:15:27.000Z</time>
      </trkpt>
      <trkpt lat="46.36841" lon="6.02134">
        <ele>1339.5999755859</ele>
        <time>2019-10-05T14:15:35.000Z</time>
      </trkpt>
      <trkpt lat="46.3685" lon="6.0211">
        <ele>1340.1999511719</ele>
        <time>2019-10-05T14:15:41.000Z</time>
      </trkpt>
      <trkpt lat="46.36857" lon="6.02091">
        <ele>1340.8000488281</ele>
        <time>2019-10-05T14:15:46.000Z</time>
      </trkpt>
      <trkpt lat="46.36865" lon="6.02075">
        <ele>1341.5999755859</ele>
        <time>2019-10-05T14:15:51.000Z</time>
      </trkpt>
      <trkpt lat="46.36868" lon="6.02069">
        <ele>1341.8000488281</ele>
        <time>2019-10-05T14:15:53.000Z</time>
      </trkpt>
      <trkpt lat="46.3687" lon="6.02062">
        <ele>1341.8000488281</ele>
        <time>2019-10-05T14:15:55.000Z</time>
      </trkpt>
      <trkpt lat="46.36875" lon="6.02049">
        <ele>1343.5999755859</ele>
        <time>2019-10-05T14:15:59.000Z</time>
      </trkpt>
      <trkpt lat="46.36876" lon="6.02046">
        <ele>1344.1999511719</ele>
        <time>2019-10-05T14:16:00.000Z</time>
      </trkpt>
      <trkpt lat="46.3688" lon="6.02033">
        <ele>1344.5999755859</ele>
        <time>2019-10-05T14:16:04.000Z</time>
      </trkpt>
      <trkpt lat="46.36884" lon="6.0202">
        <ele>1342.4000244141</ele>
        <time>2019-10-05T14:16:08.000Z</time>
      </trkpt>
      <trkpt lat="46.36888" lon="6.02009">
        <ele>1340.5999755859</ele>
        <time>2019-10-05T14:16:12.000Z</time>
      </trkpt>
      <trkpt lat="46.36892" lon="6.02002">
        <ele>1339.8000488281</ele>
        <time>2019-10-05T14:23:22.000Z</time>
      </trkpt>
      <trkpt lat="46.36901" lon="6.0199">
        <ele>1338.5999755859</ele>
        <time>2019-10-05T14:23:27.000Z</time>
      </trkpt>
      <trkpt lat="46.3691" lon="6.01975">
        <ele>1338.1999511719</ele>
        <time>2019-10-05T14:28:39.000Z</time>
      </trkpt>
      <trkpt lat="46.36912" lon="6.01971">
        <ele>1338.4000244141</ele>
        <time>2019-10-05T14:28:41.000Z</time>
      </trkpt>
      <trkpt lat="46.36917" lon="6.01959">
        <ele>1338.1999511719</ele>
        <time>2019-10-05T14:28:45.000Z</time>
      </trkpt>
      <trkpt lat="46.36921" lon="6.01952">
        <ele>1338.4000244141</ele>
        <time>2019-10-05T14:28:47.000Z</time>
      </trkpt>
      <trkpt lat="46.36929" lon="6.0194">
        <ele>1338.8000488281</ele>
        <time>2019-10-05T14:28:50.000Z</time>
      </trkpt>
      <trkpt lat="46.36931" lon="6.01936">
        <ele>1339</ele>
        <time>2019-10-05T14:28:51.000Z</time>
      </trkpt>
      <trkpt lat="46.36947" lon="6.01918">
        <ele>1338.1999511719</ele>
        <time>2019-10-05T14:28:56.000Z</time>
      </trkpt>
      <trkpt lat="46.36951" lon="6.01914">
        <ele>1337.4000244141</ele>
        <time>2019-10-05T14:28:57.000Z</time>
      </trkpt>
      <trkpt lat="46.36962" lon="6.01894">
        <ele>1334.1999511719</ele>
        <time>2019-10-05T14:29:01.000Z</time>
      </trkpt>
      <trkpt lat="46.36965" lon="6.0189">
        <ele>1333.8000488281</ele>
        <time>2019-10-05T14:29:02.000Z</time>
      </trkpt>
      <trkpt lat="46.36978" lon="6.01868">
        <ele>1329.1999511719</ele>
        <time>2019-10-05T14:29:08.000Z</time>
      </trkpt>
      <trkpt lat="46.36971" lon="6.01863">
        <ele>1328.5999755859</ele>
        <time>2019-10-05T14:29:11.000Z</time>
      </trkpt>
      <trkpt lat="46.36961" lon="6.01875">
        <ele>1333</ele>
        <time>2019-10-05T14:29:14.000Z</time>
      </trkpt>
      <trkpt lat="46.36958" lon="6.01881">
        <ele>1332.5999755859</ele>
        <time>2019-10-05T14:29:15.000Z</time>
      </trkpt>
      <trkpt lat="46.36947" lon="6.019">
        <ele>1333.5999755859</ele>
        <time>2019-10-05T14:29:18.000Z</time>
      </trkpt>
      <trkpt lat="46.36944" lon="6.01907">
        <ele>1334.8000488281</ele>
        <time>2019-10-05T14:29:19.000Z</time>
      </trkpt>
      <trkpt lat="46.36937" lon="6.01922">
        <ele>1337.5999755859</ele>
        <time>2019-10-05T14:29:21.000Z</time>
      </trkpt>
      <trkpt lat="46.36933" lon="6.01928">
        <ele>1338.5999755859</ele>
        <time>2019-10-05T14:29:22.000Z</time>
      </trkpt>
      <trkpt lat="46.36925" lon="6.01941">
        <ele>1338</ele>
        <time>2019-10-05T14:29:24.000Z</time>
      </trkpt>
      <trkpt lat="46.3692" lon="6.01948">
        <ele>1337.5999755859</ele>
        <time>2019-10-05T14:29:25.000Z</time>
      </trkpt>
      <trkpt lat="46.36916" lon="6.01955">
        <ele>1337.4000244141</ele>
        <time>2019-10-05T14:29:26.000Z</time>
      </trkpt>
      <trkpt lat="46.36904" lon="6.01976">
        <ele>1336.5999755859</ele>
        <time>2019-10-05T14:29:29.000Z</time>
      </trkpt>
      <trkpt lat="46.36887" lon="6.02003">
        <ele>1339.4000244141</ele>
        <time>2019-10-05T14:29:33.000Z</time>
      </trkpt>
      <trkpt lat="46.3688" lon="6.02021">
        <ele>1342</ele>
        <time>2019-10-05T14:29:35.000Z</time>
      </trkpt>
      <trkpt lat="46.36867" lon="6.02053">
        <ele>1340.4000244141</ele>
        <time>2019-10-05T14:29:38.000Z</time>
      </trkpt>
      <trkpt lat="46.36862" lon="6.02065">
        <ele>1339</ele>
        <time>2019-10-05T14:29:39.000Z</time>
      </trkpt>
      <trkpt lat="46.36852" lon="6.02091">
        <ele>1338.5999755859</ele>
        <time>2019-10-05T14:29:41.000Z</time>
      </trkpt>
      <trkpt lat="46.36841" lon="6.02119">
        <ele>1337.5999755859</ele>
        <time>2019-10-05T14:29:43.000Z</time>
      </trkpt>
      <trkpt lat="46.36836" lon="6.02133">
        <ele>1337.1999511719</ele>
        <time>2019-10-05T14:29:44.000Z</time>
      </trkpt>
      <trkpt lat="46.3683" lon="6.02148">
        <ele>1336.8000488281</ele>
        <time>2019-10-05T14:29:45.000Z</time>
      </trkpt>
      <trkpt lat="46.36812" lon="6.0219">
        <ele>1342.8000488281</ele>
        <time>2019-10-05T14:29:48.000Z</time>
      </trkpt>
      <trkpt lat="46.36805" lon="6.02202">
        <ele>1345.1999511719</ele>
        <time>2019-10-05T14:29:49.000Z</time>
      </trkpt>
      <trkpt lat="46.36798" lon="6.02213">
        <ele>1346.1999511719</ele>
        <time>2019-10-05T14:29:50.000Z</time>
      </trkpt>
      <trkpt lat="46.36781" lon="6.0223">
        <ele>1342</ele>
        <time>2019-10-05T14:29:52.000Z</time>
      </trkpt>
      <trkpt lat="46.36753" lon="6.02241">
        <ele>1334.1999511719</ele>
        <time>2019-10-05T14:29:55.000Z</time>
      </trkpt>
      <trkpt lat="46.36744" lon="6.02244">
        <ele>1330.5999755859</ele>
        <time>2019-10-05T14:29:56.000Z</time>
      </trkpt>
      <trkpt lat="46.36694" lon="6.0226">
        <ele>1322.4000244141</ele>
        <time>2019-10-05T14:30:02.000Z</time>
      </trkpt>
      <trkpt lat="46.3667" lon="6.02268">
        <ele>1318</ele>
        <time>2019-10-05T14:30:05.000Z</time>
      </trkpt>
      <trkpt lat="46.36645" lon="6.0228">
        <ele>1312.1999511719</ele>
        <time>2019-10-05T14:30:08.000Z</time>
      </trkpt>
      <trkpt lat="46.36638" lon="6.02286">
        <ele>1311.5999755859</ele>
        <time>2019-10-05T14:30:09.000Z</time>
      </trkpt>
      <trkpt lat="46.36627" lon="6.02307">
        <ele>1311.8000488281</ele>
        <time>2019-10-05T14:30:11.000Z</time>
      </trkpt>
      <trkpt lat="46.36622" lon="6.0232">
        <ele>1312.1999511719</ele>
        <time>2019-10-05T14:30:12.000Z</time>
      </trkpt>
      <trkpt lat="46.36615" lon="6.02348">
        <ele>1312.8000488281</ele>
        <time>2019-10-05T14:30:14.000Z</time>
      </trkpt>
      <trkpt lat="46.36611" lon="6.02363">
        <ele>1312.4000244141</ele>
        <time>2019-10-05T14:30:15.000Z</time>
      </trkpt>
      <trkpt lat="46.36597" lon="6.02408">
        <ele>1310.5999755859</ele>
        <time>2019-10-05T14:30:18.000Z</time>
      </trkpt>
      <trkpt lat="46.36592" lon="6.02421">
        <ele>1311.8000488281</ele>
        <time>2019-10-05T14:30:19.000Z</time>
      </trkpt>
      <trkpt lat="46.36581" lon="6.02444">
        <ele>1304.4000244141</ele>
        <time>2019-10-05T14:30:21.000Z</time>
      </trkpt>
      <trkpt lat="46.36575" lon="6.02455">
        <ele>1300.8000488281</ele>
        <time>2019-10-05T14:30:22.000Z</time>
      </trkpt>
      <trkpt lat="46.36568" lon="6.02463">
        <ele>1297.1999511719</ele>
        <time>2019-10-05T14:30:23.000Z</time>
      </trkpt>
      <trkpt lat="46.36552" lon="6.02479">
        <ele>1294.1999511719</ele>
        <time>2019-10-05T14:30:25.000Z</time>
      </trkpt>
      <trkpt lat="46.36542" lon="6.02484">
        <ele>1294.4000244141</ele>
        <time>2019-10-05T14:30:26.000Z</time>
      </trkpt>
      <trkpt lat="46.36532" lon="6.02488">
        <ele>1294.8000488281</ele>
        <time>2019-10-05T14:30:27.000Z</time>
      </trkpt>
      <trkpt lat="46.36521" lon="6.02493">
        <ele>1295</ele>
        <time>2019-10-05T14:30:28.000Z</time>
      </trkpt>
      <trkpt lat="46.36501" lon="6.02504">
        <ele>1293</ele>
        <time>2019-10-05T14:30:30.000Z</time>
      </trkpt>
      <trkpt lat="46.36476" lon="6.02515">
        <ele>1282.5999755859</ele>
        <time>2019-10-05T14:30:33.000Z</time>
      </trkpt>
      <trkpt lat="46.36468" lon="6.02515">
        <ele>1280.5999755859</ele>
        <time>2019-10-05T14:30:34.000Z</time>
      </trkpt>
      <trkpt lat="46.36443" lon="6.02505">
        <ele>1277</ele>
        <time>2019-10-05T14:30:37.000Z</time>
      </trkpt>
      <trkpt lat="46.36424" lon="6.02478">
        <ele>1278.8000488281</ele>
        <time>2019-10-05T14:30:40.000Z</time>
      </trkpt>
      <trkpt lat="46.3641" lon="6.02434">
        <ele>1282.4000244141</ele>
        <time>2019-10-05T14:30:43.000Z</time>
      </trkpt>
      <trkpt lat="46.36405" lon="6.02419">
        <ele>1283.4000244141</ele>
        <time>2019-10-05T14:30:44.000Z</time>
      </trkpt>
      <trkpt lat="46.36396" lon="6.0239">
        <ele>1285.8000488281</ele>
        <time>2019-10-05T14:30:46.000Z</time>
      </trkpt>
      <trkpt lat="46.36392" lon="6.02375">
        <ele>1285.5999755859</ele>
        <time>2019-10-05T14:30:47.000Z</time>
      </trkpt>
      <trkpt lat="46.36384" lon="6.0235">
        <ele>1285</ele>
        <time>2019-10-05T14:30:49.000Z</time>
      </trkpt>
      <trkpt lat="46.3638" lon="6.02338">
        <ele>1284.8000488281</ele>
        <time>2019-10-05T14:30:50.000Z</time>
      </trkpt>
      <trkpt lat="46.36375" lon="6.02329">
        <ele>1284.4000244141</ele>
        <time>2019-10-05T14:30:51.000Z</time>
      </trkpt>
      <trkpt lat="46.36361" lon="6.0232">
        <ele>1283.4000244141</ele>
        <time>2019-10-05T14:30:53.000Z</time>
      </trkpt>
      <trkpt lat="46.36346" lon="6.02328">
        <ele>1282.4000244141</ele>
        <time>2019-10-05T14:30:55.000Z</time>
      </trkpt>
      <trkpt lat="46.36341" lon="6.02337">
        <ele>1281.5999755859</ele>
        <time>2019-10-05T14:30:56.000Z</time>
      </trkpt>
      <trkpt lat="46.36336" lon="6.02348">
        <ele>1279.1999511719</ele>
        <time>2019-10-05T14:30:57.000Z</time>
      </trkpt>
      <trkpt lat="46.36327" lon="6.02373">
        <ele>1274.1999511719</ele>
        <time>2019-10-05T14:30:59.000Z</time>
      </trkpt>
      <trkpt lat="46.36325" lon="6.02402">
        <ele>1269.5999755859</ele>
        <time>2019-10-05T14:31:01.000Z</time>
      </trkpt>
      <trkpt lat="46.36327" lon="6.02432">
        <ele>1268.4000244141</ele>
        <time>2019-10-05T14:31:03.000Z</time>
      </trkpt>
      <trkpt lat="46.36331" lon="6.02448">
        <ele>1268</ele>
        <time>2019-10-05T14:31:04.000Z</time>
      </trkpt>
      <trkpt lat="46.36337" lon="6.02463">
        <ele>1267.8000488281</ele>
        <time>2019-10-05T14:31:05.000Z</time>
      </trkpt>
      <trkpt lat="46.36342" lon="6.02477">
        <ele>1267.4000244141</ele>
        <time>2019-10-05T14:31:06.000Z</time>
      </trkpt>
      <trkpt lat="46.36348" lon="6.0249">
        <ele>1265.1999511719</ele>
        <time>2019-10-05T14:31:07.000Z</time>
      </trkpt>
      <trkpt lat="46.36353" lon="6.02503">
        <ele>1263.1999511719</ele>
        <time>2019-10-05T14:31:08.000Z</time>
      </trkpt>
      <trkpt lat="46.36361" lon="6.02525">
        <ele>1259.8000488281</ele>
        <time>2019-10-05T14:31:10.000Z</time>
      </trkpt>
      <trkpt lat="46.36363" lon="6.02536">
        <ele>1259</ele>
        <time>2019-10-05T14:31:11.000Z</time>
      </trkpt>
      <trkpt lat="46.36363" lon="6.02548">
        <ele>1258.1999511719</ele>
        <time>2019-10-05T14:31:12.000Z</time>
      </trkpt>
      <trkpt lat="46.36356" lon="6.02573">
        <ele>1255.1999511719</ele>
        <time>2019-10-05T14:31:14.000Z</time>
      </trkpt>
      <trkpt lat="46.36343" lon="6.02597">
        <ele>1251.4000244141</ele>
        <time>2019-10-05T14:31:16.000Z</time>
      </trkpt>
      <trkpt lat="46.36335" lon="6.02608">
        <ele>1249.5999755859</ele>
        <time>2019-10-05T14:31:17.000Z</time>
      </trkpt>
      <trkpt lat="46.36328" lon="6.02619">
        <ele>1247.8000488281</ele>
        <time>2019-10-05T14:31:18.000Z</time>
      </trkpt>
      <trkpt lat="46.36311" lon="6.0264">
        <ele>1244.4000244141</ele>
        <time>2019-10-05T14:31:20.000Z</time>
      </trkpt>
      <trkpt lat="46.36301" lon="6.0265">
        <ele>1242.1999511719</ele>
        <time>2019-10-05T14:31:21.000Z</time>
      </trkpt>
      <trkpt lat="46.36291" lon="6.02659">
        <ele>1239.8000488281</ele>
        <time>2019-10-05T14:31:22.000Z</time>
      </trkpt>
      <trkpt lat="46.3627" lon="6.02674">
        <ele>1236</ele>
        <time>2019-10-05T14:31:24.000Z</time>
      </trkpt>
      <trkpt lat="46.36259" lon="6.02679">
        <ele>1234.1999511719</ele>
        <time>2019-10-05T14:31:25.000Z</time>
      </trkpt>
      <trkpt lat="46.36247" lon="6.02683">
        <ele>1232.4000244141</ele>
        <time>2019-10-05T14:31:26.000Z</time>
      </trkpt>
      <trkpt lat="46.36222" lon="6.02688">
        <ele>1228.8000488281</ele>
        <time>2019-10-05T14:31:28.000Z</time>
      </trkpt>
      <trkpt lat="46.36211" lon="6.02689">
        <ele>1226.8000488281</ele>
        <time>2019-10-05T14:31:29.000Z</time>
      </trkpt>
      <trkpt lat="46.362" lon="6.0269">
        <ele>1224.8000488281</ele>
        <time>2019-10-05T14:31:30.000Z</time>
      </trkpt>
      <trkpt lat="46.36191" lon="6.02691">
        <ele>1222.8000488281</ele>
        <time>2019-10-05T14:31:31.000Z</time>
      </trkpt>
      <trkpt lat="46.3618" lon="6.0269">
        <ele>1221.1999511719</ele>
        <time>2019-10-05T14:31:32.000Z</time>
      </trkpt>
      <trkpt lat="46.3617" lon="6.02687">
        <ele>1220.1999511719</ele>
        <time>2019-10-05T14:31:33.000Z</time>
      </trkpt>
      <trkpt lat="46.36149" lon="6.02674">
        <ele>1220.5999755859</ele>
        <time>2019-10-05T14:31:35.000Z</time>
      </trkpt>
      <trkpt lat="46.3614" lon="6.02667">
        <ele>1220.5999755859</ele>
        <time>2019-10-05T14:31:36.000Z</time>
      </trkpt>
      <trkpt lat="46.3613" lon="6.02659">
        <ele>1221</ele>
        <time>2019-10-05T14:31:37.000Z</time>
      </trkpt>
      <trkpt lat="46.3611" lon="6.02639">
        <ele>1222.8000488281</ele>
        <time>2019-10-05T14:31:39.000Z</time>
      </trkpt>
      <trkpt lat="46.361" lon="6.02627">
        <ele>1225.1999511719</ele>
        <time>2019-10-05T14:31:40.000Z</time>
      </trkpt>
      <trkpt lat="46.3609" lon="6.02616">
        <ele>1227.4000244141</ele>
        <time>2019-10-05T14:31:41.000Z</time>
      </trkpt>
      <trkpt lat="46.36059" lon="6.02593">
        <ele>1230.1999511719</ele>
        <time>2019-10-05T14:31:44.000Z</time>
      </trkpt>
      <trkpt lat="46.36048" lon="6.02588">
        <ele>1229.8000488281</ele>
        <time>2019-10-05T14:31:45.000Z</time>
      </trkpt>
      <trkpt lat="46.36026" lon="6.02586">
        <ele>1226</ele>
        <time>2019-10-05T14:31:47.000Z</time>
      </trkpt>
      <trkpt lat="46.36015" lon="6.02588">
        <ele>1222.4000244141</ele>
        <time>2019-10-05T14:31:48.000Z</time>
      </trkpt>
      <trkpt lat="46.36003" lon="6.02591">
        <ele>1220</ele>
        <time>2019-10-05T14:31:49.000Z</time>
      </trkpt>
      <trkpt lat="46.3596" lon="6.02596">
        <ele>1213</ele>
        <time>2019-10-05T14:31:53.000Z</time>
      </trkpt>
      <trkpt lat="46.35916" lon="6.02584">
        <ele>1210.8000488281</ele>
        <time>2019-10-05T14:31:57.000Z</time>
      </trkpt>
      <trkpt lat="46.35907" lon="6.02582">
        <ele>1210.4000244141</ele>
        <time>2019-10-05T14:31:58.000Z</time>
      </trkpt>
      <trkpt lat="46.35892" lon="6.02578">
        <ele>1210</ele>
        <time>2019-10-05T14:32:00.000Z</time>
      </trkpt>
      <trkpt lat="46.35886" lon="6.0258">
        <ele>1209</ele>
        <time>2019-10-05T14:32:01.000Z</time>
      </trkpt>
      <trkpt lat="46.35881" lon="6.02586">
        <ele>1207</ele>
        <time>2019-10-05T14:32:02.000Z</time>
      </trkpt>
      <trkpt lat="46.35879" lon="6.02603">
        <ele>1202</ele>
        <time>2019-10-05T14:32:04.000Z</time>
      </trkpt>
      <trkpt lat="46.35887" lon="6.02614">
        <ele>1199.1999511719</ele>
        <time>2019-10-05T14:32:06.000Z</time>
      </trkpt>
      <trkpt lat="46.35894" lon="6.02618">
        <ele>1198.8000488281</ele>
        <time>2019-10-05T14:32:07.000Z</time>
      </trkpt>
      <trkpt lat="46.3591" lon="6.02624">
        <ele>1198.5999755859</ele>
        <time>2019-10-05T14:32:09.000Z</time>
      </trkpt>
      <trkpt lat="46.3592" lon="6.02628">
        <ele>1198.4000244141</ele>
        <time>2019-10-05T14:32:10.000Z</time>
      </trkpt>
      <trkpt lat="46.3594" lon="6.02636">
        <ele>1198.4000244141</ele>
        <time>2019-10-05T14:32:12.000Z</time>
      </trkpt>
      <trkpt lat="46.3595" lon="6.0264">
        <ele>1198.4000244141</ele>
        <time>2019-10-05T14:32:13.000Z</time>
      </trkpt>
      <trkpt lat="46.35971" lon="6.02649">
        <ele>1198</ele>
        <time>2019-10-05T14:32:15.000Z</time>
      </trkpt>
      <trkpt lat="46.35993" lon="6.02659">
        <ele>1197.4000244141</ele>
        <time>2019-10-05T14:32:17.000Z</time>
      </trkpt>
      <trkpt lat="46.36004" lon="6.02664">
        <ele>1197.1999511719</ele>
        <time>2019-10-05T14:32:18.000Z</time>
      </trkpt>
      <trkpt lat="46.36015" lon="6.02669">
        <ele>1197</ele>
        <time>2019-10-05T14:32:19.000Z</time>
      </trkpt>
      <trkpt lat="46.36037" lon="6.02682">
        <ele>1195.5999755859</ele>
        <time>2019-10-05T14:32:21.000Z</time>
      </trkpt>
      <trkpt lat="46.3606" lon="6.02697">
        <ele>1193.8000488281</ele>
        <time>2019-10-05T14:32:23.000Z</time>
      </trkpt>
      <trkpt lat="46.3607" lon="6.02707">
        <ele>1192.4000244141</ele>
        <time>2019-10-05T14:32:24.000Z</time>
      </trkpt>
      <trkpt lat="46.3608" lon="6.02718">
        <ele>1191.4000244141</ele>
        <time>2019-10-05T14:32:25.000Z</time>
      </trkpt>
      <trkpt lat="46.3609" lon="6.02728">
        <ele>1190.4000244141</ele>
        <time>2019-10-05T14:32:26.000Z</time>
      </trkpt>
      <trkpt lat="46.361" lon="6.02739">
        <ele>1188.8000488281</ele>
        <time>2019-10-05T14:32:27.000Z</time>
      </trkpt>
      <trkpt lat="46.36119" lon="6.02762">
        <ele>1185.5999755859</ele>
        <time>2019-10-05T14:32:29.000Z</time>
      </trkpt>
      <trkpt lat="46.36128" lon="6.02775">
        <ele>1183.5999755859</ele>
        <time>2019-10-05T14:32:30.000Z</time>
      </trkpt>
      <trkpt lat="46.36138" lon="6.02788">
        <ele>1181.4000244141</ele>
        <time>2019-10-05T14:32:31.000Z</time>
      </trkpt>
      <trkpt lat="46.36147" lon="6.02801">
        <ele>1179.1999511719</ele>
        <time>2019-10-05T14:32:32.000Z</time>
      </trkpt>
      <trkpt lat="46.36156" lon="6.02815">
        <ele>1177.5999755859</ele>
        <time>2019-10-05T14:32:33.000Z</time>
      </trkpt>
      <trkpt lat="46.36166" lon="6.02828">
        <ele>1177</ele>
        <time>2019-10-05T14:32:34.000Z</time>
      </trkpt>
      <trkpt lat="46.36174" lon="6.02841">
        <ele>1176.1999511719</ele>
        <time>2019-10-05T14:32:35.000Z</time>
      </trkpt>
      <trkpt lat="46.36183" lon="6.02853">
        <ele>1175.4000244141</ele>
        <time>2019-10-05T14:32:36.000Z</time>
      </trkpt>
      <trkpt lat="46.3619" lon="6.02864">
        <ele>1174.8000488281</ele>
        <time>2019-10-05T14:32:37.000Z</time>
      </trkpt>
      <trkpt lat="46.36198" lon="6.02874">
        <ele>1174.4000244141</ele>
        <time>2019-10-05T14:32:38.000Z</time>
      </trkpt>
      <trkpt lat="46.36218" lon="6.02901">
        <ele>1173.8000488281</ele>
        <time>2019-10-05T14:32:41.000Z</time>
      </trkpt>
      <trkpt lat="46.36226" lon="6.02906">
        <ele>1175.4000244141</ele>
        <time>2019-10-05T14:32:42.000Z</time>
      </trkpt>
      <trkpt lat="46.36235" lon="6.02913">
        <ele>1177</ele>
        <time>2019-10-05T14:32:43.000Z</time>
      </trkpt>
      <trkpt lat="46.36241" lon="6.02921">
        <ele>1178.4000244141</ele>
        <time>2019-10-05T14:32:44.000Z</time>
      </trkpt>
      <trkpt lat="46.36253" lon="6.02941">
        <ele>1179.8000488281</ele>
        <time>2019-10-05T14:32:46.000Z</time>
      </trkpt>
      <trkpt lat="46.36261" lon="6.02965">
        <ele>1179.4000244141</ele>
        <time>2019-10-05T14:32:48.000Z</time>
      </trkpt>
      <trkpt lat="46.36267" lon="6.02993">
        <ele>1179.8000488281</ele>
        <time>2019-10-05T14:32:50.000Z</time>
      </trkpt>
      <trkpt lat="46.36269" lon="6.03008">
        <ele>1180</ele>
        <time>2019-10-05T14:32:51.000Z</time>
      </trkpt>
      <trkpt lat="46.3627" lon="6.03023">
        <ele>1179.1999511719</ele>
        <time>2019-10-05T14:32:52.000Z</time>
      </trkpt>
      <trkpt lat="46.3627" lon="6.03039">
        <ele>1177.4000244141</ele>
        <time>2019-10-05T14:32:53.000Z</time>
      </trkpt>
      <trkpt lat="46.36269" lon="6.03056">
        <ele>1174.1999511719</ele>
        <time>2019-10-05T14:32:54.000Z</time>
      </trkpt>
      <trkpt lat="46.36267" lon="6.03073">
        <ele>1172.8000488281</ele>
        <time>2019-10-05T14:32:55.000Z</time>
      </trkpt>
      <trkpt lat="46.36263" lon="6.03106">
        <ele>1169.8000488281</ele>
        <time>2019-10-05T14:32:57.000Z</time>
      </trkpt>
      <trkpt lat="46.36263" lon="6.03138">
        <ele>1167.1999511719</ele>
        <time>2019-10-05T14:32:59.000Z</time>
      </trkpt>
      <trkpt lat="46.36268" lon="6.03169">
        <ele>1172</ele>
        <time>2019-10-05T14:33:01.000Z</time>
      </trkpt>
      <trkpt lat="46.3627" lon="6.03198">
        <ele>1174.5999755859</ele>
        <time>2019-10-05T14:33:03.000Z</time>
      </trkpt>
      <trkpt lat="46.36269" lon="6.03214">
        <ele>1173.8000488281</ele>
        <time>2019-10-05T14:33:04.000Z</time>
      </trkpt>
      <trkpt lat="46.36266" lon="6.0323">
        <ele>1173</ele>
        <time>2019-10-05T14:33:05.000Z</time>
      </trkpt>
      <trkpt lat="46.36262" lon="6.03245">
        <ele>1173.5999755859</ele>
        <time>2019-10-05T14:33:06.000Z</time>
      </trkpt>
      <trkpt lat="46.36257" lon="6.0326">
        <ele>1172.8000488281</ele>
        <time>2019-10-05T14:33:07.000Z</time>
      </trkpt>
      <trkpt lat="46.36252" lon="6.03275">
        <ele>1170.5999755859</ele>
        <time>2019-10-05T14:33:08.000Z</time>
      </trkpt>
      <trkpt lat="46.36247" lon="6.03291">
        <ele>1168.1999511719</ele>
        <time>2019-10-05T14:33:09.000Z</time>
      </trkpt>
      <trkpt lat="46.36242" lon="6.03307">
        <ele>1165.8000488281</ele>
        <time>2019-10-05T14:33:10.000Z</time>
      </trkpt>
      <trkpt lat="46.36237" lon="6.03324">
        <ele>1164.5999755859</ele>
        <time>2019-10-05T14:33:11.000Z</time>
      </trkpt>
      <trkpt lat="46.36232" lon="6.0334">
        <ele>1163.5999755859</ele>
        <time>2019-10-05T14:33:12.000Z</time>
      </trkpt>
      <trkpt lat="46.36227" lon="6.03357">
        <ele>1164.4000244141</ele>
        <time>2019-10-05T14:33:13.000Z</time>
      </trkpt>
      <trkpt lat="46.36221" lon="6.03373">
        <ele>1165.1999511719</ele>
        <time>2019-10-05T14:33:14.000Z</time>
      </trkpt>
      <trkpt lat="46.36215" lon="6.03389">
        <ele>1164.4000244141</ele>
        <time>2019-10-05T14:33:15.000Z</time>
      </trkpt>
      <trkpt lat="46.36208" lon="6.03404">
        <ele>1163.4000244141</ele>
        <time>2019-10-05T14:33:16.000Z</time>
      </trkpt>
      <trkpt lat="46.36201" lon="6.03418">
        <ele>1162.5999755859</ele>
        <time>2019-10-05T14:33:17.000Z</time>
      </trkpt>
      <trkpt lat="46.36194" lon="6.03433">
        <ele>1162</ele>
        <time>2019-10-05T14:33:18.000Z</time>
      </trkpt>
      <trkpt lat="46.36188" lon="6.03448">
        <ele>1160.8000488281</ele>
        <time>2019-10-05T14:33:19.000Z</time>
      </trkpt>
      <trkpt lat="46.36183" lon="6.03464">
        <ele>1159.5999755859</ele>
        <time>2019-10-05T14:33:20.000Z</time>
      </trkpt>
      <trkpt lat="46.36179" lon="6.0348">
        <ele>1159.8000488281</ele>
        <time>2019-10-05T14:33:21.000Z</time>
      </trkpt>
      <trkpt lat="46.36174" lon="6.03497">
        <ele>1162.8000488281</ele>
        <time>2019-10-05T14:33:22.000Z</time>
      </trkpt>
      <trkpt lat="46.3617" lon="6.03513">
        <ele>1163.1999511719</ele>
        <time>2019-10-05T14:33:23.000Z</time>
      </trkpt>
      <trkpt lat="46.36166" lon="6.03527">
        <ele>1162.4000244141</ele>
        <time>2019-10-05T14:33:24.000Z</time>
      </trkpt>
      <trkpt lat="46.36161" lon="6.0354">
        <ele>1160.5999755859</ele>
        <time>2019-10-05T14:33:25.000Z</time>
      </trkpt>
      <trkpt lat="46.36156" lon="6.03553">
        <ele>1158.1999511719</ele>
        <time>2019-10-05T14:33:26.000Z</time>
      </trkpt>
      <trkpt lat="46.36149" lon="6.03566">
        <ele>1155.4000244141</ele>
        <time>2019-10-05T14:33:27.000Z</time>
      </trkpt>
      <trkpt lat="46.36141" lon="6.03577">
        <ele>1154.1999511719</ele>
        <time>2019-10-05T14:33:28.000Z</time>
      </trkpt>
      <trkpt lat="46.36132" lon="6.03588">
        <ele>1153.4000244141</ele>
        <time>2019-10-05T14:33:29.000Z</time>
      </trkpt>
      <trkpt lat="46.36122" lon="6.036">
        <ele>1152.4000244141</ele>
        <time>2019-10-05T14:33:30.000Z</time>
      </trkpt>
      <trkpt lat="46.36114" lon="6.03612">
        <ele>1151.4000244141</ele>
        <time>2019-10-05T14:33:31.000Z</time>
      </trkpt>
      <trkpt lat="46.36106" lon="6.03625">
        <ele>1148.1999511719</ele>
        <time>2019-10-05T14:33:32.000Z</time>
      </trkpt>
      <trkpt lat="46.36099" lon="6.0364">
        <ele>1145.8000488281</ele>
        <time>2019-10-05T14:33:33.000Z</time>
      </trkpt>
      <trkpt lat="46.36092" lon="6.03655">
        <ele>1146.5999755859</ele>
        <time>2019-10-05T14:33:34.000Z</time>
      </trkpt>
      <trkpt lat="46.36086" lon="6.03671">
        <ele>1147.1999511719</ele>
        <time>2019-10-05T14:33:35.000Z</time>
      </trkpt>
      <trkpt lat="46.3608" lon="6.03687">
        <ele>1145</ele>
        <time>2019-10-05T14:33:36.000Z</time>
      </trkpt>
      <trkpt lat="46.36075" lon="6.03703">
        <ele>1142.8000488281</ele>
        <time>2019-10-05T14:33:37.000Z</time>
      </trkpt>
      <trkpt lat="46.36069" lon="6.03719">
        <ele>1140.5999755859</ele>
        <time>2019-10-05T14:33:38.000Z</time>
      </trkpt>
      <trkpt lat="46.36064" lon="6.03733">
        <ele>1138.1999511719</ele>
        <time>2019-10-05T14:33:39.000Z</time>
      </trkpt>
      <trkpt lat="46.36059" lon="6.03746">
        <ele>1136.8000488281</ele>
        <time>2019-10-05T14:33:40.000Z</time>
      </trkpt>
      <trkpt lat="46.3605" lon="6.03769">
        <ele>1134</ele>
        <time>2019-10-05T14:33:42.000Z</time>
      </trkpt>
      <trkpt lat="46.36038" lon="6.03787">
        <ele>1130.1999511719</ele>
        <time>2019-10-05T14:33:44.000Z</time>
      </trkpt>
      <trkpt lat="46.3603" lon="6.03795">
        <ele>1128</ele>
        <time>2019-10-05T14:33:45.000Z</time>
      </trkpt>
      <trkpt lat="46.36022" lon="6.03802">
        <ele>1125.5999755859</ele>
        <time>2019-10-05T14:33:46.000Z</time>
      </trkpt>
      <trkpt lat="46.36012" lon="6.03806">
        <ele>1122.4000244141</ele>
        <time>2019-10-05T14:33:47.000Z</time>
      </trkpt>
      <trkpt lat="46.36002" lon="6.0381">
        <ele>1119.4000244141</ele>
        <time>2019-10-05T14:33:48.000Z</time>
      </trkpt>
      <trkpt lat="46.35992" lon="6.03814">
        <ele>1117</ele>
        <time>2019-10-05T14:33:49.000Z</time>
      </trkpt>
      <trkpt lat="46.35982" lon="6.0382">
        <ele>1113.1999511719</ele>
        <time>2019-10-05T14:33:50.000Z</time>
      </trkpt>
      <trkpt lat="46.35973" lon="6.03828">
        <ele>1108.8000488281</ele>
        <time>2019-10-05T14:33:51.000Z</time>
      </trkpt>
      <trkpt lat="46.35965" lon="6.03836">
        <ele>1105</ele>
        <time>2019-10-05T14:33:52.000Z</time>
      </trkpt>
      <trkpt lat="46.35958" lon="6.03847">
        <ele>1101.5999755859</ele>
        <time>2019-10-05T14:33:53.000Z</time>
      </trkpt>
      <trkpt lat="46.35952" lon="6.0386">
        <ele>1099</ele>
        <time>2019-10-05T14:33:54.000Z</time>
      </trkpt>
      <trkpt lat="46.35946" lon="6.03874">
        <ele>1096.1999511719</ele>
        <time>2019-10-05T14:33:55.000Z</time>
      </trkpt>
      <trkpt lat="46.35942" lon="6.0389">
        <ele>1093.8000488281</ele>
        <time>2019-10-05T14:33:56.000Z</time>
      </trkpt>
      <trkpt lat="46.35937" lon="6.03906">
        <ele>1092.8000488281</ele>
        <time>2019-10-05T14:33:57.000Z</time>
      </trkpt>
      <trkpt lat="46.35933" lon="6.03923">
        <ele>1092</ele>
        <time>2019-10-05T14:33:58.000Z</time>
      </trkpt>
      <trkpt lat="46.35929" lon="6.0394">
        <ele>1089.5999755859</ele>
        <time>2019-10-05T14:33:59.000Z</time>
      </trkpt>
      <trkpt lat="46.35925" lon="6.03955">
        <ele>1087.1999511719</ele>
        <time>2019-10-05T14:34:00.000Z</time>
      </trkpt>
      <trkpt lat="46.35921" lon="6.03969">
        <ele>1085</ele>
        <time>2019-10-05T14:34:01.000Z</time>
      </trkpt>
      <trkpt lat="46.35918" lon="6.03983">
        <ele>1082.5999755859</ele>
        <time>2019-10-05T14:34:02.000Z</time>
      </trkpt>
      <trkpt lat="46.35915" lon="6.03996">
        <ele>1080.4000244141</ele>
        <time>2019-10-05T14:34:03.000Z</time>
      </trkpt>
      <trkpt lat="46.35913" lon="6.0401">
        <ele>1078.1999511719</ele>
        <time>2019-10-05T14:34:04.000Z</time>
      </trkpt>
      <trkpt lat="46.35912" lon="6.04024">
        <ele>1077</ele>
        <time>2019-10-05T14:34:05.000Z</time>
      </trkpt>
      <trkpt lat="46.35913" lon="6.04039">
        <ele>1076.8000488281</ele>
        <time>2019-10-05T14:34:06.000Z</time>
      </trkpt>
      <trkpt lat="46.35916" lon="6.04055">
        <ele>1078.4000244141</ele>
        <time>2019-10-05T14:34:07.000Z</time>
      </trkpt>
      <trkpt lat="46.35921" lon="6.0407">
        <ele>1080.8000488281</ele>
        <time>2019-10-05T14:34:08.000Z</time>
      </trkpt>
      <trkpt lat="46.35927" lon="6.04085">
        <ele>1083.1999511719</ele>
        <time>2019-10-05T14:34:09.000Z</time>
      </trkpt>
      <trkpt lat="46.35933" lon="6.041">
        <ele>1085.5999755859</ele>
        <time>2019-10-05T14:34:10.000Z</time>
      </trkpt>
      <trkpt lat="46.35939" lon="6.04116">
        <ele>1088.1999511719</ele>
        <time>2019-10-05T14:34:11.000Z</time>
      </trkpt>
      <trkpt lat="46.35945" lon="6.04131">
        <ele>1090.8000488281</ele>
        <time>2019-10-05T14:34:12.000Z</time>
      </trkpt>
      <trkpt lat="46.35951" lon="6.04146">
        <ele>1092.8000488281</ele>
        <time>2019-10-05T14:34:13.000Z</time>
      </trkpt>
      <trkpt lat="46.35956" lon="6.0416">
        <ele>1095</ele>
        <time>2019-10-05T14:34:14.000Z</time>
      </trkpt>
      <trkpt lat="46.3596" lon="6.04174">
        <ele>1096.8000488281</ele>
        <time>2019-10-05T14:34:15.000Z</time>
      </trkpt>
      <trkpt lat="46.35964" lon="6.04189">
        <ele>1098</ele>
        <time>2019-10-05T14:34:16.000Z</time>
      </trkpt>
      <trkpt lat="46.35967" lon="6.04204">
        <ele>1098.1999511719</ele>
        <time>2019-10-05T14:34:17.000Z</time>
      </trkpt>
      <trkpt lat="46.35968" lon="6.04219">
        <ele>1098.1999511719</ele>
        <time>2019-10-05T14:34:18.000Z</time>
      </trkpt>
      <trkpt lat="46.35968" lon="6.04235">
        <ele>1099</ele>
        <time>2019-10-05T14:34:19.000Z</time>
      </trkpt>
      <trkpt lat="46.35967" lon="6.04252">
        <ele>1100.1999511719</ele>
        <time>2019-10-05T14:34:20.000Z</time>
      </trkpt>
      <trkpt lat="46.35964" lon="6.04267">
        <ele>1100.5999755859</ele>
        <time>2019-10-05T14:34:21.000Z</time>
      </trkpt>
      <trkpt lat="46.35961" lon="6.04283">
        <ele>1101</ele>
        <time>2019-10-05T14:34:22.000Z</time>
      </trkpt>
      <trkpt lat="46.35958" lon="6.04297">
        <ele>1100.4000244141</ele>
        <time>2019-10-05T14:34:23.000Z</time>
      </trkpt>
      <trkpt lat="46.35955" lon="6.0431">
        <ele>1099.8000488281</ele>
        <time>2019-10-05T14:34:24.000Z</time>
      </trkpt>
      <trkpt lat="46.35949" lon="6.04323">
        <ele>1096.5999755859</ele>
        <time>2019-10-05T14:34:25.000Z</time>
      </trkpt>
      <trkpt lat="46.35943" lon="6.04335">
        <ele>1092.8000488281</ele>
        <time>2019-10-05T14:34:26.000Z</time>
      </trkpt>
      <trkpt lat="46.35936" lon="6.04346">
        <ele>1088.4000244141</ele>
        <time>2019-10-05T14:34:27.000Z</time>
      </trkpt>
      <trkpt lat="46.35928" lon="6.04356">
        <ele>1083.4000244141</ele>
        <time>2019-10-05T14:34:28.000Z</time>
      </trkpt>
      <trkpt lat="46.35922" lon="6.04366">
        <ele>1079</ele>
        <time>2019-10-05T14:34:29.000Z</time>
      </trkpt>
      <trkpt lat="46.35917" lon="6.04376">
        <ele>1075.4000244141</ele>
        <time>2019-10-05T14:34:30.000Z</time>
      </trkpt>
      <trkpt lat="46.35914" lon="6.0439">
        <ele>1073.1999511719</ele>
        <time>2019-10-05T14:34:31.000Z</time>
      </trkpt>
      <trkpt lat="46.35913" lon="6.0442">
        <ele>1067</ele>
        <time>2019-10-05T14:34:33.000Z</time>
      </trkpt>
      <trkpt lat="46.35914" lon="6.04436">
        <ele>1066</ele>
        <time>2019-10-05T14:34:34.000Z</time>
      </trkpt>
      <trkpt lat="46.35913" lon="6.04453">
        <ele>1064.4000244141</ele>
        <time>2019-10-05T14:34:35.000Z</time>
      </trkpt>
      <trkpt lat="46.35913" lon="6.04468">
        <ele>1062.8000488281</ele>
        <time>2019-10-05T14:34:36.000Z</time>
      </trkpt>
      <trkpt lat="46.35912" lon="6.04483">
        <ele>1059.1999511719</ele>
        <time>2019-10-05T14:34:37.000Z</time>
      </trkpt>
      <trkpt lat="46.35913" lon="6.04496">
        <ele>1055.4000244141</ele>
        <time>2019-10-05T14:34:38.000Z</time>
      </trkpt>
      <trkpt lat="46.35915" lon="6.04507">
        <ele>1054</ele>
        <time>2019-10-05T14:34:39.000Z</time>
      </trkpt>
      <trkpt lat="46.35923" lon="6.04527">
        <ele>1053</ele>
        <time>2019-10-05T14:34:41.000Z</time>
      </trkpt>
      <trkpt lat="46.35929" lon="6.04536">
        <ele>1052.8000488281</ele>
        <time>2019-10-05T14:34:42.000Z</time>
      </trkpt>
      <trkpt lat="46.35934" lon="6.04544">
        <ele>1052.5999755859</ele>
        <time>2019-10-05T14:34:43.000Z</time>
      </trkpt>
      <trkpt lat="46.35941" lon="6.04549">
        <ele>1053.4000244141</ele>
        <time>2019-10-05T14:34:44.000Z</time>
      </trkpt>
      <trkpt lat="46.3595" lon="6.04552">
        <ele>1055</ele>
        <time>2019-10-05T14:34:45.000Z</time>
      </trkpt>
      <trkpt lat="46.35957" lon="6.04554">
        <ele>1056.4000244141</ele>
        <time>2019-10-05T14:34:46.000Z</time>
      </trkpt>
      <trkpt lat="46.35963" lon="6.04555">
        <ele>1057.5999755859</ele>
        <time>2019-10-05T14:34:47.000Z</time>
      </trkpt>
      <trkpt lat="46.35968" lon="6.04558">
        <ele>1058.1999511719</ele>
        <time>2019-10-05T14:34:48.000Z</time>
      </trkpt>
      <trkpt lat="46.35971" lon="6.04563">
        <ele>1057.5999755859</ele>
        <time>2019-10-05T14:34:49.000Z</time>
      </trkpt>
      <trkpt lat="46.3597" lon="6.04569">
        <ele>1056</ele>
        <time>2019-10-05T14:34:50.000Z</time>
      </trkpt>
      <trkpt lat="46.35967" lon="6.04573">
        <ele>1054</ele>
        <time>2019-10-05T14:34:51.000Z</time>
      </trkpt>
      <trkpt lat="46.35963" lon="6.04573">
        <ele>1053.1999511719</ele>
        <time>2019-10-05T14:34:52.000Z</time>
      </trkpt>
      <trkpt lat="46.35958" lon="6.0457">
        <ele>1052.5999755859</ele>
        <time>2019-10-05T14:34:53.000Z</time>
      </trkpt>
      <trkpt lat="46.35952" lon="6.04566">
        <ele>1052.5999755859</ele>
        <time>2019-10-05T14:34:54.000Z</time>
      </trkpt>
      <trkpt lat="46.35945" lon="6.04561">
        <ele>1052.4000244141</ele>
        <time>2019-10-05T14:34:55.000Z</time>
      </trkpt>
      <trkpt lat="46.35937" lon="6.04558">
        <ele>1051.1999511719</ele>
        <time>2019-10-05T14:34:56.000Z</time>
      </trkpt>
      <trkpt lat="46.35918" lon="6.04557">
        <ele>1047</ele>
        <time>2019-10-05T14:34:58.000Z</time>
      </trkpt>
      <trkpt lat="46.35908" lon="6.04558">
        <ele>1044.4000244141</ele>
        <time>2019-10-05T14:34:59.000Z</time>
      </trkpt>
      <trkpt lat="46.35875" lon="6.04567">
        <ele>1037</ele>
        <time>2019-10-05T14:35:02.000Z</time>
      </trkpt>
      <trkpt lat="46.35843" lon="6.04584">
        <ele>1028.1999511719</ele>
        <time>2019-10-05T14:35:05.000Z</time>
      </trkpt>
      <trkpt lat="46.35835" lon="6.04591">
        <ele>1028.5999755859</ele>
        <time>2019-10-05T14:35:06.000Z</time>
      </trkpt>
      <trkpt lat="46.35821" lon="6.04613">
        <ele>1031</ele>
        <time>2019-10-05T14:35:08.000Z</time>
      </trkpt>
      <trkpt lat="46.35817" lon="6.04626">
        <ele>1032.1999511719</ele>
        <time>2019-10-05T14:35:09.000Z</time>
      </trkpt>
      <trkpt lat="46.35813" lon="6.04639">
        <ele>1032.5999755859</ele>
        <time>2019-10-05T14:35:10.000Z</time>
      </trkpt>
      <trkpt lat="46.35807" lon="6.04668">
        <ele>1030.1999511719</ele>
        <time>2019-10-05T14:35:12.000Z</time>
      </trkpt>
      <trkpt lat="46.35802" lon="6.04698">
        <ele>1026.8000488281</ele>
        <time>2019-10-05T14:35:14.000Z</time>
      </trkpt>
      <trkpt lat="46.35796" lon="6.0473">
        <ele>1027.1999511719</ele>
        <time>2019-10-05T14:35:16.000Z</time>
      </trkpt>
      <trkpt lat="46.35791" lon="6.04762">
        <ele>1021.4000244141</ele>
        <time>2019-10-05T14:35:18.000Z</time>
      </trkpt>
      <trkpt lat="46.35788" lon="6.04792">
        <ele>1017.200012207</ele>
        <time>2019-10-05T14:35:20.000Z</time>
      </trkpt>
      <trkpt lat="46.35784" lon="6.04821">
        <ele>1015.799987793</ele>
        <time>2019-10-05T14:35:22.000Z</time>
      </trkpt>
      <trkpt lat="46.35781" lon="6.04834">
        <ele>1014</ele>
        <time>2019-10-05T14:35:23.000Z</time>
      </trkpt>
      <trkpt lat="46.35777" lon="6.04848">
        <ele>1012.4000244141</ele>
        <time>2019-10-05T14:35:24.000Z</time>
      </trkpt>
      <trkpt lat="46.35767" lon="6.04875">
        <ele>1011.200012207</ele>
        <time>2019-10-05T14:35:26.000Z</time>
      </trkpt>
      <trkpt lat="46.35761" lon="6.04889">
        <ele>1011</ele>
        <time>2019-10-05T14:35:27.000Z</time>
      </trkpt>
      <trkpt lat="46.35755" lon="6.04902">
        <ele>1010.4000244141</ele>
        <time>2019-10-05T14:35:28.000Z</time>
      </trkpt>
      <trkpt lat="46.35741" lon="6.0493">
        <ele>1011</ele>
        <time>2019-10-05T14:35:30.000Z</time>
      </trkpt>
      <trkpt lat="46.35729" lon="6.04958">
        <ele>1011</ele>
        <time>2019-10-05T14:35:32.000Z</time>
      </trkpt>
      <trkpt lat="46.35721" lon="6.04984">
        <ele>1005</ele>
        <time>2019-10-05T14:35:34.000Z</time>
      </trkpt>
      <trkpt lat="46.35715" lon="6.05006">
        <ele>999.59997558594</ele>
        <time>2019-10-05T14:35:36.000Z</time>
      </trkpt>
      <trkpt lat="46.35711" lon="6.05016">
        <ele>997.20001220703</ele>
        <time>2019-10-05T14:35:37.000Z</time>
      </trkpt>
      <trkpt lat="46.35698" lon="6.05028">
        <ele>994.40002441406</ele>
        <time>2019-10-05T14:35:39.000Z</time>
      </trkpt>
      <trkpt lat="46.3568" lon="6.05031">
        <ele>995.20001220703</ele>
        <time>2019-10-05T14:35:41.000Z</time>
      </trkpt>
      <trkpt lat="46.35671" lon="6.05027">
        <ele>996.40002441406</ele>
        <time>2019-10-05T14:35:42.000Z</time>
      </trkpt>
      <trkpt lat="46.35661" lon="6.05022">
        <ele>998.20001220703</ele>
        <time>2019-10-05T14:35:43.000Z</time>
      </trkpt>
      <trkpt lat="46.35652" lon="6.05015">
        <ele>1000.200012207</ele>
        <time>2019-10-05T14:35:44.000Z</time>
      </trkpt>
      <trkpt lat="46.35643" lon="6.05006">
        <ele>1000.799987793</ele>
        <time>2019-10-05T14:35:45.000Z</time>
      </trkpt>
      <trkpt lat="46.35634" lon="6.04997">
        <ele>1000.4000244141</ele>
        <time>2019-10-05T14:35:46.000Z</time>
      </trkpt>
      <trkpt lat="46.35626" lon="6.04986">
        <ele>1000.200012207</ele>
        <time>2019-10-05T14:35:47.000Z</time>
      </trkpt>
      <trkpt lat="46.35618" lon="6.04976">
        <ele>1000</ele>
        <time>2019-10-05T14:35:48.000Z</time>
      </trkpt>
      <trkpt lat="46.35609" lon="6.04963">
        <ele>1000.200012207</ele>
        <time>2019-10-05T14:35:49.000Z</time>
      </trkpt>
      <trkpt lat="46.35601" lon="6.04951">
        <ele>1000.5999755859</ele>
        <time>2019-10-05T14:35:50.000Z</time>
      </trkpt>
      <trkpt lat="46.35593" lon="6.04938">
        <ele>1000.799987793</ele>
        <time>2019-10-05T14:35:51.000Z</time>
      </trkpt>
      <trkpt lat="46.35585" lon="6.04926">
        <ele>1001.200012207</ele>
        <time>2019-10-05T14:35:52.000Z</time>
      </trkpt>
      <trkpt lat="46.35577" lon="6.04913">
        <ele>1001.4000244141</ele>
        <time>2019-10-05T14:35:53.000Z</time>
      </trkpt>
      <trkpt lat="46.35569" lon="6.049">
        <ele>1001.5999755859</ele>
        <time>2019-10-05T14:35:54.000Z</time>
      </trkpt>
      <trkpt lat="46.35561" lon="6.04888">
        <ele>1001.200012207</ele>
        <time>2019-10-05T14:35:55.000Z</time>
      </trkpt>
      <trkpt lat="46.35546" lon="6.04864">
        <ele>998.59997558594</ele>
        <time>2019-10-05T14:35:57.000Z</time>
      </trkpt>
      <trkpt lat="46.35533" lon="6.04839">
        <ele>997.20001220703</ele>
        <time>2019-10-05T14:35:59.000Z</time>
      </trkpt>
      <trkpt lat="46.35528" lon="6.04824">
        <ele>997.59997558594</ele>
        <time>2019-10-05T14:36:00.000Z</time>
      </trkpt>
      <trkpt lat="46.35524" lon="6.04809">
        <ele>998.59997558594</ele>
        <time>2019-10-05T14:36:01.000Z</time>
      </trkpt>
      <trkpt lat="46.3552" lon="6.04794">
        <ele>998</ele>
        <time>2019-10-05T14:36:02.000Z</time>
      </trkpt>
      <trkpt lat="46.35516" lon="6.04778">
        <ele>997.40002441406</ele>
        <time>2019-10-05T14:36:03.000Z</time>
      </trkpt>
      <trkpt lat="46.35512" lon="6.04763">
        <ele>996.40002441406</ele>
        <time>2019-10-05T14:36:04.000Z</time>
      </trkpt>
      <trkpt lat="46.35507" lon="6.04749">
        <ele>995.20001220703</ele>
        <time>2019-10-05T14:36:05.000Z</time>
      </trkpt>
      <trkpt lat="46.35496" lon="6.0472">
        <ele>992.40002441406</ele>
        <time>2019-10-05T14:36:07.000Z</time>
      </trkpt>
      <trkpt lat="46.35489" lon="6.04706">
        <ele>991</ele>
        <time>2019-10-05T14:36:08.000Z</time>
      </trkpt>
      <trkpt lat="46.35481" lon="6.04694">
        <ele>988.79998779297</ele>
        <time>2019-10-05T14:36:09.000Z</time>
      </trkpt>
      <trkpt lat="46.35463" lon="6.04673">
        <ele>988</ele>
        <time>2019-10-05T14:36:11.000Z</time>
      </trkpt>
      <trkpt lat="46.35444" lon="6.04655">
        <ele>986.40002441406</ele>
        <time>2019-10-05T14:36:13.000Z</time>
      </trkpt>
      <trkpt lat="46.35436" lon="6.04644">
        <ele>986</ele>
        <time>2019-10-05T14:36:14.000Z</time>
      </trkpt>
      <trkpt lat="46.35427" lon="6.04634">
        <ele>985.79998779297</ele>
        <time>2019-10-05T14:36:15.000Z</time>
      </trkpt>
      <trkpt lat="46.35412" lon="6.04613">
        <ele>985.20001220703</ele>
        <time>2019-10-05T14:36:17.000Z</time>
      </trkpt>
      <trkpt lat="46.35403" lon="6.04605">
        <ele>984.59997558594</ele>
        <time>2019-10-05T14:36:18.000Z</time>
      </trkpt>
      <trkpt lat="46.35393" lon="6.04599">
        <ele>983.79998779297</ele>
        <time>2019-10-05T14:36:19.000Z</time>
      </trkpt>
      <trkpt lat="46.35372" lon="6.04593">
        <ele>982.20001220703</ele>
        <time>2019-10-05T14:36:21.000Z</time>
      </trkpt>
      <trkpt lat="46.35351" lon="6.04595">
        <ele>979.59997558594</ele>
        <time>2019-10-05T14:36:23.000Z</time>
      </trkpt>
      <trkpt lat="46.35342" lon="6.04598">
        <ele>977.79998779297</ele>
        <time>2019-10-05T14:36:24.000Z</time>
      </trkpt>
      <trkpt lat="46.35333" lon="6.04601">
        <ele>976.20001220703</ele>
        <time>2019-10-05T14:36:25.000Z</time>
      </trkpt>
      <trkpt lat="46.35323" lon="6.04601">
        <ele>974.79998779297</ele>
        <time>2019-10-05T14:36:26.000Z</time>
      </trkpt>
      <trkpt lat="46.35313" lon="6.04598">
        <ele>973.79998779297</ele>
        <time>2019-10-05T14:36:27.000Z</time>
      </trkpt>
      <trkpt lat="46.35304" lon="6.04593">
        <ele>973</ele>
        <time>2019-10-05T14:36:28.000Z</time>
      </trkpt>
      <trkpt lat="46.35295" lon="6.04586">
        <ele>972.40002441406</ele>
        <time>2019-10-05T14:36:29.000Z</time>
      </trkpt>
      <trkpt lat="46.35285" lon="6.04579">
        <ele>972</ele>
        <time>2019-10-05T14:36:30.000Z</time>
      </trkpt>
      <trkpt lat="46.35276" lon="6.04573">
        <ele>971.40002441406</ele>
        <time>2019-10-05T14:36:31.000Z</time>
      </trkpt>
      <trkpt lat="46.35267" lon="6.04564">
        <ele>971.20001220703</ele>
        <time>2019-10-05T14:36:32.000Z</time>
      </trkpt>
      <trkpt lat="46.35258" lon="6.04554">
        <ele>970.79998779297</ele>
        <time>2019-10-05T14:36:33.000Z</time>
      </trkpt>
      <trkpt lat="46.35243" lon="6.0453">
        <ele>969.79998779297</ele>
        <time>2019-10-05T14:36:35.000Z</time>
      </trkpt>
      <trkpt lat="46.3523" lon="6.04505">
        <ele>969</ele>
        <time>2019-10-05T14:36:37.000Z</time>
      </trkpt>
      <trkpt lat="46.35215" lon="6.04483">
        <ele>968</ele>
        <time>2019-10-05T14:36:39.000Z</time>
      </trkpt>
      <trkpt lat="46.35195" lon="6.04471">
        <ele>965.59997558594</ele>
        <time>2019-10-05T14:36:41.000Z</time>
      </trkpt>
      <trkpt lat="46.35185" lon="6.04467">
        <ele>964.20001220703</ele>
        <time>2019-10-05T14:36:42.000Z</time>
      </trkpt>
      <trkpt lat="46.35174" lon="6.04463">
        <ele>962.79998779297</ele>
        <time>2019-10-05T14:36:43.000Z</time>
      </trkpt>
      <trkpt lat="46.35156" lon="6.04449">
        <ele>960.59997558594</ele>
        <time>2019-10-05T14:36:45.000Z</time>
      </trkpt>
      <trkpt lat="46.35149" lon="6.04439">
        <ele>960</ele>
        <time>2019-10-05T14:36:46.000Z</time>
      </trkpt>
      <trkpt lat="46.35142" lon="6.04428">
        <ele>959.59997558594</ele>
        <time>2019-10-05T14:36:47.000Z</time>
      </trkpt>
      <trkpt lat="46.35132" lon="6.04402">
        <ele>959.59997558594</ele>
        <time>2019-10-05T14:36:49.000Z</time>
      </trkpt>
      <trkpt lat="46.3512" lon="6.04377">
        <ele>958.40002441406</ele>
        <time>2019-10-05T14:36:51.000Z</time>
      </trkpt>
      <trkpt lat="46.35105" lon="6.04358">
        <ele>956.79998779297</ele>
        <time>2019-10-05T14:36:53.000Z</time>
      </trkpt>
      <trkpt lat="46.3509" lon="6.04345">
        <ele>955</ele>
        <time>2019-10-05T14:36:55.000Z</time>
      </trkpt>
      <trkpt lat="46.35083" lon="6.04341">
        <ele>954</ele>
        <time>2019-10-05T14:36:56.000Z</time>
      </trkpt>
      <trkpt lat="46.35075" lon="6.04341">
        <ele>953</ele>
        <time>2019-10-05T14:36:57.000Z</time>
      </trkpt>
      <trkpt lat="46.35069" lon="6.04345">
        <ele>952.20001220703</ele>
        <time>2019-10-05T14:36:58.000Z</time>
      </trkpt>
      <trkpt lat="46.35065" lon="6.04353">
        <ele>951.59997558594</ele>
        <time>2019-10-05T14:36:59.000Z</time>
      </trkpt>
      <trkpt lat="46.35064" lon="6.04364">
        <ele>951.40002441406</ele>
        <time>2019-10-05T14:37:00.000Z</time>
      </trkpt>
      <trkpt lat="46.35066" lon="6.04376">
        <ele>951.40002441406</ele>
        <time>2019-10-05T14:37:01.000Z</time>
      </trkpt>
      <trkpt lat="46.3507" lon="6.04386">
        <ele>951.79998779297</ele>
        <time>2019-10-05T14:37:02.000Z</time>
      </trkpt>
      <trkpt lat="46.35076" lon="6.04395">
        <ele>952.40002441406</ele>
        <time>2019-10-05T14:37:03.000Z</time>
      </trkpt>
      <trkpt lat="46.35082" lon="6.04405">
        <ele>952.79998779297</ele>
        <time>2019-10-05T14:37:04.000Z</time>
      </trkpt>
      <trkpt lat="46.35089" lon="6.04415">
        <ele>953.20001220703</ele>
        <time>2019-10-05T14:37:05.000Z</time>
      </trkpt>
      <trkpt lat="46.35103" lon="6.04438">
        <ele>953.40002441406</ele>
        <time>2019-10-05T14:37:07.000Z</time>
      </trkpt>
      <trkpt lat="46.35116" lon="6.04463">
        <ele>952.79998779297</ele>
        <time>2019-10-05T14:37:09.000Z</time>
      </trkpt>
      <trkpt lat="46.35123" lon="6.04476">
        <ele>952.59997558594</ele>
        <time>2019-10-05T14:37:10.000Z</time>
      </trkpt>
      <trkpt lat="46.35129" lon="6.0449">
        <ele>951.79998779297</ele>
        <time>2019-10-05T14:37:11.000Z</time>
      </trkpt>
      <trkpt lat="46.35141" lon="6.04518">
        <ele>950.20001220703</ele>
        <time>2019-10-05T14:37:13.000Z</time>
      </trkpt>
      <trkpt lat="46.35153" lon="6.04547">
        <ele>948.40002441406</ele>
        <time>2019-10-05T14:37:15.000Z</time>
      </trkpt>
      <trkpt lat="46.35159" lon="6.04562">
        <ele>947.40002441406</ele>
        <time>2019-10-05T14:37:16.000Z</time>
      </trkpt>
      <trkpt lat="46.35187" lon="6.04639">
        <ele>941.59997558594</ele>
        <time>2019-10-05T14:37:21.000Z</time>
      </trkpt>
      <trkpt lat="46.35195" lon="6.04652">
        <ele>940.79998779297</ele>
        <time>2019-10-05T14:37:22.000Z</time>
      </trkpt>
      <trkpt lat="46.35215" lon="6.04693">
        <ele>937</ele>
        <time>2019-10-05T14:37:25.000Z</time>
      </trkpt>
      <trkpt lat="46.3522" lon="6.04707">
        <ele>935.40002441406</ele>
        <time>2019-10-05T14:37:26.000Z</time>
      </trkpt>
      <trkpt lat="46.35227" lon="6.0472">
        <ele>934.20001220703</ele>
        <time>2019-10-05T14:37:27.000Z</time>
      </trkpt>
      <trkpt lat="46.3526" lon="6.04764">
        <ele>930.79998779297</ele>
        <time>2019-10-05T14:37:31.000Z</time>
      </trkpt>
      <trkpt lat="46.35289" lon="6.04792">
        <ele>930.40002441406</ele>
        <time>2019-10-05T14:37:34.000Z</time>
      </trkpt>
      <trkpt lat="46.35307" lon="6.04809">
        <ele>930.40002441406</ele>
        <time>2019-10-05T14:37:36.000Z</time>
      </trkpt>
      <trkpt lat="46.35323" lon="6.04823">
        <ele>931.20001220703</ele>
        <time>2019-10-05T14:37:38.000Z</time>
      </trkpt>
      <trkpt lat="46.35331" lon="6.04833">
        <ele>931.40002441406</ele>
        <time>2019-10-05T14:37:39.000Z</time>
      </trkpt>
      <trkpt lat="46.35337" lon="6.04844">
        <ele>930.59997558594</ele>
        <time>2019-10-05T14:37:40.000Z</time>
      </trkpt>
      <trkpt lat="46.35344" lon="6.0487">
        <ele>927.20001220703</ele>
        <time>2019-10-05T14:37:42.000Z</time>
      </trkpt>
      <trkpt lat="46.35347" lon="6.04884">
        <ele>925</ele>
        <time>2019-10-05T14:37:43.000Z</time>
      </trkpt>
      <trkpt lat="46.35351" lon="6.04897">
        <ele>923</ele>
        <time>2019-10-05T14:37:44.000Z</time>
      </trkpt>
      <trkpt lat="46.35363" lon="6.0492">
        <ele>921.20001220703</ele>
        <time>2019-10-05T14:37:46.000Z</time>
      </trkpt>
      <trkpt lat="46.35372" lon="6.04928">
        <ele>921.79998779297</ele>
        <time>2019-10-05T14:37:47.000Z</time>
      </trkpt>
      <trkpt lat="46.35381" lon="6.04937">
        <ele>922.20001220703</ele>
        <time>2019-10-05T14:37:48.000Z</time>
      </trkpt>
      <trkpt lat="46.35389" lon="6.04948">
        <ele>921.79998779297</ele>
        <time>2019-10-05T14:37:49.000Z</time>
      </trkpt>
      <trkpt lat="46.35396" lon="6.0496">
        <ele>921</ele>
        <time>2019-10-05T14:37:50.000Z</time>
      </trkpt>
      <trkpt lat="46.35402" lon="6.04974">
        <ele>920.59997558594</ele>
        <time>2019-10-05T14:37:51.000Z</time>
      </trkpt>
      <trkpt lat="46.35409" lon="6.04987">
        <ele>919.79998779297</ele>
        <time>2019-10-05T14:37:52.000Z</time>
      </trkpt>
      <trkpt lat="46.35422" lon="6.05013">
        <ele>918.20001220703</ele>
        <time>2019-10-05T14:37:54.000Z</time>
      </trkpt>
      <trkpt lat="46.35436" lon="6.0504">
        <ele>916.40002441406</ele>
        <time>2019-10-05T14:37:56.000Z</time>
      </trkpt>
      <trkpt lat="46.35449" lon="6.05068">
        <ele>913.59997558594</ele>
        <time>2019-10-05T14:37:58.000Z</time>
      </trkpt>
      <trkpt lat="46.35464" lon="6.05095">
        <ele>911.79998779297</ele>
        <time>2019-10-05T14:38:00.000Z</time>
      </trkpt>
      <trkpt lat="46.35482" lon="6.05118">
        <ele>911.59997558594</ele>
        <time>2019-10-05T14:38:02.000Z</time>
      </trkpt>
      <trkpt lat="46.355" lon="6.05141">
        <ele>910.79998779297</ele>
        <time>2019-10-05T14:38:04.000Z</time>
      </trkpt>
      <trkpt lat="46.35518" lon="6.05165">
        <ele>908.40002441406</ele>
        <time>2019-10-05T14:38:06.000Z</time>
      </trkpt>
      <trkpt lat="46.35536" lon="6.05188">
        <ele>906.20001220703</ele>
        <time>2019-10-05T14:38:08.000Z</time>
      </trkpt>
      <trkpt lat="46.35556" lon="6.05209">
        <ele>905.79998779297</ele>
        <time>2019-10-05T14:38:10.000Z</time>
      </trkpt>
      <trkpt lat="46.35576" lon="6.0523">
        <ele>904</ele>
        <time>2019-10-05T14:38:12.000Z</time>
      </trkpt>
      <trkpt lat="46.35595" lon="6.05252">
        <ele>901.59997558594</ele>
        <time>2019-10-05T14:38:14.000Z</time>
      </trkpt>
      <trkpt lat="46.35604" lon="6.05263">
        <ele>900.20001220703</ele>
        <time>2019-10-05T14:38:15.000Z</time>
      </trkpt>
      <trkpt lat="46.35614" lon="6.05274">
        <ele>899</ele>
        <time>2019-10-05T14:38:16.000Z</time>
      </trkpt>
      <trkpt lat="46.35632" lon="6.05296">
        <ele>896.40002441406</ele>
        <time>2019-10-05T14:38:18.000Z</time>
      </trkpt>
      <trkpt lat="46.35649" lon="6.05318">
        <ele>893.79998779297</ele>
        <time>2019-10-05T14:38:20.000Z</time>
      </trkpt>
      <trkpt lat="46.35657" lon="6.05329">
        <ele>891.59997558594</ele>
        <time>2019-10-05T14:38:21.000Z</time>
      </trkpt>
      <trkpt lat="46.35666" lon="6.05341">
        <ele>889.40002441406</ele>
        <time>2019-10-05T14:38:22.000Z</time>
      </trkpt>
      <trkpt lat="46.35679" lon="6.05361">
        <ele>885.40002441406</ele>
        <time>2019-10-05T14:38:24.000Z</time>
      </trkpt>
      <trkpt lat="46.35685" lon="6.05369">
        <ele>883.59997558594</ele>
        <time>2019-10-05T14:38:25.000Z</time>
      </trkpt>
      <trkpt lat="46.35692" lon="6.05375">
        <ele>882.79998779297</ele>
        <time>2019-10-05T14:38:26.000Z</time>
      </trkpt>
      <trkpt lat="46.35705" lon="6.0538">
        <ele>882.79998779297</ele>
        <time>2019-10-05T14:38:28.000Z</time>
      </trkpt>
      <trkpt lat="46.35731" lon="6.05367">
        <ele>888.59997558594</ele>
        <time>2019-10-05T14:38:31.000Z</time>
      </trkpt>
      <trkpt lat="46.35741" lon="6.05359">
        <ele>888.79998779297</ele>
        <time>2019-10-05T14:38:32.000Z</time>
      </trkpt>
      <trkpt lat="46.35761" lon="6.05343">
        <ele>889.59997558594</ele>
        <time>2019-10-05T14:38:34.000Z</time>
      </trkpt>
      <trkpt lat="46.35771" lon="6.05336">
        <ele>889</ele>
        <time>2019-10-05T14:38:35.000Z</time>
      </trkpt>
      <trkpt lat="46.35791" lon="6.05325">
        <ele>886.79998779297</ele>
        <time>2019-10-05T14:38:37.000Z</time>
      </trkpt>
      <trkpt lat="46.35804" lon="6.05318">
        <ele>885.59997558594</ele>
        <time>2019-10-05T14:38:38.000Z</time>
      </trkpt>
      <trkpt lat="46.35817" lon="6.0531">
        <ele>884.59997558594</ele>
        <time>2019-10-05T14:38:39.000Z</time>
      </trkpt>
      <trkpt lat="46.35827" lon="6.05302">
        <ele>885.20001220703</ele>
        <time>2019-10-05T14:38:40.000Z</time>
      </trkpt>
      <trkpt lat="46.35835" lon="6.0529">
        <ele>886.40002441406</ele>
        <time>2019-10-05T14:38:41.000Z</time>
      </trkpt>
      <trkpt lat="46.35841" lon="6.05278">
        <ele>888</ele>
        <time>2019-10-05T14:38:42.000Z</time>
      </trkpt>
      <trkpt lat="46.35847" lon="6.05265">
        <ele>889.79998779297</ele>
        <time>2019-10-05T14:38:43.000Z</time>
      </trkpt>
      <trkpt lat="46.35856" lon="6.05239">
        <ele>892.40002441406</ele>
        <time>2019-10-05T14:38:45.000Z</time>
      </trkpt>
      <trkpt lat="46.35859" lon="6.05227">
        <ele>893.40002441406</ele>
        <time>2019-10-05T14:38:46.000Z</time>
      </trkpt>
      <trkpt lat="46.35865" lon="6.05209">
        <ele>897</ele>
        <time>2019-10-05T14:38:48.000Z</time>
      </trkpt>
      <trkpt lat="46.35867" lon="6.05203">
        <ele>898.20001220703</ele>
        <time>2019-10-05T14:38:49.000Z</time>
      </trkpt>
      <trkpt lat="46.35874" lon="6.05204">
        <ele>897</ele>
        <time>2019-10-05T14:38:51.000Z</time>
      </trkpt>
      <trkpt lat="46.35884" lon="6.05218">
        <ele>892</ele>
        <time>2019-10-05T14:38:53.000Z</time>
      </trkpt>
      <trkpt lat="46.35889" lon="6.05238">
        <ele>887.79998779297</ele>
        <time>2019-10-05T14:38:55.000Z</time>
      </trkpt>
      <trkpt lat="46.35887" lon="6.05249">
        <ele>886.59997558594</ele>
        <time>2019-10-05T14:38:56.000Z</time>
      </trkpt>
      <trkpt lat="46.35882" lon="6.05258">
        <ele>886.20001220703</ele>
        <time>2019-10-05T14:38:57.000Z</time>
      </trkpt>
      <trkpt lat="46.35874" lon="6.05266">
        <ele>886</ele>
        <time>2019-10-05T14:38:58.000Z</time>
      </trkpt>
      <trkpt lat="46.35867" lon="6.05275">
        <ele>886</ele>
        <time>2019-10-05T14:38:59.000Z</time>
      </trkpt>
      <trkpt lat="46.35853" lon="6.05296">
        <ele>883.79998779297</ele>
        <time>2019-10-05T14:39:01.000Z</time>
      </trkpt>
      <trkpt lat="46.35847" lon="6.05308">
        <ele>882</ele>
        <time>2019-10-05T14:39:02.000Z</time>
      </trkpt>
      <trkpt lat="46.3583" lon="6.05345">
        <ele>876.20001220703</ele>
        <time>2019-10-05T14:39:05.000Z</time>
      </trkpt>
      <trkpt lat="46.35817" lon="6.05369">
        <ele>872.40002441406</ele>
        <time>2019-10-05T14:39:07.000Z</time>
      </trkpt>
      <trkpt lat="46.358" lon="6.05389">
        <ele>871.40002441406</ele>
        <time>2019-10-05T14:39:09.000Z</time>
      </trkpt>
      <trkpt lat="46.35791" lon="6.05396">
        <ele>871.40002441406</ele>
        <time>2019-10-05T14:39:10.000Z</time>
      </trkpt>
      <trkpt lat="46.3577" lon="6.05411">
        <ele>872.59997558594</ele>
        <time>2019-10-05T14:39:12.000Z</time>
      </trkpt>
      <trkpt lat="46.35751" lon="6.05427">
        <ele>873.59997558594</ele>
        <time>2019-10-05T14:39:14.000Z</time>
      </trkpt>
      <trkpt lat="46.35741" lon="6.05434">
        <ele>874.20001220703</ele>
        <time>2019-10-05T14:39:15.000Z</time>
      </trkpt>
      <trkpt lat="46.3572" lon="6.05447">
        <ele>873.20001220703</ele>
        <time>2019-10-05T14:39:17.000Z</time>
      </trkpt>
      <trkpt lat="46.357" lon="6.05456">
        <ele>869.40002441406</ele>
        <time>2019-10-05T14:39:19.000Z</time>
      </trkpt>
      <trkpt lat="46.35682" lon="6.05461">
        <ele>865.79998779297</ele>
        <time>2019-10-05T14:39:21.000Z</time>
      </trkpt>
      <trkpt lat="46.35666" lon="6.05463">
        <ele>863.20001220703</ele>
        <time>2019-10-05T14:39:23.000Z</time>
      </trkpt>
      <trkpt lat="46.3565" lon="6.05452">
        <ele>862.79998779297</ele>
        <time>2019-10-05T14:39:25.000Z</time>
      </trkpt>
      <trkpt lat="46.35644" lon="6.05443">
        <ele>863.20001220703</ele>
        <time>2019-10-05T14:39:26.000Z</time>
      </trkpt>
      <trkpt lat="46.35633" lon="6.05422">
        <ele>863.40002441406</ele>
        <time>2019-10-05T14:39:28.000Z</time>
      </trkpt>
      <trkpt lat="46.35626" lon="6.05412">
        <ele>862.79998779297</ele>
        <time>2019-10-05T14:39:29.000Z</time>
      </trkpt>
      <trkpt lat="46.35617" lon="6.05404">
        <ele>861.59997558594</ele>
        <time>2019-10-05T14:39:30.000Z</time>
      </trkpt>
      <trkpt lat="46.35599" lon="6.0539">
        <ele>858.40002441406</ele>
        <time>2019-10-05T14:39:32.000Z</time>
      </trkpt>
      <trkpt lat="46.35589" lon="6.05384">
        <ele>857.20001220703</ele>
        <time>2019-10-05T14:39:33.000Z</time>
      </trkpt>
      <trkpt lat="46.35579" lon="6.05379">
        <ele>855.40002441406</ele>
        <time>2019-10-05T14:39:34.000Z</time>
      </trkpt>
      <trkpt lat="46.35557" lon="6.0537">
        <ele>852</ele>
        <time>2019-10-05T14:39:36.000Z</time>
      </trkpt>
      <trkpt lat="46.35535" lon="6.05364">
        <ele>849.40002441406</ele>
        <time>2019-10-05T14:39:38.000Z</time>
      </trkpt>
      <trkpt lat="46.35512" lon="6.05362">
        <ele>847.40002441406</ele>
        <time>2019-10-05T14:39:40.000Z</time>
      </trkpt>
      <trkpt lat="46.3549" lon="6.05365">
        <ele>844.20001220703</ele>
        <time>2019-10-05T14:39:42.000Z</time>
      </trkpt>
      <trkpt lat="46.35479" lon="6.0537">
        <ele>842</ele>
        <time>2019-10-05T14:39:43.000Z</time>
      </trkpt>
      <trkpt lat="46.35468" lon="6.05376">
        <ele>839.40002441406</ele>
        <time>2019-10-05T14:39:44.000Z</time>
      </trkpt>
      <trkpt lat="46.35457" lon="6.05384">
        <ele>838.79998779297</ele>
        <time>2019-10-05T14:39:45.000Z</time>
      </trkpt>
      <trkpt lat="46.35446" lon="6.05392">
        <ele>838.79998779297</ele>
        <time>2019-10-05T14:39:46.000Z</time>
      </trkpt>
      <trkpt lat="46.35428" lon="6.05409">
        <ele>837.40002441406</ele>
        <time>2019-10-05T14:39:48.000Z</time>
      </trkpt>
      <trkpt lat="46.35411" lon="6.05423">
        <ele>837.40002441406</ele>
        <time>2019-10-05T14:39:50.000Z</time>
      </trkpt>
      <trkpt lat="46.35403" lon="6.05428">
        <ele>837.79998779297</ele>
        <time>2019-10-05T14:39:51.000Z</time>
      </trkpt>
      <trkpt lat="46.35385" lon="6.05432">
        <ele>837.20001220703</ele>
        <time>2019-10-05T14:39:53.000Z</time>
      </trkpt>
      <trkpt lat="46.35368" lon="6.05424">
        <ele>836.40002441406</ele>
        <time>2019-10-05T14:39:55.000Z</time>
      </trkpt>
      <trkpt lat="46.35361" lon="6.05413">
        <ele>836.40002441406</ele>
        <time>2019-10-05T14:39:56.000Z</time>
      </trkpt>
      <trkpt lat="46.35355" lon="6.054">
        <ele>837</ele>
        <time>2019-10-05T14:39:57.000Z</time>
      </trkpt>
      <trkpt lat="46.3535" lon="6.05386">
        <ele>837</ele>
        <time>2019-10-05T14:39:58.000Z</time>
      </trkpt>
      <trkpt lat="46.35346" lon="6.05373">
        <ele>836.79998779297</ele>
        <time>2019-10-05T14:39:59.000Z</time>
      </trkpt>
      <trkpt lat="46.35342" lon="6.05359">
        <ele>836.59997558594</ele>
        <time>2019-10-05T14:40:00.000Z</time>
      </trkpt>
      <trkpt lat="46.35334" lon="6.05331">
        <ele>836.40002441406</ele>
        <time>2019-10-05T14:40:02.000Z</time>
      </trkpt>
      <trkpt lat="46.3533" lon="6.05316">
        <ele>837</ele>
        <time>2019-10-05T14:40:03.000Z</time>
      </trkpt>
      <trkpt lat="46.35326" lon="6.05302">
        <ele>836.79998779297</ele>
        <time>2019-10-05T14:40:04.000Z</time>
      </trkpt>
      <trkpt lat="46.35315" lon="6.05276">
        <ele>835.20001220703</ele>
        <time>2019-10-05T14:40:06.000Z</time>
      </trkpt>
      <trkpt lat="46.353" lon="6.05255">
        <ele>832.40002441406</ele>
        <time>2019-10-05T14:40:08.000Z</time>
      </trkpt>
      <trkpt lat="46.35281" lon="6.05235">
        <ele>829</ele>
        <time>2019-10-05T14:40:10.000Z</time>
      </trkpt>
      <trkpt lat="46.35271" lon="6.05226">
        <ele>827.20001220703</ele>
        <time>2019-10-05T14:40:11.000Z</time>
      </trkpt>
      <trkpt lat="46.35261" lon="6.05216">
        <ele>826.79998779297</ele>
        <time>2019-10-05T14:40:12.000Z</time>
      </trkpt>
      <trkpt lat="46.35242" lon="6.05195">
        <ele>826.20001220703</ele>
        <time>2019-10-05T14:40:14.000Z</time>
      </trkpt>
      <trkpt lat="46.35225" lon="6.05172">
        <ele>825.40002441406</ele>
        <time>2019-10-05T14:40:16.000Z</time>
      </trkpt>
      <trkpt lat="46.35216" lon="6.05161">
        <ele>824.40002441406</ele>
        <time>2019-10-05T14:40:17.000Z</time>
      </trkpt>
      <trkpt lat="46.35207" lon="6.05148">
        <ele>823.59997558594</ele>
        <time>2019-10-05T14:40:18.000Z</time>
      </trkpt>
      <trkpt lat="46.35189" lon="6.05124">
        <ele>821.40002441406</ele>
        <time>2019-10-05T14:40:20.000Z</time>
      </trkpt>
      <trkpt lat="46.35171" lon="6.05103">
        <ele>818.79998779297</ele>
        <time>2019-10-05T14:40:22.000Z</time>
      </trkpt>
      <trkpt lat="46.35152" lon="6.05083">
        <ele>815.79998779297</ele>
        <time>2019-10-05T14:40:24.000Z</time>
      </trkpt>
      <trkpt lat="46.35134" lon="6.05065">
        <ele>814.20001220703</ele>
        <time>2019-10-05T14:40:26.000Z</time>
      </trkpt>
      <trkpt lat="46.35125" lon="6.05057">
        <ele>813.59997558594</ele>
        <time>2019-10-05T14:40:27.000Z</time>
      </trkpt>
      <trkpt lat="46.35114" lon="6.05051">
        <ele>813.20001220703</ele>
        <time>2019-10-05T14:40:28.000Z</time>
      </trkpt>
      <trkpt lat="46.35092" lon="6.05044">
        <ele>811</ele>
        <time>2019-10-05T14:40:30.000Z</time>
      </trkpt>
      <trkpt lat="46.3507" lon="6.05039">
        <ele>808.20001220703</ele>
        <time>2019-10-05T14:40:32.000Z</time>
      </trkpt>
      <trkpt lat="46.35058" lon="6.05038">
        <ele>806.79998779297</ele>
        <time>2019-10-05T14:40:33.000Z</time>
      </trkpt>
      <trkpt lat="46.35047" lon="6.05036">
        <ele>805.20001220703</ele>
        <time>2019-10-05T14:40:34.000Z</time>
      </trkpt>
      <trkpt lat="46.35035" lon="6.05034">
        <ele>804</ele>
        <time>2019-10-05T14:40:35.000Z</time>
      </trkpt>
      <trkpt lat="46.35024" lon="6.05033">
        <ele>803.20001220703</ele>
        <time>2019-10-05T14:40:36.000Z</time>
      </trkpt>
      <trkpt lat="46.35012" lon="6.05031">
        <ele>802.20001220703</ele>
        <time>2019-10-05T14:40:37.000Z</time>
      </trkpt>
      <trkpt lat="46.35001" lon="6.05029">
        <ele>801.20001220703</ele>
        <time>2019-10-05T14:40:38.000Z</time>
      </trkpt>
      <trkpt lat="46.34989" lon="6.05027">
        <ele>800.20001220703</ele>
        <time>2019-10-05T14:40:39.000Z</time>
      </trkpt>
      <trkpt lat="46.34977" lon="6.05025">
        <ele>799.20001220703</ele>
        <time>2019-10-05T14:40:40.000Z</time>
      </trkpt>
      <trkpt lat="46.34965" lon="6.05023">
        <ele>798.20001220703</ele>
        <time>2019-10-05T14:40:41.000Z</time>
      </trkpt>
      <trkpt lat="46.34954" lon="6.05021">
        <ele>797.20001220703</ele>
        <time>2019-10-05T14:40:42.000Z</time>
      </trkpt>
      <trkpt lat="46.34943" lon="6.05018">
        <ele>796.40002441406</ele>
        <time>2019-10-05T14:40:43.000Z</time>
      </trkpt>
      <trkpt lat="46.34931" lon="6.05014">
        <ele>795.79998779297</ele>
        <time>2019-10-05T14:40:44.000Z</time>
      </trkpt>
      <trkpt lat="46.3491" lon="6.05003">
        <ele>795</ele>
        <time>2019-10-05T14:40:46.000Z</time>
      </trkpt>
      <trkpt lat="46.34892" lon="6.04991">
        <ele>795</ele>
        <time>2019-10-05T14:40:48.000Z</time>
      </trkpt>
      <trkpt lat="46.34885" lon="6.04986">
        <ele>795</ele>
        <time>2019-10-05T14:40:49.000Z</time>
      </trkpt>
      <trkpt lat="46.34878" lon="6.04982">
        <ele>794.79998779297</ele>
        <time>2019-10-05T14:40:50.000Z</time>
      </trkpt>
      <trkpt lat="46.34865" lon="6.0498">
        <ele>793.40002441406</ele>
        <time>2019-10-05T14:40:52.000Z</time>
      </trkpt>
      <trkpt lat="46.34855" lon="6.04996">
        <ele>789.79998779297</ele>
        <time>2019-10-05T14:40:54.000Z</time>
      </trkpt>
      <trkpt lat="46.34858" lon="6.05017">
        <ele>786.79998779297</ele>
        <time>2019-10-05T14:40:56.000Z</time>
      </trkpt>
      <trkpt lat="46.34868" lon="6.05036">
        <ele>785.20001220703</ele>
        <time>2019-10-05T14:40:58.000Z</time>
      </trkpt>
      <trkpt lat="46.34874" lon="6.05045">
        <ele>784.40002441406</ele>
        <time>2019-10-05T14:40:59.000Z</time>
      </trkpt>
      <trkpt lat="46.34881" lon="6.05054">
        <ele>784</ele>
        <time>2019-10-05T14:41:00.000Z</time>
      </trkpt>
      <trkpt lat="46.34888" lon="6.05063">
        <ele>783.79998779297</ele>
        <time>2019-10-05T14:41:01.000Z</time>
      </trkpt>
      <trkpt lat="46.34894" lon="6.05074">
        <ele>783.79998779297</ele>
        <time>2019-10-05T14:41:02.000Z</time>
      </trkpt>
      <trkpt lat="46.34901" lon="6.05084">
        <ele>783.79998779297</ele>
        <time>2019-10-05T14:41:03.000Z</time>
      </trkpt>
      <trkpt lat="46.34908" lon="6.05095">
        <ele>783.59997558594</ele>
        <time>2019-10-05T14:41:04.000Z</time>
      </trkpt>
      <trkpt lat="46.34922" lon="6.05117">
        <ele>783.20001220703</ele>
        <time>2019-10-05T14:41:06.000Z</time>
      </trkpt>
      <trkpt lat="46.34937" lon="6.05139">
        <ele>783</ele>
        <time>2019-10-05T14:41:08.000Z</time>
      </trkpt>
      <trkpt lat="46.34952" lon="6.05162">
        <ele>783.20001220703</ele>
        <time>2019-10-05T14:41:10.000Z</time>
      </trkpt>
      <trkpt lat="46.34966" lon="6.05186">
        <ele>783.40002441406</ele>
        <time>2019-10-05T14:41:12.000Z</time>
      </trkpt>
      <trkpt lat="46.34977" lon="6.05213">
        <ele>783.20001220703</ele>
        <time>2019-10-05T14:41:14.000Z</time>
      </trkpt>
      <trkpt lat="46.34982" lon="6.05228">
        <ele>783</ele>
        <time>2019-10-05T14:41:15.000Z</time>
      </trkpt>
      <trkpt lat="46.34986" lon="6.05243">
        <ele>781.79998779297</ele>
        <time>2019-10-05T14:41:16.000Z</time>
      </trkpt>
      <trkpt lat="46.34995" lon="6.05274">
        <ele>779.59997558594</ele>
        <time>2019-10-05T14:41:18.000Z</time>
      </trkpt>
      <trkpt lat="46.35001" lon="6.05289">
        <ele>778.59997558594</ele>
        <time>2019-10-05T14:41:19.000Z</time>
      </trkpt>
      <trkpt lat="46.35007" lon="6.05303">
        <ele>777.79998779297</ele>
        <time>2019-10-05T14:41:20.000Z</time>
      </trkpt>
      <trkpt lat="46.35023" lon="6.05328">
        <ele>777.20001220703</ele>
        <time>2019-10-05T14:41:22.000Z</time>
      </trkpt>
      <trkpt lat="46.3503" lon="6.05342">
        <ele>776.79998779297</ele>
        <time>2019-10-05T14:41:23.000Z</time>
      </trkpt>
      <trkpt lat="46.35046" lon="6.05369">
        <ele>776.20001220703</ele>
        <time>2019-10-05T14:41:25.000Z</time>
      </trkpt>
      <trkpt lat="46.35052" lon="6.05384">
        <ele>775.59997558594</ele>
        <time>2019-10-05T14:41:26.000Z</time>
      </trkpt>
      <trkpt lat="46.35058" lon="6.054">
        <ele>775</ele>
        <time>2019-10-05T14:41:27.000Z</time>
      </trkpt>
      <trkpt lat="46.35072" lon="6.05441">
        <ele>774.59997558594</ele>
        <time>2019-10-05T14:41:30.000Z</time>
      </trkpt>
      <trkpt lat="46.35076" lon="6.05453">
        <ele>774.79998779297</ele>
        <time>2019-10-05T14:41:31.000Z</time>
      </trkpt>
      <trkpt lat="46.3508" lon="6.05464">
        <ele>775</ele>
        <time>2019-10-05T14:41:32.000Z</time>
      </trkpt>
      <trkpt lat="46.35082" lon="6.05477">
        <ele>774.79998779297</ele>
        <time>2019-10-05T14:41:33.000Z</time>
      </trkpt>
      <trkpt lat="46.35083" lon="6.05506">
        <ele>772.20001220703</ele>
        <time>2019-10-05T14:41:35.000Z</time>
      </trkpt>
      <trkpt lat="46.35079" lon="6.05536">
        <ele>769.20001220703</ele>
        <time>2019-10-05T14:41:37.000Z</time>
      </trkpt>
      <trkpt lat="46.35076" lon="6.05567">
        <ele>765.79998779297</ele>
        <time>2019-10-05T14:41:39.000Z</time>
      </trkpt>
      <trkpt lat="46.35074" lon="6.05583">
        <ele>764</ele>
        <time>2019-10-05T14:41:40.000Z</time>
      </trkpt>
      <trkpt lat="46.35075" lon="6.05615">
        <ele>761.40002441406</ele>
        <time>2019-10-05T14:41:42.000Z</time>
      </trkpt>
      <trkpt lat="46.35078" lon="6.05631">
        <ele>760.59997558594</ele>
        <time>2019-10-05T14:41:43.000Z</time>
      </trkpt>
      <trkpt lat="46.35089" lon="6.05659">
        <ele>760.40002441406</ele>
        <time>2019-10-05T14:41:45.000Z</time>
      </trkpt>
      <trkpt lat="46.35097" lon="6.05671">
        <ele>760.79998779297</ele>
        <time>2019-10-05T14:41:46.000Z</time>
      </trkpt>
      <trkpt lat="46.35105" lon="6.05684">
        <ele>761.40002441406</ele>
        <time>2019-10-05T14:41:47.000Z</time>
      </trkpt>
      <trkpt lat="46.35118" lon="6.0571">
        <ele>761.79998779297</ele>
        <time>2019-10-05T14:41:49.000Z</time>
      </trkpt>
      <trkpt lat="46.35126" lon="6.05735">
        <ele>759.79998779297</ele>
        <time>2019-10-05T14:41:51.000Z</time>
      </trkpt>
      <trkpt lat="46.35133" lon="6.05756">
        <ele>755.20001220703</ele>
        <time>2019-10-05T14:41:53.000Z</time>
      </trkpt>
      <trkpt lat="46.35137" lon="6.05774">
        <ele>750.79998779297</ele>
        <time>2019-10-05T14:41:55.000Z</time>
      </trkpt>
      <trkpt lat="46.35133" lon="6.05791">
        <ele>745.40002441406</ele>
        <time>2019-10-05T14:41:57.000Z</time>
      </trkpt>
      <trkpt lat="46.35127" lon="6.05797">
        <ele>744.20001220703</ele>
        <time>2019-10-05T14:41:58.000Z</time>
      </trkpt>
      <trkpt lat="46.3512" lon="6.05799">
        <ele>744</ele>
        <time>2019-10-05T14:41:59.000Z</time>
      </trkpt>
      <trkpt lat="46.35114" lon="6.05797">
        <ele>744.20001220703</ele>
        <time>2019-10-05T14:42:00.000Z</time>
      </trkpt>
      <trkpt lat="46.35107" lon="6.05792">
        <ele>744.59997558594</ele>
        <time>2019-10-05T14:42:01.000Z</time>
      </trkpt>
      <trkpt lat="46.35095" lon="6.05777">
        <ele>746</ele>
        <time>2019-10-05T14:42:03.000Z</time>
      </trkpt>
      <trkpt lat="46.35084" lon="6.05756">
        <ele>748</ele>
        <time>2019-10-05T14:42:05.000Z</time>
      </trkpt>
      <trkpt lat="46.35078" lon="6.05745">
        <ele>749.20001220703</ele>
        <time>2019-10-05T14:42:06.000Z</time>
      </trkpt>
      <trkpt lat="46.35073" lon="6.05732">
        <ele>750.79998779297</ele>
        <time>2019-10-05T14:42:07.000Z</time>
      </trkpt>
      <trkpt lat="46.35067" lon="6.0572">
        <ele>751.79998779297</ele>
        <time>2019-10-05T14:42:08.000Z</time>
      </trkpt>
      <trkpt lat="46.3506" lon="6.0571">
        <ele>751.40002441406</ele>
        <time>2019-10-05T14:42:09.000Z</time>
      </trkpt>
      <trkpt lat="46.35051" lon="6.05701">
        <ele>750.40002441406</ele>
        <time>2019-10-05T14:42:10.000Z</time>
      </trkpt>
      <trkpt lat="46.35032" lon="6.05693">
        <ele>747.20001220703</ele>
        <time>2019-10-05T14:42:12.000Z</time>
      </trkpt>
      <trkpt lat="46.35021" lon="6.05691">
        <ele>745.20001220703</ele>
        <time>2019-10-05T14:42:13.000Z</time>
      </trkpt>
      <trkpt lat="46.35011" lon="6.05691">
        <ele>743.20001220703</ele>
        <time>2019-10-05T14:42:14.000Z</time>
      </trkpt>
      <trkpt lat="46.35001" lon="6.05691">
        <ele>741.20001220703</ele>
        <time>2019-10-05T14:42:15.000Z</time>
      </trkpt>
      <trkpt lat="46.34993" lon="6.05691">
        <ele>739.40002441406</ele>
        <time>2019-10-05T14:42:16.000Z</time>
      </trkpt>
      <trkpt lat="46.34985" lon="6.0569">
        <ele>738</ele>
        <time>2019-10-05T14:42:17.000Z</time>
      </trkpt>
      <trkpt lat="46.34979" lon="6.05688">
        <ele>736.79998779297</ele>
        <time>2019-10-05T14:42:18.000Z</time>
      </trkpt>
      <trkpt lat="46.34968" lon="6.05674">
        <ele>736.40002441406</ele>
        <time>2019-10-05T14:42:20.000Z</time>
      </trkpt>
      <trkpt lat="46.34965" lon="6.05653">
        <ele>737.79998779297</ele>
        <time>2019-10-05T14:42:22.000Z</time>
      </trkpt>
      <trkpt lat="46.34971" lon="6.05623">
        <ele>741</ele>
        <time>2019-10-05T14:42:25.000Z</time>
      </trkpt>
      <trkpt lat="46.34974" lon="6.05612">
        <ele>742.20001220703</ele>
        <time>2019-10-05T14:42:26.000Z</time>
      </trkpt>
      <trkpt lat="46.34977" lon="6.056">
        <ele>743.59997558594</ele>
        <time>2019-10-05T14:42:27.000Z</time>
      </trkpt>
      <trkpt lat="46.34979" lon="6.05587">
        <ele>744.59997558594</ele>
        <time>2019-10-05T14:42:28.000Z</time>
      </trkpt>
      <trkpt lat="46.3498" lon="6.05575">
        <ele>745.79998779297</ele>
        <time>2019-10-05T14:42:29.000Z</time>
      </trkpt>
      <trkpt lat="46.34978" lon="6.05564">
        <ele>746.20001220703</ele>
        <time>2019-10-05T14:42:30.000Z</time>
      </trkpt>
      <trkpt lat="46.34972" lon="6.05546">
        <ele>747.40002441406</ele>
        <time>2019-10-05T14:42:32.000Z</time>
      </trkpt>
      <trkpt lat="46.34953" lon="6.05544">
        <ele>745</ele>
        <time>2019-10-05T14:42:34.000Z</time>
      </trkpt>
      <trkpt lat="46.34943" lon="6.05548">
        <ele>743.20001220703</ele>
        <time>2019-10-05T14:42:35.000Z</time>
      </trkpt>
      <trkpt lat="46.34936" lon="6.05554">
        <ele>741.20001220703</ele>
        <time>2019-10-05T14:42:36.000Z</time>
      </trkpt>
      <trkpt lat="46.34929" lon="6.05562">
        <ele>739.40002441406</ele>
        <time>2019-10-05T14:42:37.000Z</time>
      </trkpt>
      <trkpt lat="46.34919" lon="6.05571">
        <ele>737.40002441406</ele>
        <time>2019-10-05T14:42:38.000Z</time>
      </trkpt>
      <trkpt lat="46.34907" lon="6.05578">
        <ele>734.79998779297</ele>
        <time>2019-10-05T14:42:39.000Z</time>
      </trkpt>
      <trkpt lat="46.34896" lon="6.05585">
        <ele>732.79998779297</ele>
        <time>2019-10-05T14:42:40.000Z</time>
      </trkpt>
      <trkpt lat="46.34887" lon="6.05591">
        <ele>731.40002441406</ele>
        <time>2019-10-05T14:42:41.000Z</time>
      </trkpt>
      <trkpt lat="46.34876" lon="6.05596">
        <ele>730.20001220703</ele>
        <time>2019-10-05T14:42:42.000Z</time>
      </trkpt>
      <trkpt lat="46.34856" lon="6.056">
        <ele>728</ele>
        <time>2019-10-05T14:42:44.000Z</time>
      </trkpt>
      <trkpt lat="46.34836" lon="6.05592">
        <ele>726.40002441406</ele>
        <time>2019-10-05T14:42:46.000Z</time>
      </trkpt>
      <trkpt lat="46.34827" lon="6.05586">
        <ele>726.20001220703</ele>
        <time>2019-10-05T14:42:47.000Z</time>
      </trkpt>
      <trkpt lat="46.34818" lon="6.0558">
        <ele>725.79998779297</ele>
        <time>2019-10-05T14:42:48.000Z</time>
      </trkpt>
      <trkpt lat="46.34798" lon="6.05569">
        <ele>723.40002441406</ele>
        <time>2019-10-05T14:42:50.000Z</time>
      </trkpt>
      <trkpt lat="46.34777" lon="6.05559">
        <ele>720.59997558594</ele>
        <time>2019-10-05T14:42:52.000Z</time>
      </trkpt>
      <trkpt lat="46.34756" lon="6.05548">
        <ele>718</ele>
        <time>2019-10-05T14:42:54.000Z</time>
      </trkpt>
      <trkpt lat="46.34734" lon="6.05539">
        <ele>714.79998779297</ele>
        <time>2019-10-05T14:42:56.000Z</time>
      </trkpt>
      <trkpt lat="46.34711" lon="6.05533">
        <ele>713.20001220703</ele>
        <time>2019-10-05T14:42:58.000Z</time>
      </trkpt>
      <trkpt lat="46.347" lon="6.05528">
        <ele>712.79998779297</ele>
        <time>2019-10-05T14:42:59.000Z</time>
      </trkpt>
      <trkpt lat="46.34689" lon="6.05523">
        <ele>712.59997558594</ele>
        <time>2019-10-05T14:43:00.000Z</time>
      </trkpt>
      <trkpt lat="46.3468" lon="6.05517">
        <ele>712.59997558594</ele>
        <time>2019-10-05T14:43:01.000Z</time>
      </trkpt>
      <trkpt lat="46.3467" lon="6.05512">
        <ele>712.40002441406</ele>
        <time>2019-10-05T14:43:02.000Z</time>
      </trkpt>
      <trkpt lat="46.34649" lon="6.05507">
        <ele>710.59997558594</ele>
        <time>2019-10-05T14:43:04.000Z</time>
      </trkpt>
      <trkpt lat="46.34638" lon="6.05509">
        <ele>709.40002441406</ele>
        <time>2019-10-05T14:43:05.000Z</time>
      </trkpt>
      <trkpt lat="46.34615" lon="6.05512">
        <ele>707.20001220703</ele>
        <time>2019-10-05T14:43:07.000Z</time>
      </trkpt>
      <trkpt lat="46.34591" lon="6.05516">
        <ele>705.20001220703</ele>
        <time>2019-10-05T14:43:09.000Z</time>
      </trkpt>
      <trkpt lat="46.34568" lon="6.05521">
        <ele>703.59997558594</ele>
        <time>2019-10-05T14:43:11.000Z</time>
      </trkpt>
      <trkpt lat="46.34545" lon="6.05528">
        <ele>701.59997558594</ele>
        <time>2019-10-05T14:43:13.000Z</time>
      </trkpt>
      <trkpt lat="46.34524" lon="6.0554">
        <ele>699.79998779297</ele>
        <time>2019-10-05T14:43:15.000Z</time>
      </trkpt>
      <trkpt lat="46.34505" lon="6.05559">
        <ele>698</ele>
        <time>2019-10-05T14:43:17.000Z</time>
      </trkpt>
      <trkpt lat="46.34496" lon="6.05569">
        <ele>696.79998779297</ele>
        <time>2019-10-05T14:43:18.000Z</time>
      </trkpt>
      <trkpt lat="46.34487" lon="6.05579">
        <ele>695.20001220703</ele>
        <time>2019-10-05T14:43:19.000Z</time>
      </trkpt>
      <trkpt lat="46.34477" lon="6.05588">
        <ele>694</ele>
        <time>2019-10-05T14:43:20.000Z</time>
      </trkpt>
      <trkpt lat="46.34467" lon="6.05595">
        <ele>692.79998779297</ele>
        <time>2019-10-05T14:43:21.000Z</time>
      </trkpt>
      <trkpt lat="46.34455" lon="6.056">
        <ele>692.20001220703</ele>
        <time>2019-10-05T14:43:22.000Z</time>
      </trkpt>
      <trkpt lat="46.34444" lon="6.05605">
        <ele>691.40002441406</ele>
        <time>2019-10-05T14:43:23.000Z</time>
      </trkpt>
      <trkpt lat="46.34433" lon="6.05609">
        <ele>691.59997558594</ele>
        <time>2019-10-05T14:43:24.000Z</time>
      </trkpt>
      <trkpt lat="46.34423" lon="6.05612">
        <ele>691.79998779297</ele>
        <time>2019-10-05T14:43:25.000Z</time>
      </trkpt>
      <trkpt lat="46.34413" lon="6.05614">
        <ele>692</ele>
        <time>2019-10-05T14:43:26.000Z</time>
      </trkpt>
      <trkpt lat="46.34403" lon="6.05615">
        <ele>692.40002441406</ele>
        <time>2019-10-05T14:43:27.000Z</time>
      </trkpt>
      <trkpt lat="46.34382" lon="6.0561">
        <ele>692.20001220703</ele>
        <time>2019-10-05T14:43:29.000Z</time>
      </trkpt>
      <trkpt lat="46.34362" lon="6.05602">
        <ele>691.79998779297</ele>
        <time>2019-10-05T14:43:31.000Z</time>
      </trkpt>
      <trkpt lat="46.34341" lon="6.05599">
        <ele>690.79998779297</ele>
        <time>2019-10-05T14:43:33.000Z</time>
      </trkpt>
      <trkpt lat="46.3432" lon="6.05605">
        <ele>689</ele>
        <time>2019-10-05T14:43:35.000Z</time>
      </trkpt>
      <trkpt lat="46.34311" lon="6.05612">
        <ele>688</ele>
        <time>2019-10-05T14:43:36.000Z</time>
      </trkpt>
      <trkpt lat="46.34303" lon="6.05621">
        <ele>687</ele>
        <time>2019-10-05T14:43:37.000Z</time>
      </trkpt>
      <trkpt lat="46.34292" lon="6.05646">
        <ele>684.20001220703</ele>
        <time>2019-10-05T14:43:39.000Z</time>
      </trkpt>
      <trkpt lat="46.34283" lon="6.05671">
        <ele>681.79998779297</ele>
        <time>2019-10-05T14:43:41.000Z</time>
      </trkpt>
      <trkpt lat="46.34271" lon="6.05694">
        <ele>679.59997558594</ele>
        <time>2019-10-05T14:43:43.000Z</time>
      </trkpt>
      <trkpt lat="46.34256" lon="6.0571">
        <ele>677.40002441406</ele>
        <time>2019-10-05T14:43:45.000Z</time>
      </trkpt>
      <trkpt lat="46.34247" lon="6.05714">
        <ele>676.79998779297</ele>
        <time>2019-10-05T14:43:46.000Z</time>
      </trkpt>
      <trkpt lat="46.34238" lon="6.05716">
        <ele>676.20001220703</ele>
        <time>2019-10-05T14:43:47.000Z</time>
      </trkpt>
      <trkpt lat="46.34218" lon="6.05714">
        <ele>675.40002441406</ele>
        <time>2019-10-05T14:43:49.000Z</time>
      </trkpt>
      <trkpt lat="46.34198" lon="6.05705">
        <ele>674.59997558594</ele>
        <time>2019-10-05T14:43:51.000Z</time>
      </trkpt>
      <trkpt lat="46.34188" lon="6.05698">
        <ele>674.59997558594</ele>
        <time>2019-10-05T14:43:52.000Z</time>
      </trkpt>
      <trkpt lat="46.34178" lon="6.05692">
        <ele>674.40002441406</ele>
        <time>2019-10-05T14:43:53.000Z</time>
      </trkpt>
      <trkpt lat="46.34158" lon="6.05681">
        <ele>673.79998779297</ele>
        <time>2019-10-05T14:43:55.000Z</time>
      </trkpt>
      <trkpt lat="46.34139" lon="6.05672">
        <ele>673.40002441406</ele>
        <time>2019-10-05T14:43:57.000Z</time>
      </trkpt>
      <trkpt lat="46.34131" lon="6.05668">
        <ele>673.59997558594</ele>
        <time>2019-10-05T14:43:58.000Z</time>
      </trkpt>
      <trkpt lat="46.34122" lon="6.05665">
        <ele>673.40002441406</ele>
        <time>2019-10-05T14:43:59.000Z</time>
      </trkpt>
      <trkpt lat="46.34107" lon="6.05658">
        <ele>673.59997558594</ele>
        <time>2019-10-05T14:44:01.000Z</time>
      </trkpt>
      <trkpt lat="46.34102" lon="6.05652">
        <ele>674.20001220703</ele>
        <time>2019-10-05T14:44:02.000Z</time>
      </trkpt>
      <trkpt lat="46.34085" lon="6.05646">
        <ele>674</ele>
        <time>2019-10-05T14:44:05.000Z</time>
      </trkpt>
      <trkpt lat="46.34075" lon="6.0566">
        <ele>671</ele>
        <time>2019-10-05T14:44:07.000Z</time>
      </trkpt>
      <trkpt lat="46.34066" lon="6.05676">
        <ele>667.79998779297</ele>
        <time>2019-10-05T14:44:09.000Z</time>
      </trkpt>
      <trkpt lat="46.34053" lon="6.0569">
        <ele>665.59997558594</ele>
        <time>2019-10-05T14:44:11.000Z</time>
      </trkpt>
      <trkpt lat="46.34045" lon="6.05696">
        <ele>664.79998779297</ele>
        <time>2019-10-05T14:44:12.000Z</time>
      </trkpt>
      <trkpt lat="46.34037" lon="6.05702">
        <ele>663.79998779297</ele>
        <time>2019-10-05T14:44:13.000Z</time>
      </trkpt>
      <trkpt lat="46.34019" lon="6.05714">
        <ele>663</ele>
        <time>2019-10-05T14:44:15.000Z</time>
      </trkpt>
      <trkpt lat="46.34001" lon="6.05728">
        <ele>662</ele>
        <time>2019-10-05T14:44:17.000Z</time>
      </trkpt>
      <trkpt lat="46.33982" lon="6.05744">
        <ele>660.40002441406</ele>
        <time>2019-10-05T14:44:19.000Z</time>
      </trkpt>
      <trkpt lat="46.33972" lon="6.05751">
        <ele>659.79998779297</ele>
        <time>2019-10-05T14:44:20.000Z</time>
      </trkpt>
      <trkpt lat="46.33964" lon="6.05759">
        <ele>659.20001220703</ele>
        <time>2019-10-05T14:44:21.000Z</time>
      </trkpt>
      <trkpt lat="46.33947" lon="6.05774">
        <ele>658.20001220703</ele>
        <time>2019-10-05T14:44:23.000Z</time>
      </trkpt>
      <trkpt lat="46.3393" lon="6.05786">
        <ele>657.40002441406</ele>
        <time>2019-10-05T14:44:25.000Z</time>
      </trkpt>
      <trkpt lat="46.33922" lon="6.05791">
        <ele>657.20001220703</ele>
        <time>2019-10-05T14:44:26.000Z</time>
      </trkpt>
      <trkpt lat="46.33913" lon="6.05793">
        <ele>657.40002441406</ele>
        <time>2019-10-05T14:44:27.000Z</time>
      </trkpt>
      <trkpt lat="46.33895" lon="6.0579">
        <ele>658.40002441406</ele>
        <time>2019-10-05T14:44:29.000Z</time>
      </trkpt>
      <trkpt lat="46.33869" lon="6.05777">
        <ele>656.59997558594</ele>
        <time>2019-10-05T14:44:32.000Z</time>
      </trkpt>
      <trkpt lat="46.3386" lon="6.05773">
        <ele>656</ele>
        <time>2019-10-05T14:44:33.000Z</time>
      </trkpt>
      <trkpt lat="46.33828" lon="6.05748">
        <ele>655.40002441406</ele>
        <time>2019-10-05T14:44:37.000Z</time>
      </trkpt>
      <trkpt lat="46.3382" lon="6.0574">
        <ele>655.59997558594</ele>
        <time>2019-10-05T14:44:38.000Z</time>
      </trkpt>
      <trkpt lat="46.33799" lon="6.05715">
        <ele>654.79998779297</ele>
        <time>2019-10-05T14:44:41.000Z</time>
      </trkpt>
      <trkpt lat="46.33759" lon="6.0566">
        <ele>652.79998779297</ele>
        <time>2019-10-05T14:44:47.000Z</time>
      </trkpt>
      <trkpt lat="46.33752" lon="6.05654">
        <ele>652.40002441406</ele>
        <time>2019-10-05T14:44:48.000Z</time>
      </trkpt>
      <trkpt lat="46.33745" lon="6.05648">
        <ele>651.59997558594</ele>
        <time>2019-10-05T14:44:49.000Z</time>
      </trkpt>
      <trkpt lat="46.33721" lon="6.05639">
        <ele>649.59997558594</ele>
        <time>2019-10-05T14:44:52.000Z</time>
      </trkpt>
      <trkpt lat="46.33696" lon="6.05646">
        <ele>649</ele>
        <time>2019-10-05T14:44:55.000Z</time>
      </trkpt>
      <trkpt lat="46.33679" lon="6.05657">
        <ele>648.20001220703</ele>
        <time>2019-10-05T14:44:57.000Z</time>
      </trkpt>
      <trkpt lat="46.3367" lon="6.05662">
        <ele>647.79998779297</ele>
        <time>2019-10-05T14:44:58.000Z</time>
      </trkpt>
      <trkpt lat="46.33654" lon="6.05673">
        <ele>647</ele>
        <time>2019-10-05T14:45:00.000Z</time>
      </trkpt>
      <trkpt lat="46.33639" lon="6.05683">
        <ele>646.40002441406</ele>
        <time>2019-10-05T14:45:02.000Z</time>
      </trkpt>
      <trkpt lat="46.33619" lon="6.05696">
        <ele>645.40002441406</ele>
        <time>2019-10-05T14:45:05.000Z</time>
      </trkpt>
      <trkpt lat="46.33599" lon="6.05708">
        <ele>644.40002441406</ele>
        <time>2019-10-05T14:45:09.000Z</time>
      </trkpt>
      <trkpt lat="46.33593" lon="6.05711">
        <ele>644.20001220703</ele>
        <time>2019-10-05T14:45:10.000Z</time>
      </trkpt>
      <trkpt lat="46.3357" lon="6.05724">
        <ele>643.20001220703</ele>
        <time>2019-10-05T14:45:14.000Z</time>
      </trkpt>
      <trkpt lat="46.33559" lon="6.05735">
        <ele>642.59997558594</ele>
        <time>2019-10-05T14:45:16.000Z</time>
      </trkpt>
      <trkpt lat="46.33553" lon="6.05741">
        <ele>642.40002441406</ele>
        <time>2019-10-05T14:45:17.000Z</time>
      </trkpt>
      <trkpt lat="46.33547" lon="6.05748">
        <ele>642</ele>
        <time>2019-10-05T14:45:18.000Z</time>
      </trkpt>
      <trkpt lat="46.33537" lon="6.05766">
        <ele>641.40002441406</ele>
        <time>2019-10-05T14:45:20.000Z</time>
      </trkpt>
      <trkpt lat="46.33526" lon="6.05785">
        <ele>640.20001220703</ele>
        <time>2019-10-05T14:45:22.000Z</time>
      </trkpt>
      <trkpt lat="46.33516" lon="6.05804">
        <ele>638.59997558594</ele>
        <time>2019-10-05T14:45:24.000Z</time>
      </trkpt>
      <trkpt lat="46.33511" lon="6.05823">
        <ele>637.59997558594</ele>
        <time>2019-10-05T14:45:26.000Z</time>
      </trkpt>
      <trkpt lat="46.33511" lon="6.05834">
        <ele>637.40002441406</ele>
        <time>2019-10-05T14:45:27.000Z</time>
      </trkpt>
      <trkpt lat="46.33516" lon="6.05856">
        <ele>636.79998779297</ele>
        <time>2019-10-05T14:45:29.000Z</time>
      </trkpt>
      <trkpt lat="46.33524" lon="6.0588">
        <ele>636.20001220703</ele>
        <time>2019-10-05T14:45:31.000Z</time>
      </trkpt>
      <trkpt lat="46.33532" lon="6.05905">
        <ele>635</ele>
        <time>2019-10-05T14:45:33.000Z</time>
      </trkpt>
      <trkpt lat="46.33535" lon="6.05918">
        <ele>634</ele>
        <time>2019-10-05T14:45:34.000Z</time>
      </trkpt>
      <trkpt lat="46.33548" lon="6.05957">
        <ele>631.79998779297</ele>
        <time>2019-10-05T14:45:37.000Z</time>
      </trkpt>
      <trkpt lat="46.33556" lon="6.05984">
        <ele>630</ele>
        <time>2019-10-05T14:45:39.000Z</time>
      </trkpt>
      <trkpt lat="46.3356" lon="6.05998">
        <ele>629.20001220703</ele>
        <time>2019-10-05T14:45:40.000Z</time>
      </trkpt>
      <trkpt lat="46.33569" lon="6.06025">
        <ele>627.59997558594</ele>
        <time>2019-10-05T14:45:42.000Z</time>
      </trkpt>
      <trkpt lat="46.33578" lon="6.06054">
        <ele>625.59997558594</ele>
        <time>2019-10-05T14:45:44.000Z</time>
      </trkpt>
      <trkpt lat="46.33586" lon="6.06081">
        <ele>623.79998779297</ele>
        <time>2019-10-05T14:45:46.000Z</time>
      </trkpt>
      <trkpt lat="46.33594" lon="6.06104">
        <ele>622.40002441406</ele>
        <time>2019-10-05T14:45:48.000Z</time>
      </trkpt>
      <trkpt lat="46.33599" lon="6.06121">
        <ele>621.40002441406</ele>
        <time>2019-10-05T14:45:50.000Z</time>
      </trkpt>
      <trkpt lat="46.33599" lon="6.0613">
        <ele>620.59997558594</ele>
        <time>2019-10-05T14:45:51.000Z</time>
      </trkpt>
      <trkpt lat="46.33596" lon="6.06138">
        <ele>619.79998779297</ele>
        <time>2019-10-05T14:45:52.000Z</time>
      </trkpt>
      <trkpt lat="46.33592" lon="6.06145">
        <ele>618.79998779297</ele>
        <time>2019-10-05T14:45:53.000Z</time>
      </trkpt>
      <trkpt lat="46.33587" lon="6.0615">
        <ele>617.79998779297</ele>
        <time>2019-10-05T14:45:54.000Z</time>
      </trkpt>
      <trkpt lat="46.33573" lon="6.06151">
        <ele>616.79998779297</ele>
        <time>2019-10-05T14:45:56.000Z</time>
      </trkpt>
      <trkpt lat="46.33562" lon="6.06136">
        <ele>617.20001220703</ele>
        <time>2019-10-05T14:45:58.000Z</time>
      </trkpt>
      <trkpt lat="46.33555" lon="6.06116">
        <ele>618.20001220703</ele>
        <time>2019-10-05T14:46:00.000Z</time>
      </trkpt>
      <trkpt lat="46.33551" lon="6.06105">
        <ele>618.59997558594</ele>
        <time>2019-10-05T14:46:01.000Z</time>
      </trkpt>
      <trkpt lat="46.33544" lon="6.06084">
        <ele>619.59997558594</ele>
        <time>2019-10-05T14:46:03.000Z</time>
      </trkpt>
      <trkpt lat="46.3353" lon="6.06052">
        <ele>620.20001220703</ele>
        <time>2019-10-05T14:46:06.000Z</time>
      </trkpt>
      <trkpt lat="46.33522" lon="6.06045">
        <ele>619.79998779297</ele>
        <time>2019-10-05T14:46:07.000Z</time>
      </trkpt>
      <trkpt lat="46.33506" lon="6.06033">
        <ele>618.59997558594</ele>
        <time>2019-10-05T14:46:09.000Z</time>
      </trkpt>
      <trkpt lat="46.33488" lon="6.06022">
        <ele>617.20001220703</ele>
        <time>2019-10-05T14:46:11.000Z</time>
      </trkpt>
      <trkpt lat="46.3347" lon="6.06012">
        <ele>616</ele>
        <time>2019-10-05T14:46:13.000Z</time>
      </trkpt>
      <trkpt lat="46.33446" lon="6.05999">
        <ele>614.79998779297</ele>
        <time>2019-10-05T14:46:16.000Z</time>
      </trkpt>
      <trkpt lat="46.33439" lon="6.05994">
        <ele>614.40002441406</ele>
        <time>2019-10-05T14:46:17.000Z</time>
      </trkpt>
      <trkpt lat="46.33419" lon="6.05979">
        <ele>613.59997558594</ele>
        <time>2019-10-05T14:46:20.000Z</time>
      </trkpt>
      <trkpt lat="46.33414" lon="6.05973">
        <ele>613.59997558594</ele>
        <time>2019-10-05T14:46:21.000Z</time>
      </trkpt>
      <trkpt lat="46.33408" lon="6.05969">
        <ele>613.40002441406</ele>
        <time>2019-10-05T14:46:22.000Z</time>
      </trkpt>
      <trkpt lat="46.3339" lon="6.05972">
        <ele>611.40002441406</ele>
        <time>2019-10-05T14:46:25.000Z</time>
      </trkpt>
      <trkpt lat="46.33383" lon="6.05974">
        <ele>610.79998779297</ele>
        <time>2019-10-05T14:46:26.000Z</time>
      </trkpt>
      <trkpt lat="46.33377" lon="6.05974">
        <ele>610</ele>
        <time>2019-10-05T14:46:27.000Z</time>
      </trkpt>
      <trkpt lat="46.33361" lon="6.05975">
        <ele>608.59997558594</ele>
        <time>2019-10-05T14:46:29.000Z</time>
      </trkpt>
      <trkpt lat="46.33353" lon="6.05976">
        <ele>607.79998779297</ele>
        <time>2019-10-05T14:46:30.000Z</time>
      </trkpt>
      <trkpt lat="46.33345" lon="6.05976">
        <ele>607</ele>
        <time>2019-10-05T14:46:31.000Z</time>
      </trkpt>
      <trkpt lat="46.33329" lon="6.05978">
        <ele>605.20001220703</ele>
        <time>2019-10-05T14:46:33.000Z</time>
      </trkpt>
      <trkpt lat="46.33304" lon="6.05976">
        <ele>603.40002441406</ele>
        <time>2019-10-05T14:46:36.000Z</time>
      </trkpt>
      <trkpt lat="46.33288" lon="6.05975">
        <ele>602.40002441406</ele>
        <time>2019-10-05T14:46:38.000Z</time>
      </trkpt>
      <trkpt lat="46.33274" lon="6.05976">
        <ele>601.59997558594</ele>
        <time>2019-10-05T14:46:40.000Z</time>
      </trkpt>
      <trkpt lat="46.33267" lon="6.05979">
        <ele>601</ele>
        <time>2019-10-05T14:46:41.000Z</time>
      </trkpt>
      <trkpt lat="46.33261" lon="6.05983">
        <ele>600.40002441406</ele>
        <time>2019-10-05T14:46:42.000Z</time>
      </trkpt>
      <trkpt lat="46.33252" lon="6.05994">
        <ele>599.40002441406</ele>
        <time>2019-10-05T14:46:44.000Z</time>
      </trkpt>
      <trkpt lat="46.33247" lon="6.05999">
        <ele>599</ele>
        <time>2019-10-05T14:46:45.000Z</time>
      </trkpt>
      <trkpt lat="46.33241" lon="6.06003">
        <ele>598.59997558594</ele>
        <time>2019-10-05T14:46:47.000Z</time>
      </trkpt>
      <trkpt lat="46.3324" lon="6.06005">
        <ele>598.40002441406</ele>
        <time>2019-10-05T14:46:48.000Z</time>
      </trkpt>
      <trkpt lat="46.3324" lon="6.06005">
        <ele>598.40002441406</ele>
        <time>2019-10-05T14:46:49.000Z</time>
      </trkpt>
      <trkpt lat="46.33239" lon="6.06006">
        <ele>598.40002441406</ele>
        <time>2019-10-05T14:47:26.000Z</time>
      </trkpt>
      <trkpt lat="46.33228" lon="6.06018">
        <ele>597.40002441406</ele>
        <time>2019-10-05T14:47:29.000Z</time>
      </trkpt>
      <trkpt lat="46.33224" lon="6.06023">
        <ele>597</ele>
        <time>2019-10-05T14:47:30.000Z</time>
      </trkpt>
      <trkpt lat="46.33225" lon="6.06045">
        <ele>596.40002441406</ele>
        <time>2019-10-05T14:47:33.000Z</time>
      </trkpt>
      <trkpt lat="46.33239" lon="6.06074">
        <ele>595.20001220703</ele>
        <time>2019-10-05T14:47:37.000Z</time>
      </trkpt>
      <trkpt lat="46.33243" lon="6.06081">
        <ele>595</ele>
        <time>2019-10-05T14:47:38.000Z</time>
      </trkpt>
      <trkpt lat="46.33253" lon="6.06098">
        <ele>594.20001220703</ele>
        <time>2019-10-05T14:47:40.000Z</time>
      </trkpt>
      <trkpt lat="46.3327" lon="6.06133">
        <ele>592.20001220703</ele>
        <time>2019-10-05T14:47:44.000Z</time>
      </trkpt>
      <trkpt lat="46.33291" lon="6.06177">
        <ele>591.40002441406</ele>
        <time>2019-10-05T14:47:49.000Z</time>
      </trkpt>
      <trkpt lat="46.333" lon="6.06204">
        <ele>590.79998779297</ele>
        <time>2019-10-05T14:47:53.000Z</time>
      </trkpt>
      <trkpt lat="46.33302" lon="6.06222">
        <ele>590.20001220703</ele>
        <time>2019-10-05T14:47:56.000Z</time>
      </trkpt>
      <trkpt lat="46.333" lon="6.06236">
        <ele>589.40002441406</ele>
        <time>2019-10-05T14:47:58.000Z</time>
      </trkpt>
      <trkpt lat="46.33296" lon="6.0625">
        <ele>588.59997558594</ele>
        <time>2019-10-05T14:48:00.000Z</time>
      </trkpt>
      <trkpt lat="46.33288" lon="6.06262">
        <ele>587.59997558594</ele>
        <time>2019-10-05T14:48:02.000Z</time>
      </trkpt>
      <trkpt lat="46.33275" lon="6.06282">
        <ele>585.79998779297</ele>
        <time>2019-10-05T14:48:05.000Z</time>
      </trkpt>
      <trkpt lat="46.33263" lon="6.06298">
        <ele>584.59997558594</ele>
        <time>2019-10-05T14:48:07.000Z</time>
      </trkpt>
      <trkpt lat="46.33257" lon="6.06307">
        <ele>584</ele>
        <time>2019-10-05T14:48:08.000Z</time>
      </trkpt>
      <trkpt lat="46.33244" lon="6.06324">
        <ele>582.40002441406</ele>
        <time>2019-10-05T14:48:10.000Z</time>
      </trkpt>
      <trkpt lat="46.33231" lon="6.06342">
        <ele>581.20001220703</ele>
        <time>2019-10-05T14:48:12.000Z</time>
      </trkpt>
      <trkpt lat="46.33217" lon="6.06361">
        <ele>579.40002441406</ele>
        <time>2019-10-05T14:48:14.000Z</time>
      </trkpt>
      <trkpt lat="46.33202" lon="6.06379">
        <ele>577.59997558594</ele>
        <time>2019-10-05T14:48:16.000Z</time>
      </trkpt>
      <trkpt lat="46.33196" lon="6.06387">
        <ele>576.79998779297</ele>
        <time>2019-10-05T14:48:17.000Z</time>
      </trkpt>
      <trkpt lat="46.33183" lon="6.06404">
        <ele>574.79998779297</ele>
        <time>2019-10-05T14:48:19.000Z</time>
      </trkpt>
      <trkpt lat="46.33171" lon="6.06416">
        <ele>573.20001220703</ele>
        <time>2019-10-05T14:48:21.000Z</time>
      </trkpt>
      <trkpt lat="46.33165" lon="6.06421">
        <ele>572.59997558594</ele>
        <time>2019-10-05T14:48:22.000Z</time>
      </trkpt>
      <trkpt lat="46.3316" lon="6.06426">
        <ele>572.20001220703</ele>
        <time>2019-10-05T14:48:23.000Z</time>
      </trkpt>
      <trkpt lat="46.33149" lon="6.06434">
        <ele>571.20001220703</ele>
        <time>2019-10-05T14:48:25.000Z</time>
      </trkpt>
      <trkpt lat="46.33142" lon="6.06434">
        <ele>571</ele>
        <time>2019-10-05T14:48:26.000Z</time>
      </trkpt>
      <trkpt lat="46.33135" lon="6.06435">
        <ele>570.79998779297</ele>
        <time>2019-10-05T14:48:27.000Z</time>
      </trkpt>
      <trkpt lat="46.3313" lon="6.06439">
        <ele>570.59997558594</ele>
        <time>2019-10-05T14:48:28.000Z</time>
      </trkpt>
      <trkpt lat="46.33125" lon="6.06447">
        <ele>570.40002441406</ele>
        <time>2019-10-05T14:48:29.000Z</time>
      </trkpt>
      <trkpt lat="46.33123" lon="6.06457">
        <ele>570</ele>
        <time>2019-10-05T14:48:30.000Z</time>
      </trkpt>
      <trkpt lat="46.33113" lon="6.06484">
        <ele>568.79998779297</ele>
        <time>2019-10-05T14:48:33.000Z</time>
      </trkpt>
      <trkpt lat="46.33093" lon="6.06501">
        <ele>568</ele>
        <time>2019-10-05T14:48:36.000Z</time>
      </trkpt>
      <trkpt lat="46.33078" lon="6.06512">
        <ele>567.59997558594</ele>
        <time>2019-10-05T14:48:38.000Z</time>
      </trkpt>
      <trkpt lat="46.33063" lon="6.06523">
        <ele>567</ele>
        <time>2019-10-05T14:48:40.000Z</time>
      </trkpt>
      <trkpt lat="46.33039" lon="6.0654">
        <ele>566.59997558594</ele>
        <time>2019-10-05T14:48:43.000Z</time>
      </trkpt>
      <trkpt lat="46.33031" lon="6.06546">
        <ele>566</ele>
        <time>2019-10-05T14:48:44.000Z</time>
      </trkpt>
      <trkpt lat="46.32991" lon="6.06574">
        <ele>563.20001220703</ele>
        <time>2019-10-05T14:48:49.000Z</time>
      </trkpt>
      <trkpt lat="46.32983" lon="6.06577">
        <ele>562.59997558594</ele>
        <time>2019-10-05T14:48:50.000Z</time>
      </trkpt>
      <trkpt lat="46.32952" lon="6.06583">
        <ele>563.40002441406</ele>
        <time>2019-10-05T14:48:54.000Z</time>
      </trkpt>
      <trkpt lat="46.32921" lon="6.0658">
        <ele>564.59997558594</ele>
        <time>2019-10-05T14:48:59.000Z</time>
      </trkpt>
      <trkpt lat="46.3291" lon="6.06576">
        <ele>565.20001220703</ele>
        <time>2019-10-05T14:49:01.000Z</time>
      </trkpt>
      <trkpt lat="46.32887" lon="6.06564">
        <ele>566.40002441406</ele>
        <time>2019-10-05T14:49:05.000Z</time>
      </trkpt>
      <trkpt lat="46.32867" lon="6.06548">
        <ele>567.40002441406</ele>
        <time>2019-10-05T14:49:09.000Z</time>
      </trkpt>
      <trkpt lat="46.32858" lon="6.06538">
        <ele>567.79998779297</ele>
        <time>2019-10-05T14:49:11.000Z</time>
      </trkpt>
      <trkpt lat="46.32839" lon="6.0651">
        <ele>568.79998779297</ele>
        <time>2019-10-05T14:49:16.000Z</time>
      </trkpt>
      <trkpt lat="46.32835" lon="6.06503">
        <ele>569</ele>
        <time>2019-10-05T14:49:17.000Z</time>
      </trkpt>
      <trkpt lat="46.32821" lon="6.06472">
        <ele>570</ele>
        <time>2019-10-05T14:49:22.000Z</time>
      </trkpt>
      <trkpt lat="46.32816" lon="6.0646">
        <ele>570.59997558594</ele>
        <time>2019-10-05T14:49:24.000Z</time>
      </trkpt>
      <trkpt lat="46.32808" lon="6.06441">
        <ele>571.20001220703</ele>
        <time>2019-10-05T14:49:27.000Z</time>
      </trkpt>
      <trkpt lat="46.32799" lon="6.06416">
        <ele>571.79998779297</ele>
        <time>2019-10-05T14:49:31.000Z</time>
      </trkpt>
      <trkpt lat="46.32796" lon="6.06403">
        <ele>572.20001220703</ele>
        <time>2019-10-05T14:49:33.000Z</time>
      </trkpt>
      <trkpt lat="46.32795" lon="6.06397">
        <ele>572.40002441406</ele>
        <time>2019-10-05T14:49:34.000Z</time>
      </trkpt>
      <trkpt lat="46.32793" lon="6.06383">
        <ele>572.79998779297</ele>
        <time>2019-10-05T14:49:36.000Z</time>
      </trkpt>
      <trkpt lat="46.32795" lon="6.0637">
        <ele>573.20001220703</ele>
        <time>2019-10-05T14:49:38.000Z</time>
      </trkpt>
      <trkpt lat="46.32787" lon="6.06356">
        <ele>573.40002441406</ele>
        <time>2019-10-05T14:49:41.000Z</time>
      </trkpt>
      <trkpt lat="46.32775" lon="6.06362">
        <ele>573.20001220703</ele>
        <time>2019-10-05T14:49:44.000Z</time>
      </trkpt>
      <trkpt lat="46.32768" lon="6.06373">
        <ele>572.59997558594</ele>
        <time>2019-10-05T14:49:46.000Z</time>
      </trkpt>
      <trkpt lat="46.32763" lon="6.06374">
        <ele>572.40002441406</ele>
        <time>2019-10-05T14:49:47.000Z</time>
      </trkpt>
      <trkpt lat="46.32758" lon="6.06372">
        <ele>572.40002441406</ele>
        <time>2019-10-05T14:49:48.000Z</time>
      </trkpt>
      <trkpt lat="46.32746" lon="6.06356">
        <ele>572.59997558594</ele>
        <time>2019-10-05T14:49:51.000Z</time>
      </trkpt>
      <trkpt lat="46.32742" lon="6.06351">
        <ele>572.79998779297</ele>
        <time>2019-10-05T14:49:52.000Z</time>
      </trkpt>
      <trkpt lat="46.3273" lon="6.06336">
        <ele>573</ele>
        <time>2019-10-05T14:49:55.000Z</time>
      </trkpt>
      <trkpt lat="46.32722" lon="6.06327">
        <ele>573.20001220703</ele>
        <time>2019-10-05T14:49:57.000Z</time>
      </trkpt>
      <trkpt lat="46.32714" lon="6.06317">
        <ele>573.59997558594</ele>
        <time>2019-10-05T14:49:59.000Z</time>
      </trkpt>
      <trkpt lat="46.32699" lon="6.06303">
        <ele>573.79998779297</ele>
        <time>2019-10-05T14:50:04.000Z</time>
      </trkpt>
      <trkpt lat="46.32694" lon="6.06299">
        <ele>573.79998779297</ele>
        <time>2019-10-05T14:50:07.000Z</time>
      </trkpt>
      <trkpt lat="46.32686" lon="6.063">
        <ele>573.59997558594</ele>
        <time>2019-10-05T14:50:09.000Z</time>
      </trkpt>
      <trkpt lat="46.32673" lon="6.06311">
        <ele>573.20001220703</ele>
        <time>2019-10-05T14:50:12.000Z</time>
      </trkpt>
      <trkpt lat="46.32656" lon="6.06328">
        <ele>572.59997558594</ele>
        <time>2019-10-05T14:50:15.000Z</time>
      </trkpt>
      <trkpt lat="46.3265" lon="6.06335">
        <ele>572.59997558594</ele>
        <time>2019-10-05T14:50:16.000Z</time>
      </trkpt>
      <trkpt lat="46.32643" lon="6.06341">
        <ele>572.59997558594</ele>
        <time>2019-10-05T14:50:17.000Z</time>
      </trkpt>
      <trkpt lat="46.32632" lon="6.06354">
        <ele>572.20001220703</ele>
        <time>2019-10-05T14:50:19.000Z</time>
      </trkpt>
      <trkpt lat="46.32626" lon="6.06362">
        <ele>572.20001220703</ele>
        <time>2019-10-05T14:50:20.000Z</time>
      </trkpt>
      <trkpt lat="46.32614" lon="6.06377">
        <ele>571.40002441406</ele>
        <time>2019-10-05T14:50:22.000Z</time>
      </trkpt>
      <trkpt lat="46.32592" lon="6.06409">
        <ele>569.40002441406</ele>
        <time>2019-10-05T14:50:26.000Z</time>
      </trkpt>
      <trkpt lat="46.32581" lon="6.06425">
        <ele>568.59997558594</ele>
        <time>2019-10-05T14:50:28.000Z</time>
      </trkpt>
      <trkpt lat="46.32565" lon="6.06449">
        <ele>567.59997558594</ele>
        <time>2019-10-05T14:50:31.000Z</time>
      </trkpt>
      <trkpt lat="46.32547" lon="6.0647">
        <ele>566.79998779297</ele>
        <time>2019-10-05T14:50:34.000Z</time>
      </trkpt>
      <trkpt lat="46.32535" lon="6.06487">
        <ele>566.20001220703</ele>
        <time>2019-10-05T14:50:36.000Z</time>
      </trkpt>
      <trkpt lat="46.32516" lon="6.06513">
        <ele>565.40002441406</ele>
        <time>2019-10-05T14:50:39.000Z</time>
      </trkpt>
      <trkpt lat="46.32497" lon="6.06538">
        <ele>564.59997558594</ele>
        <time>2019-10-05T14:50:42.000Z</time>
      </trkpt>
      <trkpt lat="46.32463" lon="6.06581">
        <ele>563.59997558594</ele>
        <time>2019-10-05T14:50:47.000Z</time>
      </trkpt>
      <trkpt lat="46.32434" lon="6.06614">
        <ele>563</ele>
        <time>2019-10-05T14:50:51.000Z</time>
      </trkpt>
      <trkpt lat="46.32411" lon="6.06637">
        <ele>563</ele>
        <time>2019-10-05T14:50:54.000Z</time>
      </trkpt>
      <trkpt lat="46.32389" lon="6.0666">
        <ele>562</ele>
        <time>2019-10-05T14:50:57.000Z</time>
      </trkpt>
      <trkpt lat="46.32366" lon="6.06683">
        <ele>560.40002441406</ele>
        <time>2019-10-05T14:51:00.000Z</time>
      </trkpt>
      <trkpt lat="46.32358" lon="6.06691">
        <ele>560</ele>
        <time>2019-10-05T14:51:01.000Z</time>
      </trkpt>
      <trkpt lat="46.32344" lon="6.06706">
        <ele>559.59997558594</ele>
        <time>2019-10-05T14:51:03.000Z</time>
      </trkpt>
      <trkpt lat="46.32321" lon="6.06725">
        <ele>559.20001220703</ele>
        <time>2019-10-05T14:51:06.000Z</time>
      </trkpt>
      <trkpt lat="46.32306" lon="6.06737">
        <ele>558.59997558594</ele>
        <time>2019-10-05T14:51:08.000Z</time>
      </trkpt>
      <trkpt lat="46.3229" lon="6.06747">
        <ele>558.20001220703</ele>
        <time>2019-10-05T14:51:10.000Z</time>
      </trkpt>
      <trkpt lat="46.32272" lon="6.06754">
        <ele>557.59997558594</ele>
        <time>2019-10-05T14:51:12.000Z</time>
      </trkpt>
      <trkpt lat="46.32254" lon="6.06762">
        <ele>557.20001220703</ele>
        <time>2019-10-05T14:51:14.000Z</time>
      </trkpt>
      <trkpt lat="46.32217" lon="6.06775">
        <ele>556</ele>
        <time>2019-10-05T14:51:18.000Z</time>
      </trkpt>
      <trkpt lat="46.32208" lon="6.06778">
        <ele>555.59997558594</ele>
        <time>2019-10-05T14:51:19.000Z</time>
      </trkpt>
      <trkpt lat="46.32182" lon="6.0679">
        <ele>554.20001220703</ele>
        <time>2019-10-05T14:51:22.000Z</time>
      </trkpt>
      <trkpt lat="46.32147" lon="6.06807">
        <ele>552</ele>
        <time>2019-10-05T14:51:26.000Z</time>
      </trkpt>
      <trkpt lat="46.32113" lon="6.06831">
        <ele>550.79998779297</ele>
        <time>2019-10-05T14:51:30.000Z</time>
      </trkpt>
      <trkpt lat="46.32096" lon="6.06846">
        <ele>550.20001220703</ele>
        <time>2019-10-05T14:51:32.000Z</time>
      </trkpt>
      <trkpt lat="46.3208" lon="6.06862">
        <ele>549.59997558594</ele>
        <time>2019-10-05T14:51:34.000Z</time>
      </trkpt>
      <trkpt lat="46.32056" lon="6.06884">
        <ele>548.79998779297</ele>
        <time>2019-10-05T14:51:37.000Z</time>
      </trkpt>
      <trkpt lat="46.32041" lon="6.06899">
        <ele>548.40002441406</ele>
        <time>2019-10-05T14:51:39.000Z</time>
      </trkpt>
      <trkpt lat="46.32007" lon="6.06944">
        <ele>547.59997558594</ele>
        <time>2019-10-05T14:51:44.000Z</time>
      </trkpt>
      <trkpt lat="46.32001" lon="6.06952">
        <ele>547.40002441406</ele>
        <time>2019-10-05T14:51:45.000Z</time>
      </trkpt>
      <trkpt lat="46.31989" lon="6.06964">
        <ele>547.20001220703</ele>
        <time>2019-10-05T14:51:47.000Z</time>
      </trkpt>
      <trkpt lat="46.31983" lon="6.06969">
        <ele>547</ele>
        <time>2019-10-05T14:51:48.000Z</time>
      </trkpt>
      <trkpt lat="46.31978" lon="6.06974">
        <ele>547</ele>
        <time>2019-10-05T14:51:49.000Z</time>
      </trkpt>
      <trkpt lat="46.31964" lon="6.06992">
        <ele>546.20001220703</ele>
        <time>2019-10-05T14:51:52.000Z</time>
      </trkpt>
      <trkpt lat="46.3195" lon="6.07013">
        <ele>545.40002441406</ele>
        <time>2019-10-05T14:51:55.000Z</time>
      </trkpt>
      <trkpt lat="46.31934" lon="6.07035">
        <ele>544.59997558594</ele>
        <time>2019-10-05T14:51:58.000Z</time>
      </trkpt>
      <trkpt lat="46.31928" lon="6.07042">
        <ele>544.40002441406</ele>
        <time>2019-10-05T14:51:59.000Z</time>
      </trkpt>
      <trkpt lat="46.31917" lon="6.07057">
        <ele>543.79998779297</ele>
        <time>2019-10-05T14:52:01.000Z</time>
      </trkpt>
      <trkpt lat="46.31904" lon="6.07079">
        <ele>542.59997558594</ele>
        <time>2019-10-05T14:52:04.000Z</time>
      </trkpt>
      <trkpt lat="46.319" lon="6.07099">
        <ele>541.79998779297</ele>
        <time>2019-10-05T14:52:06.000Z</time>
      </trkpt>
      <trkpt lat="46.319" lon="6.07109">
        <ele>541.40002441406</ele>
        <time>2019-10-05T14:52:07.000Z</time>
      </trkpt>
      <trkpt lat="46.31903" lon="6.07142">
        <ele>540.40002441406</ele>
        <time>2019-10-05T14:52:10.000Z</time>
      </trkpt>
      <trkpt lat="46.31905" lon="6.07154">
        <ele>540</ele>
        <time>2019-10-05T14:52:11.000Z</time>
      </trkpt>
      <trkpt lat="46.31907" lon="6.07178">
        <ele>539.79998779297</ele>
        <time>2019-10-05T14:52:13.000Z</time>
      </trkpt>
      <trkpt lat="46.31906" lon="6.07191">
        <ele>539.59997558594</ele>
        <time>2019-10-05T14:52:14.000Z</time>
      </trkpt>
      <trkpt lat="46.31902" lon="6.07213">
        <ele>539.20001220703</ele>
        <time>2019-10-05T14:52:16.000Z</time>
      </trkpt>
      <trkpt lat="46.31889" lon="6.07264">
        <ele>537.59997558594</ele>
        <time>2019-10-05T14:52:21.000Z</time>
      </trkpt>
      <trkpt lat="46.31889" lon="6.07275">
        <ele>537.40002441406</ele>
        <time>2019-10-05T14:52:22.000Z</time>
      </trkpt>
      <trkpt lat="46.31897" lon="6.07306">
        <ele>537</ele>
        <time>2019-10-05T14:52:25.000Z</time>
      </trkpt>
      <trkpt lat="46.319" lon="6.07316">
        <ele>536.79998779297</ele>
        <time>2019-10-05T14:52:26.000Z</time>
      </trkpt>
      <trkpt lat="46.31911" lon="6.07341">
        <ele>536.20001220703</ele>
        <time>2019-10-05T14:52:29.000Z</time>
      </trkpt>
      <trkpt lat="46.31915" lon="6.07348">
        <ele>536.20001220703</ele>
        <time>2019-10-05T14:52:30.000Z</time>
      </trkpt>
      <trkpt lat="46.31921" lon="6.07359">
        <ele>535.79998779297</ele>
        <time>2019-10-05T14:52:32.000Z</time>
      </trkpt>
      <trkpt lat="46.31926" lon="6.07368">
        <ele>535.59997558594</ele>
        <time>2019-10-05T14:52:34.000Z</time>
      </trkpt>
      <trkpt lat="46.31928" lon="6.07384">
        <ele>535.40002441406</ele>
        <time>2019-10-05T14:52:38.000Z</time>
      </trkpt>
      <trkpt lat="46.31929" lon="6.07405">
        <ele>535</ele>
        <time>2019-10-05T14:52:41.000Z</time>
      </trkpt>
      <trkpt lat="46.31926" lon="6.07413">
        <ele>535</ele>
        <time>2019-10-05T14:52:42.000Z</time>
      </trkpt>
      <trkpt lat="46.31915" lon="6.07435">
        <ele>536.20001220703</ele>
        <time>2019-10-05T14:52:45.000Z</time>
      </trkpt>
      <trkpt lat="46.31912" lon="6.07443">
        <ele>536.79998779297</ele>
        <time>2019-10-05T14:52:46.000Z</time>
      </trkpt>
      <trkpt lat="46.31908" lon="6.07451">
        <ele>537.40002441406</ele>
        <time>2019-10-05T14:52:47.000Z</time>
      </trkpt>
      <trkpt lat="46.31904" lon="6.07459">
        <ele>537.79998779297</ele>
        <time>2019-10-05T14:52:48.000Z</time>
      </trkpt>
      <trkpt lat="46.31887" lon="6.07494">
        <ele>538.20001220703</ele>
        <time>2019-10-05T14:52:52.000Z</time>
      </trkpt>
      <trkpt lat="46.31861" lon="6.07554">
        <ele>536</ele>
        <time>2019-10-05T14:52:58.000Z</time>
      </trkpt>
      <trkpt lat="46.31856" lon="6.07565">
        <ele>535.59997558594</ele>
        <time>2019-10-05T14:52:59.000Z</time>
      </trkpt>
      <trkpt lat="46.31847" lon="6.07586">
        <ele>534.79998779297</ele>
        <time>2019-10-05T14:53:01.000Z</time>
      </trkpt>
      <trkpt lat="46.31822" lon="6.07638">
        <ele>532.59997558594</ele>
        <time>2019-10-05T14:53:06.000Z</time>
      </trkpt>
      <trkpt lat="46.31817" lon="6.07649">
        <ele>532</ele>
        <time>2019-10-05T14:53:07.000Z</time>
      </trkpt>
      <trkpt lat="46.318" lon="6.07682">
        <ele>529.40002441406</ele>
        <time>2019-10-05T14:53:10.000Z</time>
      </trkpt>
      <trkpt lat="46.31789" lon="6.07704">
        <ele>527.40002441406</ele>
        <time>2019-10-05T14:53:12.000Z</time>
      </trkpt>
      <trkpt lat="46.31777" lon="6.07728">
        <ele>526.20001220703</ele>
        <time>2019-10-05T14:53:14.000Z</time>
      </trkpt>
      <trkpt lat="46.31753" lon="6.07775">
        <ele>523.20001220703</ele>
        <time>2019-10-05T14:53:18.000Z</time>
      </trkpt>
      <trkpt lat="46.31741" lon="6.07798">
        <ele>522</ele>
        <time>2019-10-05T14:53:20.000Z</time>
      </trkpt>
      <trkpt lat="46.31729" lon="6.07821">
        <ele>521</ele>
        <time>2019-10-05T14:53:22.000Z</time>
      </trkpt>
      <trkpt lat="46.31707" lon="6.0786">
        <ele>520.79998779297</ele>
        <time>2019-10-05T14:53:26.000Z</time>
      </trkpt>
      <trkpt lat="46.31701" lon="6.0787">
        <ele>520.59997558594</ele>
        <time>2019-10-05T14:53:27.000Z</time>
      </trkpt>
      <trkpt lat="46.31684" lon="6.07898">
        <ele>520.40002441406</ele>
        <time>2019-10-05T14:53:30.000Z</time>
      </trkpt>
      <trkpt lat="46.31679" lon="6.07906">
        <ele>520.40002441406</ele>
        <time>2019-10-05T14:53:31.000Z</time>
      </trkpt>
      <trkpt lat="46.31672" lon="6.07914">
        <ele>520.20001220703</ele>
        <time>2019-10-05T14:53:32.000Z</time>
      </trkpt>
      <trkpt lat="46.31657" lon="6.07925">
        <ele>519.79998779297</ele>
        <time>2019-10-05T14:53:34.000Z</time>
      </trkpt>
      <trkpt lat="46.31641" lon="6.07935">
        <ele>519.40002441406</ele>
        <time>2019-10-05T14:53:36.000Z</time>
      </trkpt>
      <trkpt lat="46.3161" lon="6.07948">
        <ele>518.79998779297</ele>
        <time>2019-10-05T14:53:40.000Z</time>
      </trkpt>
      <trkpt lat="46.31603" lon="6.07951">
        <ele>518.59997558594</ele>
        <time>2019-10-05T14:53:41.000Z</time>
      </trkpt>
      <trkpt lat="46.31588" lon="6.07957">
        <ele>518</ele>
        <time>2019-10-05T14:53:44.000Z</time>
      </trkpt>
      <trkpt lat="46.31572" lon="6.07948">
        <ele>517.79998779297</ele>
        <time>2019-10-05T14:53:48.000Z</time>
      </trkpt>
      <trkpt lat="46.31568" lon="6.07943">
        <ele>518</ele>
        <time>2019-10-05T14:53:49.000Z</time>
      </trkpt>
      <trkpt lat="46.3155" lon="6.07916">
        <ele>518</ele>
        <time>2019-10-05T14:53:53.000Z</time>
      </trkpt>
      <trkpt lat="46.3151" lon="6.07857">
        <ele>517.40002441406</ele>
        <time>2019-10-05T14:54:01.000Z</time>
      </trkpt>
      <trkpt lat="46.31475" lon="6.07806">
        <ele>517</ele>
        <time>2019-10-05T14:54:08.000Z</time>
      </trkpt>
      <trkpt lat="46.3146" lon="6.07784">
        <ele>517.20001220703</ele>
        <time>2019-10-05T14:54:11.000Z</time>
      </trkpt>
      <trkpt lat="46.31439" lon="6.07753">
        <ele>517.40002441406</ele>
        <time>2019-10-05T14:54:15.000Z</time>
      </trkpt>
      <trkpt lat="46.31397" lon="6.07691">
        <ele>517.79998779297</ele>
        <time>2019-10-05T14:54:23.000Z</time>
      </trkpt>
      <trkpt lat="46.31356" lon="6.07631">
        <ele>518</ele>
        <time>2019-10-05T14:54:31.000Z</time>
      </trkpt>
      <trkpt lat="46.31351" lon="6.07624">
        <ele>518</ele>
        <time>2019-10-05T14:54:32.000Z</time>
      </trkpt>
      <trkpt lat="46.31337" lon="6.07606">
        <ele>518.20001220703</ele>
        <time>2019-10-05T14:54:35.000Z</time>
      </trkpt>
      <trkpt lat="46.31327" lon="6.07597">
        <ele>518.20001220703</ele>
        <time>2019-10-05T14:54:37.000Z</time>
      </trkpt>
      <trkpt lat="46.31316" lon="6.07582">
        <ele>518.20001220703</ele>
        <time>2019-10-05T14:54:40.000Z</time>
      </trkpt>
      <trkpt lat="46.31313" lon="6.07575">
        <ele>518.40002441406</ele>
        <time>2019-10-05T14:54:41.000Z</time>
      </trkpt>
      <trkpt lat="46.31308" lon="6.07555">
        <ele>518.79998779297</ele>
        <time>2019-10-05T14:54:44.000Z</time>
      </trkpt>
      <trkpt lat="46.31305" lon="6.07549">
        <ele>518.79998779297</ele>
        <time>2019-10-05T14:54:45.000Z</time>
      </trkpt>
      <trkpt lat="46.31288" lon="6.07537">
        <ele>518.40002441406</ele>
        <time>2019-10-05T14:54:49.000Z</time>
      </trkpt>
      <trkpt lat="46.31274" lon="6.07549">
        <ele>517.59997558594</ele>
        <time>2019-10-05T14:54:52.000Z</time>
      </trkpt>
      <trkpt lat="46.31266" lon="6.07573">
        <ele>516.79998779297</ele>
        <time>2019-10-05T14:54:55.000Z</time>
      </trkpt>
      <trkpt lat="46.31254" lon="6.07596">
        <ele>516</ele>
        <time>2019-10-05T14:54:58.000Z</time>
      </trkpt>
      <trkpt lat="46.31249" lon="6.07602">
        <ele>516</ele>
        <time>2019-10-05T14:54:59.000Z</time>
      </trkpt>
      <trkpt lat="46.31219" lon="6.07637">
        <ele>516</ele>
        <time>2019-10-05T14:55:04.000Z</time>
      </trkpt>
      <trkpt lat="46.31206" lon="6.07651">
        <ele>515.40002441406</ele>
        <time>2019-10-05T14:55:06.000Z</time>
      </trkpt>
      <trkpt lat="46.31186" lon="6.07675">
        <ele>514.59997558594</ele>
        <time>2019-10-05T14:55:09.000Z</time>
      </trkpt>
      <trkpt lat="46.31165" lon="6.07698">
        <ele>513.40002441406</ele>
        <time>2019-10-05T14:55:12.000Z</time>
      </trkpt>
      <trkpt lat="46.31158" lon="6.07706">
        <ele>512.79998779297</ele>
        <time>2019-10-05T14:55:13.000Z</time>
      </trkpt>
      <trkpt lat="46.31118" lon="6.07754">
        <ele>510.39999389648</ele>
        <time>2019-10-05T14:55:19.000Z</time>
      </trkpt>
      <trkpt lat="46.31112" lon="6.07763">
        <ele>509.79998779297</ele>
        <time>2019-10-05T14:55:20.000Z</time>
      </trkpt>
      <trkpt lat="46.31101" lon="6.07784">
        <ele>509.60000610352</ele>
        <time>2019-10-05T14:55:22.000Z</time>
      </trkpt>
      <trkpt lat="46.31092" lon="6.07807">
        <ele>510</ele>
        <time>2019-10-05T14:55:24.000Z</time>
      </trkpt>
      <trkpt lat="46.31085" lon="6.07833">
        <ele>510</ele>
        <time>2019-10-05T14:55:26.000Z</time>
      </trkpt>
      <trkpt lat="46.3108" lon="6.0786">
        <ele>510</ele>
        <time>2019-10-05T14:55:28.000Z</time>
      </trkpt>
      <trkpt lat="46.31074" lon="6.07901">
        <ele>510</ele>
        <time>2019-10-05T14:55:31.000Z</time>
      </trkpt>
      <trkpt lat="46.31063" lon="6.07969">
        <ele>508.20001220703</ele>
        <time>2019-10-05T14:55:36.000Z</time>
      </trkpt>
      <trkpt lat="46.31052" lon="6.08021">
        <ele>505.79998779297</ele>
        <time>2019-10-05T14:55:40.000Z</time>
      </trkpt>
      <trkpt lat="46.31042" lon="6.0806">
        <ele>504.79998779297</ele>
        <time>2019-10-05T14:55:43.000Z</time>
      </trkpt>
      <trkpt lat="46.31024" lon="6.08138">
        <ele>504.20001220703</ele>
        <time>2019-10-05T14:55:49.000Z</time>
      </trkpt>
      <trkpt lat="46.31018" lon="6.08163">
        <ele>504</ele>
        <time>2019-10-05T14:55:51.000Z</time>
      </trkpt>
      <trkpt lat="46.31015" lon="6.08176">
        <ele>503.79998779297</ele>
        <time>2019-10-05T14:55:52.000Z</time>
      </trkpt>
      <trkpt lat="46.31001" lon="6.08226">
        <ele>502.79998779297</ele>
        <time>2019-10-05T14:55:56.000Z</time>
      </trkpt>
      <trkpt lat="46.30989" lon="6.0826">
        <ele>502.20001220703</ele>
        <time>2019-10-05T14:55:59.000Z</time>
      </trkpt>
      <trkpt lat="46.30955" lon="6.08334">
        <ele>502.79998779297</ele>
        <time>2019-10-05T14:56:06.000Z</time>
      </trkpt>
      <trkpt lat="46.30918" lon="6.08395">
        <ele>503.20001220703</ele>
        <time>2019-10-05T14:56:13.000Z</time>
      </trkpt>
      <trkpt lat="46.30899" lon="6.0842">
        <ele>502.79998779297</ele>
        <time>2019-10-05T14:56:16.000Z</time>
      </trkpt>
      <trkpt lat="46.30867" lon="6.08461">
        <ele>501.79998779297</ele>
        <time>2019-10-05T14:56:21.000Z</time>
      </trkpt>
      <trkpt lat="46.3086" lon="6.08469">
        <ele>502</ele>
        <time>2019-10-05T14:56:22.000Z</time>
      </trkpt>
      <trkpt lat="46.30833" lon="6.08501">
        <ele>501.60000610352</ele>
        <time>2019-10-05T14:56:26.000Z</time>
      </trkpt>
      <trkpt lat="46.30811" lon="6.08527">
        <ele>500</ele>
        <time>2019-10-05T14:56:29.000Z</time>
      </trkpt>
      <trkpt lat="46.30789" lon="6.08555">
        <ele>497.39999389648</ele>
        <time>2019-10-05T14:56:32.000Z</time>
      </trkpt>
      <trkpt lat="46.30774" lon="6.08575">
        <ele>495.79998779297</ele>
        <time>2019-10-05T14:56:34.000Z</time>
      </trkpt>
      <trkpt lat="46.30758" lon="6.08595">
        <ele>494.39999389648</ele>
        <time>2019-10-05T14:56:36.000Z</time>
      </trkpt>
      <trkpt lat="46.30742" lon="6.08617">
        <ele>493.60000610352</ele>
        <time>2019-10-05T14:56:38.000Z</time>
      </trkpt>
      <trkpt lat="46.30726" lon="6.08638">
        <ele>492.79998779297</ele>
        <time>2019-10-05T14:56:40.000Z</time>
      </trkpt>
      <trkpt lat="46.30703" lon="6.0867">
        <ele>491.39999389648</ele>
        <time>2019-10-05T14:56:43.000Z</time>
      </trkpt>
      <trkpt lat="46.30696" lon="6.0868">
        <ele>490.79998779297</ele>
        <time>2019-10-05T14:56:44.000Z</time>
      </trkpt>
      <trkpt lat="46.30667" lon="6.08718">
        <ele>490.20001220703</ele>
        <time>2019-10-05T14:56:48.000Z</time>
      </trkpt>
      <trkpt lat="46.30638" lon="6.08754">
        <ele>489.20001220703</ele>
        <time>2019-10-05T14:56:52.000Z</time>
      </trkpt>
      <trkpt lat="46.30594" lon="6.08803">
        <ele>486.79998779297</ele>
        <time>2019-10-05T14:56:58.000Z</time>
      </trkpt>
      <trkpt lat="46.30579" lon="6.08819">
        <ele>486.39999389648</ele>
        <time>2019-10-05T14:57:00.000Z</time>
      </trkpt>
      <trkpt lat="46.30541" lon="6.08857">
        <ele>486.20001220703</ele>
        <time>2019-10-05T14:57:05.000Z</time>
      </trkpt>
      <trkpt lat="46.30512" lon="6.08889">
        <ele>487</ele>
        <time>2019-10-05T14:57:09.000Z</time>
      </trkpt>
      <trkpt lat="46.3049" lon="6.08915">
        <ele>487.60000610352</ele>
        <time>2019-10-05T14:57:12.000Z</time>
      </trkpt>
      <trkpt lat="46.30446" lon="6.08968">
        <ele>487.20001220703</ele>
        <time>2019-10-05T14:57:18.000Z</time>
      </trkpt>
      <trkpt lat="46.30408" lon="6.09025">
        <ele>485.20001220703</ele>
        <time>2019-10-05T14:57:24.000Z</time>
      </trkpt>
      <trkpt lat="46.30402" lon="6.09036">
        <ele>485</ele>
        <time>2019-10-05T14:57:25.000Z</time>
      </trkpt>
      <trkpt lat="46.30365" lon="6.09108">
        <ele>482.79998779297</ele>
        <time>2019-10-05T14:57:32.000Z</time>
      </trkpt>
      <trkpt lat="46.3036" lon="6.09118">
        <ele>482.39999389648</ele>
        <time>2019-10-05T14:57:33.000Z</time>
      </trkpt>
      <trkpt lat="46.3034" lon="6.0916">
        <ele>481.39999389648</ele>
        <time>2019-10-05T14:57:37.000Z</time>
      </trkpt>
      <trkpt lat="46.30323" lon="6.0919">
        <ele>481.20001220703</ele>
        <time>2019-10-05T14:57:40.000Z</time>
      </trkpt>
      <trkpt lat="46.30307" lon="6.09218">
        <ele>480.79998779297</ele>
        <time>2019-10-05T14:57:43.000Z</time>
      </trkpt>
      <trkpt lat="46.30285" lon="6.09254">
        <ele>479.60000610352</ele>
        <time>2019-10-05T14:57:47.000Z</time>
      </trkpt>
      <trkpt lat="46.30279" lon="6.09263">
        <ele>479.39999389648</ele>
        <time>2019-10-05T14:57:48.000Z</time>
      </trkpt>
      <trkpt lat="46.30238" lon="6.09325">
        <ele>477</ele>
        <time>2019-10-05T14:57:55.000Z</time>
      </trkpt>
      <trkpt lat="46.30221" lon="6.09351">
        <ele>477.60000610352</ele>
        <time>2019-10-05T14:57:58.000Z</time>
      </trkpt>
      <trkpt lat="46.30216" lon="6.0936">
        <ele>477.79998779297</ele>
        <time>2019-10-05T14:57:59.000Z</time>
      </trkpt>
      <trkpt lat="46.30176" lon="6.09421">
        <ele>476.39999389648</ele>
        <time>2019-10-05T14:58:06.000Z</time>
      </trkpt>
      <trkpt lat="46.30171" lon="6.09429">
        <ele>476.20001220703</ele>
        <time>2019-10-05T14:58:07.000Z</time>
      </trkpt>
      <trkpt lat="46.30158" lon="6.09451">
        <ele>476.20001220703</ele>
        <time>2019-10-05T14:58:10.000Z</time>
      </trkpt>
      <trkpt lat="46.30148" lon="6.09467">
        <ele>476</ele>
        <time>2019-10-05T14:58:12.000Z</time>
      </trkpt>
      <trkpt lat="46.30136" lon="6.09483">
        <ele>476</ele>
        <time>2019-10-05T14:58:14.000Z</time>
      </trkpt>
      <trkpt lat="46.30105" lon="6.09526">
        <ele>476.60000610352</ele>
        <time>2019-10-05T14:58:20.000Z</time>
      </trkpt>
      <trkpt lat="46.30101" lon="6.0953">
        <ele>476.79998779297</ele>
        <time>2019-10-05T14:58:21.000Z</time>
      </trkpt>
      <trkpt lat="46.30091" lon="6.09535">
        <ele>476.79998779297</ele>
        <time>2019-10-05T14:58:24.000Z</time>
      </trkpt>
      <trkpt lat="46.30079" lon="6.0953">
        <ele>476.39999389648</ele>
        <time>2019-10-05T14:58:28.000Z</time>
      </trkpt>
      <trkpt lat="46.30063" lon="6.0951">
        <ele>475.79998779297</ele>
        <time>2019-10-05T14:58:32.000Z</time>
      </trkpt>
      <trkpt lat="46.30058" lon="6.09505">
        <ele>475.60000610352</ele>
        <time>2019-10-05T14:58:33.000Z</time>
      </trkpt>
      <trkpt lat="46.30042" lon="6.09485">
        <ele>475.20001220703</ele>
        <time>2019-10-05T14:58:36.000Z</time>
      </trkpt>
      <trkpt lat="46.30018" lon="6.09456">
        <ele>475</ele>
        <time>2019-10-05T14:58:40.000Z</time>
      </trkpt>
      <trkpt lat="46.30012" lon="6.09448">
        <ele>475</ele>
        <time>2019-10-05T14:58:41.000Z</time>
      </trkpt>
      <trkpt lat="46.29981" lon="6.09399">
        <ele>475</ele>
        <time>2019-10-05T14:58:47.000Z</time>
      </trkpt>
      <trkpt lat="46.29953" lon="6.09349">
        <ele>476</ele>
        <time>2019-10-05T14:58:53.000Z</time>
      </trkpt>
      <trkpt lat="46.29939" lon="6.09328">
        <ele>476.39999389648</ele>
        <time>2019-10-05T14:58:56.000Z</time>
      </trkpt>
      <trkpt lat="46.29933" lon="6.09323">
        <ele>476.60000610352</ele>
        <time>2019-10-05T14:58:57.000Z</time>
      </trkpt>
      <trkpt lat="46.29913" lon="6.09317">
        <ele>477.39999389648</ele>
        <time>2019-10-05T14:59:00.000Z</time>
      </trkpt>
      <trkpt lat="46.29906" lon="6.09317">
        <ele>477.60000610352</ele>
        <time>2019-10-05T14:59:01.000Z</time>
      </trkpt>
      <trkpt lat="46.29852" lon="6.09316">
        <ele>477.39999389648</ele>
        <time>2019-10-05T14:59:08.000Z</time>
      </trkpt>
      <trkpt lat="46.29821" lon="6.09315">
        <ele>477</ele>
        <time>2019-10-05T14:59:12.000Z</time>
      </trkpt>
      <trkpt lat="46.29798" lon="6.09311">
        <ele>476.20001220703</ele>
        <time>2019-10-05T14:59:15.000Z</time>
      </trkpt>
      <trkpt lat="46.29768" lon="6.09293">
        <ele>474.79998779297</ele>
        <time>2019-10-05T14:59:19.000Z</time>
      </trkpt>
      <trkpt lat="46.29745" lon="6.09262">
        <ele>473.79998779297</ele>
        <time>2019-10-05T14:59:23.000Z</time>
      </trkpt>
      <trkpt lat="46.2974" lon="6.09253">
        <ele>473.39999389648</ele>
        <time>2019-10-05T14:59:24.000Z</time>
      </trkpt>
      <trkpt lat="46.29723" lon="6.09228">
        <ele>473.20001220703</ele>
        <time>2019-10-05T14:59:27.000Z</time>
      </trkpt>
      <trkpt lat="46.2971" lon="6.09214">
        <ele>473.60000610352</ele>
        <time>2019-10-05T14:59:29.000Z</time>
      </trkpt>
      <trkpt lat="46.29681" lon="6.09197">
        <ele>474.60000610352</ele>
        <time>2019-10-05T14:59:33.000Z</time>
      </trkpt>
      <trkpt lat="46.29674" lon="6.09195">
        <ele>474.79998779297</ele>
        <time>2019-10-05T14:59:34.000Z</time>
      </trkpt>
      <trkpt lat="46.29657" lon="6.0919">
        <ele>475.20001220703</ele>
        <time>2019-10-05T14:59:36.000Z</time>
      </trkpt>
      <trkpt lat="46.29617" lon="6.09181">
        <ele>475.20001220703</ele>
        <time>2019-10-05T14:59:41.000Z</time>
      </trkpt>
      <trkpt lat="46.29565" lon="6.09168">
        <ele>475.79998779297</ele>
        <time>2019-10-05T14:59:48.000Z</time>
      </trkpt>
      <trkpt lat="46.2955" lon="6.09164">
        <ele>475.79998779297</ele>
        <time>2019-10-05T14:59:50.000Z</time>
      </trkpt>
      <trkpt lat="46.29523" lon="6.09156">
        <ele>475.39999389648</ele>
        <time>2019-10-05T14:59:54.000Z</time>
      </trkpt>
      <trkpt lat="46.29511" lon="6.09153">
        <ele>475.39999389648</ele>
        <time>2019-10-05T14:59:56.000Z</time>
      </trkpt>
      <trkpt lat="46.29498" lon="6.0915">
        <ele>475.20001220703</ele>
        <time>2019-10-05T14:59:58.000Z</time>
      </trkpt>
      <trkpt lat="46.29462" lon="6.0914">
        <ele>476</ele>
        <time>2019-10-05T15:00:04.000Z</time>
      </trkpt>
      <trkpt lat="46.29416" lon="6.09127">
        <ele>478.20001220703</ele>
        <time>2019-10-05T15:00:12.000Z</time>
      </trkpt>
      <trkpt lat="46.29381" lon="6.09113">
        <ele>479.39999389648</ele>
        <time>2019-10-05T15:00:18.000Z</time>
      </trkpt>
      <trkpt lat="46.29371" lon="6.09105">
        <ele>479.39999389648</ele>
        <time>2019-10-05T15:00:20.000Z</time>
      </trkpt>
      <trkpt lat="46.29334" lon="6.09072">
        <ele>479.79998779297</ele>
        <time>2019-10-05T15:00:27.000Z</time>
      </trkpt>
      <trkpt lat="46.29324" lon="6.09061">
        <ele>480</ele>
        <time>2019-10-05T15:00:29.000Z</time>
      </trkpt>
      <trkpt lat="46.29307" lon="6.09033">
        <ele>479.39999389648</ele>
        <time>2019-10-05T15:00:33.000Z</time>
      </trkpt>
      <trkpt lat="46.29275" lon="6.08974">
        <ele>478</ele>
        <time>2019-10-05T15:00:41.000Z</time>
      </trkpt>
      <trkpt lat="46.29241" lon="6.08931">
        <ele>478</ele>
        <time>2019-10-05T15:00:48.000Z</time>
      </trkpt>
      <trkpt lat="46.29206" lon="6.08906">
        <ele>478.60000610352</ele>
        <time>2019-10-05T15:00:54.000Z</time>
      </trkpt>
      <trkpt lat="46.29157" lon="6.08877">
        <ele>479.39999389648</ele>
        <time>2019-10-05T15:01:02.000Z</time>
      </trkpt>
      <trkpt lat="46.29105" lon="6.08838">
        <ele>479.60000610352</ele>
        <time>2019-10-05T15:01:11.000Z</time>
      </trkpt>
      <trkpt lat="46.29089" lon="6.08826">
        <ele>479.79998779297</ele>
        <time>2019-10-05T15:01:14.000Z</time>
      </trkpt>
      <trkpt lat="46.29068" lon="6.08812">
        <ele>480</ele>
        <time>2019-10-05T15:01:18.000Z</time>
      </trkpt>
      <trkpt lat="46.29063" lon="6.08809">
        <ele>480</ele>
        <time>2019-10-05T15:01:19.000Z</time>
      </trkpt>
      <trkpt lat="46.29058" lon="6.08807">
        <ele>480.20001220703</ele>
        <time>2019-10-05T15:01:20.000Z</time>
      </trkpt>
      <trkpt lat="46.29048" lon="6.08803">
        <ele>480.39999389648</ele>
        <time>2019-10-05T15:01:22.000Z</time>
      </trkpt>
      <trkpt lat="46.29044" lon="6.08799">
        <ele>480.60000610352</ele>
        <time>2019-10-05T15:01:23.000Z</time>
      </trkpt>
      <trkpt lat="46.29039" lon="6.08796">
        <ele>480.60000610352</ele>
        <time>2019-10-05T15:01:24.000Z</time>
      </trkpt>
      <trkpt lat="46.29026" lon="6.08786">
        <ele>481</ele>
        <time>2019-10-05T15:01:27.000Z</time>
      </trkpt>
      <trkpt lat="46.29016" lon="6.0878">
        <ele>481.39999389648</ele>
        <time>2019-10-05T15:01:29.000Z</time>
      </trkpt>
      <trkpt lat="46.29011" lon="6.08778">
        <ele>481.60000610352</ele>
        <time>2019-10-05T15:01:30.000Z</time>
      </trkpt>
      <trkpt lat="46.28994" lon="6.0878">
        <ele>482.20001220703</ele>
        <time>2019-10-05T15:01:33.000Z</time>
      </trkpt>
      <trkpt lat="46.28979" lon="6.08792">
        <ele>482.79998779297</ele>
        <time>2019-10-05T15:01:36.000Z</time>
      </trkpt>
      <trkpt lat="46.28973" lon="6.08795">
        <ele>483</ele>
        <time>2019-10-05T15:01:37.000Z</time>
      </trkpt>
      <trkpt lat="46.2894" lon="6.08813">
        <ele>483</ele>
        <time>2019-10-05T15:01:43.000Z</time>
      </trkpt>
      <trkpt lat="46.28909" lon="6.08826">
        <ele>483.39999389648</ele>
        <time>2019-10-05T15:01:48.000Z</time>
      </trkpt>
      <trkpt lat="46.28901" lon="6.08826">
        <ele>483.20001220703</ele>
        <time>2019-10-05T15:01:49.000Z</time>
      </trkpt>
      <trkpt lat="46.28882" lon="6.08817">
        <ele>483</ele>
        <time>2019-10-05T15:01:52.000Z</time>
      </trkpt>
      <trkpt lat="46.28863" lon="6.0879">
        <ele>482.79998779297</ele>
        <time>2019-10-05T15:01:56.000Z</time>
      </trkpt>
      <trkpt lat="46.2883" lon="6.08731">
        <ele>483.20001220703</ele>
        <time>2019-10-05T15:02:04.000Z</time>
      </trkpt>
      <trkpt lat="46.2881" lon="6.08688">
        <ele>482.60000610352</ele>
        <time>2019-10-05T15:02:10.000Z</time>
      </trkpt>
      <trkpt lat="46.28784" lon="6.0865">
        <ele>481.79998779297</ele>
        <time>2019-10-05T15:02:16.000Z</time>
      </trkpt>
      <trkpt lat="46.28749" lon="6.08604">
        <ele>480.79998779297</ele>
        <time>2019-10-05T15:02:23.000Z</time>
      </trkpt>
      <trkpt lat="46.28739" lon="6.08592">
        <ele>480.39999389648</ele>
        <time>2019-10-05T15:02:25.000Z</time>
      </trkpt>
      <trkpt lat="46.28723" lon="6.08571">
        <ele>480</ele>
        <time>2019-10-05T15:02:29.000Z</time>
      </trkpt>
      <trkpt lat="46.28716" lon="6.08558">
        <ele>479.79998779297</ele>
        <time>2019-10-05T15:02:33.000Z</time>
      </trkpt>
      <trkpt lat="46.2871" lon="6.08546">
        <ele>479.60000610352</ele>
        <time>2019-10-05T15:02:39.000Z</time>
      </trkpt>
      <trkpt lat="46.28707" lon="6.08545">
        <ele>479.60000610352</ele>
        <time>2019-10-05T15:03:06.000Z</time>
      </trkpt>
      <trkpt lat="46.28705" lon="6.08549">
        <ele>479.60000610352</ele>
        <time>2019-10-05T15:03:08.000Z</time>
      </trkpt>
      <trkpt lat="46.28705" lon="6.08552">
        <ele>479.60000610352</ele>
        <time>2019-10-05T15:03:09.000Z</time>
      </trkpt>
      <trkpt lat="46.28711" lon="6.08562">
        <ele>479.79998779297</ele>
        <time>2019-10-05T15:03:13.000Z</time>
      </trkpt>
      <trkpt lat="46.28712" lon="6.08564">
        <ele>479.79998779297</ele>
        <time>2019-10-05T15:03:14.000Z</time>
      </trkpt>
      <trkpt lat="46.28714" lon="6.08567">
        <ele>479.79998779297</ele>
        <time>2019-10-05T15:03:15.000Z</time>
      </trkpt>
      <trkpt lat="46.28719" lon="6.08574">
        <ele>480</ele>
        <time>2019-10-05T15:03:18.000Z</time>
      </trkpt>
      <trkpt lat="46.28734" lon="6.08593">
        <ele>480.39999389648</ele>
        <time>2019-10-05T15:03:24.000Z</time>
      </trkpt>
      <trkpt lat="46.28749" lon="6.08612">
        <ele>480.79998779297</ele>
        <time>2019-10-05T15:03:28.000Z</time>
      </trkpt>
      <trkpt lat="46.28778" lon="6.08651">
        <ele>481.60000610352</ele>
        <time>2019-10-05T15:03:35.000Z</time>
      </trkpt>
      <trkpt lat="46.28798" lon="6.08678">
        <ele>482.20001220703</ele>
        <time>2019-10-05T15:03:40.000Z</time>
      </trkpt>
      <trkpt lat="46.28801" lon="6.08683">
        <ele>482.39999389648</ele>
        <time>2019-10-05T15:03:41.000Z</time>
      </trkpt>
      <trkpt lat="46.2881" lon="6.087">
        <ele>482.60000610352</ele>
        <time>2019-10-05T15:03:44.000Z</time>
      </trkpt>
      <trkpt lat="46.28819" lon="6.08717">
        <ele>483</ele>
        <time>2019-10-05T15:03:47.000Z</time>
      </trkpt>
      <trkpt lat="46.28836" lon="6.08746">
        <ele>483</ele>
        <time>2019-10-05T15:03:52.000Z</time>
      </trkpt>
      <trkpt lat="46.28852" lon="6.08777">
        <ele>482.79998779297</ele>
        <time>2019-10-05T15:03:57.000Z</time>
      </trkpt>
      <trkpt lat="46.28876" lon="6.08816">
        <ele>482.79998779297</ele>
        <time>2019-10-05T15:04:04.000Z</time>
      </trkpt>
      <trkpt lat="46.28879" lon="6.0882">
        <ele>483</ele>
        <time>2019-10-05T15:04:05.000Z</time>
      </trkpt>
      <trkpt lat="46.28892" lon="6.0883">
        <ele>483.20001220703</ele>
        <time>2019-10-05T15:04:08.000Z</time>
      </trkpt>
      <trkpt lat="46.28897" lon="6.08833">
        <ele>483.20001220703</ele>
        <time>2019-10-05T15:04:09.000Z</time>
      </trkpt>
      <trkpt lat="46.28913" lon="6.08833">
        <ele>483.39999389648</ele>
        <time>2019-10-05T15:04:12.000Z</time>
      </trkpt>
      <trkpt lat="46.28924" lon="6.08828">
        <ele>483.39999389648</ele>
        <time>2019-10-05T15:04:14.000Z</time>
      </trkpt>
      <trkpt lat="46.28941" lon="6.08819">
        <ele>483.20001220703</ele>
        <time>2019-10-05T15:04:17.000Z</time>
      </trkpt>
      <trkpt lat="46.28965" lon="6.08807">
        <ele>483</ele>
        <time>2019-10-05T15:04:21.000Z</time>
      </trkpt>
      <trkpt lat="46.28978" lon="6.08803">
        <ele>483</ele>
        <time>2019-10-05T15:04:23.000Z</time>
      </trkpt>
      <trkpt lat="46.28993" lon="6.08801">
        <ele>482.39999389648</ele>
        <time>2019-10-05T15:04:25.000Z</time>
      </trkpt>
      <trkpt lat="46.29024" lon="6.08802">
        <ele>481.39999389648</ele>
        <time>2019-10-05T15:04:29.000Z</time>
      </trkpt>
      <trkpt lat="46.29048" lon="6.08809">
        <ele>480.60000610352</ele>
        <time>2019-10-05T15:04:32.000Z</time>
      </trkpt>
      <trkpt lat="46.29064" lon="6.08816">
        <ele>480.20001220703</ele>
        <time>2019-10-05T15:04:34.000Z</time>
      </trkpt>
      <trkpt lat="46.2908" lon="6.08826">
        <ele>480</ele>
        <time>2019-10-05T15:04:36.000Z</time>
      </trkpt>
      <trkpt lat="46.29104" lon="6.08844">
        <ele>479.79998779297</ele>
        <time>2019-10-05T15:04:39.000Z</time>
      </trkpt>
      <trkpt lat="46.2916" lon="6.08886">
        <ele>479.60000610352</ele>
        <time>2019-10-05T15:04:46.000Z</time>
      </trkpt>
      <trkpt lat="46.29175" lon="6.08896">
        <ele>479.39999389648</ele>
        <time>2019-10-05T15:04:48.000Z</time>
      </trkpt>
      <trkpt lat="46.29183" lon="6.08901">
        <ele>479.20001220703</ele>
        <time>2019-10-05T15:04:49.000Z</time>
      </trkpt>
      <trkpt lat="46.29228" lon="6.08929">
        <ele>478</ele>
        <time>2019-10-05T15:04:55.000Z</time>
      </trkpt>
      <trkpt lat="46.29261" lon="6.08962">
        <ele>478</ele>
        <time>2019-10-05T15:05:00.000Z</time>
      </trkpt>
      <trkpt lat="46.29286" lon="6.09004">
        <ele>478.60000610352</ele>
        <time>2019-10-05T15:05:05.000Z</time>
      </trkpt>
      <trkpt lat="46.2932" lon="6.09064">
        <ele>480</ele>
        <time>2019-10-05T15:05:12.000Z</time>
      </trkpt>
      <trkpt lat="46.29326" lon="6.09072">
        <ele>479.79998779297</ele>
        <time>2019-10-05T15:05:13.000Z</time>
      </trkpt>
      <trkpt lat="46.29344" lon="6.09093">
        <ele>479.60000610352</ele>
        <time>2019-10-05T15:05:16.000Z</time>
      </trkpt>
      <trkpt lat="46.29364" lon="6.0911">
        <ele>479.39999389648</ele>
        <time>2019-10-05T15:05:19.000Z</time>
      </trkpt>
      <trkpt lat="46.29408" lon="6.09133">
        <ele>478.60000610352</ele>
        <time>2019-10-05T15:05:25.000Z</time>
      </trkpt>
      <trkpt lat="46.29457" lon="6.09146">
        <ele>476.20001220703</ele>
        <time>2019-10-05T15:05:31.000Z</time>
      </trkpt>
      <trkpt lat="46.29475" lon="6.0915">
        <ele>475.60000610352</ele>
        <time>2019-10-05T15:05:33.000Z</time>
      </trkpt>
      <trkpt lat="46.29492" lon="6.09155">
        <ele>475.39999389648</ele>
        <time>2019-10-05T15:05:35.000Z</time>
      </trkpt>
      <trkpt lat="46.29545" lon="6.09169">
        <ele>476</ele>
        <time>2019-10-05T15:05:41.000Z</time>
      </trkpt>
      <trkpt lat="46.29554" lon="6.09171">
        <ele>476</ele>
        <time>2019-10-05T15:05:42.000Z</time>
      </trkpt>
      <trkpt lat="46.29572" lon="6.09175">
        <ele>475.79998779297</ele>
        <time>2019-10-05T15:05:44.000Z</time>
      </trkpt>
      <trkpt lat="46.29626" lon="6.09189">
        <ele>475.20001220703</ele>
        <time>2019-10-05T15:05:50.000Z</time>
      </trkpt>
      <trkpt lat="46.29634" lon="6.09191">
        <ele>475.20001220703</ele>
        <time>2019-10-05T15:05:51.000Z</time>
      </trkpt>
      <trkpt lat="46.29675" lon="6.09202">
        <ele>474.60000610352</ele>
        <time>2019-10-05T15:05:56.000Z</time>
      </trkpt>
      <trkpt lat="46.29683" lon="6.09205">
        <ele>474.39999389648</ele>
        <time>2019-10-05T15:05:57.000Z</time>
      </trkpt>
      <trkpt lat="46.29705" lon="6.09218">
        <ele>473.79998779297</ele>
        <time>2019-10-05T15:06:00.000Z</time>
      </trkpt>
      <trkpt lat="46.29712" lon="6.09224">
        <ele>473.39999389648</ele>
        <time>2019-10-05T15:06:01.000Z</time>
      </trkpt>
      <trkpt lat="46.29735" lon="6.09255">
        <ele>473.20001220703</ele>
        <time>2019-10-05T15:06:05.000Z</time>
      </trkpt>
      <trkpt lat="46.29756" lon="6.09288">
        <ele>474.20001220703</ele>
        <time>2019-10-05T15:06:09.000Z</time>
      </trkpt>
      <trkpt lat="46.29768" lon="6.09302">
        <ele>474.79998779297</ele>
        <time>2019-10-05T15:06:11.000Z</time>
      </trkpt>
      <trkpt lat="46.29774" lon="6.09307">
        <ele>475.20001220703</ele>
        <time>2019-10-05T15:06:12.000Z</time>
      </trkpt>
      <trkpt lat="46.29795" lon="6.09319">
        <ele>475.79998779297</ele>
        <time>2019-10-05T15:06:15.000Z</time>
      </trkpt>
      <trkpt lat="46.29823" lon="6.09323">
        <ele>477</ele>
        <time>2019-10-05T15:06:19.000Z</time>
      </trkpt>
      <trkpt lat="46.2983" lon="6.09323">
        <ele>477</ele>
        <time>2019-10-05T15:06:20.000Z</time>
      </trkpt>
      <trkpt lat="46.29884" lon="6.09326">
        <ele>477.60000610352</ele>
        <time>2019-10-05T15:06:28.000Z</time>
      </trkpt>
      <trkpt lat="46.29923" lon="6.09329">
        <ele>477</ele>
        <time>2019-10-05T15:06:34.000Z</time>
      </trkpt>
      <trkpt lat="46.2993" lon="6.09332">
        <ele>476.79998779297</ele>
        <time>2019-10-05T15:06:35.000Z</time>
      </trkpt>
      <trkpt lat="46.29946" lon="6.09349">
        <ele>476.20001220703</ele>
        <time>2019-10-05T15:06:38.000Z</time>
      </trkpt>
      <trkpt lat="46.29955" lon="6.09365">
        <ele>476</ele>
        <time>2019-10-05T15:06:40.000Z</time>
      </trkpt>
      <trkpt lat="46.29974" lon="6.09397">
        <ele>475.20001220703</ele>
        <time>2019-10-05T15:06:44.000Z</time>
      </trkpt>
      <trkpt lat="46.30012" lon="6.0946">
        <ele>475</ele>
        <time>2019-10-05T15:06:52.000Z</time>
      </trkpt>
      <trkpt lat="46.30032" lon="6.09487">
        <ele>475.20001220703</ele>
        <time>2019-10-05T15:06:56.000Z</time>
      </trkpt>
      <trkpt lat="46.30037" lon="6.09493">
        <ele>475.39999389648</ele>
        <time>2019-10-05T15:06:57.000Z</time>
      </trkpt>
      <trkpt lat="46.30065" lon="6.09525">
        <ele>476.20001220703</ele>
        <time>2019-10-05T15:07:03.000Z</time>
      </trkpt>
      <trkpt lat="46.3007" lon="6.0953">
        <ele>476.39999389648</ele>
        <time>2019-10-05T15:07:04.000Z</time>
      </trkpt>
      <trkpt lat="46.30073" lon="6.09536">
        <ele>476.60000610352</ele>
        <time>2019-10-05T15:07:05.000Z</time>
      </trkpt>
      <trkpt lat="46.3008" lon="6.09549">
        <ele>477</ele>
        <time>2019-10-05T15:07:07.000Z</time>
      </trkpt>
      <trkpt lat="46.30083" lon="6.09556">
        <ele>477.20001220703</ele>
        <time>2019-10-05T15:07:08.000Z</time>
      </trkpt>
      <trkpt lat="46.30099" lon="6.09577">
        <ele>477.39999389648</ele>
        <time>2019-10-05T15:07:12.000Z</time>
      </trkpt>
      <trkpt lat="46.30108" lon="6.09589">
        <ele>477.60000610352</ele>
        <time>2019-10-05T15:07:14.000Z</time>
      </trkpt>
      <trkpt lat="46.30126" lon="6.09612">
        <ele>477.79998779297</ele>
        <time>2019-10-05T15:07:18.000Z</time>
      </trkpt>
      <trkpt lat="46.30151" lon="6.09634">
        <ele>478</ele>
        <time>2019-10-05T15:07:23.000Z</time>
      </trkpt>
      <trkpt lat="46.30182" lon="6.09652">
        <ele>477.39999389648</ele>
        <time>2019-10-05T15:07:28.000Z</time>
      </trkpt>
      <trkpt lat="46.30188" lon="6.09657">
        <ele>477.39999389648</ele>
        <time>2019-10-05T15:07:29.000Z</time>
      </trkpt>
      <trkpt lat="46.3023" lon="6.09689">
        <ele>476.39999389648</ele>
        <time>2019-10-05T15:07:36.000Z</time>
      </trkpt>
      <trkpt lat="46.30242" lon="6.09698">
        <ele>476.39999389648</ele>
        <time>2019-10-05T15:07:38.000Z</time>
      </trkpt>
      <trkpt lat="46.30259" lon="6.097">
        <ele>476.60000610352</ele>
        <time>2019-10-05T15:07:41.000Z</time>
      </trkpt>
      <trkpt lat="46.30271" lon="6.09695">
        <ele>476.79998779297</ele>
        <time>2019-10-05T15:07:43.000Z</time>
      </trkpt>
      <trkpt lat="46.30294" lon="6.09685">
        <ele>477</ele>
        <time>2019-10-05T15:07:47.000Z</time>
      </trkpt>
      <trkpt lat="46.303" lon="6.09684">
        <ele>477</ele>
        <time>2019-10-05T15:07:48.000Z</time>
      </trkpt>
      <trkpt lat="46.30317" lon="6.09691">
        <ele>477</ele>
        <time>2019-10-05T15:07:51.000Z</time>
      </trkpt>
      <trkpt lat="46.30327" lon="6.09704">
        <ele>477.20001220703</ele>
        <time>2019-10-05T15:07:53.000Z</time>
      </trkpt>
      <trkpt lat="46.30342" lon="6.09723">
        <ele>477.39999389648</ele>
        <time>2019-10-05T15:07:56.000Z</time>
      </trkpt>
      <trkpt lat="46.30347" lon="6.09729">
        <ele>477.39999389648</ele>
        <time>2019-10-05T15:07:57.000Z</time>
      </trkpt>
      <trkpt lat="46.30367" lon="6.09756">
        <ele>478</ele>
        <time>2019-10-05T15:08:01.000Z</time>
      </trkpt>
      <trkpt lat="46.30377" lon="6.09768">
        <ele>478.20001220703</ele>
        <time>2019-10-05T15:08:03.000Z</time>
      </trkpt>
      <trkpt lat="46.30394" lon="6.09784">
        <ele>478.60000610352</ele>
        <time>2019-10-05T15:08:06.000Z</time>
      </trkpt>
      <trkpt lat="46.30399" lon="6.0979">
        <ele>478.79998779297</ele>
        <time>2019-10-05T15:08:07.000Z</time>
      </trkpt>
      <trkpt lat="46.3043" lon="6.09823">
        <ele>479</ele>
        <time>2019-10-05T15:08:13.000Z</time>
      </trkpt>
      <trkpt lat="46.3046" lon="6.09849">
        <ele>478.79998779297</ele>
        <time>2019-10-05T15:08:19.000Z</time>
      </trkpt>
      <trkpt lat="46.30465" lon="6.09853">
        <ele>478.79998779297</ele>
        <time>2019-10-05T15:08:20.000Z</time>
      </trkpt>
      <trkpt lat="46.30499" lon="6.09873">
        <ele>478.20001220703</ele>
        <time>2019-10-05T15:08:26.000Z</time>
      </trkpt>
      <trkpt lat="46.30529" lon="6.0989">
        <ele>477.39999389648</ele>
        <time>2019-10-05T15:08:31.000Z</time>
      </trkpt>
      <trkpt lat="46.30535" lon="6.09894">
        <ele>477.39999389648</ele>
        <time>2019-10-05T15:08:32.000Z</time>
      </trkpt>
      <trkpt lat="46.30579" lon="6.09921">
        <ele>477.60000610352</ele>
        <time>2019-10-05T15:08:39.000Z</time>
      </trkpt>
      <trkpt lat="46.3063" lon="6.0995">
        <ele>479.60000610352</ele>
        <time>2019-10-05T15:08:47.000Z</time>
      </trkpt>
      <trkpt lat="46.30636" lon="6.09954">
        <ele>479.79998779297</ele>
        <time>2019-10-05T15:08:48.000Z</time>
      </trkpt>
      <trkpt lat="46.30672" lon="6.09975">
        <ele>480.60000610352</ele>
        <time>2019-10-05T15:08:54.000Z</time>
      </trkpt>
      <trkpt lat="46.30694" lon="6.09988">
        <ele>480.79998779297</ele>
        <time>2019-10-05T15:08:58.000Z</time>
      </trkpt>
      <trkpt lat="46.30716" lon="6.10001">
        <ele>481</ele>
        <time>2019-10-05T15:09:02.000Z</time>
      </trkpt>
      <trkpt lat="46.30731" lon="6.10011">
        <ele>481.20001220703</ele>
        <time>2019-10-05T15:09:05.000Z</time>
      </trkpt>
      <trkpt lat="46.30742" lon="6.10018">
        <ele>481.60000610352</ele>
        <time>2019-10-05T15:09:07.000Z</time>
      </trkpt>
      <trkpt lat="46.3075" lon="6.10027">
        <ele>481.79998779297</ele>
        <time>2019-10-05T15:09:09.000Z</time>
      </trkpt>
      <trkpt lat="46.30755" lon="6.10032">
        <ele>481.79998779297</ele>
        <time>2019-10-05T15:09:10.000Z</time>
      </trkpt>
      <trkpt lat="46.30762" lon="6.10042">
        <ele>482</ele>
        <time>2019-10-05T15:09:12.000Z</time>
      </trkpt>
      <trkpt lat="46.30765" lon="6.10049">
        <ele>482</ele>
        <time>2019-10-05T15:09:13.000Z</time>
      </trkpt>
      <trkpt lat="46.30779" lon="6.10061">
        <ele>482.39999389648</ele>
        <time>2019-10-05T15:09:16.000Z</time>
      </trkpt>
      <trkpt lat="46.30795" lon="6.10062">
        <ele>483</ele>
        <time>2019-10-05T15:09:19.000Z</time>
      </trkpt>
      <trkpt lat="46.308" lon="6.10063">
        <ele>483.39999389648</ele>
        <time>2019-10-05T15:09:20.000Z</time>
      </trkpt>
      <trkpt lat="46.30805" lon="6.10065">
        <ele>483.60000610352</ele>
        <time>2019-10-05T15:09:21.000Z</time>
      </trkpt>
      <trkpt lat="46.3082" lon="6.1007">
        <ele>484.20001220703</ele>
        <time>2019-10-05T15:09:24.000Z</time>
      </trkpt>
      <trkpt lat="46.30825" lon="6.10073">
        <ele>484.20001220703</ele>
        <time>2019-10-05T15:09:25.000Z</time>
      </trkpt>
      <trkpt lat="46.30853" lon="6.1009">
        <ele>485.20001220703</ele>
        <time>2019-10-05T15:09:31.000Z</time>
      </trkpt>
      <trkpt lat="46.30858" lon="6.10093">
        <ele>485.39999389648</ele>
        <time>2019-10-05T15:09:32.000Z</time>
      </trkpt>
      <trkpt lat="46.3088" lon="6.10111">
        <ele>486</ele>
        <time>2019-10-05T15:09:37.000Z</time>
      </trkpt>
      <trkpt lat="46.30894" lon="6.10122">
        <ele>486.39999389648</ele>
        <time>2019-10-05T15:09:40.000Z</time>
      </trkpt>
      <trkpt lat="46.30903" lon="6.1013">
        <ele>486.60000610352</ele>
        <time>2019-10-05T15:09:42.000Z</time>
      </trkpt>
      <trkpt lat="46.30921" lon="6.10146">
        <ele>486.79998779297</ele>
        <time>2019-10-05T15:09:46.000Z</time>
      </trkpt>
      <trkpt lat="46.30943" lon="6.10165">
        <ele>487.20001220703</ele>
        <time>2019-10-05T15:09:51.000Z</time>
      </trkpt>
      <trkpt lat="46.30974" lon="6.10192">
        <ele>487.60000610352</ele>
        <time>2019-10-05T15:09:58.000Z</time>
      </trkpt>
      <trkpt lat="46.30991" lon="6.10208">
        <ele>488.20001220703</ele>
        <time>2019-10-05T15:10:02.000Z</time>
      </trkpt>
      <trkpt lat="46.30996" lon="6.10212">
        <ele>488.39999389648</ele>
        <time>2019-10-05T15:10:03.000Z</time>
      </trkpt>
      <trkpt lat="46.31031" lon="6.10243">
        <ele>490.20001220703</ele>
        <time>2019-10-05T15:10:11.000Z</time>
      </trkpt>
      <trkpt lat="46.31036" lon="6.10247">
        <ele>490.39999389648</ele>
        <time>2019-10-05T15:10:12.000Z</time>
      </trkpt>
      <trkpt lat="46.31071" lon="6.10279">
        <ele>492.20001220703</ele>
        <time>2019-10-05T15:10:20.000Z</time>
      </trkpt>
      <trkpt lat="46.31092" lon="6.10298">
        <ele>493.39999389648</ele>
        <time>2019-10-05T15:10:25.000Z</time>
      </trkpt>
      <trkpt lat="46.31101" lon="6.10305">
        <ele>493.79998779297</ele>
        <time>2019-10-05T15:10:27.000Z</time>
      </trkpt>
      <trkpt lat="46.31114" lon="6.10315">
        <ele>494.39999389648</ele>
        <time>2019-10-05T15:10:30.000Z</time>
      </trkpt>
      <trkpt lat="46.31126" lon="6.10327">
        <ele>495</ele>
        <time>2019-10-05T15:10:33.000Z</time>
      </trkpt>
      <trkpt lat="46.31138" lon="6.10338">
        <ele>495.60000610352</ele>
        <time>2019-10-05T15:10:36.000Z</time>
      </trkpt>
      <trkpt lat="46.31168" lon="6.10366">
        <ele>497.60000610352</ele>
        <time>2019-10-05T15:10:43.000Z</time>
      </trkpt>
      <trkpt lat="46.31176" lon="6.10375">
        <ele>498.20001220703</ele>
        <time>2019-10-05T15:10:45.000Z</time>
      </trkpt>
      <trkpt lat="46.31195" lon="6.10397">
        <ele>499.60000610352</ele>
        <time>2019-10-05T15:10:50.000Z</time>
      </trkpt>
      <trkpt lat="46.31199" lon="6.10402">
        <ele>499.79998779297</ele>
        <time>2019-10-05T15:10:51.000Z</time>
      </trkpt>
      <trkpt lat="46.31209" lon="6.10415">
        <ele>500.79998779297</ele>
        <time>2019-10-05T15:10:54.000Z</time>
      </trkpt>
      <trkpt lat="46.31219" lon="6.10429">
        <ele>501.60000610352</ele>
        <time>2019-10-05T15:10:57.000Z</time>
      </trkpt>
      <trkpt lat="46.31243" lon="6.10463">
        <ele>502.39999389648</ele>
        <time>2019-10-05T15:11:04.000Z</time>
      </trkpt>
      <trkpt lat="46.31259" lon="6.10486">
        <ele>502.39999389648</ele>
        <time>2019-10-05T15:11:09.000Z</time>
      </trkpt>
      <trkpt lat="46.31265" lon="6.10496">
        <ele>502.60000610352</ele>
        <time>2019-10-05T15:11:11.000Z</time>
      </trkpt>
      <trkpt lat="46.31281" lon="6.10518">
        <ele>503.20001220703</ele>
        <time>2019-10-05T15:11:16.000Z</time>
      </trkpt>
      <trkpt lat="46.31291" lon="6.10532">
        <ele>503.39999389648</ele>
        <time>2019-10-05T15:11:19.000Z</time>
      </trkpt>
      <trkpt lat="46.31307" lon="6.10555">
        <ele>503.79998779297</ele>
        <time>2019-10-05T15:11:24.000Z</time>
      </trkpt>
      <trkpt lat="46.31317" lon="6.10567">
        <ele>504.20001220703</ele>
        <time>2019-10-05T15:11:27.000Z</time>
      </trkpt>
      <trkpt lat="46.31334" lon="6.10591">
        <ele>505.39999389648</ele>
        <time>2019-10-05T15:11:32.000Z</time>
      </trkpt>
      <trkpt lat="46.31353" lon="6.10626">
        <ele>506.60000610352</ele>
        <time>2019-10-05T15:11:39.000Z</time>
      </trkpt>
      <trkpt lat="46.31355" lon="6.10632">
        <ele>506.79998779297</ele>
        <time>2019-10-05T15:11:40.000Z</time>
      </trkpt>
      <trkpt lat="46.3136" lon="6.10643">
        <ele>507.20001220703</ele>
        <time>2019-10-05T15:11:42.000Z</time>
      </trkpt>
      <trkpt lat="46.31373" lon="6.10679">
        <ele>507.39999389648</ele>
        <time>2019-10-05T15:11:48.000Z</time>
      </trkpt>
      <trkpt lat="46.31375" lon="6.10686">
        <ele>507.39999389648</ele>
        <time>2019-10-05T15:11:49.000Z</time>
      </trkpt>
      <trkpt lat="46.31387" lon="6.10717">
        <ele>507.60000610352</ele>
        <time>2019-10-05T15:11:54.000Z</time>
      </trkpt>
      <trkpt lat="46.31392" lon="6.10727">
        <ele>507.79998779297</ele>
        <time>2019-10-05T15:11:56.000Z</time>
      </trkpt>
      <trkpt lat="46.31397" lon="6.10736">
        <ele>508</ele>
        <time>2019-10-05T15:11:58.000Z</time>
      </trkpt>
      <trkpt lat="46.31405" lon="6.10751">
        <ele>508.39999389648</ele>
        <time>2019-10-05T15:12:01.000Z</time>
      </trkpt>
      <trkpt lat="46.31407" lon="6.10755">
        <ele>508.39999389648</ele>
        <time>2019-10-05T15:12:02.000Z</time>
      </trkpt>
      <trkpt lat="46.31413" lon="6.10765">
        <ele>508.79998779297</ele>
        <time>2019-10-05T15:12:04.000Z</time>
      </trkpt>
      <trkpt lat="46.31418" lon="6.10775">
        <ele>509</ele>
        <time>2019-10-05T15:12:06.000Z</time>
      </trkpt>
      <trkpt lat="46.31423" lon="6.10787">
        <ele>509.20001220703</ele>
        <time>2019-10-05T15:12:08.000Z</time>
      </trkpt>
      <trkpt lat="46.31436" lon="6.10796">
        <ele>509.79998779297</ele>
        <time>2019-10-05T15:12:11.000Z</time>
      </trkpt>
      <trkpt lat="46.31441" lon="6.10797">
        <ele>510</ele>
        <time>2019-10-05T15:12:12.000Z</time>
      </trkpt>
      <trkpt lat="46.31445" lon="6.10799">
        <ele>510.20001220703</ele>
        <time>2019-10-05T15:12:13.000Z</time>
      </trkpt>
      <trkpt lat="46.31456" lon="6.10809">
        <ele>510.79998779297</ele>
        <time>2019-10-05T15:12:16.000Z</time>
      </trkpt>
      <trkpt lat="46.3146" lon="6.10811">
        <ele>511</ele>
        <time>2019-10-05T15:12:17.000Z</time>
      </trkpt>
      <trkpt lat="46.31486" lon="6.10832">
        <ele>512.40002441406</ele>
        <time>2019-10-05T15:12:24.000Z</time>
      </trkpt>
      <trkpt lat="46.31503" lon="6.10845">
        <ele>513.40002441406</ele>
        <time>2019-10-05T15:12:28.000Z</time>
      </trkpt>
      <trkpt lat="46.31511" lon="6.10852">
        <ele>513.79998779297</ele>
        <time>2019-10-05T15:12:30.000Z</time>
      </trkpt>
      <trkpt lat="46.31519" lon="6.1086">
        <ele>514.40002441406</ele>
        <time>2019-10-05T15:12:32.000Z</time>
      </trkpt>
      <trkpt lat="46.31539" lon="6.10882">
        <ele>515.40002441406</ele>
        <time>2019-10-05T15:12:37.000Z</time>
      </trkpt>
      <trkpt lat="46.31548" lon="6.10896">
        <ele>516</ele>
        <time>2019-10-05T15:12:40.000Z</time>
      </trkpt>
      <trkpt lat="46.31555" lon="6.10906">
        <ele>516.20001220703</ele>
        <time>2019-10-05T15:12:42.000Z</time>
      </trkpt>
      <trkpt lat="46.31561" lon="6.10916">
        <ele>516.40002441406</ele>
        <time>2019-10-05T15:12:44.000Z</time>
      </trkpt>
      <trkpt lat="46.31571" lon="6.10932">
        <ele>516</ele>
        <time>2019-10-05T15:12:47.000Z</time>
      </trkpt>
      <trkpt lat="46.31574" lon="6.10937">
        <ele>515.79998779297</ele>
        <time>2019-10-05T15:12:48.000Z</time>
      </trkpt>
      <trkpt lat="46.31595" lon="6.10976">
        <ele>514.59997558594</ele>
        <time>2019-10-05T15:12:55.000Z</time>
      </trkpt>
      <trkpt lat="46.31617" lon="6.11019">
        <ele>514.40002441406</ele>
        <time>2019-10-05T15:13:01.000Z</time>
      </trkpt>
      <trkpt lat="46.31621" lon="6.11026">
        <ele>514.40002441406</ele>
        <time>2019-10-05T15:13:02.000Z</time>
      </trkpt>
      <trkpt lat="46.31644" lon="6.11062">
        <ele>513.79998779297</ele>
        <time>2019-10-05T15:13:07.000Z</time>
      </trkpt>
      <trkpt lat="46.31654" lon="6.11076">
        <ele>513.59997558594</ele>
        <time>2019-10-05T15:13:09.000Z</time>
      </trkpt>
      <trkpt lat="46.31683" lon="6.11104">
        <ele>512.59997558594</ele>
        <time>2019-10-05T15:13:14.000Z</time>
      </trkpt>
      <trkpt lat="46.31689" lon="6.11109">
        <ele>512.40002441406</ele>
        <time>2019-10-05T15:13:15.000Z</time>
      </trkpt>
      <trkpt lat="46.31715" lon="6.11131">
        <ele>511.39999389648</ele>
        <time>2019-10-05T15:13:19.000Z</time>
      </trkpt>
      <trkpt lat="46.31754" lon="6.11164">
        <ele>510.39999389648</ele>
        <time>2019-10-05T15:13:25.000Z</time>
      </trkpt>
      <trkpt lat="46.31761" lon="6.11171">
        <ele>510.20001220703</ele>
        <time>2019-10-05T15:13:26.000Z</time>
      </trkpt>
      <trkpt lat="46.318" lon="6.11212">
        <ele>509.39999389648</ele>
        <time>2019-10-05T15:13:32.000Z</time>
      </trkpt>
      <trkpt lat="46.31832" lon="6.11244">
        <ele>508.60000610352</ele>
        <time>2019-10-05T15:13:37.000Z</time>
      </trkpt>
      <trkpt lat="46.31838" lon="6.1125">
        <ele>508.39999389648</ele>
        <time>2019-10-05T15:13:38.000Z</time>
      </trkpt>
      <trkpt lat="46.31872" lon="6.11273">
        <ele>507.60000610352</ele>
        <time>2019-10-05T15:13:43.000Z</time>
      </trkpt>
      <trkpt lat="46.31928" lon="6.11303">
        <ele>507.79998779297</ele>
        <time>2019-10-05T15:13:51.000Z</time>
      </trkpt>
      <trkpt lat="46.31976" lon="6.1133">
        <ele>509.20001220703</ele>
        <time>2019-10-05T15:13:58.000Z</time>
      </trkpt>
      <trkpt lat="46.32025" lon="6.11353">
        <ele>509</ele>
        <time>2019-10-05T15:14:05.000Z</time>
      </trkpt>
      <trkpt lat="46.32039" lon="6.11356">
        <ele>509.39999389648</ele>
        <time>2019-10-05T15:14:07.000Z</time>
      </trkpt>
      <trkpt lat="46.32061" lon="6.11356">
        <ele>509.79998779297</ele>
        <time>2019-10-05T15:14:10.000Z</time>
      </trkpt>
      <trkpt lat="46.32097" lon="6.11349">
        <ele>510</ele>
        <time>2019-10-05T15:14:15.000Z</time>
      </trkpt>
      <trkpt lat="46.32142" lon="6.1134">
        <ele>510.79998779297</ele>
        <time>2019-10-05T15:14:21.000Z</time>
      </trkpt>
      <trkpt lat="46.3215" lon="6.11339">
        <ele>511</ele>
        <time>2019-10-05T15:14:22.000Z</time>
      </trkpt>
      <trkpt lat="46.32204" lon="6.11336">
        <ele>509.20001220703</ele>
        <time>2019-10-05T15:14:29.000Z</time>
      </trkpt>
      <trkpt lat="46.32212" lon="6.11335">
        <ele>508.79998779297</ele>
        <time>2019-10-05T15:14:30.000Z</time>
      </trkpt>
      <trkpt lat="46.32259" lon="6.11331">
        <ele>508</ele>
        <time>2019-10-05T15:14:36.000Z</time>
      </trkpt>
      <trkpt lat="46.32289" lon="6.11328">
        <ele>507.39999389648</ele>
        <time>2019-10-05T15:14:40.000Z</time>
      </trkpt>
      <trkpt lat="46.32349" lon="6.11315">
        <ele>506.60000610352</ele>
        <time>2019-10-05T15:14:48.000Z</time>
      </trkpt>
      <trkpt lat="46.32357" lon="6.11313">
        <ele>506.60000610352</ele>
        <time>2019-10-05T15:14:49.000Z</time>
      </trkpt>
      <trkpt lat="46.32413" lon="6.11299">
        <ele>506</ele>
        <time>2019-10-05T15:14:57.000Z</time>
      </trkpt>
      <trkpt lat="46.3242" lon="6.11297">
        <ele>505.79998779297</ele>
        <time>2019-10-05T15:14:58.000Z</time>
      </trkpt>
      <trkpt lat="46.32473" lon="6.11287">
        <ele>505.20001220703</ele>
        <time>2019-10-05T15:15:06.000Z</time>
      </trkpt>
      <trkpt lat="46.32528" lon="6.11282">
        <ele>504.39999389648</ele>
        <time>2019-10-05T15:15:14.000Z</time>
      </trkpt>
      <trkpt lat="46.32583" lon="6.11283">
        <ele>504.20001220703</ele>
        <time>2019-10-05T15:15:22.000Z</time>
      </trkpt>
      <trkpt lat="46.32628" lon="6.11296">
        <ele>504.79998779297</ele>
        <time>2019-10-05T15:15:29.000Z</time>
      </trkpt>
      <trkpt lat="46.32669" lon="6.11317">
        <ele>505.60000610352</ele>
        <time>2019-10-05T15:15:36.000Z</time>
      </trkpt>
      <trkpt lat="46.32679" lon="6.11327">
        <ele>506.20001220703</ele>
        <time>2019-10-05T15:15:40.000Z</time>
      </trkpt>
      <trkpt lat="46.3269" lon="6.11337">
        <ele>506.79998779297</ele>
        <time>2019-10-05T15:15:45.000Z</time>
      </trkpt>
      <trkpt lat="46.32701" lon="6.11343">
        <ele>507.20001220703</ele>
        <time>2019-10-05T15:15:51.000Z</time>
      </trkpt>
      <trkpt lat="46.32712" lon="6.11351">
        <ele>507.79998779297</ele>
        <time>2019-10-05T15:15:56.000Z</time>
      </trkpt>
      <trkpt lat="46.32723" lon="6.11363">
        <ele>508.39999389648</ele>
        <time>2019-10-05T15:16:00.000Z</time>
      </trkpt>
      <trkpt lat="46.32731" lon="6.11369">
        <ele>508.79998779297</ele>
        <time>2019-10-05T15:16:02.000Z</time>
      </trkpt>
      <trkpt lat="46.32746" lon="6.11377">
        <ele>509.79998779297</ele>
        <time>2019-10-05T15:16:05.000Z</time>
      </trkpt>
      <trkpt lat="46.32751" lon="6.11379">
        <ele>510</ele>
        <time>2019-10-05T15:16:06.000Z</time>
      </trkpt>
      <trkpt lat="46.32764" lon="6.11383">
        <ele>510.60000610352</ele>
        <time>2019-10-05T15:16:08.000Z</time>
      </trkpt>
      <trkpt lat="46.32771" lon="6.11384">
        <ele>511</ele>
        <time>2019-10-05T15:16:09.000Z</time>
      </trkpt>
      <trkpt lat="46.32792" lon="6.11382">
        <ele>511.60000610352</ele>
        <time>2019-10-05T15:16:12.000Z</time>
      </trkpt>
      <trkpt lat="46.32799" lon="6.11381">
        <ele>511.79998779297</ele>
        <time>2019-10-05T15:16:13.000Z</time>
      </trkpt>
      <trkpt lat="46.32849" lon="6.11381">
        <ele>511.20001220703</ele>
        <time>2019-10-05T15:16:20.000Z</time>
      </trkpt>
      <trkpt lat="46.32875" lon="6.11387">
        <ele>510.39999389648</ele>
        <time>2019-10-05T15:16:24.000Z</time>
      </trkpt>
      <trkpt lat="46.32886" lon="6.11391">
        <ele>510.20001220703</ele>
        <time>2019-10-05T15:16:26.000Z</time>
      </trkpt>
      <trkpt lat="46.32928" lon="6.11404">
        <ele>510.20001220703</ele>
        <time>2019-10-05T15:16:33.000Z</time>
      </trkpt>
      <trkpt lat="46.32952" lon="6.11411">
        <ele>510.39999389648</ele>
        <time>2019-10-05T15:16:37.000Z</time>
      </trkpt>
      <trkpt lat="46.32969" lon="6.11417">
        <ele>510.60000610352</ele>
        <time>2019-10-05T15:16:40.000Z</time>
      </trkpt>
      <trkpt lat="46.32975" lon="6.11419">
        <ele>510.60000610352</ele>
        <time>2019-10-05T15:16:41.000Z</time>
      </trkpt>
      <trkpt lat="46.33004" lon="6.11436">
        <ele>510.79998779297</ele>
        <time>2019-10-05T15:16:47.000Z</time>
      </trkpt>
      <trkpt lat="46.33016" lon="6.11449">
        <ele>510.79998779297</ele>
        <time>2019-10-05T15:16:50.000Z</time>
      </trkpt>
      <trkpt lat="46.33025" lon="6.11456">
        <ele>510.79998779297</ele>
        <time>2019-10-05T15:16:52.000Z</time>
      </trkpt>
      <trkpt lat="46.3305" lon="6.11461">
        <ele>511</ele>
        <time>2019-10-05T15:16:56.000Z</time>
      </trkpt>
      <trkpt lat="46.33057" lon="6.1146">
        <ele>511.20001220703</ele>
        <time>2019-10-05T15:16:57.000Z</time>
      </trkpt>
      <trkpt lat="46.33076" lon="6.11455">
        <ele>511.79998779297</ele>
        <time>2019-10-05T15:17:00.000Z</time>
      </trkpt>
      <trkpt lat="46.33087" lon="6.11448">
        <ele>512.20001220703</ele>
        <time>2019-10-05T15:17:02.000Z</time>
      </trkpt>
      <trkpt lat="46.33092" lon="6.11443">
        <ele>512.40002441406</ele>
        <time>2019-10-05T15:17:03.000Z</time>
      </trkpt>
      <trkpt lat="46.33111" lon="6.11424">
        <ele>513.59997558594</ele>
        <time>2019-10-05T15:17:07.000Z</time>
      </trkpt>
      <trkpt lat="46.33116" lon="6.1142">
        <ele>514</ele>
        <time>2019-10-05T15:17:08.000Z</time>
      </trkpt>
      <trkpt lat="46.33134" lon="6.11413">
        <ele>514.79998779297</ele>
        <time>2019-10-05T15:17:11.000Z</time>
      </trkpt>
      <trkpt lat="46.33146" lon="6.11408">
        <ele>515.40002441406</ele>
        <time>2019-10-05T15:17:13.000Z</time>
      </trkpt>
      <trkpt lat="46.33167" lon="6.11398">
        <ele>515.79998779297</ele>
        <time>2019-10-05T15:17:17.000Z</time>
      </trkpt>
      <trkpt lat="46.33176" lon="6.11393">
        <ele>515.59997558594</ele>
        <time>2019-10-05T15:17:19.000Z</time>
      </trkpt>
      <trkpt lat="46.33185" lon="6.1139">
        <ele>515.59997558594</ele>
        <time>2019-10-05T15:17:21.000Z</time>
      </trkpt>
      <trkpt lat="46.33205" lon="6.11382">
        <ele>515.40002441406</ele>
        <time>2019-10-05T15:17:25.000Z</time>
      </trkpt>
      <trkpt lat="46.33211" lon="6.1138">
        <ele>515.20001220703</ele>
        <time>2019-10-05T15:17:26.000Z</time>
      </trkpt>
      <trkpt lat="46.33222" lon="6.11377">
        <ele>515.40002441406</ele>
        <time>2019-10-05T15:17:28.000Z</time>
      </trkpt>
      <trkpt lat="46.33228" lon="6.11377">
        <ele>515.59997558594</ele>
        <time>2019-10-05T15:17:29.000Z</time>
      </trkpt>
      <trkpt lat="46.33234" lon="6.11378">
        <ele>515.79998779297</ele>
        <time>2019-10-05T15:17:30.000Z</time>
      </trkpt>
      <trkpt lat="46.33256" lon="6.11395">
        <ele>515.20001220703</ele>
        <time>2019-10-05T15:17:34.000Z</time>
      </trkpt>
      <trkpt lat="46.33272" lon="6.1141">
        <ele>515.40002441406</ele>
        <time>2019-10-05T15:17:37.000Z</time>
      </trkpt>
      <trkpt lat="46.33306" lon="6.11439">
        <ele>515.40002441406</ele>
        <time>2019-10-05T15:17:43.000Z</time>
      </trkpt>
      <trkpt lat="46.33353" lon="6.11471">
        <ele>515.59997558594</ele>
        <time>2019-10-05T15:17:51.000Z</time>
      </trkpt>
      <trkpt lat="46.33392" lon="6.115">
        <ele>515.20001220703</ele>
        <time>2019-10-05T15:17:58.000Z</time>
      </trkpt>
      <trkpt lat="46.33398" lon="6.11503">
        <ele>515</ele>
        <time>2019-10-05T15:17:59.000Z</time>
      </trkpt>
      <trkpt lat="46.3341" lon="6.11507">
        <ele>515</ele>
        <time>2019-10-05T15:18:01.000Z</time>
      </trkpt>
      <trkpt lat="46.33434" lon="6.11517">
        <ele>514.59997558594</ele>
        <time>2019-10-05T15:18:05.000Z</time>
      </trkpt>
      <trkpt lat="46.33463" lon="6.11531">
        <ele>514.40002441406</ele>
        <time>2019-10-05T15:18:10.000Z</time>
      </trkpt>
      <trkpt lat="46.33485" lon="6.11539">
        <ele>514.40002441406</ele>
        <time>2019-10-05T15:18:14.000Z</time>
      </trkpt>
      <trkpt lat="46.33508" lon="6.11547">
        <ele>514.20001220703</ele>
        <time>2019-10-05T15:18:18.000Z</time>
      </trkpt>
      <trkpt lat="46.33531" lon="6.11554">
        <ele>514</ele>
        <time>2019-10-05T15:18:22.000Z</time>
      </trkpt>
      <trkpt lat="46.33576" lon="6.11574">
        <ele>514.40002441406</ele>
        <time>2019-10-05T15:18:29.000Z</time>
      </trkpt>
      <trkpt lat="46.3362" lon="6.11608">
        <ele>515.79998779297</ele>
        <time>2019-10-05T15:18:36.000Z</time>
      </trkpt>
      <trkpt lat="46.3366" lon="6.11643">
        <ele>516.20001220703</ele>
        <time>2019-10-05T15:18:43.000Z</time>
      </trkpt>
      <trkpt lat="46.33706" lon="6.11665">
        <ele>516.20001220703</ele>
        <time>2019-10-05T15:18:50.000Z</time>
      </trkpt>
      <trkpt lat="46.33746" lon="6.1168">
        <ele>516.40002441406</ele>
        <time>2019-10-05T15:18:56.000Z</time>
      </trkpt>
      <trkpt lat="46.33798" lon="6.117">
        <ele>516.79998779297</ele>
        <time>2019-10-05T15:19:04.000Z</time>
      </trkpt>
      <trkpt lat="46.33804" lon="6.11703">
        <ele>516.79998779297</ele>
        <time>2019-10-05T15:19:05.000Z</time>
      </trkpt>
      <trkpt lat="46.33822" lon="6.11711">
        <ele>516.79998779297</ele>
        <time>2019-10-05T15:19:08.000Z</time>
      </trkpt>
      <trkpt lat="46.33844" lon="6.11723">
        <ele>516.59997558594</ele>
        <time>2019-10-05T15:19:12.000Z</time>
      </trkpt>
      <trkpt lat="46.3385" lon="6.11727">
        <ele>516.40002441406</ele>
        <time>2019-10-05T15:19:13.000Z</time>
      </trkpt>
      <trkpt lat="46.33889" lon="6.11755">
        <ele>515.59997558594</ele>
        <time>2019-10-05T15:19:20.000Z</time>
      </trkpt>
      <trkpt lat="46.3393" lon="6.11787">
        <ele>515.20001220703</ele>
        <time>2019-10-05T15:19:27.000Z</time>
      </trkpt>
      <trkpt lat="46.33964" lon="6.11805">
        <ele>515.59997558594</ele>
        <time>2019-10-05T15:19:32.000Z</time>
      </trkpt>
      <trkpt lat="46.33972" lon="6.11809">
        <ele>515.79998779297</ele>
        <time>2019-10-05T15:19:33.000Z</time>
      </trkpt>
      <trkpt lat="46.34031" lon="6.11833">
        <ele>515.59997558594</ele>
        <time>2019-10-05T15:19:41.000Z</time>
      </trkpt>
      <trkpt lat="46.34053" lon="6.11844">
        <ele>515.20001220703</ele>
        <time>2019-10-05T15:19:44.000Z</time>
      </trkpt>
      <trkpt lat="46.34095" lon="6.11875">
        <ele>515</ele>
        <time>2019-10-05T15:19:50.000Z</time>
      </trkpt>
      <trkpt lat="46.34121" lon="6.119">
        <ele>514.79998779297</ele>
        <time>2019-10-05T15:19:54.000Z</time>
      </trkpt>
      <trkpt lat="46.34139" lon="6.11922">
        <ele>514.59997558594</ele>
        <time>2019-10-05T15:19:57.000Z</time>
      </trkpt>
      <trkpt lat="46.34168" lon="6.11975">
        <ele>513.40002441406</ele>
        <time>2019-10-05T15:20:03.000Z</time>
      </trkpt>
      <trkpt lat="46.34187" lon="6.12027">
        <ele>512.40002441406</ele>
        <time>2019-10-05T15:20:08.000Z</time>
      </trkpt>
      <trkpt lat="46.342" lon="6.12082">
        <ele>511.39999389648</ele>
        <time>2019-10-05T15:20:13.000Z</time>
      </trkpt>
      <trkpt lat="46.34205" lon="6.12103">
        <ele>511</ele>
        <time>2019-10-05T15:20:15.000Z</time>
      </trkpt>
      <trkpt lat="46.34223" lon="6.12152">
        <ele>509.79998779297</ele>
        <time>2019-10-05T15:20:20.000Z</time>
      </trkpt>
      <trkpt lat="46.34253" lon="6.12212">
        <ele>509.79998779297</ele>
        <time>2019-10-05T15:20:27.000Z</time>
      </trkpt>
      <trkpt lat="46.34281" lon="6.12274">
        <ele>510.20001220703</ele>
        <time>2019-10-05T15:20:34.000Z</time>
      </trkpt>
      <trkpt lat="46.34284" lon="6.12284">
        <ele>510.20001220703</ele>
        <time>2019-10-05T15:20:35.000Z</time>
      </trkpt>
      <trkpt lat="46.34291" lon="6.12306">
        <ele>510.39999389648</ele>
        <time>2019-10-05T15:20:37.000Z</time>
      </trkpt>
      <trkpt lat="46.34298" lon="6.12342">
        <ele>508.79998779297</ele>
        <time>2019-10-05T15:20:40.000Z</time>
      </trkpt>
      <trkpt lat="46.34303" lon="6.12382">
        <ele>506.39999389648</ele>
        <time>2019-10-05T15:20:43.000Z</time>
      </trkpt>
      <trkpt lat="46.34303" lon="6.12412">
        <ele>505.79998779297</ele>
        <time>2019-10-05T15:20:45.000Z</time>
      </trkpt>
      <trkpt lat="46.34301" lon="6.12442">
        <ele>505</ele>
        <time>2019-10-05T15:20:47.000Z</time>
      </trkpt>
      <trkpt lat="46.34297" lon="6.12472">
        <ele>504.39999389648</ele>
        <time>2019-10-05T15:20:49.000Z</time>
      </trkpt>
      <trkpt lat="46.3429" lon="6.125">
        <ele>503.39999389648</ele>
        <time>2019-10-05T15:20:51.000Z</time>
      </trkpt>
      <trkpt lat="46.34281" lon="6.12525">
        <ele>502.60000610352</ele>
        <time>2019-10-05T15:20:53.000Z</time>
      </trkpt>
      <trkpt lat="46.34265" lon="6.12562">
        <ele>499.20001220703</ele>
        <time>2019-10-05T15:20:56.000Z</time>
      </trkpt>
      <trkpt lat="46.34255" lon="6.12588">
        <ele>497.60000610352</ele>
        <time>2019-10-05T15:20:58.000Z</time>
      </trkpt>
      <trkpt lat="46.34246" lon="6.12614">
        <ele>496</ele>
        <time>2019-10-05T15:21:00.000Z</time>
      </trkpt>
      <trkpt lat="46.34238" lon="6.12643">
        <ele>494.39999389648</ele>
        <time>2019-10-05T15:21:02.000Z</time>
      </trkpt>
      <trkpt lat="46.34235" lon="6.12658">
        <ele>493.79998779297</ele>
        <time>2019-10-05T15:21:03.000Z</time>
      </trkpt>
      <trkpt lat="46.34232" lon="6.12673">
        <ele>493.39999389648</ele>
        <time>2019-10-05T15:21:04.000Z</time>
      </trkpt>
      <trkpt lat="46.34227" lon="6.12706">
        <ele>492.60000610352</ele>
        <time>2019-10-05T15:21:06.000Z</time>
      </trkpt>
      <trkpt lat="46.34225" lon="6.12723">
        <ele>492.20001220703</ele>
        <time>2019-10-05T15:21:07.000Z</time>
      </trkpt>
      <trkpt lat="46.34224" lon="6.12738">
        <ele>491.39999389648</ele>
        <time>2019-10-05T15:21:08.000Z</time>
      </trkpt>
      <trkpt lat="46.34223" lon="6.12766">
        <ele>490.39999389648</ele>
        <time>2019-10-05T15:21:10.000Z</time>
      </trkpt>
      <trkpt lat="46.34224" lon="6.12779">
        <ele>490</ele>
        <time>2019-10-05T15:21:11.000Z</time>
      </trkpt>
      <trkpt lat="46.34224" lon="6.1279">
        <ele>489.60000610352</ele>
        <time>2019-10-05T15:21:12.000Z</time>
      </trkpt>
      <trkpt lat="46.34226" lon="6.1281">
        <ele>488.79998779297</ele>
        <time>2019-10-05T15:21:14.000Z</time>
      </trkpt>
      <trkpt lat="46.34227" lon="6.12819">
        <ele>488.60000610352</ele>
        <time>2019-10-05T15:21:15.000Z</time>
      </trkpt>
      <trkpt lat="46.34229" lon="6.12844">
        <ele>487.79998779297</ele>
        <time>2019-10-05T15:21:18.000Z</time>
      </trkpt>
      <trkpt lat="46.34231" lon="6.12857">
        <ele>487.39999389648</ele>
        <time>2019-10-05T15:21:20.000Z</time>
      </trkpt>
      <trkpt lat="46.34233" lon="6.1287">
        <ele>487</ele>
        <time>2019-10-05T15:21:22.000Z</time>
      </trkpt>
      <trkpt lat="46.34237" lon="6.12889">
        <ele>486.39999389648</ele>
        <time>2019-10-05T15:21:26.000Z</time>
      </trkpt>
      <trkpt lat="46.34241" lon="6.12905">
        <ele>485.79998779297</ele>
        <time>2019-10-05T15:21:31.000Z</time>
      </trkpt>
      <trkpt lat="46.34241" lon="6.12909">
        <ele>485.79998779297</ele>
        <time>2019-10-05T15:21:32.000Z</time>
      </trkpt>
      <trkpt lat="46.34247" lon="6.12928">
        <ele>485.39999389648</ele>
        <time>2019-10-05T15:21:39.000Z</time>
      </trkpt>
      <trkpt lat="46.34249" lon="6.12932">
        <ele>485.39999389648</ele>
        <time>2019-10-05T15:22:04.000Z</time>
      </trkpt>
      <trkpt lat="46.3425" lon="6.12935">
        <ele>485.20001220703</ele>
        <time>2019-10-05T15:22:05.000Z</time>
      </trkpt>
      <trkpt lat="46.34252" lon="6.12942">
        <ele>485.20001220703</ele>
        <time>2019-10-05T15:22:07.000Z</time>
      </trkpt>
      <trkpt lat="46.34255" lon="6.12952">
        <ele>484.79998779297</ele>
        <time>2019-10-05T15:22:09.000Z</time>
      </trkpt>
      <trkpt lat="46.34258" lon="6.12958">
        <ele>484.79998779297</ele>
        <time>2019-10-05T15:22:10.000Z</time>
      </trkpt>
      <trkpt lat="46.34273" lon="6.12996">
        <ele>484.20001220703</ele>
        <time>2019-10-05T15:22:15.000Z</time>
      </trkpt>
      <trkpt lat="46.34283" lon="6.13019">
        <ele>484.20001220703</ele>
        <time>2019-10-05T15:22:18.000Z</time>
      </trkpt>
      <trkpt lat="46.34292" lon="6.13035">
        <ele>484</ele>
        <time>2019-10-05T15:22:20.000Z</time>
      </trkpt>
      <trkpt lat="46.3432" lon="6.13074">
        <ele>483.79998779297</ele>
        <time>2019-10-05T15:22:25.000Z</time>
      </trkpt>
      <trkpt lat="46.34367" lon="6.1313">
        <ele>484</ele>
        <time>2019-10-05T15:22:33.000Z</time>
      </trkpt>
      <trkpt lat="46.34412" lon="6.13185">
        <ele>483.60000610352</ele>
        <time>2019-10-05T15:22:41.000Z</time>
      </trkpt>
      <trkpt lat="46.34437" lon="6.13214">
        <ele>482.39999389648</ele>
        <time>2019-10-05T15:22:45.000Z</time>
      </trkpt>
      <trkpt lat="46.34461" lon="6.13244">
        <ele>481</ele>
        <time>2019-10-05T15:22:49.000Z</time>
      </trkpt>
      <trkpt lat="46.34467" lon="6.13251">
        <ele>480.60000610352</ele>
        <time>2019-10-05T15:22:50.000Z</time>
      </trkpt>
      <trkpt lat="46.3448" lon="6.13267">
        <ele>479.60000610352</ele>
        <time>2019-10-05T15:22:52.000Z</time>
      </trkpt>
      <trkpt lat="46.34513" lon="6.13307">
        <ele>477.60000610352</ele>
        <time>2019-10-05T15:22:57.000Z</time>
      </trkpt>
      <trkpt lat="46.34534" lon="6.13334">
        <ele>476.79998779297</ele>
        <time>2019-10-05T15:23:00.000Z</time>
      </trkpt>
      <trkpt lat="46.34556" lon="6.1336">
        <ele>476.20001220703</ele>
        <time>2019-10-05T15:23:03.000Z</time>
      </trkpt>
      <trkpt lat="46.34564" lon="6.13369">
        <ele>476</ele>
        <time>2019-10-05T15:23:04.000Z</time>
      </trkpt>
      <trkpt lat="46.34585" lon="6.13396">
        <ele>475</ele>
        <time>2019-10-05T15:23:07.000Z</time>
      </trkpt>
      <trkpt lat="46.34606" lon="6.13421">
        <ele>474.39999389648</ele>
        <time>2019-10-05T15:23:10.000Z</time>
      </trkpt>
      <trkpt lat="46.3462" lon="6.13438">
        <ele>474</ele>
        <time>2019-10-05T15:23:12.000Z</time>
      </trkpt>
      <trkpt lat="46.34634" lon="6.13455">
        <ele>473.60000610352</ele>
        <time>2019-10-05T15:23:14.000Z</time>
      </trkpt>
      <trkpt lat="46.34675" lon="6.13505">
        <ele>473</ele>
        <time>2019-10-05T15:23:20.000Z</time>
      </trkpt>
      <trkpt lat="46.34723" lon="6.13563">
        <ele>473</ele>
        <time>2019-10-05T15:23:27.000Z</time>
      </trkpt>
      <trkpt lat="46.34737" lon="6.1358">
        <ele>472.60000610352</ele>
        <time>2019-10-05T15:23:29.000Z</time>
      </trkpt>
      <trkpt lat="46.34784" lon="6.13635">
        <ele>471.20001220703</ele>
        <time>2019-10-05T15:23:36.000Z</time>
      </trkpt>
      <trkpt lat="46.34817" lon="6.13678">
        <ele>471.20001220703</ele>
        <time>2019-10-05T15:23:42.000Z</time>
      </trkpt>
      <trkpt lat="46.34823" lon="6.13705">
        <ele>471.39999389648</ele>
        <time>2019-10-05T15:23:45.000Z</time>
      </trkpt>
      <trkpt lat="46.34837" lon="6.13722">
        <ele>471.79998779297</ele>
        <time>2019-10-05T15:23:48.000Z</time>
      </trkpt>
      <trkpt lat="46.34863" lon="6.13746">
        <ele>472.60000610352</ele>
        <time>2019-10-05T15:23:52.000Z</time>
      </trkpt>
      <trkpt lat="46.34875" lon="6.13762">
        <ele>472.79998779297</ele>
        <time>2019-10-05T15:23:54.000Z</time>
      </trkpt>
      <trkpt lat="46.34899" lon="6.13794">
        <ele>473.20001220703</ele>
        <time>2019-10-05T15:23:58.000Z</time>
      </trkpt>
      <trkpt lat="46.34918" lon="6.13819">
        <ele>473.39999389648</ele>
        <time>2019-10-05T15:24:01.000Z</time>
      </trkpt>
      <trkpt lat="46.34934" lon="6.13843">
        <ele>473.79998779297</ele>
        <time>2019-10-05T15:24:04.000Z</time>
      </trkpt>
      <trkpt lat="46.34969" lon="6.1389">
        <ele>474.79998779297</ele>
        <time>2019-10-05T15:24:10.000Z</time>
      </trkpt>
      <trkpt lat="46.35007" lon="6.13942">
        <ele>474.20001220703</ele>
        <time>2019-10-05T15:24:17.000Z</time>
      </trkpt>
      <trkpt lat="46.35038" lon="6.13986">
        <ele>473.79998779297</ele>
        <time>2019-10-05T15:24:23.000Z</time>
      </trkpt>
      <trkpt lat="46.35074" lon="6.14035">
        <ele>474.60000610352</ele>
        <time>2019-10-05T15:24:30.000Z</time>
      </trkpt>
      <trkpt lat="46.35115" lon="6.14091">
        <ele>475</ele>
        <time>2019-10-05T15:24:38.000Z</time>
      </trkpt>
      <trkpt lat="46.35157" lon="6.14144">
        <ele>475.20001220703</ele>
        <time>2019-10-05T15:24:46.000Z</time>
      </trkpt>
      <trkpt lat="46.35181" lon="6.14175">
        <ele>475</ele>
        <time>2019-10-05T15:24:52.000Z</time>
      </trkpt>
      <trkpt lat="46.35187" lon="6.14183">
        <ele>475</ele>
        <time>2019-10-05T15:24:54.000Z</time>
      </trkpt>
      <trkpt lat="46.3519" lon="6.14188">
        <ele>475</ele>
        <time>2019-10-05T15:24:55.000Z</time>
      </trkpt>
      <trkpt lat="46.35193" lon="6.14202">
        <ele>474.60000610352</ele>
        <time>2019-10-05T15:24:57.000Z</time>
      </trkpt>
      <trkpt lat="46.35207" lon="6.14218">
        <ele>474.60000610352</ele>
        <time>2019-10-05T15:25:00.000Z</time>
      </trkpt>
      <trkpt lat="46.35234" lon="6.14255">
        <ele>474.39999389648</ele>
        <time>2019-10-05T15:25:05.000Z</time>
      </trkpt>
      <trkpt lat="46.35274" lon="6.14309">
        <ele>473.60000610352</ele>
        <time>2019-10-05T15:25:12.000Z</time>
      </trkpt>
      <trkpt lat="46.35314" lon="6.14364">
        <ele>474</ele>
        <time>2019-10-05T15:25:19.000Z</time>
      </trkpt>
      <trkpt lat="46.35324" lon="6.14379">
        <ele>474.20001220703</ele>
        <time>2019-10-05T15:25:21.000Z</time>
      </trkpt>
      <trkpt lat="46.35354" lon="6.14419">
        <ele>474.20001220703</ele>
        <time>2019-10-05T15:25:27.000Z</time>
      </trkpt>
      <trkpt lat="46.35375" lon="6.14448">
        <ele>474</ele>
        <time>2019-10-05T15:25:32.000Z</time>
      </trkpt>
      <trkpt lat="46.354" lon="6.14484">
        <ele>474</ele>
        <time>2019-10-05T15:25:37.000Z</time>
      </trkpt>
      <trkpt lat="46.35405" lon="6.14492">
        <ele>473.79998779297</ele>
        <time>2019-10-05T15:25:38.000Z</time>
      </trkpt>
      <trkpt lat="46.3544" lon="6.14538">
        <ele>473.20001220703</ele>
        <time>2019-10-05T15:25:44.000Z</time>
      </trkpt>
      <trkpt lat="46.35471" lon="6.14578">
        <ele>472.79998779297</ele>
        <time>2019-10-05T15:25:50.000Z</time>
      </trkpt>
      <trkpt lat="46.35485" lon="6.14589">
        <ele>472.60000610352</ele>
        <time>2019-10-05T15:25:53.000Z</time>
      </trkpt>
      <trkpt lat="46.35491" lon="6.1459">
        <ele>472.60000610352</ele>
        <time>2019-10-05T15:25:54.000Z</time>
      </trkpt>
      <trkpt lat="46.35505" lon="6.14607">
        <ele>472.39999389648</ele>
        <time>2019-10-05T15:25:57.000Z</time>
      </trkpt>
      <trkpt lat="46.3551" lon="6.14614">
        <ele>472.39999389648</ele>
        <time>2019-10-05T15:25:58.000Z</time>
      </trkpt>
      <trkpt lat="46.35534" lon="6.14644">
        <ele>472</ele>
        <time>2019-10-05T15:26:03.000Z</time>
      </trkpt>
      <trkpt lat="46.35539" lon="6.14654">
        <ele>472</ele>
        <time>2019-10-05T15:26:05.000Z</time>
      </trkpt>
      <trkpt lat="46.3554" lon="6.1466">
        <ele>472</ele>
        <time>2019-10-05T15:26:06.000Z</time>
      </trkpt>
      <trkpt lat="46.35541" lon="6.14666">
        <ele>472</ele>
        <time>2019-10-05T15:26:07.000Z</time>
      </trkpt>
      <trkpt lat="46.35549" lon="6.14677">
        <ele>472</ele>
        <time>2019-10-05T15:26:09.000Z</time>
      </trkpt>
      <trkpt lat="46.35567" lon="6.14698">
        <ele>472</ele>
        <time>2019-10-05T15:26:13.000Z</time>
      </trkpt>
      <trkpt lat="46.35576" lon="6.14724">
        <ele>471.79998779297</ele>
        <time>2019-10-05T15:26:16.000Z</time>
      </trkpt>
      <trkpt lat="46.35578" lon="6.14733">
        <ele>472</ele>
        <time>2019-10-05T15:26:17.000Z</time>
      </trkpt>
      <trkpt lat="46.35596" lon="6.1479">
        <ele>472</ele>
        <time>2019-10-05T15:26:23.000Z</time>
      </trkpt>
      <trkpt lat="46.35618" lon="6.14857">
        <ele>472.60000610352</ele>
        <time>2019-10-05T15:26:30.000Z</time>
      </trkpt>
      <trkpt lat="46.35622" lon="6.14866">
        <ele>472.60000610352</ele>
        <time>2019-10-05T15:26:31.000Z</time>
      </trkpt>
      <trkpt lat="46.35639" lon="6.14924">
        <ele>472.79998779297</ele>
        <time>2019-10-05T15:26:37.000Z</time>
      </trkpt>
      <trkpt lat="46.3565" lon="6.14961">
        <ele>473</ele>
        <time>2019-10-05T15:26:41.000Z</time>
      </trkpt>
      <trkpt lat="46.35654" lon="6.14975">
        <ele>473.20001220703</ele>
        <time>2019-10-05T15:26:43.000Z</time>
      </trkpt>
      <trkpt lat="46.35662" lon="6.14991">
        <ele>472.79998779297</ele>
        <time>2019-10-05T15:26:47.000Z</time>
      </trkpt>
      <trkpt lat="46.3568" lon="6.15007">
        <ele>472.79998779297</ele>
        <time>2019-10-05T15:26:52.000Z</time>
      </trkpt>
      <trkpt lat="46.35685" lon="6.1501">
        <ele>472.79998779297</ele>
        <time>2019-10-05T15:26:53.000Z</time>
      </trkpt>
      <trkpt lat="46.35706" lon="6.15021">
        <ele>473</ele>
        <time>2019-10-05T15:26:57.000Z</time>
      </trkpt>
      <trkpt lat="46.35724" lon="6.1503">
        <ele>473.20001220703</ele>
        <time>2019-10-05T15:27:00.000Z</time>
      </trkpt>
      <trkpt lat="46.35745" lon="6.15039">
        <ele>473</ele>
        <time>2019-10-05T15:27:03.000Z</time>
      </trkpt>
      <trkpt lat="46.35772" lon="6.1505">
        <ele>472.60000610352</ele>
        <time>2019-10-05T15:27:07.000Z</time>
      </trkpt>
      <trkpt lat="46.35779" lon="6.15051">
        <ele>472.39999389648</ele>
        <time>2019-10-05T15:27:08.000Z</time>
      </trkpt>
      <trkpt lat="46.35786" lon="6.15054">
        <ele>472.39999389648</ele>
        <time>2019-10-05T15:27:09.000Z</time>
      </trkpt>
      <trkpt lat="46.35813" lon="6.15065">
        <ele>471.79998779297</ele>
        <time>2019-10-05T15:27:13.000Z</time>
      </trkpt>
      <trkpt lat="46.35842" lon="6.15078">
        <ele>471.60000610352</ele>
        <time>2019-10-05T15:27:17.000Z</time>
      </trkpt>
      <trkpt lat="46.35856" lon="6.15085">
        <ele>471.39999389648</ele>
        <time>2019-10-05T15:27:19.000Z</time>
      </trkpt>
      <trkpt lat="46.35863" lon="6.15087">
        <ele>471.39999389648</ele>
        <time>2019-10-05T15:27:20.000Z</time>
      </trkpt>
      <trkpt lat="46.35884" lon="6.15094">
        <ele>471.20001220703</ele>
        <time>2019-10-05T15:27:23.000Z</time>
      </trkpt>
      <trkpt lat="46.35923" lon="6.15109">
        <ele>470.79998779297</ele>
        <time>2019-10-05T15:27:29.000Z</time>
      </trkpt>
      <trkpt lat="46.35929" lon="6.15112">
        <ele>470.79998779297</ele>
        <time>2019-10-05T15:27:30.000Z</time>
      </trkpt>
      <trkpt lat="46.35947" lon="6.15121">
        <ele>470.60000610352</ele>
        <time>2019-10-05T15:27:34.000Z</time>
      </trkpt>
      <trkpt lat="46.35949" lon="6.15124">
        <ele>470.39999389648</ele>
        <time>2019-10-05T15:27:35.000Z</time>
      </trkpt>
      <trkpt lat="46.35947" lon="6.15131">
        <ele>470.39999389648</ele>
        <time>2019-10-05T15:27:37.000Z</time>
      </trkpt>
      <trkpt lat="46.35946" lon="6.1514">
        <ele>470.20001220703</ele>
        <time>2019-10-05T15:27:39.000Z</time>
      </trkpt>
      <trkpt lat="46.35942" lon="6.15153">
        <ele>470</ele>
        <time>2019-10-05T15:27:42.000Z</time>
      </trkpt>
      <trkpt lat="46.3593" lon="6.15157">
        <ele>470</ele>
        <time>2019-10-05T15:27:45.000Z</time>
      </trkpt>
      <trkpt lat="46.35916" lon="6.1516">
        <ele>470</ele>
        <time>2019-10-05T15:27:48.000Z</time>
      </trkpt>
      <trkpt lat="46.35913" lon="6.15164">
        <ele>470</ele>
        <time>2019-10-05T15:27:49.000Z</time>
      </trkpt>
      <trkpt lat="46.35903" lon="6.1518">
        <ele>470.39999389648</ele>
        <time>2019-10-05T15:27:53.000Z</time>
      </trkpt>
      <trkpt lat="46.35902" lon="6.15185">
        <ele>470.39999389648</ele>
        <time>2019-10-05T15:27:54.000Z</time>
      </trkpt>
      <trkpt lat="46.35905" lon="6.15197">
        <ele>470.60000610352</ele>
        <time>2019-10-05T15:27:56.000Z</time>
      </trkpt>
      <trkpt lat="46.35911" lon="6.15218">
        <ele>470.79998779297</ele>
        <time>2019-10-05T15:27:59.000Z</time>
      </trkpt>
      <trkpt lat="46.35913" lon="6.15226">
        <ele>470.79998779297</ele>
        <time>2019-10-05T15:28:00.000Z</time>
      </trkpt>
      <trkpt lat="46.35915" lon="6.15234">
        <ele>470.79998779297</ele>
        <time>2019-10-05T15:28:01.000Z</time>
      </trkpt>
      <trkpt lat="46.35916" lon="6.15264">
        <ele>470.60000610352</ele>
        <time>2019-10-05T15:28:04.000Z</time>
      </trkpt>
      <trkpt lat="46.3591" lon="6.15315">
        <ele>470.79998779297</ele>
        <time>2019-10-05T15:28:09.000Z</time>
      </trkpt>
      <trkpt lat="46.35895" lon="6.15364">
        <ele>469.39999389648</ele>
        <time>2019-10-05T15:28:14.000Z</time>
      </trkpt>
      <trkpt lat="46.35872" lon="6.15435">
        <ele>467.60000610352</ele>
        <time>2019-10-05T15:28:21.000Z</time>
      </trkpt>
      <trkpt lat="46.35866" lon="6.15455">
        <ele>467.20001220703</ele>
        <time>2019-10-05T15:28:23.000Z</time>
      </trkpt>
      <trkpt lat="46.35844" lon="6.15528">
        <ele>465.79998779297</ele>
        <time>2019-10-05T15:28:30.000Z</time>
      </trkpt>
      <trkpt lat="46.35825" lon="6.15579">
        <ele>465.60000610352</ele>
        <time>2019-10-05T15:28:35.000Z</time>
      </trkpt>
      <trkpt lat="46.35798" lon="6.15619">
        <ele>463.79998779297</ele>
        <time>2019-10-05T15:28:40.000Z</time>
      </trkpt>
      <trkpt lat="46.35767" lon="6.15651">
        <ele>464.60000610352</ele>
        <time>2019-10-05T15:28:45.000Z</time>
      </trkpt>
      <trkpt lat="46.35754" lon="6.15661">
        <ele>464.60000610352</ele>
        <time>2019-10-05T15:28:47.000Z</time>
      </trkpt>
      <trkpt lat="46.35737" lon="6.1567">
        <ele>464.39999389648</ele>
        <time>2019-10-05T15:28:50.000Z</time>
      </trkpt>
      <trkpt lat="46.35731" lon="6.15671">
        <ele>464.39999389648</ele>
        <time>2019-10-05T15:28:51.000Z</time>
      </trkpt>
      <trkpt lat="46.35718" lon="6.15674">
        <ele>464.60000610352</ele>
        <time>2019-10-05T15:28:53.000Z</time>
      </trkpt>
      <trkpt lat="46.35705" lon="6.15678">
        <ele>464.79998779297</ele>
        <time>2019-10-05T15:28:55.000Z</time>
      </trkpt>
      <trkpt lat="46.35674" lon="6.15674">
        <ele>465</ele>
        <time>2019-10-05T15:28:59.000Z</time>
      </trkpt>
      <trkpt lat="46.35628" lon="6.15667">
        <ele>465.39999389648</ele>
        <time>2019-10-05T15:29:05.000Z</time>
      </trkpt>
      <trkpt lat="46.35575" lon="6.15661">
        <ele>466.60000610352</ele>
        <time>2019-10-05T15:29:12.000Z</time>
      </trkpt>
      <trkpt lat="46.35561" lon="6.1566">
        <ele>466.39999389648</ele>
        <time>2019-10-05T15:29:14.000Z</time>
      </trkpt>
      <trkpt lat="46.35539" lon="6.15661">
        <ele>465.60000610352</ele>
        <time>2019-10-05T15:29:17.000Z</time>
      </trkpt>
      <trkpt lat="46.35495" lon="6.15654">
        <ele>464.20001220703</ele>
        <time>2019-10-05T15:29:23.000Z</time>
      </trkpt>
      <trkpt lat="46.35481" lon="6.15651">
        <ele>464.20001220703</ele>
        <time>2019-10-05T15:29:25.000Z</time>
      </trkpt>
      <trkpt lat="46.35453" lon="6.15643">
        <ele>465</ele>
        <time>2019-10-05T15:29:29.000Z</time>
      </trkpt>
      <trkpt lat="46.35411" lon="6.1563">
        <ele>466.60000610352</ele>
        <time>2019-10-05T15:29:35.000Z</time>
      </trkpt>
      <trkpt lat="46.35381" lon="6.15604">
        <ele>467</ele>
        <time>2019-10-05T15:29:40.000Z</time>
      </trkpt>
      <trkpt lat="46.35348" lon="6.15567">
        <ele>467</ele>
        <time>2019-10-05T15:29:46.000Z</time>
      </trkpt>
      <trkpt lat="46.35324" lon="6.15518">
        <ele>466.39999389648</ele>
        <time>2019-10-05T15:29:52.000Z</time>
      </trkpt>
      <trkpt lat="46.35304" lon="6.15454">
        <ele>466.20001220703</ele>
        <time>2019-10-05T15:29:59.000Z</time>
      </trkpt>
      <trkpt lat="46.35292" lon="6.15406">
        <ele>466.79998779297</ele>
        <time>2019-10-05T15:30:04.000Z</time>
      </trkpt>
      <trkpt lat="46.35282" lon="6.15369">
        <ele>466.60000610352</ele>
        <time>2019-10-05T15:30:08.000Z</time>
      </trkpt>
      <trkpt lat="46.35261" lon="6.15308">
        <ele>463.20001220703</ele>
        <time>2019-10-05T15:30:15.000Z</time>
      </trkpt>
      <trkpt lat="46.35233" lon="6.15255">
        <ele>465.79998779297</ele>
        <time>2019-10-05T15:30:22.000Z</time>
      </trkpt>
      <trkpt lat="46.35223" lon="6.15241">
        <ele>466</ele>
        <time>2019-10-05T15:30:24.000Z</time>
      </trkpt>
      <trkpt lat="46.35201" lon="6.15217">
        <ele>465.79998779297</ele>
        <time>2019-10-05T15:30:28.000Z</time>
      </trkpt>
      <trkpt lat="46.3516" lon="6.15182">
        <ele>464.20001220703</ele>
        <time>2019-10-05T15:30:35.000Z</time>
      </trkpt>
      <trkpt lat="46.35154" lon="6.15177">
        <ele>463.79998779297</ele>
        <time>2019-10-05T15:30:36.000Z</time>
      </trkpt>
      <trkpt lat="46.35105" lon="6.15139">
        <ele>463.79998779297</ele>
        <time>2019-10-05T15:30:44.000Z</time>
      </trkpt>
      <trkpt lat="46.35099" lon="6.15134">
        <ele>463.79998779297</ele>
        <time>2019-10-05T15:30:45.000Z</time>
      </trkpt>
      <trkpt lat="46.35051" lon="6.15095">
        <ele>465</ele>
        <time>2019-10-05T15:30:53.000Z</time>
      </trkpt>
      <trkpt lat="46.35044" lon="6.1509">
        <ele>465.39999389648</ele>
        <time>2019-10-05T15:30:54.000Z</time>
      </trkpt>
      <trkpt lat="46.34995" lon="6.15051">
        <ele>468.79998779297</ele>
        <time>2019-10-05T15:31:02.000Z</time>
      </trkpt>
      <trkpt lat="46.34946" lon="6.15012">
        <ele>469.60000610352</ele>
        <time>2019-10-05T15:31:10.000Z</time>
      </trkpt>
      <trkpt lat="46.34934" lon="6.15001">
        <ele>469.20001220703</ele>
        <time>2019-10-05T15:31:12.000Z</time>
      </trkpt>
      <trkpt lat="46.34899" lon="6.14969">
        <ele>468.39999389648</ele>
        <time>2019-10-05T15:31:18.000Z</time>
      </trkpt>
      <trkpt lat="46.34867" lon="6.14943">
        <ele>468.20001220703</ele>
        <time>2019-10-05T15:31:24.000Z</time>
      </trkpt>
      <trkpt lat="46.34857" lon="6.14916">
        <ele>469</ele>
        <time>2019-10-05T15:31:28.000Z</time>
      </trkpt>
      <trkpt lat="46.34861" lon="6.14893">
        <ele>470.20001220703</ele>
        <time>2019-10-05T15:31:31.000Z</time>
      </trkpt>
      <trkpt lat="46.34868" lon="6.14879">
        <ele>471.20001220703</ele>
        <time>2019-10-05T15:31:33.000Z</time>
      </trkpt>
      <trkpt lat="46.34879" lon="6.14859">
        <ele>472</ele>
        <time>2019-10-05T15:31:36.000Z</time>
      </trkpt>
      <trkpt lat="46.349" lon="6.14825">
        <ele>472.60000610352</ele>
        <time>2019-10-05T15:31:42.000Z</time>
      </trkpt>
      <trkpt lat="46.34903" lon="6.14822">
        <ele>472.20001220703</ele>
        <time>2019-10-05T15:31:43.000Z</time>
      </trkpt>
      <trkpt lat="46.34915" lon="6.14805">
        <ele>470.60000610352</ele>
        <time>2019-10-05T15:31:48.000Z</time>
      </trkpt>
      <trkpt lat="46.34918" lon="6.14802">
        <ele>470.20001220703</ele>
        <time>2019-10-05T15:31:49.000Z</time>
      </trkpt>
      <trkpt lat="46.34933" lon="6.14783">
        <ele>468</ele>
        <time>2019-10-05T15:31:53.000Z</time>
      </trkpt>
      <trkpt lat="46.34937" lon="6.14779">
        <ele>467.39999389648</ele>
        <time>2019-10-05T15:31:54.000Z</time>
      </trkpt>
      <trkpt lat="46.34954" lon="6.14772">
        <ele>466.39999389648</ele>
        <time>2019-10-05T15:31:57.000Z</time>
      </trkpt>
      <trkpt lat="46.34973" lon="6.14776">
        <ele>465.60000610352</ele>
        <time>2019-10-05T15:32:00.000Z</time>
      </trkpt>
      <trkpt lat="46.34979" lon="6.14779">
        <ele>465</ele>
        <time>2019-10-05T15:32:01.000Z</time>
      </trkpt>
      <trkpt lat="46.35016" lon="6.14795">
        <ele>463.60000610352</ele>
        <time>2019-10-05T15:32:07.000Z</time>
      </trkpt>
      <trkpt lat="46.35022" lon="6.14798">
        <ele>463.20001220703</ele>
        <time>2019-10-05T15:32:08.000Z</time>
      </trkpt>
      <trkpt lat="46.35061" lon="6.14818">
        <ele>462</ele>
        <time>2019-10-05T15:32:14.000Z</time>
      </trkpt>
      <trkpt lat="46.35088" lon="6.14818">
        <ele>464.39999389648</ele>
        <time>2019-10-05T15:32:18.000Z</time>
      </trkpt>
      <trkpt lat="46.35095" lon="6.14817">
        <ele>465.39999389648</ele>
        <time>2019-10-05T15:32:19.000Z</time>
      </trkpt>
      <trkpt lat="46.35107" lon="6.14811">
        <ele>468</ele>
        <time>2019-10-05T15:32:21.000Z</time>
      </trkpt>
      <trkpt lat="46.35116" lon="6.14803">
        <ele>470</ele>
        <time>2019-10-05T15:32:23.000Z</time>
      </trkpt>
      <trkpt lat="46.35128" lon="6.14792">
        <ele>472.60000610352</ele>
        <time>2019-10-05T15:32:27.000Z</time>
      </trkpt>
      <trkpt lat="46.35143" lon="6.14777">
        <ele>472.20001220703</ele>
        <time>2019-10-05T15:32:33.000Z</time>
      </trkpt>
      <trkpt lat="46.35146" lon="6.14768">
        <ele>472</ele>
        <time>2019-10-05T15:32:35.000Z</time>
      </trkpt>
      <trkpt lat="46.35152" lon="6.14758">
        <ele>471.60000610352</ele>
        <time>2019-10-05T15:32:37.000Z</time>
      </trkpt>
      <trkpt lat="46.35155" lon="6.14752">
        <ele>471.39999389648</ele>
        <time>2019-10-05T15:32:38.000Z</time>
      </trkpt>
      <trkpt lat="46.35169" lon="6.1473">
        <ele>471</ele>
        <time>2019-10-05T15:32:42.000Z</time>
      </trkpt>
      <trkpt lat="46.35177" lon="6.14718">
        <ele>471</ele>
        <time>2019-10-05T15:32:44.000Z</time>
      </trkpt>
      <trkpt lat="46.35195" lon="6.14694">
        <ele>471.60000610352</ele>
        <time>2019-10-05T15:32:48.000Z</time>
      </trkpt>
      <trkpt lat="46.35214" lon="6.14665">
        <ele>470.20001220703</ele>
        <time>2019-10-05T15:32:53.000Z</time>
      </trkpt>
      <trkpt lat="46.35233" lon="6.14635">
        <ele>469.39999389648</ele>
        <time>2019-10-05T15:32:59.000Z</time>
      </trkpt>
      <trkpt lat="46.35247" lon="6.14618">
        <ele>470.60000610352</ele>
        <time>2019-10-05T15:33:04.000Z</time>
      </trkpt>
      <trkpt lat="46.35257" lon="6.14619">
        <ele>471.20001220703</ele>
        <time>2019-10-05T15:33:07.000Z</time>
      </trkpt>
      <trkpt lat="46.3526" lon="6.1462">
        <ele>471.39999389648</ele>
        <time>2019-10-05T15:33:08.000Z</time>
      </trkpt>
      <trkpt lat="46.35267" lon="6.14627">
        <ele>471.60000610352</ele>
        <time>2019-10-05T15:33:10.000Z</time>
      </trkpt>
      <trkpt lat="46.35275" lon="6.14636">
        <ele>471.79998779297</ele>
        <time>2019-10-05T15:33:12.000Z</time>
      </trkpt>
      <trkpt lat="46.35279" lon="6.14641">
        <ele>472</ele>
        <time>2019-10-05T15:33:13.000Z</time>
      </trkpt>
      <trkpt lat="46.35284" lon="6.14645">
        <ele>472.20001220703</ele>
        <time>2019-10-05T15:33:14.000Z</time>
      </trkpt>
      <trkpt lat="46.35297" lon="6.14662">
        <ele>472.20001220703</ele>
        <time>2019-10-05T15:33:17.000Z</time>
      </trkpt>
      <trkpt lat="46.35301" lon="6.14669">
        <ele>472</ele>
        <time>2019-10-05T15:33:18.000Z</time>
      </trkpt>
      <trkpt lat="46.35322" lon="6.14702">
        <ele>471.60000610352</ele>
        <time>2019-10-05T15:33:23.000Z</time>
      </trkpt>
      <trkpt lat="46.35358" lon="6.14746">
        <ele>471</ele>
        <time>2019-10-05T15:33:31.000Z</time>
      </trkpt>
      <trkpt lat="46.35362" lon="6.14751">
        <ele>471</ele>
        <time>2019-10-05T15:33:32.000Z</time>
      </trkpt>
      <trkpt lat="46.35365" lon="6.14756">
        <ele>470.79998779297</ele>
        <time>2019-10-05T15:33:33.000Z</time>
      </trkpt>
      <trkpt lat="46.35374" lon="6.14769">
        <ele>470.39999389648</ele>
        <time>2019-10-05T15:33:36.000Z</time>
      </trkpt>
      <trkpt lat="46.35375" lon="6.14775">
        <ele>470</ele>
        <time>2019-10-05T15:33:37.000Z</time>
      </trkpt>
      <trkpt lat="46.3538" lon="6.14787">
        <ele>469.60000610352</ele>
        <time>2019-10-05T15:33:39.000Z</time>
      </trkpt>
      <trkpt lat="46.35388" lon="6.14798">
        <ele>469.39999389648</ele>
        <time>2019-10-05T15:33:41.000Z</time>
      </trkpt>
      <trkpt lat="46.35393" lon="6.14803">
        <ele>469.20001220703</ele>
        <time>2019-10-05T15:33:42.000Z</time>
      </trkpt>
      <trkpt lat="46.35402" lon="6.14813">
        <ele>469.20001220703</ele>
        <time>2019-10-05T15:33:44.000Z</time>
      </trkpt>
      <trkpt lat="46.35431" lon="6.14852">
        <ele>469.60000610352</ele>
        <time>2019-10-05T15:33:50.000Z</time>
      </trkpt>
      <trkpt lat="46.35463" lon="6.14893">
        <ele>470.39999389648</ele>
        <time>2019-10-05T15:33:56.000Z</time>
      </trkpt>
      <trkpt lat="46.35496" lon="6.14934">
        <ele>466.79998779297</ele>
        <time>2019-10-05T15:34:02.000Z</time>
      </trkpt>
      <trkpt lat="46.35501" lon="6.1494">
        <ele>466</ele>
        <time>2019-10-05T15:34:03.000Z</time>
      </trkpt>
      <trkpt lat="46.35518" lon="6.14958">
        <ele>464</ele>
        <time>2019-10-05T15:34:07.000Z</time>
      </trkpt>
      <trkpt lat="46.35533" lon="6.14976">
        <ele>462.20001220703</ele>
        <time>2019-10-05T15:34:12.000Z</time>
      </trkpt>
      <trkpt lat="46.35552" lon="6.14994">
        <ele>462</ele>
        <time>2019-10-05T15:34:16.000Z</time>
      </trkpt>
      <trkpt lat="46.35557" lon="6.14997">
        <ele>462</ele>
        <time>2019-10-05T15:34:17.000Z</time>
      </trkpt>
      <trkpt lat="46.35562" lon="6.15">
        <ele>462</ele>
        <time>2019-10-05T15:34:18.000Z</time>
      </trkpt>
      <trkpt lat="46.3557" lon="6.15">
        <ele>462</ele>
        <time>2019-10-05T15:34:20.000Z</time>
      </trkpt>
      <trkpt lat="46.35574" lon="6.14997">
        <ele>462</ele>
        <time>2019-10-05T15:34:21.000Z</time>
      </trkpt>
      <trkpt lat="46.35589" lon="6.15002">
        <ele>462</ele>
        <time>2019-10-05T15:34:24.000Z</time>
      </trkpt>
      <trkpt lat="46.35594" lon="6.15005">
        <ele>462.20001220703</ele>
        <time>2019-10-05T15:34:25.000Z</time>
      </trkpt>
      <trkpt lat="46.35611" lon="6.15014">
        <ele>463.39999389648</ele>
        <time>2019-10-05T15:34:28.000Z</time>
      </trkpt>
      <trkpt lat="46.35617" lon="6.15016">
        <ele>463.79998779297</ele>
        <time>2019-10-05T15:34:29.000Z</time>
      </trkpt>
      <trkpt lat="46.35622" lon="6.1502">
        <ele>464</ele>
        <time>2019-10-05T15:34:30.000Z</time>
      </trkpt>
      <trkpt lat="46.35631" lon="6.15031">
        <ele>463.79998779297</ele>
        <time>2019-10-05T15:34:33.000Z</time>
      </trkpt>
      <trkpt lat="46.35644" lon="6.15038">
        <ele>464.60000610352</ele>
        <time>2019-10-05T15:34:36.000Z</time>
      </trkpt>
      <trkpt lat="46.35649" lon="6.15041">
        <ele>464.79998779297</ele>
        <time>2019-10-05T15:34:37.000Z</time>
      </trkpt>
      <trkpt lat="46.35678" lon="6.15055">
        <ele>466.39999389648</ele>
        <time>2019-10-05T15:34:42.000Z</time>
      </trkpt>
      <trkpt lat="46.35684" lon="6.15057">
        <ele>467</ele>
        <time>2019-10-05T15:34:43.000Z</time>
      </trkpt>
      <trkpt lat="46.35717" lon="6.15069">
        <ele>469.39999389648</ele>
        <time>2019-10-05T15:34:48.000Z</time>
      </trkpt>
      <trkpt lat="46.35774" lon="6.15095">
        <ele>470.79998779297</ele>
        <time>2019-10-05T15:34:56.000Z</time>
      </trkpt>
      <trkpt lat="46.35818" lon="6.15112">
        <ele>470.20001220703</ele>
        <time>2019-10-05T15:35:02.000Z</time>
      </trkpt>
      <trkpt lat="46.3586" lon="6.15135">
        <ele>469.79998779297</ele>
        <time>2019-10-05T15:35:08.000Z</time>
      </trkpt>
      <trkpt lat="46.35866" lon="6.15139">
        <ele>469.79998779297</ele>
        <time>2019-10-05T15:35:09.000Z</time>
      </trkpt>
      <trkpt lat="46.35872" lon="6.15145">
        <ele>469.60000610352</ele>
        <time>2019-10-05T15:35:10.000Z</time>
      </trkpt>
      <trkpt lat="46.35888" lon="6.15164">
        <ele>470.20001220703</ele>
        <time>2019-10-05T15:35:13.000Z</time>
      </trkpt>
      <trkpt lat="46.35897" lon="6.15179">
        <ele>470.39999389648</ele>
        <time>2019-10-05T15:35:15.000Z</time>
      </trkpt>
      <trkpt lat="46.35904" lon="6.15196">
        <ele>470.60000610352</ele>
        <time>2019-10-05T15:35:17.000Z</time>
      </trkpt>
      <trkpt lat="46.35907" lon="6.15205">
        <ele>470.60000610352</ele>
        <time>2019-10-05T15:35:18.000Z</time>
      </trkpt>
      <trkpt lat="46.35911" lon="6.15233">
        <ele>470.79998779297</ele>
        <time>2019-10-05T15:35:21.000Z</time>
      </trkpt>
      <trkpt lat="46.35912" lon="6.15242">
        <ele>470.60000610352</ele>
        <time>2019-10-05T15:35:22.000Z</time>
      </trkpt>
      <trkpt lat="46.35913" lon="6.15289">
        <ele>470.60000610352</ele>
        <time>2019-10-05T15:35:27.000Z</time>
      </trkpt>
      <trkpt lat="46.35912" lon="6.15297">
        <ele>470.60000610352</ele>
        <time>2019-10-05T15:35:28.000Z</time>
      </trkpt>
      <trkpt lat="46.359" lon="6.15349">
        <ele>470</ele>
        <time>2019-10-05T15:35:34.000Z</time>
      </trkpt>
      <trkpt lat="46.35884" lon="6.15402">
        <ele>468.39999389648</ele>
        <time>2019-10-05T15:35:40.000Z</time>
      </trkpt>
      <trkpt lat="46.35881" lon="6.15411">
        <ele>468.20001220703</ele>
        <time>2019-10-05T15:35:41.000Z</time>
      </trkpt>
      <trkpt lat="46.35857" lon="6.15485">
        <ele>466.39999389648</ele>
        <time>2019-10-05T15:35:49.000Z</time>
      </trkpt>
      <trkpt lat="46.35851" lon="6.15504">
        <ele>466</ele>
        <time>2019-10-05T15:35:51.000Z</time>
      </trkpt>
      <trkpt lat="46.35845" lon="6.15524">
        <ele>465.79998779297</ele>
        <time>2019-10-05T15:35:53.000Z</time>
      </trkpt>
      <trkpt lat="46.35821" lon="6.15588">
        <ele>465.39999389648</ele>
        <time>2019-10-05T15:36:00.000Z</time>
      </trkpt>
      <trkpt lat="46.35801" lon="6.15618">
        <ele>464</ele>
        <time>2019-10-05T15:36:04.000Z</time>
      </trkpt>
      <trkpt lat="46.35795" lon="6.15625">
        <ele>463.60000610352</ele>
        <time>2019-10-05T15:36:05.000Z</time>
      </trkpt>
      <trkpt lat="46.35758" lon="6.15659">
        <ele>464.60000610352</ele>
        <time>2019-10-05T15:36:11.000Z</time>
      </trkpt>
      <trkpt lat="46.35723" lon="6.15676">
        <ele>464.39999389648</ele>
        <time>2019-10-05T15:36:16.000Z</time>
      </trkpt>
      <trkpt lat="46.35679" lon="6.15676">
        <ele>465</ele>
        <time>2019-10-05T15:36:22.000Z</time>
      </trkpt>
      <trkpt lat="46.35629" lon="6.15668">
        <ele>465.39999389648</ele>
        <time>2019-10-05T15:36:29.000Z</time>
      </trkpt>
      <trkpt lat="46.35622" lon="6.15667">
        <ele>465.60000610352</ele>
        <time>2019-10-05T15:36:30.000Z</time>
      </trkpt>
      <trkpt lat="46.35608" lon="6.15665">
        <ele>466</ele>
        <time>2019-10-05T15:36:32.000Z</time>
      </trkpt>
      <trkpt lat="46.35559" lon="6.15659">
        <ele>466.39999389648</ele>
        <time>2019-10-05T15:36:39.000Z</time>
      </trkpt>
      <trkpt lat="46.35502" lon="6.1565">
        <ele>464.60000610352</ele>
        <time>2019-10-05T15:36:47.000Z</time>
      </trkpt>
      <trkpt lat="46.35495" lon="6.15649">
        <ele>464.39999389648</ele>
        <time>2019-10-05T15:36:48.000Z</time>
      </trkpt>
      <trkpt lat="46.35445" lon="6.15643">
        <ele>465.39999389648</ele>
        <time>2019-10-05T15:36:55.000Z</time>
      </trkpt>
      <trkpt lat="46.35425" lon="6.15636">
        <ele>466</ele>
        <time>2019-10-05T15:36:58.000Z</time>
      </trkpt>
      <trkpt lat="46.35418" lon="6.15631">
        <ele>466.20001220703</ele>
        <time>2019-10-05T15:36:59.000Z</time>
      </trkpt>
      <trkpt lat="46.35405" lon="6.15623">
        <ele>466.79998779297</ele>
        <time>2019-10-05T15:37:01.000Z</time>
      </trkpt>
      <trkpt lat="46.35364" lon="6.15588">
        <ele>467</ele>
        <time>2019-10-05T15:37:08.000Z</time>
      </trkpt>
      <trkpt lat="46.35329" lon="6.15541">
        <ele>466.79998779297</ele>
        <time>2019-10-05T15:37:15.000Z</time>
      </trkpt>
      <trkpt lat="46.3532" lon="6.15516">
        <ele>466.39999389648</ele>
        <time>2019-10-05T15:37:18.000Z</time>
      </trkpt>
      <trkpt lat="46.35315" lon="6.15498">
        <ele>466.20001220703</ele>
        <time>2019-10-05T15:37:20.000Z</time>
      </trkpt>
      <trkpt lat="46.35302" lon="6.15452">
        <ele>466.39999389648</ele>
        <time>2019-10-05T15:37:25.000Z</time>
      </trkpt>
      <trkpt lat="46.35298" lon="6.15434">
        <ele>466.60000610352</ele>
        <time>2019-10-05T15:37:27.000Z</time>
      </trkpt>
      <trkpt lat="46.35281" lon="6.1537">
        <ele>466.79998779297</ele>
        <time>2019-10-05T15:37:34.000Z</time>
      </trkpt>
      <trkpt lat="46.35259" lon="6.15313">
        <ele>463.39999389648</ele>
        <time>2019-10-05T15:37:41.000Z</time>
      </trkpt>
      <trkpt lat="46.35239" lon="6.15272">
        <ele>465.20001220703</ele>
        <time>2019-10-05T15:37:47.000Z</time>
      </trkpt>
      <trkpt lat="46.35236" lon="6.15265">
        <ele>465.60000610352</ele>
        <time>2019-10-05T15:37:48.000Z</time>
      </trkpt>
      <trkpt lat="46.35225" lon="6.15243">
        <ele>466</ele>
        <time>2019-10-05T15:37:51.000Z</time>
      </trkpt>
      <trkpt lat="46.35219" lon="6.15237">
        <ele>466.20001220703</ele>
        <time>2019-10-05T15:37:52.000Z</time>
      </trkpt>
      <trkpt lat="46.35185" lon="6.15204">
        <ele>465.20001220703</ele>
        <time>2019-10-05T15:37:58.000Z</time>
      </trkpt>
      <trkpt lat="46.35172" lon="6.15196">
        <ele>464.79998779297</ele>
        <time>2019-10-05T15:38:00.000Z</time>
      </trkpt>
      <trkpt lat="46.35153" lon="6.15181">
        <ele>464.20001220703</ele>
        <time>2019-10-05T15:38:03.000Z</time>
      </trkpt>
      <trkpt lat="46.35103" lon="6.15143">
        <ele>464.20001220703</ele>
        <time>2019-10-05T15:38:11.000Z</time>
      </trkpt>
      <trkpt lat="46.35061" lon="6.15107">
        <ele>464.60000610352</ele>
        <time>2019-10-05T15:38:18.000Z</time>
      </trkpt>
      <trkpt lat="46.35021" lon="6.1507">
        <ele>466.60000610352</ele>
        <time>2019-10-05T15:38:25.000Z</time>
      </trkpt>
      <trkpt lat="46.34973" lon="6.1503">
        <ele>470.39999389648</ele>
        <time>2019-10-05T15:38:33.000Z</time>
      </trkpt>
      <trkpt lat="46.34967" lon="6.15025">
        <ele>470.20001220703</ele>
        <time>2019-10-05T15:38:34.000Z</time>
      </trkpt>
      <trkpt lat="46.34919" lon="6.14985">
        <ele>468.79998779297</ele>
        <time>2019-10-05T15:38:42.000Z</time>
      </trkpt>
      <trkpt lat="46.34892" lon="6.14963">
        <ele>468.39999389648</ele>
        <time>2019-10-05T15:38:47.000Z</time>
      </trkpt>
      <trkpt lat="46.34881" lon="6.14956">
        <ele>468.20001220703</ele>
        <time>2019-10-05T15:38:49.000Z</time>
      </trkpt>
      <trkpt lat="46.34851" lon="6.14935">
        <ele>468</ele>
        <time>2019-10-05T15:38:56.000Z</time>
      </trkpt>
      <trkpt lat="46.34836" lon="6.1492">
        <ele>468</ele>
        <time>2019-10-05T15:39:00.000Z</time>
      </trkpt>
      <trkpt lat="46.3481" lon="6.14899">
        <ele>468</ele>
        <time>2019-10-05T15:39:05.000Z</time>
      </trkpt>
      <trkpt lat="46.34787" lon="6.14879">
        <ele>467.60000610352</ele>
        <time>2019-10-05T15:39:10.000Z</time>
      </trkpt>
      <trkpt lat="46.34778" lon="6.14863">
        <ele>467.60000610352</ele>
        <time>2019-10-05T15:39:14.000Z</time>
      </trkpt>
      <trkpt lat="46.34779" lon="6.14853">
        <ele>467.79998779297</ele>
        <time>2019-10-05T15:39:18.000Z</time>
      </trkpt>
      <trkpt lat="46.34778" lon="6.14836">
        <ele>468.39999389648</ele>
        <time>2019-10-05T15:39:21.000Z</time>
      </trkpt>
      <trkpt lat="46.34776" lon="6.1483">
        <ele>468.39999389648</ele>
        <time>2019-10-05T15:39:22.000Z</time>
      </trkpt>
      <trkpt lat="46.34763" lon="6.14819">
        <ele>468.20001220703</ele>
        <time>2019-10-05T15:39:25.000Z</time>
      </trkpt>
      <trkpt lat="46.34746" lon="6.14822">
        <ele>467.20001220703</ele>
        <time>2019-10-05T15:39:28.000Z</time>
      </trkpt>
      <trkpt lat="46.34728" lon="6.14816">
        <ele>467</ele>
        <time>2019-10-05T15:39:31.000Z</time>
      </trkpt>
      <trkpt lat="46.34716" lon="6.14803">
        <ele>467.20001220703</ele>
        <time>2019-10-05T15:39:33.000Z</time>
      </trkpt>
      <trkpt lat="46.34707" lon="6.1479">
        <ele>467.20001220703</ele>
        <time>2019-10-05T15:39:35.000Z</time>
      </trkpt>
      <trkpt lat="46.34702" lon="6.14782">
        <ele>467.39999389648</ele>
        <time>2019-10-05T15:39:36.000Z</time>
      </trkpt>
      <trkpt lat="46.34678" lon="6.14745">
        <ele>468</ele>
        <time>2019-10-05T15:39:41.000Z</time>
      </trkpt>
      <trkpt lat="46.34673" lon="6.14738">
        <ele>468</ele>
        <time>2019-10-05T15:39:42.000Z</time>
      </trkpt>
      <trkpt lat="46.34637" lon="6.14687">
        <ele>468.20001220703</ele>
        <time>2019-10-05T15:39:49.000Z</time>
      </trkpt>
      <trkpt lat="46.34594" lon="6.14627">
        <ele>468.39999389648</ele>
        <time>2019-10-05T15:39:57.000Z</time>
      </trkpt>
      <trkpt lat="46.34552" lon="6.14568">
        <ele>469.39999389648</ele>
        <time>2019-10-05T15:40:05.000Z</time>
      </trkpt>
      <trkpt lat="46.3451" lon="6.14509">
        <ele>468.60000610352</ele>
        <time>2019-10-05T15:40:13.000Z</time>
      </trkpt>
      <trkpt lat="46.34469" lon="6.14451">
        <ele>467.60000610352</ele>
        <time>2019-10-05T15:40:21.000Z</time>
      </trkpt>
      <trkpt lat="46.34464" lon="6.14443">
        <ele>467.60000610352</ele>
        <time>2019-10-05T15:40:22.000Z</time>
      </trkpt>
      <trkpt lat="46.34436" lon="6.14398">
        <ele>467</ele>
        <time>2019-10-05T15:40:29.000Z</time>
      </trkpt>
      <trkpt lat="46.34437" lon="6.14374">
        <ele>466.79998779297</ele>
        <time>2019-10-05T15:40:32.000Z</time>
      </trkpt>
      <trkpt lat="46.34435" lon="6.14344">
        <ele>466.39999389648</ele>
        <time>2019-10-05T15:40:36.000Z</time>
      </trkpt>
      <trkpt lat="46.34422" lon="6.14339">
        <ele>466.39999389648</ele>
        <time>2019-10-05T15:40:39.000Z</time>
      </trkpt>
      <trkpt lat="46.34409" lon="6.1435">
        <ele>466.39999389648</ele>
        <time>2019-10-05T15:40:42.000Z</time>
      </trkpt>
      <trkpt lat="46.34404" lon="6.1435">
        <ele>466.39999389648</ele>
        <time>2019-10-05T15:40:43.000Z</time>
      </trkpt>
      <trkpt lat="46.34393" lon="6.14344">
        <ele>466.39999389648</ele>
        <time>2019-10-05T15:40:45.000Z</time>
      </trkpt>
      <trkpt lat="46.34384" lon="6.14333">
        <ele>466.60000610352</ele>
        <time>2019-10-05T15:40:47.000Z</time>
      </trkpt>
      <trkpt lat="46.34379" lon="6.14326">
        <ele>466.60000610352</ele>
        <time>2019-10-05T15:40:48.000Z</time>
      </trkpt>
      <trkpt lat="46.3437" lon="6.14313">
        <ele>466.60000610352</ele>
        <time>2019-10-05T15:40:50.000Z</time>
      </trkpt>
      <trkpt lat="46.34346" lon="6.14281">
        <ele>466.79998779297</ele>
        <time>2019-10-05T15:40:55.000Z</time>
      </trkpt>
      <trkpt lat="46.34304" lon="6.14222">
        <ele>466.79998779297</ele>
        <time>2019-10-05T15:41:04.000Z</time>
      </trkpt>
      <trkpt lat="46.34269" lon="6.14174">
        <ele>466.39999389648</ele>
        <time>2019-10-05T15:41:12.000Z</time>
      </trkpt>
      <trkpt lat="46.34261" lon="6.14163">
        <ele>466.39999389648</ele>
        <time>2019-10-05T15:41:14.000Z</time>
      </trkpt>
      <trkpt lat="46.34261" lon="6.14147">
        <ele>466.39999389648</ele>
        <time>2019-10-05T15:41:16.000Z</time>
      </trkpt>
      <trkpt lat="46.34263" lon="6.14138">
        <ele>466.39999389648</ele>
        <time>2019-10-05T15:41:17.000Z</time>
      </trkpt>
      <trkpt lat="46.34266" lon="6.14131">
        <ele>466.39999389648</ele>
        <time>2019-10-05T15:41:18.000Z</time>
      </trkpt>
      <trkpt lat="46.34269" lon="6.14123">
        <ele>466.39999389648</ele>
        <time>2019-10-05T15:41:19.000Z</time>
      </trkpt>
      <trkpt lat="46.34274" lon="6.14117">
        <ele>466.60000610352</ele>
        <time>2019-10-05T15:41:20.000Z</time>
      </trkpt>
      <trkpt lat="46.34288" lon="6.14096">
        <ele>466.60000610352</ele>
        <time>2019-10-05T15:41:23.000Z</time>
      </trkpt>
      <trkpt lat="46.34318" lon="6.14054">
        <ele>466.79998779297</ele>
        <time>2019-10-05T15:41:29.000Z</time>
      </trkpt>
      <trkpt lat="46.34356" lon="6.13996">
        <ele>466</ele>
        <time>2019-10-05T15:41:37.000Z</time>
      </trkpt>
      <trkpt lat="46.34369" lon="6.13974">
        <ele>465.79998779297</ele>
        <time>2019-10-05T15:41:40.000Z</time>
      </trkpt>
      <trkpt lat="46.34407" lon="6.13919">
        <ele>466.39999389648</ele>
        <time>2019-10-05T15:41:48.000Z</time>
      </trkpt>
      <trkpt lat="46.34449" lon="6.13858">
        <ele>467.20001220703</ele>
        <time>2019-10-05T15:41:57.000Z</time>
      </trkpt>
      <trkpt lat="46.34465" lon="6.13831">
        <ele>467.60000610352</ele>
        <time>2019-10-05T15:42:01.000Z</time>
      </trkpt>
      <trkpt lat="46.3447" lon="6.13826">
        <ele>467.79998779297</ele>
        <time>2019-10-05T15:42:02.000Z</time>
      </trkpt>
      <trkpt lat="46.34485" lon="6.13827">
        <ele>468</ele>
        <time>2019-10-05T15:42:05.000Z</time>
      </trkpt>
      <trkpt lat="46.34488" lon="6.13832">
        <ele>468</ele>
        <time>2019-10-05T15:42:06.000Z</time>
      </trkpt>
      <trkpt lat="46.34491" lon="6.13839">
        <ele>468.20001220703</ele>
        <time>2019-10-05T15:42:07.000Z</time>
      </trkpt>
      <trkpt lat="46.34497" lon="6.1385">
        <ele>468.20001220703</ele>
        <time>2019-10-05T15:42:09.000Z</time>
      </trkpt>
      <trkpt lat="46.34513" lon="6.13885">
        <ele>468.39999389648</ele>
        <time>2019-10-05T15:42:14.000Z</time>
      </trkpt>
      <trkpt lat="46.34516" lon="6.13901">
        <ele>468.39999389648</ele>
        <time>2019-10-05T15:42:16.000Z</time>
      </trkpt>
      <trkpt lat="46.34521" lon="6.13916">
        <ele>468.39999389648</ele>
        <time>2019-10-05T15:42:18.000Z</time>
      </trkpt>
      <trkpt lat="46.34541" lon="6.13949">
        <ele>468.79998779297</ele>
        <time>2019-10-05T15:42:23.000Z</time>
      </trkpt>
      <trkpt lat="46.34567" lon="6.13984">
        <ele>469</ele>
        <time>2019-10-05T15:42:29.000Z</time>
      </trkpt>
      <trkpt lat="46.34578" lon="6.14001">
        <ele>469.20001220703</ele>
        <time>2019-10-05T15:42:32.000Z</time>
      </trkpt>
      <trkpt lat="46.34586" lon="6.1401">
        <ele>469.20001220703</ele>
        <time>2019-10-05T15:42:34.000Z</time>
      </trkpt>
      <trkpt lat="46.34604" lon="6.14031">
        <ele>469.39999389648</ele>
        <time>2019-10-05T15:42:40.000Z</time>
      </trkpt>
      <trkpt lat="46.34606" lon="6.14033">
        <ele>469.60000610352</ele>
        <time>2019-10-05T15:42:46.000Z</time>
      </trkpt>
      <trkpt lat="46.34614" lon="6.14023">
        <ele>469.60000610352</ele>
        <time>2019-10-05T15:42:51.000Z</time>
      </trkpt>
      <trkpt lat="46.34626" lon="6.14007">
        <ele>469.79998779297</ele>
        <time>2019-10-05T15:42:56.000Z</time>
      </trkpt>
      <trkpt lat="46.34636" lon="6.13992">
        <ele>469.79998779297</ele>
        <time>2019-10-05T15:42:59.000Z</time>
      </trkpt>
      <trkpt lat="46.34643" lon="6.1398">
        <ele>470</ele>
        <time>2019-10-05T15:43:01.000Z</time>
      </trkpt>
      <trkpt lat="46.34648" lon="6.13975">
        <ele>470</ele>
        <time>2019-10-05T15:43:02.000Z</time>
      </trkpt>
      <trkpt lat="46.34669" lon="6.13944">
        <ele>470</ele>
        <time>2019-10-05T15:43:07.000Z</time>
      </trkpt>
      <trkpt lat="46.34687" lon="6.13917">
        <ele>470</ele>
        <time>2019-10-05T15:43:11.000Z</time>
      </trkpt>
      <trkpt lat="46.34701" lon="6.13896">
        <ele>470</ele>
        <time>2019-10-05T15:43:14.000Z</time>
      </trkpt>
      <trkpt lat="46.34711" lon="6.13882">
        <ele>469.79998779297</ele>
        <time>2019-10-05T15:43:16.000Z</time>
      </trkpt>
      <trkpt lat="46.34728" lon="6.13856">
        <ele>470</ele>
        <time>2019-10-05T15:43:20.000Z</time>
      </trkpt>
      <trkpt lat="46.34732" lon="6.13849">
        <ele>470</ele>
        <time>2019-10-05T15:43:21.000Z</time>
      </trkpt>
      <trkpt lat="46.34737" lon="6.13843">
        <ele>470</ele>
        <time>2019-10-05T15:43:22.000Z</time>
      </trkpt>
      <trkpt lat="46.34754" lon="6.13817">
        <ele>470</ele>
        <time>2019-10-05T15:43:26.000Z</time>
      </trkpt>
      <trkpt lat="46.34776" lon="6.13784">
        <ele>470.39999389648</ele>
        <time>2019-10-05T15:43:32.000Z</time>
      </trkpt>
      <trkpt lat="46.34789" lon="6.13764">
        <ele>470.60000610352</ele>
        <time>2019-10-05T15:43:37.000Z</time>
      </trkpt>
      <trkpt lat="46.34803" lon="6.13743">
        <ele>470.79998779297</ele>
        <time>2019-10-05T15:43:43.000Z</time>
      </trkpt>
      <trkpt lat="46.348" lon="6.13742">
        <ele>470.79998779297</ele>
        <time>2019-10-05T15:43:46.000Z</time>
      </trkpt>
      <trkpt lat="46.34798" lon="6.13746">
        <ele>470.79998779297</ele>
        <time>2019-10-05T15:43:48.000Z</time>
      </trkpt>
      <trkpt lat="46.34797" lon="6.13747">
        <ele>470.79998779297</ele>
        <time>2019-10-05T15:43:49.000Z</time>
      </trkpt>
      <trkpt lat="46.34796" lon="6.1375">
        <ele>470.79998779297</ele>
        <time>2019-10-05T15:43:50.000Z</time>
      </trkpt>
      <trkpt lat="46.34793" lon="6.13755">
        <ele>470.60000610352</ele>
        <time>2019-10-05T15:43:52.000Z</time>
      </trkpt>
      <trkpt lat="46.34787" lon="6.13764">
        <ele>470.60000610352</ele>
        <time>2019-10-05T15:43:56.000Z</time>
      </trkpt>
      <trkpt lat="46.34784" lon="6.13768">
        <ele>470.60000610352</ele>
        <time>2019-10-05T15:43:58.000Z</time>
      </trkpt>
      <trkpt lat="46.34773" lon="6.13781">
        <ele>470.39999389648</ele>
        <time>2019-10-05T15:44:05.000Z</time>
      </trkpt>
      <trkpt lat="46.34772" lon="6.13782">
        <ele>470.39999389648</ele>
        <time>2019-10-05T15:44:06.000Z</time>
      </trkpt>
      <trkpt lat="46.34773" lon="6.13785">
        <ele>470.39999389648</ele>
        <time>2019-10-05T15:44:09.000Z</time>
      </trkpt>
      <trkpt lat="46.34773" lon="6.13785">
        <ele>470.39999389648</ele>
        <time>2019-10-05T15:44:10.000Z</time>
      </trkpt>
      <trkpt lat="46.34775" lon="6.13781">
        <ele>470.39999389648</ele>
        <time>2019-10-05T15:44:12.000Z</time>
      </trkpt>
      <trkpt lat="46.34777" lon="6.13779">
        <ele>470.39999389648</ele>
        <time>2019-10-05T15:44:13.000Z</time>
      </trkpt>
      <trkpt lat="46.3478" lon="6.13774">
        <ele>470.39999389648</ele>
        <time>2019-10-05T15:44:15.000Z</time>
      </trkpt>
      <trkpt lat="46.34786" lon="6.13765">
        <ele>470.60000610352</ele>
        <time>2019-10-05T15:44:18.000Z</time>
      </trkpt>
      <trkpt lat="46.3479" lon="6.13759">
        <ele>470.60000610352</ele>
        <time>2019-10-05T15:44:20.000Z</time>
      </trkpt>
      <trkpt lat="46.34792" lon="6.13756">
        <ele>470.60000610352</ele>
        <time>2019-10-05T15:44:21.000Z</time>
      </trkpt>
      <trkpt lat="46.34794" lon="6.13749">
        <ele>470.79998779297</ele>
        <time>2019-10-05T15:44:23.000Z</time>
      </trkpt>
    </trkseg>
  </trk>
</gpx>